<?xml version='1.0' encoding='UTF-8'?><gpx version="1.1" creator="JPX - https://github.com/jenetics/jpx" xmlns="http://www.topografix.com/GPX/1/1"><trk><trkseg><trkpt lat="45.74864956653914" lon="8.527970124576672"><ele>293.0</ele><time>2026-04-18T08:20:23Z</time></trkpt><trkpt lat="45.74856041252965" lon="8.52789072438863"><ele>293.0</ele><time>2026-04-18T08:20:34Z</time></trkpt><trkpt lat="45.748515437160826" lon="8.52780626514562"><ele>293.0</ele><time>2026-04-18T08:20:36Z</time></trkpt><trkpt lat="45.74846703849319" lon="8.527716417322802"><ele>293.0</ele><time>2026-04-18T08:20:38Z</time></trkpt><trkpt lat="45.748429337754594" lon="8.527618811398243"><ele>293.0</ele><time>2026-04-18T08:20:40Z</time></trkpt><trkpt lat="45.748382529098144" lon="8.527514081351088"><ele>293.0</ele><time>2026-04-18T08:20:43Z</time></trkpt><trkpt lat="45.74831058355578" lon="8.527415366313733"><ele>293.1666666666667</ele><time>2026-04-18T08:20:46Z</time></trkpt><trkpt lat="45.7482725951359" lon="8.527336511133537"><ele>293.33333333333337</ele><time>2026-04-18T08:20:47Z</time></trkpt><trkpt lat="45.748221299549584" lon="8.527237730984337"><ele>293.5</ele><time>2026-04-18T08:20:48Z</time></trkpt><trkpt lat="45.74816064405638" lon="8.52727502723821"><ele>293.6666666666667</ele><time>2026-04-18T08:20:51Z</time></trkpt><trkpt lat="45.74821179302059" lon="8.527349415052962"><ele>293.8333333333333</ele><time>2026-04-18T08:20:53Z</time></trkpt><trkpt lat="45.748275834457274" lon="8.527404965424617"><ele>294.0</ele><time>2026-04-18T08:20:54Z</time></trkpt><trkpt lat="45.74833784251783" lon="8.527484130215015"><ele>294.0</ele><time>2026-04-18T08:20:55Z</time></trkpt><trkpt lat="45.7483858551862" lon="8.527578951751178"><ele>294.0</ele><time>2026-04-18T08:20:56Z</time></trkpt><trkpt lat="45.74842622493045" lon="8.527652813648878"><ele>294.0</ele><time>2026-04-18T08:20:58Z</time></trkpt><trkpt lat="45.74851926592092" lon="8.527598244764393"><ele>294.0</ele><time>2026-04-18T08:21:01Z</time></trkpt><trkpt lat="45.74855083383882" lon="8.527494998565212"><ele>294.0</ele><time>2026-04-18T08:21:02Z</time></trkpt><trkpt lat="45.7485897889894" lon="8.527340727544905"><ele>294.0</ele><time>2026-04-18T08:21:03Z</time></trkpt><trkpt lat="45.748625361875824" lon="8.527221061190163"><ele>294.0</ele><time>2026-04-18T08:21:04Z</time></trkpt><trkpt lat="45.74866319529546" lon="8.52712453173106"><ele>294.0</ele><time>2026-04-18T08:21:05Z</time></trkpt><trkpt lat="45.74870518283042" lon="8.527015995268645"><ele>294.0</ele><time>2026-04-18T08:21:06Z</time></trkpt><trkpt lat="45.74875235362106" lon="8.52688294326525"><ele>294.0</ele><time>2026-04-18T08:21:07Z</time></trkpt><trkpt lat="45.74880275544599" lon="8.526742721436488"><ele>294.0</ele><time>2026-04-18T08:21:08Z</time></trkpt><trkpt lat="45.748855477300424" lon="8.526616216994588"><ele>294.0</ele><time>2026-04-18T08:21:09Z</time></trkpt><trkpt lat="45.74890511772413" lon="8.526484239559922"><ele>294.0</ele><time>2026-04-18T08:21:10Z</time></trkpt><trkpt lat="45.748961681934844" lon="8.52634869791743"><ele>294.0</ele><time>2026-04-18T08:21:11Z</time></trkpt><trkpt lat="45.74902614389615" lon="8.526205097671909"><ele>294.0</ele><time>2026-04-18T08:21:12Z</time></trkpt><trkpt lat="45.74908516913411" lon="8.526055751971391"><ele>294.2</ele><time>2026-04-18T08:21:13Z</time></trkpt><trkpt lat="45.749143350501384" lon="8.525909977581438"><ele>294.4</ele><time>2026-04-18T08:21:14Z</time></trkpt><trkpt lat="45.74918867294477" lon="8.525769033465863"><ele>294.6</ele><time>2026-04-18T08:21:15Z</time></trkpt><trkpt lat="45.749230715756724" lon="8.525634478263711"><ele>294.8</ele><time>2026-04-18T08:21:16Z</time></trkpt><trkpt lat="45.74926222539316" lon="8.525493477055246"><ele>295.0</ele><time>2026-04-18T08:21:17Z</time></trkpt><trkpt lat="45.7492981336459" lon="8.525361590689732"><ele>295.0</ele><time>2026-04-18T08:21:18Z</time></trkpt><trkpt lat="45.749336230380095" lon="8.525233069511275"><ele>295.0</ele><time>2026-04-18T08:21:19Z</time></trkpt><trkpt lat="45.74938146619843" lon="8.52511338659533"><ele>295.0</ele><time>2026-04-18T08:21:20Z</time></trkpt><trkpt lat="45.749415622487085" lon="8.525003019857115"><ele>295.0</ele><time>2026-04-18T08:21:21Z</time></trkpt><trkpt lat="45.749463880882764" lon="8.524882400879697"><ele>295.0</ele><time>2026-04-18T08:21:22Z</time></trkpt><trkpt lat="45.74951971712377" lon="8.524764392214282"><ele>295.4</ele><time>2026-04-18T08:21:23Z</time></trkpt><trkpt lat="45.74957924903138" lon="8.524641929357468"><ele>295.8</ele><time>2026-04-18T08:21:24Z</time></trkpt><trkpt lat="45.74963859489486" lon="8.524521816588784"><ele>296.2</ele><time>2026-04-18T08:21:25Z</time></trkpt><trkpt lat="45.74970317371227" lon="8.524400948115057"><ele>296.6</ele><time>2026-04-18T08:21:26Z</time></trkpt><trkpt lat="45.74977048520548" lon="8.524287736812184"><ele>297.0</ele><time>2026-04-18T08:21:27Z</time></trkpt><trkpt lat="45.74984403709136" lon="8.524176187250218"><ele>297.0</ele><time>2026-04-18T08:21:28Z</time></trkpt><trkpt lat="45.7499172702422" lon="8.524059842948503"><ele>297.0</ele><time>2026-04-18T08:21:29Z</time></trkpt><trkpt lat="45.749993064758506" lon="8.523953511209156"><ele>297.0</ele><time>2026-04-18T08:21:30Z</time></trkpt><trkpt lat="45.75006828825916" lon="8.52384052176054"><ele>297.0</ele><time>2026-04-18T08:21:31Z</time></trkpt><trkpt lat="45.75014030388689" lon="8.523725610923783"><ele>297.0</ele><time>2026-04-18T08:21:32Z</time></trkpt><trkpt lat="45.75021006412496" lon="8.523604699892267"><ele>296.4</ele><time>2026-04-18T08:21:33Z</time></trkpt><trkpt lat="45.7502695071436" lon="8.52347744416416"><ele>295.79999999999995</ele><time>2026-04-18T08:21:34Z</time></trkpt><trkpt lat="45.750329069220896" lon="8.523341116928988"><ele>295.2</ele><time>2026-04-18T08:21:35Z</time></trkpt><trkpt lat="45.750384322317856" lon="8.523207529981905"><ele>294.59999999999997</ele><time>2026-04-18T08:21:36Z</time></trkpt><trkpt lat="45.750440472356445" lon="8.523081574243257"><ele>294.0</ele><time>2026-04-18T08:21:37Z</time></trkpt><trkpt lat="45.75049152840206" lon="8.522964947024784"><ele>295.25</ele><time>2026-04-18T08:21:38Z</time></trkpt><trkpt lat="45.75055527178372" lon="8.522844397427557"><ele>296.5</ele><time>2026-04-18T08:21:39Z</time></trkpt><trkpt lat="45.75061633756227" lon="8.522712508271347"><ele>297.75</ele><time>2026-04-18T08:21:40Z</time></trkpt><trkpt lat="45.75068339591039" lon="8.522576010188354"><ele>299.0</ele><time>2026-04-18T08:21:41Z</time></trkpt><trkpt lat="45.750750764857926" lon="8.522436634849416"><ele>299.0</ele><time>2026-04-18T08:21:42Z</time></trkpt><trkpt lat="45.75081773245737" lon="8.522290701662953"><ele>299.0</ele><time>2026-04-18T08:21:43Z</time></trkpt><trkpt lat="45.75093197322946" lon="8.521985247211461"><ele>299.0</ele><time>2026-04-18T08:21:45Z</time></trkpt><trkpt lat="45.750969539440646" lon="8.521813914890272"><ele>300.5</ele><time>2026-04-18T08:21:45.999Z</time></trkpt><trkpt lat="45.75098272337845" lon="8.521628275033988"><ele>302.0</ele><time>2026-04-18T08:21:46.999Z</time></trkpt><trkpt lat="45.75096582919409" lon="8.521432699625624"><ele>303.5</ele><time>2026-04-18T08:21:47.999Z</time></trkpt><trkpt lat="45.75094304045678" lon="8.521242463916508"><ele>305.0</ele><time>2026-04-18T08:21:48.999Z</time></trkpt><trkpt lat="45.75092141747978" lon="8.521039669098855"><ele>305.0</ele><time>2026-04-18T08:21:49.999Z</time></trkpt><trkpt lat="45.7509072875011" lon="8.520825804655571"><ele>305.0</ele><time>2026-04-18T08:21:50.999Z</time></trkpt><trkpt lat="45.75089218111016" lon="8.520585940747827"><ele>305.0</ele><time>2026-04-18T08:21:51.999Z</time></trkpt><trkpt lat="45.75087825498705" lon="8.520328085052821"><ele>305.75</ele><time>2026-04-18T08:21:52.999Z</time></trkpt><trkpt lat="45.750866724386995" lon="8.52010504870415"><ele>306.5</ele><time>2026-04-18T08:21:53.999Z</time></trkpt><trkpt lat="45.750851950393475" lon="8.519916749500776"><ele>307.25</ele><time>2026-04-18T08:21:54.999Z</time></trkpt><trkpt lat="45.75083573942527" lon="8.519749512549518"><ele>308.0</ele><time>2026-04-18T08:21:55.999Z</time></trkpt><trkpt lat="45.75079986199668" lon="8.519610251584112"><ele>310.5</ele><time>2026-04-18T08:21:56.999Z</time></trkpt><trkpt lat="45.750741553080566" lon="8.519489782672766"><ele>313.0</ele><time>2026-04-18T08:21:57.999Z</time></trkpt><trkpt lat="45.750701596671256" lon="8.519352028546454"><ele>315.5</ele><time>2026-04-18T08:21:58.999Z</time></trkpt><trkpt lat="45.75055526224275" lon="8.519380242491607"><ele>318.0</ele><time>2026-04-18T08:21:59.999Z</time></trkpt><trkpt lat="45.75044264469676" lon="8.519392815966137"><ele>318.0</ele><time>2026-04-18T08:22:00.999Z</time></trkpt><trkpt lat="45.750333786099496" lon="8.519431987869675"><ele>318.0</ele><time>2026-04-18T08:22:01.999Z</time></trkpt><trkpt lat="45.75021935458523" lon="8.519463315953953"><ele>318.0</ele><time>2026-04-18T08:22:02.999Z</time></trkpt><trkpt lat="45.750101606667066" lon="8.519482349894815"><ele>318.0</ele><time>2026-04-18T08:22:03.999Z</time></trkpt><trkpt lat="45.74998216679776" lon="8.519497064223243"><ele>318.4</ele><time>2026-04-18T08:22:04.999Z</time></trkpt><trkpt lat="45.749872749450695" lon="8.519512697178385"><ele>318.8</ele><time>2026-04-18T08:22:05.999Z</time></trkpt><trkpt lat="45.74976396696538" lon="8.519533537177063"><ele>319.2</ele><time>2026-04-18T08:22:06.999Z</time></trkpt><trkpt lat="45.74966775211291" lon="8.519551817356218"><ele>319.6</ele><time>2026-04-18T08:22:07.999Z</time></trkpt><trkpt lat="45.74958271302955" lon="8.51955020500713"><ele>320.0</ele><time>2026-04-18T08:22:08.999Z</time></trkpt><trkpt lat="45.74950714460852" lon="8.519499236032123"><ele>320.0</ele><time>2026-04-18T08:22:09.999Z</time></trkpt><trkpt lat="45.74944546104033" lon="8.519381865936442"><ele>320.0</ele><time>2026-04-18T08:22:10.999Z</time></trkpt><trkpt lat="45.74942765866747" lon="8.519225181901916"><ele>320.0</ele><time>2026-04-18T08:22:11.999Z</time></trkpt><trkpt lat="45.74946441721008" lon="8.519064283690772"><ele>320.0</ele><time>2026-04-18T08:22:12.999Z</time></trkpt><trkpt lat="45.74956001811809" lon="8.518972310955288"><ele>320.0</ele><time>2026-04-18T08:22:13.999Z</time></trkpt><trkpt lat="45.74966180898136" lon="8.518943392708938"><ele>320.0</ele><time>2026-04-18T08:22:14.999Z</time></trkpt><trkpt lat="45.74975555271384" lon="8.518881530170365"><ele>320.0</ele><time>2026-04-18T08:22:15.999Z</time></trkpt><trkpt lat="45.74985125955507" lon="8.51882510880725"><ele>320.0</ele><time>2026-04-18T08:22:16.999Z</time></trkpt><trkpt lat="45.74992606001271" lon="8.518715078776"><ele>320.0</ele><time>2026-04-18T08:22:17.999Z</time></trkpt><trkpt lat="45.74996609756953" lon="8.518564286172175"><ele>320.0</ele><time>2026-04-18T08:22:18.999Z</time></trkpt><trkpt lat="45.74996717796941" lon="8.518393457436494"><ele>321.75</ele><time>2026-04-18T08:22:19.999Z</time></trkpt><trkpt lat="45.74993958620872" lon="8.518219302020121"><ele>323.5</ele><time>2026-04-18T08:22:20.999Z</time></trkpt><trkpt lat="45.749901157131234" lon="8.518051205138505"><ele>325.25</ele><time>2026-04-18T08:22:21.999Z</time></trkpt><trkpt lat="45.74986780278401" lon="8.517880706644725"><ele>327.0</ele><time>2026-04-18T08:22:22.999Z</time></trkpt><trkpt lat="45.749834920025705" lon="8.517708412122353"><ele>328.0</ele><time>2026-04-18T08:22:23.999Z</time></trkpt><trkpt lat="45.74979632353327" lon="8.517545075827474"><ele>329.0</ele><time>2026-04-18T08:22:24.999Z</time></trkpt><trkpt lat="45.74974946223498" lon="8.517435035430491"><ele>330.0</ele><time>2026-04-18T08:22:25.999Z</time></trkpt><trkpt lat="45.7497166891161" lon="8.51732461387558"><ele>331.0</ele><time>2026-04-18T08:22:26.999Z</time></trkpt><trkpt lat="45.74969202195212" lon="8.51724144620198"><ele>332.0</ele><time>2026-04-18T08:22:27.999Z</time></trkpt><trkpt lat="45.74965080460944" lon="8.517331722430479"><ele>333.0</ele><time>2026-04-18T08:22:32.999Z</time></trkpt><trkpt lat="45.749268674400646" lon="8.517539013537144"><ele>333.0</ele><time>2026-04-18T08:22:33.999Z</time></trkpt><trkpt lat="45.74928721064897" lon="8.517696688116958"><ele>333.0</ele><time>2026-04-18T08:22:35.999Z</time></trkpt><trkpt lat="45.74929940747908" lon="8.51780044484239"><ele>333.0</ele><time>2026-04-18T08:22:38.999Z</time></trkpt><trkpt lat="45.749707982827104" lon="8.518206481012124"><ele>331.5</ele><time>2026-04-18T08:22:39.999Z</time></trkpt><trkpt lat="45.74992818173434" lon="8.518206695309011"><ele>330.0</ele><time>2026-04-18T08:22:41.999Z</time></trkpt><trkpt lat="45.75003722252819" lon="8.518203515796623"><ele>328.5</ele><time>2026-04-18T08:22:43.999Z</time></trkpt><trkpt lat="45.75012576152299" lon="8.518115954126147"><ele>327.0</ele><time>2026-04-18T08:22:44.999Z</time></trkpt><trkpt lat="45.75018873219955" lon="8.518101333224942"><ele>327.0</ele><time>2026-04-18T08:22:45.999Z</time></trkpt><trkpt lat="45.75030874816631" lon="8.518070225889263"><ele>327.0</ele><time>2026-04-18T08:22:47.999Z</time></trkpt><trkpt lat="45.75041086523833" lon="8.51805072619113"><ele>327.0</ele><time>2026-04-18T08:22:49.999Z</time></trkpt><trkpt lat="45.750482728740586" lon="8.518073715021663"><ele>327.0</ele><time>2026-04-18T08:22:50.999Z</time></trkpt><trkpt lat="45.75055719202764" lon="8.518053642748505"><ele>327.0</ele><time>2026-04-18T08:22:51.999Z</time></trkpt><trkpt lat="45.7506276489399" lon="8.51808807602386"><ele>327.0</ele><time>2026-04-18T08:22:52.999Z</time></trkpt><trkpt lat="45.75069738498435" lon="8.518112132408612"><ele>327.0</ele><time>2026-04-18T08:22:53.999Z</time></trkpt><trkpt lat="45.75076581925638" lon="8.518145864099006"><ele>327.0</ele><time>2026-04-18T08:22:54.999Z</time></trkpt><trkpt lat="45.750841424914526" lon="8.51812195199911"><ele>327.0</ele><time>2026-04-18T08:22:55.999Z</time></trkpt><trkpt lat="45.75091417764387" lon="8.51814681684905"><ele>327.0</ele><time>2026-04-18T08:22:56.999Z</time></trkpt><trkpt lat="45.750991924662074" lon="8.518158159066653"><ele>327.0</ele><time>2026-04-18T08:22:57.999Z</time></trkpt><trkpt lat="45.75105724222365" lon="8.518149591661654"><ele>327.0</ele><time>2026-04-18T08:22:58.999Z</time></trkpt><trkpt lat="45.7511236003616" lon="8.51813340723733"><ele>327.0</ele><time>2026-04-18T08:22:59.999Z</time></trkpt><trkpt lat="45.75119568910097" lon="8.518144465706792"><ele>327.6</ele><time>2026-04-18T08:23:00.999Z</time></trkpt><trkpt lat="45.75127780856536" lon="8.518098518050065"><ele>328.20000000000005</ele><time>2026-04-18T08:23:01.999Z</time></trkpt><trkpt lat="45.75135817051802" lon="8.518042920104886"><ele>328.8</ele><time>2026-04-18T08:23:02.999Z</time></trkpt><trkpt lat="45.75145041405685" lon="8.51795467087281"><ele>329.4</ele><time>2026-04-18T08:23:03.999Z</time></trkpt><trkpt lat="45.75153233614663" lon="8.51784366653642"><ele>330.0</ele><time>2026-04-18T08:23:04.999Z</time></trkpt><trkpt lat="45.75162428151214" lon="8.51771516408932"><ele>330.0</ele><time>2026-04-18T08:23:05.999Z</time></trkpt><trkpt lat="45.751710525575035" lon="8.517581101397393"><ele>330.0</ele><time>2026-04-18T08:23:06.999Z</time></trkpt><trkpt lat="45.75180238278839" lon="8.51746708919406"><ele>330.0</ele><time>2026-04-18T08:23:07.999Z</time></trkpt><trkpt lat="45.75189047260344" lon="8.517338202841065"><ele>330.0</ele><time>2026-04-18T08:23:08.999Z</time></trkpt><trkpt lat="45.75197151255125" lon="8.51720882486663"><ele>329.75</ele><time>2026-04-18T08:23:09.999Z</time></trkpt><trkpt lat="45.752058832287865" lon="8.51708069055458"><ele>329.5</ele><time>2026-04-18T08:23:10.999Z</time></trkpt><trkpt lat="45.752139105712345" lon="8.516961079896078"><ele>329.25</ele><time>2026-04-18T08:23:11.999Z</time></trkpt><trkpt lat="45.75222591174715" lon="8.516832863940648"><ele>329.0</ele><time>2026-04-18T08:23:12.999Z</time></trkpt><trkpt lat="45.752312985513356" lon="8.516716920919789"><ele>329.0</ele><time>2026-04-18T08:23:13.999Z</time></trkpt><trkpt lat="45.75240468915067" lon="8.516607564287868"><ele>329.0</ele><time>2026-04-18T08:23:14.999Z</time></trkpt><trkpt lat="45.752483065682725" lon="8.516507575935053"><ele>329.0</ele><time>2026-04-18T08:23:15.999Z</time></trkpt><trkpt lat="45.75254796334931" lon="8.516415370855555"><ele>329.0</ele><time>2026-04-18T08:23:16.999Z</time></trkpt><trkpt lat="45.75261699813756" lon="8.51634033039023"><ele>329.0</ele><time>2026-04-18T08:23:17.999Z</time></trkpt><trkpt lat="45.75267154285863" lon="8.51627981844242"><ele>329.0</ele><time>2026-04-18T08:23:18.999Z</time></trkpt><trkpt lat="45.75275773370796" lon="8.516201124088404"><ele>329.0</ele><time>2026-04-18T08:23:20.999Z</time></trkpt><trkpt lat="45.75268032928356" lon="8.516237269425162"><ele>329.0</ele><time>2026-04-18T08:23:26.999Z</time></trkpt><trkpt lat="45.75261958599247" lon="8.51632124967503"><ele>329.0</ele><time>2026-04-18T08:23:27.999Z</time></trkpt><trkpt lat="45.75251422199328" lon="8.516483290861434"><ele>329.0</ele><time>2026-04-18T08:23:28.999Z</time></trkpt><trkpt lat="45.75243104547089" lon="8.516599392905544"><ele>329.0</ele><time>2026-04-18T08:23:29.999Z</time></trkpt><trkpt lat="45.752348363164415" lon="8.516716358669518"><ele>329.0</ele><time>2026-04-18T08:23:30.999Z</time></trkpt><trkpt lat="45.752261337360466" lon="8.516848757501531"><ele>329.0</ele><time>2026-04-18T08:23:31.999Z</time></trkpt><trkpt lat="45.7521599945835" lon="8.516998717169631"><ele>329.0</ele><time>2026-04-18T08:23:32.999Z</time></trkpt><trkpt lat="45.7520737807534" lon="8.51712562287023"><ele>329.25</ele><time>2026-04-18T08:23:33.999Z</time></trkpt><trkpt lat="45.75198109698649" lon="8.51723558760298"><ele>329.5</ele><time>2026-04-18T08:23:34.999Z</time></trkpt><trkpt lat="45.75190550732047" lon="8.517368897072155"><ele>329.75</ele><time>2026-04-18T08:23:35.999Z</time></trkpt><trkpt lat="45.751810991123044" lon="8.517486267819896"><ele>330.0</ele><time>2026-04-18T08:23:36.999Z</time></trkpt><trkpt lat="45.75172716987036" lon="8.517636325482997"><ele>330.0</ele><time>2026-04-18T08:23:37.999Z</time></trkpt><trkpt lat="45.75164730145061" lon="8.517765419745814"><ele>330.0</ele><time>2026-04-18T08:23:38.999Z</time></trkpt><trkpt lat="45.75155275578214" lon="8.517867836474231"><ele>330.0</ele><time>2026-04-18T08:23:39.999Z</time></trkpt><trkpt lat="45.75146999937576" lon="8.517941546011643"><ele>330.0</ele><time>2026-04-18T08:23:40.999Z</time></trkpt><trkpt lat="45.751386166608675" lon="8.518022754119459"><ele>330.0</ele><time>2026-04-18T08:23:41.999Z</time></trkpt><trkpt lat="45.75129787847607" lon="8.518089113975204"><ele>329.5</ele><time>2026-04-18T08:23:42.999Z</time></trkpt><trkpt lat="45.75120416929772" lon="8.51812658614244"><ele>329.0</ele><time>2026-04-18T08:23:43.999Z</time></trkpt><trkpt lat="45.75112629552125" lon="8.518138399884004"><ele>328.5</ele><time>2026-04-18T08:23:44.999Z</time></trkpt><trkpt lat="45.751060261492015" lon="8.51814951178841"><ele>328.0</ele><time>2026-04-18T08:23:45.999Z</time></trkpt><trkpt lat="45.75098847259837" lon="8.518160362165313"><ele>327.5</ele><time>2026-04-18T08:23:46.999Z</time></trkpt><trkpt lat="45.75090757382611" lon="8.518144673706098"><ele>327.0</ele><time>2026-04-18T08:23:47.999Z</time></trkpt><trkpt lat="45.75082320625024" lon="8.518121319829762"><ele>327.0</ele><time>2026-04-18T08:23:48.999Z</time></trkpt><trkpt lat="45.75077110699636" lon="8.518069966412487"><ele>327.0</ele><time>2026-04-18T08:23:49.999Z</time></trkpt><trkpt lat="45.7508588030849" lon="8.518037968880915"><ele>327.0</ele><time>2026-04-18T08:23:56.999Z</time></trkpt><trkpt lat="45.75094579529214" lon="8.518058012631657"><ele>327.0</ele><time>2026-04-18T08:23:58.999Z</time></trkpt><trkpt lat="45.751043943675256" lon="8.518012883984559"><ele>327.0</ele><time>2026-04-18T08:24:00.999Z</time></trkpt><trkpt lat="45.751116396875176" lon="8.517895732962575"><ele>327.5</ele><time>2026-04-18T08:24:02.999Z</time></trkpt><trkpt lat="45.75114412954835" lon="8.517810441596076"><ele>328.0</ele><time>2026-04-18T08:24:03.999Z</time></trkpt><trkpt lat="45.75118726554567" lon="8.517726792090897"><ele>328.5</ele><time>2026-04-18T08:24:04.999Z</time></trkpt><trkpt lat="45.75121488720468" lon="8.517633940551828"><ele>329.0</ele><time>2026-04-18T08:24:05.999Z</time></trkpt><trkpt lat="45.751232516779396" lon="8.517539853491666"><ele>329.5</ele><time>2026-04-18T08:24:06.999Z</time></trkpt><trkpt lat="45.75128001760135" lon="8.51737947264727"><ele>330.0</ele><time>2026-04-18T08:24:08.999Z</time></trkpt><trkpt lat="45.75131271256149" lon="8.517243794513664"><ele>330.0</ele><time>2026-04-18T08:24:10.999Z</time></trkpt><trkpt lat="45.751343702696026" lon="8.517144210192487"><ele>330.0</ele><time>2026-04-18T08:24:12.999Z</time></trkpt><trkpt lat="45.75136224160549" lon="8.517038150812397"><ele>330.0</ele><time>2026-04-18T08:24:15.999Z</time></trkpt><trkpt lat="45.75135433612192" lon="8.516948518664233"><ele>330.0</ele><time>2026-04-18T08:24:16.999Z</time></trkpt><trkpt lat="45.75135370637799" lon="8.516792655257438"><ele>330.0</ele><time>2026-04-18T08:24:18.999Z</time></trkpt><trkpt lat="45.75134060372542" lon="8.516646387815141"><ele>330.0</ele><time>2026-04-18T08:24:20.999Z</time></trkpt><trkpt lat="45.75131466755476" lon="8.516485073098389"><ele>332.8</ele><time>2026-04-18T08:24:22.999Z</time></trkpt><trkpt lat="45.75128838540365" lon="8.516390077071332"><ele>335.6</ele><time>2026-04-18T08:24:23.999Z</time></trkpt><trkpt lat="45.751267580622546" lon="8.516300522154692"><ele>338.4</ele><time>2026-04-18T08:24:26.999Z</time></trkpt><trkpt lat="45.75131217269776" lon="8.516408374073206"><ele>341.2</ele><time>2026-04-18T08:24:32.999Z</time></trkpt><trkpt lat="45.75145659789136" lon="8.516454209390456"><ele>344.0</ele><time>2026-04-18T08:24:34.999Z</time></trkpt><trkpt lat="45.75151973923511" lon="8.516544418201793"><ele>344.0</ele><time>2026-04-18T08:24:37.999Z</time></trkpt><trkpt lat="45.75160606023361" lon="8.516588160821215"><ele>344.0</ele><time>2026-04-18T08:24:39.999Z</time></trkpt><trkpt lat="45.751684950830246" lon="8.516595151250039"><ele>344.0</ele><time>2026-04-18T08:24:41.999Z</time></trkpt><trkpt lat="45.75179339173911" lon="8.516609972108041"><ele>344.0</ele><time>2026-04-18T08:24:43.999Z</time></trkpt><trkpt lat="45.75185577535712" lon="8.516534767028517"><ele>344.0</ele><time>2026-04-18T08:24:45.999Z</time></trkpt><trkpt lat="45.75191210833501" lon="8.516425642220945"><ele>343.83333333333337</ele><time>2026-04-18T08:24:46.999Z</time></trkpt><trkpt lat="45.751976913386116" lon="8.51635967499228"><ele>343.6666666666667</ele><time>2026-04-18T08:24:47.999Z</time></trkpt><trkpt lat="45.75202262751348" lon="8.516269403517782"><ele>343.5</ele><time>2026-04-18T08:24:48.999Z</time></trkpt><trkpt lat="45.75206170748159" lon="8.516190320378719"><ele>343.3333333333333</ele><time>2026-04-18T08:24:49.999Z</time></trkpt><trkpt lat="45.75210815941468" lon="8.516090322660357"><ele>343.16666666666663</ele><time>2026-04-18T08:24:50.999Z</time></trkpt><trkpt lat="45.75217942108551" lon="8.516009459952432"><ele>343.0</ele><time>2026-04-18T08:24:52.999Z</time></trkpt><trkpt lat="45.75226067649014" lon="8.515966071973418"><ele>343.0</ele><time>2026-04-18T08:24:54.999Z</time></trkpt><trkpt lat="45.752333556019444" lon="8.515882965346428"><ele>343.0</ele><time>2026-04-18T08:24:56.999Z</time></trkpt><trkpt lat="45.752429522377675" lon="8.515866870242016"><ele>343.0</ele><time>2026-04-18T08:24:58.999Z</time></trkpt><trkpt lat="45.752541993174134" lon="8.515757669398445"><ele>343.0</ele><time>2026-04-18T08:25:00.999Z</time></trkpt><trkpt lat="45.75259588997741" lon="8.515708880919854"><ele>343.0</ele><time>2026-04-18T08:25:01.999Z</time></trkpt><trkpt lat="45.75266780081329" lon="8.515642658329389"><ele>342.3333333333333</ele><time>2026-04-18T08:25:04Z</time></trkpt><trkpt lat="45.75276889998568" lon="8.515574158708043"><ele>341.66666666666663</ele><time>2026-04-18T08:25:06Z</time></trkpt><trkpt lat="45.75284804407444" lon="8.515541863145287"><ele>341.0</ele><time>2026-04-18T08:25:08Z</time></trkpt><trkpt lat="45.75290824304477" lon="8.515502737295323"><ele>340.3333333333333</ele><time>2026-04-18T08:25:10Z</time></trkpt><trkpt lat="45.75296753350881" lon="8.515472268942283"><ele>339.6666666666667</ele><time>2026-04-18T08:25:11Z</time></trkpt><trkpt lat="45.753026216960585" lon="8.515411055729905"><ele>339.0</ele><time>2026-04-18T08:25:12Z</time></trkpt><trkpt lat="45.7530935765123" lon="8.51535679635159"><ele>339.0</ele><time>2026-04-18T08:25:13Z</time></trkpt><trkpt lat="45.753142068876734" lon="8.515299205403737"><ele>339.0</ele><time>2026-04-18T08:25:14Z</time></trkpt><trkpt lat="45.75322345969532" lon="8.515242230872301"><ele>339.0</ele><time>2026-04-18T08:25:15Z</time></trkpt><trkpt lat="45.75329088945052" lon="8.515212386439059"><ele>339.0</ele><time>2026-04-18T08:25:16Z</time></trkpt><trkpt lat="45.75335808613906" lon="8.51509459073227"><ele>339.0</ele><time>2026-04-18T08:25:18Z</time></trkpt><trkpt lat="45.75346630839073" lon="8.515021480449578"><ele>335.2</ele><time>2026-04-18T08:25:20Z</time></trkpt><trkpt lat="45.75355552526531" lon="8.51498850354836"><ele>331.4</ele><time>2026-04-18T08:25:21Z</time></trkpt><trkpt lat="45.753694737944606" lon="8.514939101845096"><ele>327.6</ele><time>2026-04-18T08:25:23Z</time></trkpt><trkpt lat="45.75377508335256" lon="8.514885831465495"><ele>323.8</ele><time>2026-04-18T08:25:24Z</time></trkpt><trkpt lat="45.75384346461257" lon="8.51484542570119"><ele>320.0</ele><time>2026-04-18T08:25:25Z</time></trkpt><trkpt lat="45.75390974937362" lon="8.514796704211056"><ele>320.0</ele><time>2026-04-18T08:25:27Z</time></trkpt><trkpt lat="45.75401800360972" lon="8.51487389659264"><ele>320.0</ele><time>2026-04-18T08:25:28Z</time></trkpt><trkpt lat="45.75406703540107" lon="8.514810966022726"><ele>320.0</ele><time>2026-04-18T08:25:31Z</time></trkpt><trkpt lat="45.75413665292528" lon="8.514760965356277"><ele>320.0</ele><time>2026-04-18T08:25:34Z</time></trkpt><trkpt lat="45.754195995234596" lon="8.514661735127644"><ele>320.0</ele><time>2026-04-18T08:25:36Z</time></trkpt><trkpt lat="45.75427856949867" lon="8.514557665495785"><ele>319.0</ele><time>2026-04-18T08:25:38Z</time></trkpt><trkpt lat="45.75433960704561" lon="8.514478247031969"><ele>318.0</ele><time>2026-04-18T08:25:39Z</time></trkpt><trkpt lat="45.754402137012484" lon="8.514399358073387"><ele>317.0</ele><time>2026-04-18T08:25:40Z</time></trkpt><trkpt lat="45.754466069658235" lon="8.51431808458146"><ele>316.0</ele><time>2026-04-18T08:25:41Z</time></trkpt><trkpt lat="45.75451969344104" lon="8.514243053208805"><ele>315.0</ele><time>2026-04-18T08:25:42Z</time></trkpt><trkpt lat="45.75457327234472" lon="8.514171897834819"><ele>314.0</ele><time>2026-04-18T08:25:43Z</time></trkpt><trkpt lat="45.75466014172726" lon="8.514076543865947"><ele>314.0</ele><time>2026-04-18T08:25:45Z</time></trkpt><trkpt lat="45.754704977523396" lon="8.513994793740832"><ele>314.0</ele><time>2026-04-18T08:25:47Z</time></trkpt><trkpt lat="45.75475891084322" lon="8.513880043714028"><ele>314.0</ele><time>2026-04-18T08:25:50Z</time></trkpt><trkpt lat="45.7548035611684" lon="8.513794565741465"><ele>314.0</ele><time>2026-04-18T08:25:53Z</time></trkpt><trkpt lat="45.75464124784911" lon="8.513419715398975"><ele>314.5</ele><time>2026-04-18T08:25:54Z</time></trkpt><trkpt lat="45.75471628051639" lon="8.51331773865196"><ele>315.0</ele><time>2026-04-18T08:25:56Z</time></trkpt><trkpt lat="45.75479856226283" lon="8.513251937336413"><ele>315.5</ele><time>2026-04-18T08:25:57Z</time></trkpt><trkpt lat="45.75486152822092" lon="8.513219491129233"><ele>316.0</ele><time>2026-04-18T08:25:58Z</time></trkpt><trkpt lat="45.754901487973164" lon="8.513075204384528"><ele>316.5</ele><time>2026-04-18T08:26:00Z</time></trkpt><trkpt lat="45.75490372645216" lon="8.512985008757894"><ele>317.0</ele><time>2026-04-18T08:26:01Z</time></trkpt><trkpt lat="45.75488668510266" lon="8.51285693041194"><ele>317.6</ele><time>2026-04-18T08:26:02Z</time></trkpt><trkpt lat="45.75485895900672" lon="8.512671130012858"><ele>318.2</ele><time>2026-04-18T08:26:03Z</time></trkpt><trkpt lat="45.75483837273668" lon="8.512512085965797"><ele>318.8</ele><time>2026-04-18T08:26:04Z</time></trkpt><trkpt lat="45.75482202914342" lon="8.512420296602617"><ele>319.4</ele><time>2026-04-18T08:26:05Z</time></trkpt><trkpt lat="45.75481666333787" lon="8.512547900559229"><ele>320.0</ele><time>2026-04-18T08:26:20.999Z</time></trkpt><trkpt lat="45.754871692502164" lon="8.512689472111822"><ele>320.0</ele><time>2026-04-18T08:26:39Z</time></trkpt><trkpt lat="45.75489458990268" lon="8.512801742096674"><ele>320.0</ele><time>2026-04-18T08:26:40Z</time></trkpt><trkpt lat="45.75490774125195" lon="8.51292983412124"><ele>320.0</ele><time>2026-04-18T08:26:41Z</time></trkpt><trkpt lat="45.75491213594046" lon="8.51304991018856"><ele>320.0</ele><time>2026-04-18T08:26:42Z</time></trkpt><trkpt lat="45.754881057194275" lon="8.513185107638844"><ele>320.0</ele><time>2026-04-18T08:26:44Z</time></trkpt><trkpt lat="45.754827323992274" lon="8.513258488642164"><ele>320.0</ele><time>2026-04-18T08:26:46Z</time></trkpt><trkpt lat="45.75476588241072" lon="8.513307510585758"><ele>319.4</ele><time>2026-04-18T08:26:48Z</time></trkpt><trkpt lat="45.754687752934906" lon="8.513372839887253"><ele>318.8</ele><time>2026-04-18T08:26:50Z</time></trkpt><trkpt lat="45.75464335950173" lon="8.513462791516387"><ele>318.2</ele><time>2026-04-18T08:26:52Z</time></trkpt><trkpt lat="45.75465564746995" lon="8.513571890158325"><ele>317.6</ele><time>2026-04-18T08:26:54Z</time></trkpt><trkpt lat="45.754573878232264" lon="8.513564023793235"><ele>317.0</ele><time>2026-04-18T08:26:58Z</time></trkpt><trkpt lat="45.75445673820893" lon="8.513421504115954"><ele>317.0</ele><time>2026-04-18T08:27:00Z</time></trkpt><trkpt lat="45.7544155280147" lon="8.513329771227419"><ele>317.0</ele><time>2026-04-18T08:27:02Z</time></trkpt><trkpt lat="45.75438994148476" lon="8.513222432446806"><ele>317.0</ele><time>2026-04-18T08:27:07Z</time></trkpt><trkpt lat="45.754368309357496" lon="8.513086296569565"><ele>317.0</ele><time>2026-04-18T08:27:11Z</time></trkpt><trkpt lat="45.75435232448546" lon="8.512860272738969"><ele>317.0</ele><time>2026-04-18T08:27:13Z</time></trkpt><trkpt lat="45.7543256647984" lon="8.512737202866"><ele>320.2</ele><time>2026-04-18T08:27:14Z</time></trkpt><trkpt lat="45.75428657306274" lon="8.512643074678488"><ele>323.4</ele><time>2026-04-18T08:27:15Z</time></trkpt><trkpt lat="45.75424714942345" lon="8.512440127421286"><ele>326.59999999999997</ele><time>2026-04-18T08:27:17Z</time></trkpt><trkpt lat="45.75421989350224" lon="8.512304436710476"><ele>329.79999999999995</ele><time>2026-04-18T08:27:18Z</time></trkpt><trkpt lat="45.754191696760955" lon="8.512157235196938"><ele>333.0</ele><time>2026-04-18T08:27:19Z</time></trkpt><trkpt lat="45.7541654696939" lon="8.512007336820863"><ele>333.0</ele><time>2026-04-18T08:27:20Z</time></trkpt><trkpt lat="45.754121576062985" lon="8.511874216725763"><ele>333.0</ele><time>2026-04-18T08:27:21Z</time></trkpt><trkpt lat="45.7540982899884" lon="8.511774604650501"><ele>333.0</ele><time>2026-04-18T08:27:22Z</time></trkpt><trkpt lat="45.754071941125574" lon="8.511683335886945"><ele>333.0</ele><time>2026-04-18T08:27:23Z</time></trkpt><trkpt lat="45.754064337107515" lon="8.511515713301165"><ele>333.0</ele><time>2026-04-18T08:27:25Z</time></trkpt><trkpt lat="45.754072184866494" lon="8.511342335317702"><ele>332.6666666666667</ele><time>2026-04-18T08:27:27Z</time></trkpt><trkpt lat="45.75407974729999" lon="8.511232139376839"><ele>332.3333333333333</ele><time>2026-04-18T08:27:28Z</time></trkpt><trkpt lat="45.75407140624809" lon="8.511068698402847"><ele>332.0</ele><time>2026-04-18T08:27:30Z</time></trkpt><trkpt lat="45.75406956682423" lon="8.510956418267575"><ele>331.66666666666663</ele><time>2026-04-18T08:27:31Z</time></trkpt><trkpt lat="45.75406490974852" lon="8.510844387103731"><ele>331.3333333333333</ele><time>2026-04-18T08:27:32Z</time></trkpt><trkpt lat="45.75405556457541" lon="8.510750432255591"><ele>331.0</ele><time>2026-04-18T08:27:33Z</time></trkpt><trkpt lat="45.75405426983301" lon="8.510595572464407"><ele>331.0</ele><time>2026-04-18T08:27:35Z</time></trkpt><trkpt lat="45.75406911214123" lon="8.510458961509435"><ele>331.0</ele><time>2026-04-18T08:27:37Z</time></trkpt><trkpt lat="45.75408745728762" lon="8.510323411507683"><ele>331.0</ele><time>2026-04-18T08:27:39Z</time></trkpt><trkpt lat="45.754142629633115" lon="8.510203387993458"><ele>331.0</ele><time>2026-04-18T08:27:41Z</time></trkpt><trkpt lat="45.75420735644351" lon="8.510087130602193"><ele>331.0</ele><time>2026-04-18T08:27:43Z</time></trkpt><trkpt lat="45.75427365844703" lon="8.510018771790252"><ele>331.0</ele><time>2026-04-18T08:27:45Z</time></trkpt><trkpt lat="45.754320990891216" lon="8.509924348129784"><ele>331.0</ele><time>2026-04-18T08:27:47Z</time></trkpt><trkpt lat="45.75435772533672" lon="8.50978105135242"><ele>331.0</ele><time>2026-04-18T08:27:49Z</time></trkpt><trkpt lat="45.754405088800866" lon="8.509612039872225"><ele>331.0</ele><time>2026-04-18T08:27:51Z</time></trkpt><trkpt lat="45.754440859623664" lon="8.509535133534023"><ele>331.0</ele><time>2026-04-18T08:27:52Z</time></trkpt><trkpt lat="45.75448088853975" lon="8.509392879013113"><ele>331.0</ele><time>2026-04-18T08:27:54Z</time></trkpt><trkpt lat="45.754536569427025" lon="8.509244087620013"><ele>331.0</ele><time>2026-04-18T08:27:56Z</time></trkpt><trkpt lat="45.754566811933216" lon="8.509087647898653"><ele>331.0</ele><time>2026-04-18T08:27:58Z</time></trkpt><trkpt lat="45.754587818832334" lon="8.508941548569336"><ele>331.0</ele><time>2026-04-18T08:28:00Z</time></trkpt><trkpt lat="45.75458187640715" lon="8.508829088070923"><ele>331.0</ele><time>2026-04-18T08:28:02Z</time></trkpt><trkpt lat="45.7545582421367" lon="8.508725805991551"><ele>331.6</ele><time>2026-04-18T08:28:03Z</time></trkpt><trkpt lat="45.75453694667054" lon="8.508640483081626"><ele>332.20000000000005</ele><time>2026-04-18T08:28:04Z</time></trkpt><trkpt lat="45.75451249585079" lon="8.50847987961278"><ele>332.79999999999995</ele><time>2026-04-18T08:28:06Z</time></trkpt><trkpt lat="45.7545731674262" lon="8.508329477975966"><ele>333.4</ele><time>2026-04-18T08:28:09Z</time></trkpt><trkpt lat="45.75460541341019" lon="8.508181997707046"><ele>334.0</ele><time>2026-04-18T08:28:10Z</time></trkpt><trkpt lat="45.75462636092534" lon="8.508025669473769"><ele>334.79999999999995</ele><time>2026-04-18T08:28:11Z</time></trkpt><trkpt lat="45.75465813550369" lon="8.507908726708944"><ele>335.59999999999997</ele><time>2026-04-18T08:28:12Z</time></trkpt><trkpt lat="45.75471994956124" lon="8.507780295281876"><ele>336.4</ele><time>2026-04-18T08:28:13Z</time></trkpt><trkpt lat="45.754781654830445" lon="8.50766809238169"><ele>337.2</ele><time>2026-04-18T08:28:14Z</time></trkpt><trkpt lat="45.75483553720329" lon="8.50754782430042"><ele>338.0</ele><time>2026-04-18T08:28:15Z</time></trkpt><trkpt lat="45.754876371260764" lon="8.507432377227499"><ele>338.0</ele><time>2026-04-18T08:28:16Z</time></trkpt><trkpt lat="45.754915657778696" lon="8.507322361075314"><ele>338.0</ele><time>2026-04-18T08:28:17Z</time></trkpt><trkpt lat="45.75497975764229" lon="8.507165727293048"><ele>338.0</ele><time>2026-04-18T08:28:19Z</time></trkpt><trkpt lat="45.75504612829299" lon="8.507041161205544"><ele>338.0</ele><time>2026-04-18T08:28:21Z</time></trkpt><trkpt lat="45.75512543445084" lon="8.507001737528526"><ele>338.0</ele><time>2026-04-18T08:28:25Z</time></trkpt><trkpt lat="45.75520620238942" lon="8.50687880606043"><ele>337.0</ele><time>2026-04-18T08:28:27Z</time></trkpt><trkpt lat="45.75524667985787" lon="8.506786478183724"><ele>336.0</ele><time>2026-04-18T08:28:28Z</time></trkpt><trkpt lat="45.75528570716562" lon="8.506706257682017"><ele>335.0</ele><time>2026-04-18T08:28:29Z</time></trkpt><trkpt lat="45.75531856739696" lon="8.506589182262587"><ele>334.0</ele><time>2026-04-18T08:28:31Z</time></trkpt><trkpt lat="45.75536600464" lon="8.506475166742968"><ele>333.0</ele><time>2026-04-18T08:28:46Z</time></trkpt><trkpt lat="45.755482994640424" lon="8.506216132020295"><ele>333.0</ele><time>2026-04-18T08:29:02Z</time></trkpt><trkpt lat="45.75555216391935" lon="8.506041086505704"><ele>333.0</ele><time>2026-04-18T08:29:04Z</time></trkpt><trkpt lat="45.755584443046175" lon="8.505943962157367"><ele>333.0</ele><time>2026-04-18T08:29:05Z</time></trkpt><trkpt lat="45.75562659189678" lon="8.505738364102202"><ele>333.0</ele><time>2026-04-18T08:29:07Z</time></trkpt><trkpt lat="45.75563173359719" lon="8.50560410677746"><ele>333.0</ele><time>2026-04-18T08:29:08Z</time></trkpt><trkpt lat="45.755666848220386" lon="8.50544719070753"><ele>333.0</ele><time>2026-04-18T08:29:09Z</time></trkpt><trkpt lat="45.75571236326474" lon="8.505344724610465"><ele>333.0</ele><time>2026-04-18T08:29:10Z</time></trkpt><trkpt lat="45.755773145615" lon="8.50521100515535"><ele>333.0</ele><time>2026-04-18T08:29:12Z</time></trkpt><trkpt lat="45.755771956344454" lon="8.505089878924892"><ele>333.0</ele><time>2026-04-18T08:29:14Z</time></trkpt><trkpt lat="45.75579143741499" lon="8.504983524047839"><ele>334.0</ele><time>2026-04-18T08:29:16Z</time></trkpt><trkpt lat="45.755830140747115" lon="8.50490210885269"><ele>335.0</ele><time>2026-04-18T08:29:18Z</time></trkpt><trkpt lat="45.75585252266002" lon="8.50478909592704"><ele>336.0</ele><time>2026-04-18T08:29:21Z</time></trkpt><trkpt lat="45.75590888790382" lon="8.504638160234347"><ele>337.0</ele><time>2026-04-18T08:29:23Z</time></trkpt><trkpt lat="45.75594453378269" lon="8.504542878106413"><ele>338.0</ele><time>2026-04-18T08:29:25Z</time></trkpt><trkpt lat="45.75598734346424" lon="8.504464583016563"><ele>339.0</ele><time>2026-04-18T08:29:27Z</time></trkpt><trkpt lat="45.75603471377849" lon="8.504367088669452"><ele>338.0</ele><time>2026-04-18T08:29:30Z</time></trkpt><trkpt lat="45.75604267126895" lon="8.504260281057258"><ele>337.0</ele><time>2026-04-18T08:29:39Z</time></trkpt><trkpt lat="45.7560922061417" lon="8.50416658362949"><ele>336.0</ele><time>2026-04-18T08:29:42Z</time></trkpt><trkpt lat="45.75611122498124" lon="8.504072604277466"><ele>335.0</ele><time>2026-04-18T08:29:53Z</time></trkpt><trkpt lat="45.75610185658442" lon="8.504163215820537"><ele>334.0</ele><time>2026-04-18T08:31:01Z</time></trkpt><trkpt lat="45.75603457257731" lon="8.504268166146414"><ele>333.0</ele><time>2026-04-18T08:31:05Z</time></trkpt><trkpt lat="45.755981885227214" lon="8.50437025283123"><ele>334.0</ele><time>2026-04-18T08:31:08Z</time></trkpt><trkpt lat="45.75595933710839" lon="8.50447016880952"><ele>335.0</ele><time>2026-04-18T08:31:11Z</time></trkpt><trkpt lat="45.75592626523517" lon="8.504563362823983"><ele>336.0</ele><time>2026-04-18T08:31:13Z</time></trkpt><trkpt lat="45.755881946228826" lon="8.504666707477012"><ele>337.0</ele><time>2026-04-18T08:31:17Z</time></trkpt><trkpt lat="45.75586608959411" lon="8.50475501526026"><ele>338.0</ele><time>2026-04-18T08:31:19Z</time></trkpt><trkpt lat="45.7558027449162" lon="8.504906094239592"><ele>339.0</ele><time>2026-04-18T08:31:21Z</time></trkpt><trkpt lat="45.75577491956479" lon="8.504992882383325"><ele>339.0</ele><time>2026-04-18T08:31:23Z</time></trkpt><trkpt lat="45.75575154705061" lon="8.505088571913305"><ele>339.0</ele><time>2026-04-18T08:31:27Z</time></trkpt><trkpt lat="45.75583238656765" lon="8.505072691804969"><ele>339.0</ele><time>2026-04-18T08:31:31Z</time></trkpt><trkpt lat="45.755887872160464" lon="8.50492378441111"><ele>339.0</ele><time>2026-04-18T08:31:49Z</time></trkpt><trkpt lat="45.75601137965908" lon="8.504862190081125"><ele>339.0</ele><time>2026-04-18T08:33:00Z</time></trkpt><trkpt lat="45.75608143182535" lon="8.504819405794953"><ele>338.6666666666667</ele><time>2026-04-18T08:33:01Z</time></trkpt><trkpt lat="45.756167999055805" lon="8.504778572192665"><ele>338.3333333333333</ele><time>2026-04-18T08:33:02Z</time></trkpt><trkpt lat="45.75624649051889" lon="8.50475389501109"><ele>338.0</ele><time>2026-04-18T08:33:03Z</time></trkpt><trkpt lat="45.75636293333278" lon="8.504749573483906"><ele>337.66666666666663</ele><time>2026-04-18T08:33:05Z</time></trkpt><trkpt lat="45.75642701351871" lon="8.504754637364462"><ele>337.3333333333333</ele><time>2026-04-18T08:33:06Z</time></trkpt><trkpt lat="45.75650429387105" lon="8.504705600204554"><ele>337.0</ele><time>2026-04-18T08:33:08Z</time></trkpt><trkpt lat="45.756537102747444" lon="8.504529840699433"><ele>336.20000000000005</ele><time>2026-04-18T08:33:10Z</time></trkpt><trkpt lat="45.75658390248623" lon="8.504419755063216"><ele>335.4</ele><time>2026-04-18T08:33:12Z</time></trkpt><trkpt lat="45.75662435775181" lon="8.504343558051712"><ele>334.6</ele><time>2026-04-18T08:33:14Z</time></trkpt><trkpt lat="45.75670250163679" lon="8.50426728716934"><ele>333.79999999999995</ele><time>2026-04-18T08:33:16Z</time></trkpt><trkpt lat="45.756809188795586" lon="8.504166818324093"><ele>333.0</ele><time>2026-04-18T08:33:18Z</time></trkpt><trkpt lat="45.75687334302205" lon="8.504118950034815"><ele>335.2</ele><time>2026-04-18T08:33:19Z</time></trkpt><trkpt lat="45.75695612562459" lon="8.504031215043865"><ele>337.4</ele><time>2026-04-18T08:33:21Z</time></trkpt><trkpt lat="45.757040612726634" lon="8.503957445709364"><ele>339.59999999999997</ele><time>2026-04-18T08:33:23Z</time></trkpt><trkpt lat="45.75710515084279" lon="8.503796431606634"><ele>341.79999999999995</ele><time>2026-04-18T08:33:25Z</time></trkpt><trkpt lat="45.75715316323688" lon="8.503675523415142"><ele>344.0</ele><time>2026-04-18T08:33:26Z</time></trkpt><trkpt lat="45.75719562727406" lon="8.503568118087493"><ele>344.00000000000006</ele><time>2026-04-18T08:33:27Z</time></trkpt><trkpt lat="45.757234379702574" lon="8.503484800551142"><ele>344.0</ele><time>2026-04-18T08:33:28Z</time></trkpt><trkpt lat="45.757281726047125" lon="8.503421374300014"><ele>344.0</ele><time>2026-04-18T08:33:29Z</time></trkpt><trkpt lat="45.75733214613208" lon="8.503310495365044"><ele>344.0</ele><time>2026-04-18T08:33:31Z</time></trkpt><trkpt lat="45.75736461921954" lon="8.503232110543816"><ele>344.0</ele><time>2026-04-18T08:33:32Z</time></trkpt><trkpt lat="45.757408389466626" lon="8.503161259358059"><ele>344.00000000000006</ele><time>2026-04-18T08:33:33Z</time></trkpt><trkpt lat="45.75744527743069" lon="8.503054879427424"><ele>344.0</ele><time>2026-04-18T08:33:34Z</time></trkpt><trkpt lat="45.75750967274394" lon="8.502911189559923"><ele>343.1666666666667</ele><time>2026-04-18T08:33:36Z</time></trkpt><trkpt lat="45.75755778395709" lon="8.50283034140794"><ele>342.33333333333337</ele><time>2026-04-18T08:33:37Z</time></trkpt><trkpt lat="45.75759806457054" lon="8.502748799639987"><ele>341.5</ele><time>2026-04-18T08:33:38Z</time></trkpt><trkpt lat="45.757638944371415" lon="8.502630419804817"><ele>340.6666666666667</ele><time>2026-04-18T08:33:39Z</time></trkpt><trkpt lat="45.75764795746611" lon="8.502508412438203"><ele>339.8333333333333</ele><time>2026-04-18T08:33:40Z</time></trkpt><trkpt lat="45.75766882636027" lon="8.502397615209404"><ele>339.0</ele><time>2026-04-18T08:33:41Z</time></trkpt><trkpt lat="45.75769458895988" lon="8.502299345469318"><ele>340.3333333333333</ele><time>2026-04-18T08:33:42Z</time></trkpt><trkpt lat="45.757759942803105" lon="8.50212918554426"><ele>341.6666666666667</ele><time>2026-04-18T08:33:44Z</time></trkpt><trkpt lat="45.75781346791154" lon="8.502052460663473"><ele>343.0</ele><time>2026-04-18T08:33:45Z</time></trkpt><trkpt lat="45.75787301574539" lon="8.501982675042097"><ele>344.33333333333337</ele><time>2026-04-18T08:33:46Z</time></trkpt><trkpt lat="45.75792766241782" lon="8.501913507506007"><ele>345.6666666666667</ele><time>2026-04-18T08:33:47Z</time></trkpt><trkpt lat="45.757963627498484" lon="8.501827768682052"><ele>347.0</ele><time>2026-04-18T08:33:48Z</time></trkpt><trkpt lat="45.75800502353541" lon="8.501746775149794"><ele>347.0</ele><time>2026-04-18T08:33:49Z</time></trkpt><trkpt lat="45.75804651482183" lon="8.501657162045028"><ele>347.0</ele><time>2026-04-18T08:33:50Z</time></trkpt><trkpt lat="45.758071033967255" lon="8.501565551272455"><ele>347.0</ele><time>2026-04-18T08:33:51Z</time></trkpt><trkpt lat="45.758110289560435" lon="8.501492876043994"><ele>347.0</ele><time>2026-04-18T08:33:52Z</time></trkpt><trkpt lat="45.758128744385665" lon="8.501402764948295"><ele>347.0</ele><time>2026-04-18T08:33:53Z</time></trkpt><trkpt lat="45.758147162813195" lon="8.501298317557044"><ele>347.0</ele><time>2026-04-18T08:33:54Z</time></trkpt><trkpt lat="45.75815471791883" lon="8.501206282196298"><ele>347.0</ele><time>2026-04-18T08:33:55Z</time></trkpt><trkpt lat="45.75818317490692" lon="8.501055625290563"><ele>345.6666666666667</ele><time>2026-04-18T08:33:57Z</time></trkpt><trkpt lat="45.75821299445597" lon="8.500953518163056"><ele>344.33333333333337</ele><time>2026-04-18T08:33:58Z</time></trkpt><trkpt lat="45.75826541103094" lon="8.50085693323078"><ele>343.0</ele><time>2026-04-18T08:34:00Z</time></trkpt><trkpt lat="45.758330601761735" lon="8.500766742178602"><ele>341.6666666666667</ele><time>2026-04-18T08:34:07Z</time></trkpt><trkpt lat="45.75839808769462" lon="8.500673081543917"><ele>340.3333333333333</ele><time>2026-04-18T08:34:09Z</time></trkpt><trkpt lat="45.75845186543879" lon="8.500608985047808"><ele>339.0</ele><time>2026-04-18T08:34:10Z</time></trkpt><trkpt lat="45.75850630443458" lon="8.50055368658458"><ele>338.6</ele><time>2026-04-18T08:34:11Z</time></trkpt><trkpt lat="45.75857879984963" lon="8.500507214518718"><ele>338.2</ele><time>2026-04-18T08:34:12Z</time></trkpt><trkpt lat="45.758697425308796" lon="8.50041465940991"><ele>337.8</ele><time>2026-04-18T08:34:14Z</time></trkpt><trkpt lat="45.75875476217841" lon="8.500373126153582"><ele>337.40000000000003</ele><time>2026-04-18T08:34:15Z</time></trkpt><trkpt lat="45.75884425193433" lon="8.500280603109715"><ele>337.0</ele><time>2026-04-18T08:34:17Z</time></trkpt><trkpt lat="45.758920676098846" lon="8.500225486033303"><ele>337.0</ele><time>2026-04-18T08:34:19Z</time></trkpt><trkpt lat="45.75902035561114" lon="8.50019500479677"><ele>337.0</ele><time>2026-04-18T08:34:21Z</time></trkpt><trkpt lat="45.75915316672413" lon="8.500158358382333"><ele>337.0</ele><time>2026-04-18T08:34:23Z</time></trkpt><trkpt lat="45.75922468528726" lon="8.500138538170033"><ele>337.0</ele><time>2026-04-18T08:34:24Z</time></trkpt><trkpt lat="45.75929432686097" lon="8.500114534154033"><ele>337.0</ele><time>2026-04-18T08:34:25Z</time></trkpt><trkpt lat="45.75937246022912" lon="8.50006554863915"><ele>339.6</ele><time>2026-04-18T08:34:26Z</time></trkpt><trkpt lat="45.75945023050284" lon="8.500017935247369"><ele>342.20000000000005</ele><time>2026-04-18T08:34:27Z</time></trkpt><trkpt lat="45.759566962453064" lon="8.499943689586303"><ele>344.8</ele><time>2026-04-18T08:34:29Z</time></trkpt><trkpt lat="45.7596224849611" lon="8.499883784860916"><ele>347.4</ele><time>2026-04-18T08:34:30Z</time></trkpt><trkpt lat="45.75969805987159" lon="8.49981468158263"><ele>350.0</ele><time>2026-04-18T08:34:31Z</time></trkpt><trkpt lat="45.759792016084795" lon="8.499740029721712"><ele>350.0</ele><time>2026-04-18T08:34:32Z</time></trkpt><trkpt lat="45.759892238500115" lon="8.499664203914579"><ele>350.0</ele><time>2026-04-18T08:34:33.001Z</time></trkpt><trkpt lat="45.759965437686" lon="8.499598142437494"><ele>350.0</ele><time>2026-04-18T08:34:34.001Z</time></trkpt><trkpt lat="45.76002590857187" lon="8.499549751104341"><ele>350.0</ele><time>2026-04-18T08:34:35.001Z</time></trkpt><trkpt lat="45.760101934995355" lon="8.499486016763056"><ele>350.0</ele><time>2026-04-18T08:34:36.001Z</time></trkpt><trkpt lat="45.76017901212533" lon="8.499429593350103"><ele>350.0</ele><time>2026-04-18T08:34:37.001Z</time></trkpt><trkpt lat="45.76027226685666" lon="8.499366017720101"><ele>349.0</ele><time>2026-04-18T08:34:38.001Z</time></trkpt><trkpt lat="45.76035197380364" lon="8.499304407059697"><ele>348.0</ele><time>2026-04-18T08:34:39.001Z</time></trkpt><trkpt lat="45.76041658675517" lon="8.499240019759602"><ele>347.0</ele><time>2026-04-18T08:34:40.001Z</time></trkpt><trkpt lat="45.760487873621365" lon="8.499174018741458"><ele>346.0</ele><time>2026-04-18T08:34:41Z</time></trkpt><trkpt lat="45.76054752271131" lon="8.499138796420114"><ele>345.0</ele><time>2026-04-18T08:34:42Z</time></trkpt><trkpt lat="45.760644444920466" lon="8.49901607295717"><ele>344.0</ele><time>2026-04-18T08:34:44Z</time></trkpt><trkpt lat="45.76070190809742" lon="8.498947666768265"><ele>344.00000000000006</ele><time>2026-04-18T08:34:45Z</time></trkpt><trkpt lat="45.7607561238167" lon="8.498884556004798"><ele>344.0</ele><time>2026-04-18T08:34:46Z</time></trkpt><trkpt lat="45.76081764782129" lon="8.498817911409956"><ele>344.0</ele><time>2026-04-18T08:34:47Z</time></trkpt><trkpt lat="45.760871018200376" lon="8.498758527660888"><ele>344.0</ele><time>2026-04-18T08:34:48Z</time></trkpt><trkpt lat="45.76092940991589" lon="8.498720925820656"><ele>344.0</ele><time>2026-04-18T08:34:50Z</time></trkpt><trkpt lat="45.76099234408571" lon="8.498764658951991"><ele>344.00000000000006</ele><time>2026-04-18T08:34:53Z</time></trkpt><trkpt lat="45.76104232213074" lon="8.498828053333735"><ele>344.0</ele><time>2026-04-18T08:34:58.026Z</time></trkpt><trkpt lat="45.76109881348335" lon="8.498880684275177"><ele>346.0</ele><time>2026-04-18T08:35:02Z</time></trkpt><trkpt lat="45.76124367513275" lon="8.499017398446858"><ele>348.0</ele><time>2026-04-18T08:35:03Z</time></trkpt><trkpt lat="45.76125416161178" lon="8.499150357749409"><ele>350.0</ele><time>2026-04-18T08:35:04Z</time></trkpt><trkpt lat="45.761338211556456" lon="8.499111324604145"><ele>352.0</ele><time>2026-04-18T08:35:07Z</time></trkpt><trkpt lat="45.761401960904415" lon="8.499034410140128"><ele>354.0</ele><time>2026-04-18T08:35:08Z</time></trkpt><trkpt lat="45.76149469983558" lon="8.498957244158573"><ele>354.0</ele><time>2026-04-18T08:35:09Z</time></trkpt><trkpt lat="45.76158897790408" lon="8.498855365698587"><ele>354.0</ele><time>2026-04-18T08:35:10Z</time></trkpt><trkpt lat="45.76168466382425" lon="8.498779622753991"><ele>354.0</ele><time>2026-04-18T08:35:11Z</time></trkpt><trkpt lat="45.761758863103054" lon="8.498707358985438"><ele>354.0</ele><time>2026-04-18T08:35:12Z</time></trkpt><trkpt lat="45.76183612879403" lon="8.498622649224469"><ele>354.0</ele><time>2026-04-18T08:35:13Z</time></trkpt><trkpt lat="45.76192787418138" lon="8.498526521714043"><ele>353.5</ele><time>2026-04-18T08:35:14Z</time></trkpt><trkpt lat="45.76200825289616" lon="8.498460302133338"><ele>353.0</ele><time>2026-04-18T08:35:15Z</time></trkpt><trkpt lat="45.76206101357947" lon="8.498380729839667"><ele>352.5</ele><time>2026-04-18T08:35:16Z</time></trkpt><trkpt lat="45.76211678368865" lon="8.498315856762419"><ele>352.0</ele><time>2026-04-18T08:35:17Z</time></trkpt><trkpt lat="45.762198437071596" lon="8.498235379716276"><ele>351.5</ele><time>2026-04-18T08:35:18Z</time></trkpt><trkpt lat="45.76228156250413" lon="8.498164115773244"><ele>351.0</ele><time>2026-04-18T08:35:19Z</time></trkpt><trkpt lat="45.762343549027484" lon="8.498117743849736"><ele>351.0</ele><time>2026-04-18T08:35:20Z</time></trkpt><trkpt lat="45.76242144092185" lon="8.498028656304042"><ele>351.0</ele><time>2026-04-18T08:35:22Z</time></trkpt><trkpt lat="45.76248480251964" lon="8.497948974680607"><ele>351.0</ele><time>2026-04-18T08:35:25Z</time></trkpt><trkpt lat="45.76253543814112" lon="8.497878650139652"><ele>351.0</ele><time>2026-04-18T08:35:27Z</time></trkpt><trkpt lat="45.76262021441432" lon="8.497815917275767"><ele>351.0</ele><time>2026-04-18T08:35:29Z</time></trkpt><trkpt lat="45.76267482712506" lon="8.497741965261037"><ele>351.0</ele><time>2026-04-18T08:35:31Z</time></trkpt><trkpt lat="45.76262146733552" lon="8.497544289200073"><ele>351.20000000000005</ele><time>2026-04-18T08:35:32Z</time></trkpt><trkpt lat="45.76269679660581" lon="8.49747209871258"><ele>351.40000000000003</ele><time>2026-04-18T08:35:35Z</time></trkpt><trkpt lat="45.7627627023478" lon="8.49740990176595"><ele>351.6</ele><time>2026-04-18T08:35:38Z</time></trkpt><trkpt lat="45.76285364506619" lon="8.497324433796257"><ele>351.8</ele><time>2026-04-18T08:35:41Z</time></trkpt><trkpt lat="45.76293981319507" lon="8.497245327155456"><ele>352.0</ele><time>2026-04-18T08:35:44Z</time></trkpt><trkpt lat="45.76302522678147" lon="8.497166913214263"><ele>350.8333333333333</ele><time>2026-04-18T08:35:46Z</time></trkpt><trkpt lat="45.763125634821726" lon="8.49707635822494"><ele>349.66666666666663</ele><time>2026-04-18T08:35:48Z</time></trkpt><trkpt lat="45.76318100796457" lon="8.497026483135816"><ele>348.5</ele><time>2026-04-18T08:35:49Z</time></trkpt><trkpt lat="45.76325477446736" lon="8.496960412867054"><ele>347.3333333333333</ele><time>2026-04-18T08:35:51Z</time></trkpt><trkpt lat="45.76323478872299" lon="8.496849354014335"><ele>346.1666666666667</ele><time>2026-04-18T08:35:55Z</time></trkpt><trkpt lat="45.763201253168376" lon="8.4967665540256"><ele>345.0</ele><time>2026-04-18T08:35:56Z</time></trkpt><trkpt lat="45.76314675734171" lon="8.496608443543565"><ele>345.0</ele><time>2026-04-18T08:35:58Z</time></trkpt><trkpt lat="45.763114859443874" lon="8.496529214539532"><ele>345.0</ele><time>2026-04-18T08:35:59Z</time></trkpt><trkpt lat="45.76317003821837" lon="8.496450467035896"><ele>345.0</ele><time>2026-04-18T08:36:10Z</time></trkpt><trkpt lat="45.76328491374216" lon="8.496402681260767"><ele>345.0</ele><time>2026-04-18T08:36:12Z</time></trkpt><trkpt lat="45.763342932305974" lon="8.496347719512555"><ele>345.0</ele><time>2026-04-18T08:36:13Z</time></trkpt><trkpt lat="45.763416995767656" lon="8.496281691168285"><ele>345.0</ele><time>2026-04-18T08:36:14Z</time></trkpt><trkpt lat="45.76351293274846" lon="8.496218172771485"><ele>346.25</ele><time>2026-04-18T08:36:15Z</time></trkpt><trkpt lat="45.76362115335198" lon="8.496134397674044"><ele>347.5</ele><time>2026-04-18T08:36:16Z</time></trkpt><trkpt lat="45.76373153900868" lon="8.496040036929163"><ele>348.75</ele><time>2026-04-18T08:36:17Z</time></trkpt><trkpt lat="45.76383020450498" lon="8.495962819618926"><ele>350.0</ele><time>2026-04-18T08:36:18Z</time></trkpt><trkpt lat="45.76394605818198" lon="8.495876426787225"><ele>350.0</ele><time>2026-04-18T08:36:19Z</time></trkpt><trkpt lat="45.76405198169619" lon="8.495808636348865"><ele>350.0</ele><time>2026-04-18T08:36:20Z</time></trkpt><trkpt lat="45.76415287697858" lon="8.495743168460624"><ele>350.0</ele><time>2026-04-18T08:36:21Z</time></trkpt><trkpt lat="45.76423790720239" lon="8.495678445004788"><ele>350.0</ele><time>2026-04-18T08:36:22Z</time></trkpt><trkpt lat="45.764317837302116" lon="8.495604674368767"><ele>350.0</ele><time>2026-04-18T08:36:23Z</time></trkpt><trkpt lat="45.764406514876384" lon="8.49555463648019"><ele>350.0</ele><time>2026-04-18T08:36:24Z</time></trkpt><trkpt lat="45.764494988678436" lon="8.49552323895706"><ele>350.0</ele><time>2026-04-18T08:36:25Z</time></trkpt><trkpt lat="45.76460546880128" lon="8.495476351396393"><ele>350.0</ele><time>2026-04-18T08:36:26Z</time></trkpt><trkpt lat="45.76471603672615" lon="8.495414134178976"><ele>350.0</ele><time>2026-04-18T08:36:27Z</time></trkpt><trkpt lat="45.76482030809892" lon="8.495363169472853"><ele>350.0</ele><time>2026-04-18T08:36:28Z</time></trkpt><trkpt lat="45.7649088040845" lon="8.495319448861101"><ele>350.0</ele><time>2026-04-18T08:36:29Z</time></trkpt><trkpt lat="45.76502274459211" lon="8.49527621276778"><ele>350.0</ele><time>2026-04-18T08:36:30Z</time></trkpt><trkpt lat="45.76513201014441" lon="8.495236252949088"><ele>350.0</ele><time>2026-04-18T08:36:31Z</time></trkpt><trkpt lat="45.76521537392118" lon="8.495212939759323"><ele>350.0</ele><time>2026-04-18T08:36:32Z</time></trkpt><trkpt lat="45.76528405943501" lon="8.495180536889515"><ele>350.0</ele><time>2026-04-18T08:36:33Z</time></trkpt><trkpt lat="45.76537516448993" lon="8.495075186415919"><ele>351.5</ele><time>2026-04-18T08:36:35Z</time></trkpt><trkpt lat="45.76541199781862" lon="8.494965673392677"><ele>353.0</ele><time>2026-04-18T08:36:36Z</time></trkpt><trkpt lat="45.76544006894228" lon="8.494827039870298"><ele>354.5</ele><time>2026-04-18T08:36:37Z</time></trkpt><trkpt lat="45.765472977699716" lon="8.494681104887217"><ele>356.0</ele><time>2026-04-18T08:36:38Z</time></trkpt><trkpt lat="45.76548814435738" lon="8.49458158182279"><ele>357.5</ele><time>2026-04-18T08:36:39Z</time></trkpt><trkpt lat="45.76551878062862" lon="8.494479324391447"><ele>359.0</ele><time>2026-04-18T08:36:41Z</time></trkpt><trkpt lat="45.765594935047105" lon="8.49444711364098"><ele>359.0</ele><time>2026-04-18T08:36:44Z</time></trkpt><trkpt lat="45.765656421787156" lon="8.494374595667104"><ele>359.0</ele><time>2026-04-18T08:36:45Z</time></trkpt><trkpt lat="45.76573697155883" lon="8.494319789591858"><ele>359.0</ele><time>2026-04-18T08:36:46Z</time></trkpt><trkpt lat="45.76582914087695" lon="8.494295558405938"><ele>359.0</ele><time>2026-04-18T08:36:47Z</time></trkpt><trkpt lat="45.76591909490624" lon="8.494307327105544"><ele>359.0</ele><time>2026-04-18T08:36:48Z</time></trkpt><trkpt lat="45.76601448588286" lon="8.494304130572795"><ele>359.0</ele><time>2026-04-18T08:36:49Z</time></trkpt><trkpt lat="45.76611394910512" lon="8.494264697956092"><ele>359.79999999999995</ele><time>2026-04-18T08:36:50Z</time></trkpt><trkpt lat="45.76622255960398" lon="8.494220152706212"><ele>360.59999999999997</ele><time>2026-04-18T08:36:51Z</time></trkpt><trkpt lat="45.76632119629449" lon="8.494181493506735"><ele>361.4</ele><time>2026-04-18T08:36:52Z</time></trkpt><trkpt lat="45.76640674359843" lon="8.494140459036396"><ele>362.2</ele><time>2026-04-18T08:36:53Z</time></trkpt><trkpt lat="45.76647584809093" lon="8.494115325032743"><ele>363.0</ele><time>2026-04-18T08:36:54Z</time></trkpt><trkpt lat="45.766615062688295" lon="8.494132919931944"><ele>363.0</ele><time>2026-04-18T08:36:56Z</time></trkpt><trkpt lat="45.76671550974079" lon="8.49415474075122"><ele>363.0</ele><time>2026-04-18T08:36:57Z</time></trkpt><trkpt lat="45.76680823373136" lon="8.494166766093517"><ele>363.0</ele><time>2026-04-18T08:36:58Z</time></trkpt><trkpt lat="45.76691284668535" lon="8.494175456771377"><ele>363.0</ele><time>2026-04-18T08:36:59Z</time></trkpt><trkpt lat="45.767012567892145" lon="8.494187728401835"><ele>363.0</ele><time>2026-04-18T08:37:00Z</time></trkpt><trkpt lat="45.76711618508226" lon="8.49420391391116"><ele>363.0</ele><time>2026-04-18T08:37:01Z</time></trkpt><trkpt lat="45.7671999303231" lon="8.49421099613449"><ele>363.0</ele><time>2026-04-18T08:37:02Z</time></trkpt><trkpt lat="45.76726604174916" lon="8.494219042883"><ele>363.0</ele><time>2026-04-18T08:37:03Z</time></trkpt><trkpt lat="45.7673506624332" lon="8.494235323566853"><ele>363.0</ele><time>2026-04-18T08:37:04Z</time></trkpt><trkpt lat="45.767450264389296" lon="8.494251021968081"><ele>363.0</ele><time>2026-04-18T08:37:06Z</time></trkpt><trkpt lat="45.767567350169934" lon="8.494252699016895"><ele>363.0</ele><time>2026-04-18T08:37:08Z</time></trkpt><trkpt lat="45.76764661132227" lon="8.494236489047504"><ele>363.0</ele><time>2026-04-18T08:37:09Z</time></trkpt><trkpt lat="45.76773579721269" lon="8.494224312905082"><ele>363.0</ele><time>2026-04-18T08:37:10Z</time></trkpt><trkpt lat="45.76783004328392" lon="8.494228515286835"><ele>363.0</ele><time>2026-04-18T08:37:11Z</time></trkpt><trkpt lat="45.76791445772707" lon="8.494258489890013"><ele>363.0</ele><time>2026-04-18T08:37:12Z</time></trkpt><trkpt lat="45.76799412552518" lon="8.494273802657865"><ele>363.0</ele><time>2026-04-18T08:37:13Z</time></trkpt><trkpt lat="45.7680806502725" lon="8.494274749570645"><ele>362.0</ele><time>2026-04-18T08:37:15Z</time></trkpt><trkpt lat="45.768151951195975" lon="8.494265017529413"><ele>361.0</ele><time>2026-04-18T08:37:16Z</time></trkpt><trkpt lat="45.76823713177314" lon="8.494294074844436"><ele>360.0</ele><time>2026-04-18T08:37:17Z</time></trkpt><trkpt lat="45.768325226577204" lon="8.494313795566327"><ele>359.0</ele><time>2026-04-18T08:37:18Z</time></trkpt><trkpt lat="45.76840488565074" lon="8.494320036817689"><ele>358.0</ele><time>2026-04-18T08:37:19Z</time></trkpt><trkpt lat="45.76847437952955" lon="8.494322560661601"><ele>357.0</ele><time>2026-04-18T08:37:20Z</time></trkpt><trkpt lat="45.768543280199005" lon="8.494339426592182"><ele>356.8</ele><time>2026-04-18T08:37:21Z</time></trkpt><trkpt lat="45.76861195698625" lon="8.494364247098888"><ele>356.6</ele><time>2026-04-18T08:37:22Z</time></trkpt><trkpt lat="45.76868845517554" lon="8.494390018216823"><ele>356.40000000000003</ele><time>2026-04-18T08:37:23Z</time></trkpt><trkpt lat="45.76877866156724" lon="8.494392309798847"><ele>356.20000000000005</ele><time>2026-04-18T08:37:24Z</time></trkpt><trkpt lat="45.76889770448119" lon="8.494403379690592"><ele>356.0</ele><time>2026-04-18T08:37:25Z</time></trkpt><trkpt lat="45.7690143088888" lon="8.49441012619393"><ele>356.0</ele><time>2026-04-18T08:37:26Z</time></trkpt><trkpt lat="45.76911759445207" lon="8.494425163686909"><ele>356.0</ele><time>2026-04-18T08:37:27Z</time></trkpt><trkpt lat="45.769197216216405" lon="8.494419315512753"><ele>356.0</ele><time>2026-04-18T08:37:28Z</time></trkpt><trkpt lat="45.769289430207614" lon="8.49441049628965"><ele>356.0</ele><time>2026-04-18T08:37:29Z</time></trkpt><trkpt lat="45.769381645032325" lon="8.494423047580952"><ele>356.0</ele><time>2026-04-18T08:37:30Z</time></trkpt><trkpt lat="45.76950559473064" lon="8.49444398140737"><ele>357.0</ele><time>2026-04-18T08:37:31Z</time></trkpt><trkpt lat="45.76961902607766" lon="8.494453907306545"><ele>358.0</ele><time>2026-04-18T08:37:32Z</time></trkpt><trkpt lat="45.769736686105674" lon="8.494479425906555"><ele>359.0</ele><time>2026-04-18T08:37:33Z</time></trkpt><trkpt lat="45.76983957666811" lon="8.494517061805544"><ele>360.0</ele><time>2026-04-18T08:37:34Z</time></trkpt><trkpt lat="45.76993948970939" lon="8.494537506205685"><ele>361.0</ele><time>2026-04-18T08:37:36Z</time></trkpt><trkpt lat="45.77001265134919" lon="8.494432149901055"><ele>361.0</ele><time>2026-04-18T08:37:38Z</time></trkpt><trkpt lat="45.77006205764178" lon="8.494374335640439"><ele>361.0</ele><time>2026-04-18T08:37:40Z</time></trkpt><trkpt lat="45.77011059971444" lon="8.494310758770839"><ele>361.0</ele><time>2026-04-18T08:37:43Z</time></trkpt><trkpt lat="45.77018749163218" lon="8.494188281404172"><ele>361.0</ele><time>2026-04-18T08:37:45Z</time></trkpt><trkpt lat="45.77021346270148" lon="8.494047890576153"><ele>361.0</ele><time>2026-04-18T08:37:47Z</time></trkpt><trkpt lat="45.77024726866022" lon="8.493853398201312"><ele>361.5</ele><time>2026-04-18T08:37:49Z</time></trkpt><trkpt lat="45.77027320387495" lon="8.493727143932412"><ele>362.0</ele><time>2026-04-18T08:37:50Z</time></trkpt><trkpt lat="45.77028643043084" lon="8.49360971675384"><ele>362.5</ele><time>2026-04-18T08:37:51Z</time></trkpt><trkpt lat="45.77031201258774" lon="8.493520295314505"><ele>363.0</ele><time>2026-04-18T08:37:52Z</time></trkpt><trkpt lat="45.77034937906784" lon="8.49340906502492"><ele>363.5</ele><time>2026-04-18T08:37:53Z</time></trkpt><trkpt lat="45.77037728466268" lon="8.493313575067475"><ele>364.0</ele><time>2026-04-18T08:37:54Z</time></trkpt><trkpt lat="45.770388855638444" lon="8.493206855834357"><ele>364.0</ele><time>2026-04-18T08:37:55Z</time></trkpt><trkpt lat="45.77039753941921" lon="8.493087046959388"><ele>364.0</ele><time>2026-04-18T08:37:56Z</time></trkpt><trkpt lat="45.77037867642348" lon="8.49296705096163"><ele>364.0</ele><time>2026-04-18T08:37:57Z</time></trkpt><trkpt lat="45.770348072121216" lon="8.492881829661792"><ele>364.0</ele><time>2026-04-18T08:37:58Z</time></trkpt><trkpt lat="45.770372166427286" lon="8.492766344319445"><ele>364.0</ele><time>2026-04-18T08:38:00Z</time></trkpt><trkpt lat="45.77044518690907" lon="8.492739467882464"><ele>364.0</ele><time>2026-04-18T08:38:02Z</time></trkpt><trkpt lat="45.77057427198506" lon="8.492781608862972"><ele>364.0</ele><time>2026-04-18T08:38:04Z</time></trkpt><trkpt lat="45.77065714431528" lon="8.49282867448676"><ele>364.0</ele><time>2026-04-18T08:38:05Z</time></trkpt><trkpt lat="45.7707238756832" lon="8.492883645015091"><ele>364.0</ele><time>2026-04-18T08:38:06Z</time></trkpt><trkpt lat="45.77084053903775" lon="8.492837538521929"><ele>364.0</ele><time>2026-04-18T08:38:07Z</time></trkpt><trkpt lat="45.77092738777535" lon="8.492895815781136"><ele>364.0</ele><time>2026-04-18T08:38:08Z</time></trkpt><trkpt lat="45.77099192562712" lon="8.49294258206329"><ele>364.5</ele><time>2026-04-18T08:38:09Z</time></trkpt><trkpt lat="45.771049516155806" lon="8.492989214909365"><ele>365.0</ele><time>2026-04-18T08:38:10Z</time></trkpt><trkpt lat="45.771114278898594" lon="8.493043930462486"><ele>365.5</ele><time>2026-04-18T08:38:11Z</time></trkpt><trkpt lat="45.77119152774361" lon="8.493127759425857"><ele>366.0</ele><time>2026-04-18T08:38:13Z</time></trkpt><trkpt lat="45.7712753209996" lon="8.493224691389155"><ele>366.5</ele><time>2026-04-18T08:38:15Z</time></trkpt><trkpt lat="45.7713275823419" lon="8.4932878029863"><ele>367.0</ele><time>2026-04-18T08:38:16Z</time></trkpt><trkpt lat="45.77138245652315" lon="8.493357353190044"><ele>367.0</ele><time>2026-04-18T08:38:17Z</time></trkpt><trkpt lat="45.77144626498774" lon="8.493438227171008"><ele>367.0</ele><time>2026-04-18T08:38:18Z</time></trkpt><trkpt lat="45.771520958291326" lon="8.493535358186062"><ele>367.0</ele><time>2026-04-18T08:38:19Z</time></trkpt><trkpt lat="45.77160030166736" lon="8.493640777273345"><ele>367.0</ele><time>2026-04-18T08:38:20Z</time></trkpt><trkpt lat="45.77169496579234" lon="8.493766703390284"><ele>367.0</ele><time>2026-04-18T08:38:21Z</time></trkpt><trkpt lat="45.771795406873316" lon="8.493900543587399"><ele>368.0</ele><time>2026-04-18T08:38:22Z</time></trkpt><trkpt lat="45.77189169275591" lon="8.494028847086035"><ele>369.0</ele><time>2026-04-18T08:38:23Z</time></trkpt><trkpt lat="45.771974614737765" lon="8.494139342759231"><ele>370.0</ele><time>2026-04-18T08:38:24Z</time></trkpt><trkpt lat="45.77204348323221" lon="8.49423060457795"><ele>371.0</ele><time>2026-04-18T08:38:25Z</time></trkpt><trkpt lat="45.77212244465107" lon="8.494332959125707"><ele>372.0</ele><time>2026-04-18T08:38:26Z</time></trkpt><trkpt lat="45.772189747417606" lon="8.494420201025072"><ele>372.0</ele><time>2026-04-18T08:38:27Z</time></trkpt><trkpt lat="45.772244245193065" lon="8.494490603256233"><ele>372.0</ele><time>2026-04-18T08:38:28Z</time></trkpt><trkpt lat="45.77229731511825" lon="8.494558423248067"><ele>372.0</ele><time>2026-04-18T08:38:29Z</time></trkpt><trkpt lat="45.772361055711364" lon="8.494638231579195"><ele>372.0</ele><time>2026-04-18T08:38:31Z</time></trkpt><trkpt lat="45.77242547180666" lon="8.494647560583696"><ele>372.0</ele><time>2026-04-18T08:38:47Z</time></trkpt><trkpt lat="45.772532443325744" lon="8.494723719576402"><ele>372.0</ele><time>2026-04-18T08:38:50Z</time></trkpt><trkpt lat="45.77264072378511" lon="8.494815527639597"><ele>371.20000000000005</ele><time>2026-04-18T08:38:52Z</time></trkpt><trkpt lat="45.77271811015348" lon="8.494883927936222"><ele>370.4</ele><time>2026-04-18T08:38:53Z</time></trkpt><trkpt lat="45.77280759925162" lon="8.49495286376299"><ele>369.6</ele><time>2026-04-18T08:38:54Z</time></trkpt><trkpt lat="45.77288742205643" lon="8.495017050469757"><ele>368.79999999999995</ele><time>2026-04-18T08:38:55Z</time></trkpt><trkpt lat="45.77297451308052" lon="8.495085697759354"><ele>368.0</ele><time>2026-04-18T08:38:56Z</time></trkpt><trkpt lat="45.77307187252546" lon="8.49514521893491"><ele>368.0</ele><time>2026-04-18T08:38:57Z</time></trkpt><trkpt lat="45.77316801736946" lon="8.495221467961013"><ele>368.0</ele><time>2026-04-18T08:38:58Z</time></trkpt><trkpt lat="45.77326764079093" lon="8.49529330247582"><ele>368.0</ele><time>2026-04-18T08:38:59Z</time></trkpt><trkpt lat="45.77337279590121" lon="8.495365775574939"><ele>368.0</ele><time>2026-04-18T08:39:00Z</time></trkpt><trkpt lat="45.77348019060191" lon="8.495440379138122"><ele>367.75</ele><time>2026-04-18T08:39:01Z</time></trkpt><trkpt lat="45.77358632185754" lon="8.495510782226603"><ele>367.5</ele><time>2026-04-18T08:39:02Z</time></trkpt><trkpt lat="45.77370028403195" lon="8.49559397032601"><ele>367.25</ele><time>2026-04-18T08:39:03Z</time></trkpt><trkpt lat="45.77381774976445" lon="8.495683817362503"><ele>367.0</ele><time>2026-04-18T08:39:04Z</time></trkpt><trkpt lat="45.77394352464715" lon="8.495776117001382"><ele>367.0</ele><time>2026-04-18T08:39:05Z</time></trkpt><trkpt lat="45.77407268939669" lon="8.495864796732038"><ele>367.0</ele><time>2026-04-18T08:39:06Z</time></trkpt><trkpt lat="45.7742059953274" lon="8.495958274867105"><ele>367.0</ele><time>2026-04-18T08:39:07Z</time></trkpt><trkpt lat="45.77434160917199" lon="8.496050793501292"><ele>367.0</ele><time>2026-04-18T08:39:08Z</time></trkpt><trkpt lat="45.77447467931315" lon="8.496146828672632"><ele>367.0</ele><time>2026-04-18T08:39:09Z</time></trkpt><trkpt lat="45.77460980503923" lon="8.496237143398538"><ele>367.0</ele><time>2026-04-18T08:39:10Z</time></trkpt><trkpt lat="45.77474826922938" lon="8.496326766985232"><ele>367.0</ele><time>2026-04-18T08:39:11Z</time></trkpt><trkpt lat="45.77488783656373" lon="8.49642635512926"><ele>367.0</ele><time>2026-04-18T08:39:12Z</time></trkpt><trkpt lat="45.77502932093958" lon="8.496529879165958"><ele>367.0</ele><time>2026-04-18T08:39:13Z</time></trkpt><trkpt lat="45.77516848091594" lon="8.496633301988378"><ele>367.0</ele><time>2026-04-18T08:39:14Z</time></trkpt><trkpt lat="45.775308493711364" lon="8.496744665232985"><ele>368.3333333333333</ele><time>2026-04-18T08:39:15Z</time></trkpt><trkpt lat="45.77544421687827" lon="8.49686433945327"><ele>369.6666666666667</ele><time>2026-04-18T08:39:16Z</time></trkpt><trkpt lat="45.77558160967134" lon="8.496994704376567"><ele>371.0</ele><time>2026-04-18T08:39:17Z</time></trkpt><trkpt lat="45.77571202510178" lon="8.497127396742505"><ele>371.0</ele><time>2026-04-18T08:39:18Z</time></trkpt><trkpt lat="45.77584017579429" lon="8.497265193216398"><ele>371.0</ele><time>2026-04-18T08:39:19Z</time></trkpt><trkpt lat="45.77597111986955" lon="8.497414591431658"><ele>371.0</ele><time>2026-04-18T08:39:20Z</time></trkpt><trkpt lat="45.776100144935356" lon="8.497567693960882"><ele>372.6666666666667</ele><time>2026-04-18T08:39:21Z</time></trkpt><trkpt lat="45.77622845000097" lon="8.497709331240358"><ele>374.3333333333333</ele><time>2026-04-18T08:39:22Z</time></trkpt><trkpt lat="45.7763600241853" lon="8.497853136791019"><ele>376.0</ele><time>2026-04-18T08:39:23Z</time></trkpt><trkpt lat="45.77649447950698" lon="8.498003500802628"><ele>376.0</ele><time>2026-04-18T08:39:24Z</time></trkpt><trkpt lat="45.77663116333763" lon="8.49816263992104"><ele>376.0</ele><time>2026-04-18T08:39:25Z</time></trkpt><trkpt lat="45.776770719186764" lon="8.498318983621754"><ele>376.0</ele><time>2026-04-18T08:39:26Z</time></trkpt><trkpt lat="45.776910820311166" lon="8.498474455402091"><ele>376.3333333333333</ele><time>2026-04-18T08:39:27Z</time></trkpt><trkpt lat="45.77705003105239" lon="8.498632845008002"><ele>376.6666666666667</ele><time>2026-04-18T08:39:28Z</time></trkpt><trkpt lat="45.77719253418443" lon="8.49879837441755"><ele>377.0</ele><time>2026-04-18T08:39:29Z</time></trkpt><trkpt lat="45.77732618041936" lon="8.498945137860758"><ele>377.0</ele><time>2026-04-18T08:39:30Z</time></trkpt><trkpt lat="45.77745714868175" lon="8.499089796316518"><ele>377.0</ele><time>2026-04-18T08:39:31Z</time></trkpt><trkpt lat="45.77758423321377" lon="8.499235074733448"><ele>377.0</ele><time>2026-04-18T08:39:32Z</time></trkpt><trkpt lat="45.77771347943248" lon="8.499379840723268"><ele>377.0</ele><time>2026-04-18T08:39:33Z</time></trkpt><trkpt lat="45.77783871734507" lon="8.499523740547993"><ele>377.0</ele><time>2026-04-18T08:39:34Z</time></trkpt><trkpt lat="45.77795890627591" lon="8.499655029916939"><ele>377.0</ele><time>2026-04-18T08:39:35Z</time></trkpt><trkpt lat="45.77806594615735" lon="8.49977067614867"><ele>377.0</ele><time>2026-04-18T08:39:36Z</time></trkpt><trkpt lat="45.778166545162144" lon="8.49988141826149"><ele>377.0</ele><time>2026-04-18T08:39:37Z</time></trkpt><trkpt lat="45.7782601286045" lon="8.499984147479935"><ele>377.0</ele><time>2026-04-18T08:39:38Z</time></trkpt><trkpt lat="45.778362185084085" lon="8.50008431654402"><ele>377.0</ele><time>2026-04-18T08:39:39Z</time></trkpt><trkpt lat="45.77845047289765" lon="8.500181254197413"><ele>377.0</ele><time>2026-04-18T08:39:40Z</time></trkpt><trkpt lat="45.77853463763714" lon="8.500270331212842"><ele>376.8</ele><time>2026-04-18T08:39:41Z</time></trkpt><trkpt lat="45.77861004299787" lon="8.500354568522559"><ele>376.6</ele><time>2026-04-18T08:39:42Z</time></trkpt><trkpt lat="45.77868503488796" lon="8.50044002432844"><ele>376.40000000000003</ele><time>2026-04-18T08:39:43Z</time></trkpt><trkpt lat="45.77875347110863" lon="8.500513795596271"><ele>376.20000000000005</ele><time>2026-04-18T08:39:44Z</time></trkpt><trkpt lat="45.77882458969217" lon="8.5005904036498"><ele>376.0</ele><time>2026-04-18T08:39:45Z</time></trkpt><trkpt lat="45.77889177024731" lon="8.500676666731323"><ele>376.0</ele><time>2026-04-18T08:39:46Z</time></trkpt><trkpt lat="45.77895988709854" lon="8.500757611473789"><ele>376.0</ele><time>2026-04-18T08:39:47Z</time></trkpt><trkpt lat="45.779035261557134" lon="8.500845411183313"><ele>376.0</ele><time>2026-04-18T08:39:48Z</time></trkpt><trkpt lat="45.779106685988964" lon="8.500930348497747"><ele>376.0</ele><time>2026-04-18T08:39:49Z</time></trkpt><trkpt lat="45.779179614262986" lon="8.501026047481698"><ele>376.0</ele><time>2026-04-18T08:39:50Z</time></trkpt><trkpt lat="45.77924519448475" lon="8.501132024502558"><ele>376.0</ele><time>2026-04-18T08:39:51Z</time></trkpt><trkpt lat="45.77929908486662" lon="8.501233313877062"><ele>376.0</ele><time>2026-04-18T08:39:52Z</time></trkpt><trkpt lat="45.77935033688666" lon="8.501340537654308"><ele>376.0</ele><time>2026-04-18T08:39:53Z</time></trkpt><trkpt lat="45.77939366691452" lon="8.501443013412473"><ele>376.0</ele><time>2026-04-18T08:39:54Z</time></trkpt><trkpt lat="45.77940909517267" lon="8.501545936404566"><ele>376.0</ele><time>2026-04-18T08:39:55Z</time></trkpt><trkpt lat="45.779434025658034" lon="8.501629279652725"><ele>376.0</ele><time>2026-04-18T08:39:56Z</time></trkpt><trkpt lat="45.779533812699945" lon="8.501618925800653"><ele>376.3333333333333</ele><time>2026-04-18T08:39:57Z</time></trkpt><trkpt lat="45.779666162549006" lon="8.501604444174768"><ele>376.66666666666663</ele><time>2026-04-18T08:39:59Z</time></trkpt><trkpt lat="45.77972652788217" lon="8.501663786858192"><ele>377.0</ele><time>2026-04-18T08:40:00Z</time></trkpt><trkpt lat="45.779779998467085" lon="8.501744249414253"><ele>377.3333333333333</ele><time>2026-04-18T08:40:01Z</time></trkpt><trkpt lat="45.77983660996045" lon="8.501823795445317"><ele>377.6666666666667</ele><time>2026-04-18T08:40:02Z</time></trkpt><trkpt lat="45.77990674863713" lon="8.501894361466709"><ele>378.0</ele><time>2026-04-18T08:40:03Z</time></trkpt><trkpt lat="45.779987368273574" lon="8.50197720719664"><ele>378.0</ele><time>2026-04-18T08:40:04Z</time></trkpt><trkpt lat="45.78006986365425" lon="8.502071507388704"><ele>378.0</ele><time>2026-04-18T08:40:05Z</time></trkpt><trkpt lat="45.78015265944476" lon="8.502166907298953"><ele>378.0</ele><time>2026-04-18T08:40:06Z</time></trkpt><trkpt lat="45.78023472797836" lon="8.50226549899062"><ele>378.0</ele><time>2026-04-18T08:40:07Z</time></trkpt><trkpt lat="45.780315650668676" lon="8.502360672928383"><ele>378.0</ele><time>2026-04-18T08:40:08Z</time></trkpt><trkpt lat="45.780399326863645" lon="8.5024555614734"><ele>378.3333333333333</ele><time>2026-04-18T08:40:09Z</time></trkpt><trkpt lat="45.78047622561314" lon="8.50255112915224"><ele>378.6666666666667</ele><time>2026-04-18T08:40:10Z</time></trkpt><trkpt lat="45.78054620815447" lon="8.502621332118913"><ele>379.0</ele><time>2026-04-18T08:40:11Z</time></trkpt><trkpt lat="45.78061152253719" lon="8.50268907056829"><ele>379.33333333333337</ele><time>2026-04-18T08:40:12Z</time></trkpt><trkpt lat="45.780664412169216" lon="8.50275293250808"><ele>379.6666666666667</ele><time>2026-04-18T08:40:13Z</time></trkpt><trkpt lat="45.78073253418858" lon="8.502833386851476"><ele>380.0</ele><time>2026-04-18T08:40:14Z</time></trkpt><trkpt lat="45.7807977977681" lon="8.502938182062076"><ele>380.0</ele><time>2026-04-18T08:40:15Z</time></trkpt><trkpt lat="45.78087999042209" lon="8.503035171581264"><ele>380.0</ele><time>2026-04-18T08:40:16Z</time></trkpt><trkpt lat="45.780960210790404" lon="8.503097912466712"><ele>380.0</ele><time>2026-04-18T08:40:17Z</time></trkpt><trkpt lat="45.781012181990114" lon="8.50317993346194"><ele>380.0</ele><time>2026-04-18T08:40:18Z</time></trkpt><trkpt lat="45.781071470124566" lon="8.503252476295959"><ele>380.0</ele><time>2026-04-18T08:40:19Z</time></trkpt><trkpt lat="45.78112069593943" lon="8.503309290661393"><ele>380.0</ele><time>2026-04-18T08:40:20Z</time></trkpt><trkpt lat="45.7811932566269" lon="8.503396464348922"><ele>380.4</ele><time>2026-04-18T08:40:22Z</time></trkpt><trkpt lat="45.78126657057403" lon="8.503495057270294"><ele>380.8</ele><time>2026-04-18T08:40:33Z</time></trkpt><trkpt lat="45.781326997781434" lon="8.503570324332607"><ele>381.20000000000005</ele><time>2026-04-18T08:40:34Z</time></trkpt><trkpt lat="45.78137642088904" lon="8.50363090177808"><ele>381.6</ele><time>2026-04-18T08:40:35Z</time></trkpt><trkpt lat="45.7814497238149" lon="8.503703799448713"><ele>382.0</ele><time>2026-04-18T08:40:37Z</time></trkpt><trkpt lat="45.78157314298267" lon="8.503768095419497"><ele>382.0</ele><time>2026-04-18T08:40:39Z</time></trkpt><trkpt lat="45.78163867323311" lon="8.503808732407792"><ele>382.0</ele><time>2026-04-18T08:40:40Z</time></trkpt><trkpt lat="45.781708957784176" lon="8.50385262139404"><ele>382.0</ele><time>2026-04-18T08:40:41Z</time></trkpt><trkpt lat="45.78177356452725" lon="8.503901668148435"><ele>382.0</ele><time>2026-04-18T08:40:42Z</time></trkpt><trkpt lat="45.781834907697245" lon="8.503952228129458"><ele>382.0</ele><time>2026-04-18T08:40:43Z</time></trkpt><trkpt lat="45.78191808375882" lon="8.504005569599904"><ele>382.0</ele><time>2026-04-18T08:40:45Z</time></trkpt><trkpt lat="45.78196290105894" lon="8.504102419516036"><ele>382.0</ele><time>2026-04-18T08:40:48Z</time></trkpt><trkpt lat="45.78186459318136" lon="8.504256075062889"><ele>382.0</ele><time>2026-04-18T08:40:59Z</time></trkpt><trkpt lat="45.78179999425321" lon="8.504280434410477"><ele>382.0</ele><time>2026-04-18T08:41:00Z</time></trkpt><trkpt lat="45.78170617109043" lon="8.504328666783719"><ele>382.0</ele><time>2026-04-18T08:41:02Z</time></trkpt><trkpt lat="45.78163591901014" lon="8.504369713472338"><ele>382.0</ele><time>2026-04-18T08:41:03Z</time></trkpt><trkpt lat="45.78154591390023" lon="8.504415222517729"><ele>382.0</ele><time>2026-04-18T08:41:04Z</time></trkpt><trkpt lat="45.781451156223866" lon="8.504455253959483"><ele>382.0</ele><time>2026-04-18T08:41:05Z</time></trkpt><trkpt lat="45.781346643268016" lon="8.504483373640067"><ele>382.0</ele><time>2026-04-18T08:41:06Z</time></trkpt><trkpt lat="45.78123284441658" lon="8.50449037399496"><ele>382.0</ele><time>2026-04-18T08:41:07Z</time></trkpt><trkpt lat="45.78111912518105" lon="8.504478716406688"><ele>382.0</ele><time>2026-04-18T08:41:08Z</time></trkpt><trkpt lat="45.78100622725721" lon="8.504454237827908"><ele>381.6</ele><time>2026-04-18T08:41:09Z</time></trkpt><trkpt lat="45.78091365089463" lon="8.504417969980826"><ele>381.20000000000005</ele><time>2026-04-18T08:41:10Z</time></trkpt><trkpt lat="45.780833255749265" lon="8.504361433906979"><ele>380.8</ele><time>2026-04-18T08:41:11Z</time></trkpt><trkpt lat="45.78077802942759" lon="8.504308995212442"><ele>380.4</ele><time>2026-04-18T08:41:12Z</time></trkpt><trkpt lat="45.78069064020878" lon="8.504197730643305"><ele>380.0</ele><time>2026-04-18T08:41:14Z</time></trkpt><trkpt lat="45.780642094235056" lon="8.504096623429753"><ele>380.0</ele><time>2026-04-18T08:41:16Z</time></trkpt><trkpt lat="45.78062206596317" lon="8.503972442913842"><ele>380.0</ele><time>2026-04-18T08:41:18Z</time></trkpt><trkpt lat="45.78068656030009" lon="8.503831209188217"><ele>380.0</ele><time>2026-04-18T08:41:20Z</time></trkpt><trkpt lat="45.780762832771124" lon="8.503730204026288"><ele>380.0</ele><time>2026-04-18T08:41:22Z</time></trkpt><trkpt lat="45.78081213608856" lon="8.503651408501533"><ele>380.0</ele><time>2026-04-18T08:41:24Z</time></trkpt><trkpt lat="45.78087513540997" lon="8.50357654269013"><ele>380.0</ele><time>2026-04-18T08:41:26Z</time></trkpt><trkpt lat="45.78080911412678" lon="8.503653980473686"><ele>380.0</ele><time>2026-04-18T08:41:31Z</time></trkpt><trkpt lat="45.78072699555725" lon="8.503775217118523"><ele>380.0</ele><time>2026-04-18T08:41:33Z</time></trkpt><trkpt lat="45.78065195261139" lon="8.503917410979653"><ele>380.0</ele><time>2026-04-18T08:41:35Z</time></trkpt><trkpt lat="45.78057755251947" lon="8.504029795144834"><ele>380.0</ele><time>2026-04-18T08:41:37Z</time></trkpt><trkpt lat="45.78051130116021" lon="8.504142012218601"><ele>380.0</ele><time>2026-04-18T08:41:39Z</time></trkpt><trkpt lat="45.7804689557039" lon="8.504237557256452"><ele>380.0</ele><time>2026-04-18T08:41:40Z</time></trkpt><trkpt lat="45.780426609523566" lon="8.504339339506723"><ele>380.0</ele><time>2026-04-18T08:41:41Z</time></trkpt><trkpt lat="45.78037605460558" lon="8.504419335724485"><ele>380.0</ele><time>2026-04-18T08:41:42Z</time></trkpt><trkpt lat="45.78031798470687" lon="8.504490972059157"><ele>380.0</ele><time>2026-04-18T08:41:43Z</time></trkpt><trkpt lat="45.78026181012042" lon="8.504558486901693"><ele>380.0</ele><time>2026-04-18T08:41:44Z</time></trkpt><trkpt lat="45.78020567678328" lon="8.504625348999399"><ele>379.0</ele><time>2026-04-18T08:41:45Z</time></trkpt><trkpt lat="45.78014054266519" lon="8.504707720958793"><ele>378.0</ele><time>2026-04-18T08:41:46Z</time></trkpt><trkpt lat="45.78007677661657" lon="8.504820784192368"><ele>377.0</ele><time>2026-04-18T08:41:47Z</time></trkpt><trkpt lat="45.78000410701122" lon="8.504953633935495"><ele>376.0</ele><time>2026-04-18T08:41:48Z</time></trkpt><trkpt lat="45.77991903820852" lon="8.505091328418697"><ele>375.0</ele><time>2026-04-18T08:41:49Z</time></trkpt><trkpt lat="45.779825937541695" lon="8.505241712164468"><ele>375.0</ele><time>2026-04-18T08:41:50Z</time></trkpt><trkpt lat="45.7797320404482" lon="8.505407836051019"><ele>375.0</ele><time>2026-04-18T08:41:51Z</time></trkpt><trkpt lat="45.779633967083775" lon="8.50558601028187"><ele>375.0</ele><time>2026-04-18T08:41:52Z</time></trkpt><trkpt lat="45.779538253436705" lon="8.505767679645928"><ele>374.5</ele><time>2026-04-18T08:41:53Z</time></trkpt><trkpt lat="45.77945741669642" lon="8.50594767168194"><ele>374.0</ele><time>2026-04-18T08:41:54Z</time></trkpt><trkpt lat="45.779386136522795" lon="8.506117002780007"><ele>373.5</ele><time>2026-04-18T08:41:55Z</time></trkpt><trkpt lat="45.77932087696358" lon="8.506269376591794"><ele>373.0</ele><time>2026-04-18T08:41:56Z</time></trkpt><trkpt lat="45.77925642053333" lon="8.506417941214254"><ele>373.0</ele><time>2026-04-18T08:41:57Z</time></trkpt><trkpt lat="45.779198321231476" lon="8.506553987793799"><ele>373.0</ele><time>2026-04-18T08:41:58Z</time></trkpt><trkpt lat="45.77912456647642" lon="8.50666252689455"><ele>373.0</ele><time>2026-04-18T08:41:59Z</time></trkpt><trkpt lat="45.77906445762906" lon="8.506771379582117"><ele>373.0</ele><time>2026-04-18T08:42:00Z</time></trkpt><trkpt lat="45.779005085464476" lon="8.506878480455777"><ele>373.0</ele><time>2026-04-18T08:42:01Z</time></trkpt><trkpt lat="45.778570015680714" lon="8.507666263856168"><ele>375.75</ele><time>2026-04-18T08:42:23Z</time></trkpt><trkpt lat="45.77850165043786" lon="8.507756282941461"><ele>378.5</ele><time>2026-04-18T08:42:25Z</time></trkpt><trkpt lat="45.77839219543126" lon="8.507805211754642"><ele>381.25</ele><time>2026-04-18T08:42:27Z</time></trkpt><trkpt lat="45.778257171988955" lon="8.507748720631106"><ele>384.0</ele><time>2026-04-18T08:42:29Z</time></trkpt><trkpt lat="45.77818627463242" lon="8.507638670809106"><ele>384.0</ele><time>2026-04-18T08:42:30Z</time></trkpt><trkpt lat="45.77812532032509" lon="8.507533040134474"><ele>384.0</ele><time>2026-04-18T08:42:31Z</time></trkpt><trkpt lat="45.778058146414025" lon="8.507424611881554"><ele>384.0</ele><time>2026-04-18T08:42:32Z</time></trkpt><trkpt lat="45.77800125075191" lon="8.507292038085158"><ele>384.0</ele><time>2026-04-18T08:42:33Z</time></trkpt><trkpt lat="45.77792809857844" lon="8.507160215289561"><ele>384.0</ele><time>2026-04-18T08:42:34Z</time></trkpt><trkpt lat="45.77784299751965" lon="8.507006098667816"><ele>381.25</ele><time>2026-04-18T08:42:35Z</time></trkpt><trkpt lat="45.77774721518246" lon="8.506864195121867"><ele>378.5</ele><time>2026-04-18T08:42:36Z</time></trkpt><trkpt lat="45.777668084616856" lon="8.50668867063698"><ele>375.75</ele><time>2026-04-18T08:42:37Z</time></trkpt><trkpt lat="45.77756299808775" lon="8.50653385730434"><ele>373.0</ele><time>2026-04-18T08:42:38Z</time></trkpt><trkpt lat="45.777469756285626" lon="8.506360473459312"><ele>375.25</ele><time>2026-04-18T08:42:39Z</time></trkpt><trkpt lat="45.777379317782625" lon="8.506189129022772"><ele>377.5</ele><time>2026-04-18T08:42:40Z</time></trkpt><trkpt lat="45.777288310600156" lon="8.506029269100452"><ele>379.75</ele><time>2026-04-18T08:42:41Z</time></trkpt><trkpt lat="45.77718317551446" lon="8.505887632399233"><ele>382.0</ele><time>2026-04-18T08:42:42Z</time></trkpt><trkpt lat="45.77706906512146" lon="8.505761588549337"><ele>382.0</ele><time>2026-04-18T08:42:43Z</time></trkpt><trkpt lat="45.77694896299567" lon="8.505634463843094"><ele>382.0</ele><time>2026-04-18T08:42:44Z</time></trkpt><trkpt lat="45.77684608015519" lon="8.505498308619782"><ele>382.0</ele><time>2026-04-18T08:42:45Z</time></trkpt><trkpt lat="45.77675057723913" lon="8.505378534381862"><ele>382.0</ele><time>2026-04-18T08:42:46Z</time></trkpt><trkpt lat="45.77666443943427" lon="8.505269786785792"><ele>385.6</ele><time>2026-04-18T08:42:47Z</time></trkpt><trkpt lat="45.77658296149693" lon="8.505186014601746"><ele>389.20000000000005</ele><time>2026-04-18T08:42:48Z</time></trkpt><trkpt lat="45.776521415929885" lon="8.505096474239732"><ele>392.8</ele><time>2026-04-18T08:42:49Z</time></trkpt><trkpt lat="45.77644977028651" lon="8.50505981990532"><ele>396.4</ele><time>2026-04-18T08:42:50Z</time></trkpt><trkpt lat="45.77638876768151" lon="8.505105910207682"><ele>400.0</ele><time>2026-04-18T08:42:51Z</time></trkpt><trkpt lat="45.776396968750994" lon="8.505298294597287"><ele>405.0</ele><time>2026-04-18T08:42:53Z</time></trkpt><trkpt lat="45.776489516589535" lon="8.505419946445873"><ele>410.0</ele><time>2026-04-18T08:42:54Z</time></trkpt><trkpt lat="45.776596617790894" lon="8.505541985017794"><ele>415.0</ele><time>2026-04-18T08:42:55Z</time></trkpt><trkpt lat="45.77673024791702" lon="8.505710688127936"><ele>420.0</ele><time>2026-04-18T08:42:56Z</time></trkpt><trkpt lat="45.776824818433404" lon="8.505924583016919"><ele>412.33333333333337</ele><time>2026-04-18T08:42:57Z</time></trkpt><trkpt lat="45.77691873326802" lon="8.506126303970374"><ele>404.6666666666667</ele><time>2026-04-18T08:42:58Z</time></trkpt><trkpt lat="45.777016136938066" lon="8.506340571776802"><ele>397.0</ele><time>2026-04-18T08:42:59Z</time></trkpt><trkpt lat="45.777094605226175" lon="8.506524343953739"><ele>397.0</ele><time>2026-04-18T08:43:00Z</time></trkpt><trkpt lat="45.77713736355494" lon="8.50667912123985"><ele>397.0</ele><time>2026-04-18T08:43:01Z</time></trkpt><trkpt lat="45.77713118173694" lon="8.506829197616598"><ele>397.0</ele><time>2026-04-18T08:43:02Z</time></trkpt><trkpt lat="45.77714368972913" lon="8.507018016333049"><ele>397.0</ele><time>2026-04-18T08:43:03Z</time></trkpt><trkpt lat="45.7771461930577" lon="8.507206783439928"><ele>401.75</ele><time>2026-04-18T08:43:04Z</time></trkpt><trkpt lat="45.77720768352046" lon="8.507351830253114"><ele>406.5</ele><time>2026-04-18T08:43:05Z</time></trkpt><trkpt lat="45.777299356090786" lon="8.50748889957754"><ele>411.25</ele><time>2026-04-18T08:43:06Z</time></trkpt><trkpt lat="45.77738391303224" lon="8.507621104517503"><ele>416.0</ele><time>2026-04-18T08:43:07Z</time></trkpt><trkpt lat="45.77747009173633" lon="8.507747610996454"><ele>416.0</ele><time>2026-04-18T08:43:08Z</time></trkpt><trkpt lat="45.77753391304715" lon="8.50788575426459"><ele>416.0</ele><time>2026-04-18T08:43:09Z</time></trkpt><trkpt lat="45.77760524835108" lon="8.508024189920086"><ele>416.0</ele><time>2026-04-18T08:43:10Z</time></trkpt><trkpt lat="45.77766976675269" lon="8.508170709485611"><ele>416.0</ele><time>2026-04-18T08:43:11Z</time></trkpt><trkpt lat="45.77772640210121" lon="8.508320007127878"><ele>417.25</ele><time>2026-04-18T08:43:12Z</time></trkpt><trkpt lat="45.7777719314739" lon="8.508489794460179"><ele>418.5</ele><time>2026-04-18T08:43:13Z</time></trkpt><trkpt lat="45.777800102847756" lon="8.508674259862977"><ele>419.75</ele><time>2026-04-18T08:43:14Z</time></trkpt><trkpt lat="45.77778734417971" lon="8.508863678443234"><ele>421.0</ele><time>2026-04-18T08:43:15Z</time></trkpt><trkpt lat="45.77779888127392" lon="8.509054977885278"><ele>421.0</ele><time>2026-04-18T08:43:16Z</time></trkpt><trkpt lat="45.77779120235259" lon="8.509236867956066"><ele>421.0</ele><time>2026-04-18T08:43:17Z</time></trkpt><trkpt lat="45.77778674519314" lon="8.509396218510673"><ele>421.0</ele><time>2026-04-18T08:43:18Z</time></trkpt><trkpt lat="45.77778186438321" lon="8.50954032026801"><ele>421.0</ele><time>2026-04-18T08:43:19Z</time></trkpt><trkpt lat="45.7777599362925" lon="8.509683928373075"><ele>421.0</ele><time>2026-04-18T08:43:20Z</time></trkpt><trkpt lat="45.77769330483096" lon="8.509809810879052"><ele>423.75</ele><time>2026-04-18T08:43:21Z</time></trkpt><trkpt lat="45.77761831840633" lon="8.509936895042495"><ele>426.5</ele><time>2026-04-18T08:43:22Z</time></trkpt><trkpt lat="45.77750463101731" lon="8.510051452192887"><ele>429.25</ele><time>2026-04-18T08:43:23Z</time></trkpt><trkpt lat="45.777384303975786" lon="8.51016006296868"><ele>432.0</ele><time>2026-04-18T08:43:24Z</time></trkpt><trkpt lat="45.77725730246248" lon="8.510268522416261"><ele>432.0</ele><time>2026-04-18T08:43:25Z</time></trkpt><trkpt lat="45.77711302345742" lon="8.510363815360998"><ele>432.0</ele><time>2026-04-18T08:43:26Z</time></trkpt><trkpt lat="45.77697308445952" lon="8.510487141426871"><ele>432.0</ele><time>2026-04-18T08:43:27Z</time></trkpt><trkpt lat="45.77682809980621" lon="8.510600509251518"><ele>433.66666666666663</ele><time>2026-04-18T08:43:28Z</time></trkpt><trkpt lat="45.776669923260584" lon="8.510698345837636"><ele>435.3333333333333</ele><time>2026-04-18T08:43:29Z</time></trkpt><trkpt lat="45.77651256445746" lon="8.510772620431068"><ele>437.0</ele><time>2026-04-18T08:43:30Z</time></trkpt><trkpt lat="45.77636802317716" lon="8.510859134294913"><ele>437.0</ele><time>2026-04-18T08:43:31Z</time></trkpt><trkpt lat="45.77607618686195" lon="8.511039498590755"><ele>437.0</ele><time>2026-04-18T08:43:33Z</time></trkpt><trkpt lat="45.77597117296377" lon="8.511163989620801"><ele>437.0</ele><time>2026-04-18T08:43:34Z</time></trkpt><trkpt lat="45.77588762122115" lon="8.511299949517676"><ele>437.0</ele><time>2026-04-18T08:43:35Z</time></trkpt><trkpt lat="45.77581981261067" lon="8.511448120939066"><ele>437.0</ele><time>2026-04-18T08:43:36Z</time></trkpt><trkpt lat="45.77575608423216" lon="8.511596545287881"><ele>437.0</ele><time>2026-04-18T08:43:37Z</time></trkpt><trkpt lat="45.77570559250379" lon="8.511748753699923"><ele>437.0</ele><time>2026-04-18T08:43:38Z</time></trkpt><trkpt lat="45.775654858885645" lon="8.51192340894495"><ele>437.0</ele><time>2026-04-18T08:43:39Z</time></trkpt><trkpt lat="45.77556852449888" lon="8.512065681861472"><ele>437.0</ele><time>2026-04-18T08:43:40Z</time></trkpt><trkpt lat="45.77548568851423" lon="8.5121766097232"><ele>437.0</ele><time>2026-04-18T08:43:41Z</time></trkpt><trkpt lat="45.775379265483586" lon="8.512277162179293"><ele>437.25</ele><time>2026-04-18T08:43:42Z</time></trkpt><trkpt lat="45.77525703855515" lon="8.512373106385464"><ele>437.5</ele><time>2026-04-18T08:43:43Z</time></trkpt><trkpt lat="45.77513497191115" lon="8.512488844490784"><ele>437.75</ele><time>2026-04-18T08:43:44Z</time></trkpt><trkpt lat="45.77501044804469" lon="8.512579606223861"><ele>438.0</ele><time>2026-04-18T08:43:45Z</time></trkpt><trkpt lat="45.77476126588871" lon="8.51276721934933"><ele>438.0</ele><time>2026-04-18T08:43:47Z</time></trkpt><trkpt lat="45.77463334835189" lon="8.51280340006199"><ele>438.0</ele><time>2026-04-18T08:43:48Z</time></trkpt><trkpt lat="45.77451601895866" lon="8.512866877471652"><ele>438.0</ele><time>2026-04-18T08:43:49Z</time></trkpt><trkpt lat="45.77439415664387" lon="8.512886579167285"><ele>438.0</ele><time>2026-04-18T08:43:50Z</time></trkpt><trkpt lat="45.77425536187779" lon="8.512927331752959"><ele>438.0</ele><time>2026-04-18T08:43:51Z</time></trkpt><trkpt lat="45.774137593441495" lon="8.512967618220372"><ele>438.0</ele><time>2026-04-18T08:43:52Z</time></trkpt><trkpt lat="45.77402358028476" lon="8.513063463340027"><ele>438.0</ele><time>2026-04-18T08:43:53Z</time></trkpt><trkpt lat="45.77391765666764" lon="8.513209443424277"><ele>438.0</ele><time>2026-04-18T08:43:54Z</time></trkpt><trkpt lat="45.77380203472349" lon="8.513369065394057"><ele>438.0</ele><time>2026-04-18T08:43:55Z</time></trkpt><trkpt lat="45.77367818442515" lon="8.513484257245837"><ele>438.0</ele><time>2026-04-18T08:43:56Z</time></trkpt><trkpt lat="45.7735582867096" lon="8.513563179249035"><ele>438.0</ele><time>2026-04-18T08:43:57Z</time></trkpt><trkpt lat="45.77344160989678" lon="8.513584035237818"><ele>438.0</ele><time>2026-04-18T08:43:58Z</time></trkpt><trkpt lat="45.77332370371197" lon="8.513576899521786"><ele>435.5</ele><time>2026-04-18T08:43:59Z</time></trkpt><trkpt lat="45.773211463592475" lon="8.513515605687207"><ele>433.0</ele><time>2026-04-18T08:44:00Z</time></trkpt><trkpt lat="45.77309209582879" lon="8.513455722436467"><ele>430.5</ele><time>2026-04-18T08:44:01Z</time></trkpt><trkpt lat="45.77296491232677" lon="8.51340687753291"><ele>428.0</ele><time>2026-04-18T08:44:02Z</time></trkpt><trkpt lat="45.77284718579157" lon="8.513327674242204"><ele>428.0</ele><time>2026-04-18T08:44:03Z</time></trkpt><trkpt lat="45.77274217805756" lon="8.513263019335179"><ele>428.0</ele><time>2026-04-18T08:44:04Z</time></trkpt><trkpt lat="45.77263462356803" lon="8.513234916740519"><ele>428.0</ele><time>2026-04-18T08:44:05Z</time></trkpt><trkpt lat="45.77251517616951" lon="8.513229543230118"><ele>428.0</ele><time>2026-04-18T08:44:06Z</time></trkpt><trkpt lat="45.77240613056587" lon="8.513254688489507"><ele>427.4</ele><time>2026-04-18T08:44:07Z</time></trkpt><trkpt lat="45.77228590539183" lon="8.51326385604884"><ele>426.79999999999995</ele><time>2026-04-18T08:44:08Z</time></trkpt><trkpt lat="45.772169932853195" lon="8.51327563208045"><ele>426.2</ele><time>2026-04-18T08:44:09Z</time></trkpt><trkpt lat="45.77206648783114" lon="8.513273218817595"><ele>425.6</ele><time>2026-04-18T08:44:10Z</time></trkpt><trkpt lat="45.77197234659747" lon="8.513238966094717"><ele>425.0</ele><time>2026-04-18T08:44:11Z</time></trkpt><trkpt lat="45.77188268714306" lon="8.513208954483455"><ele>424.6</ele><time>2026-04-18T08:44:12Z</time></trkpt><trkpt lat="45.77183428961866" lon="8.513109104459373"><ele>424.2</ele><time>2026-04-18T08:44:13Z</time></trkpt><trkpt lat="45.771773986400376" lon="8.51304775317064"><ele>423.79999999999995</ele><time>2026-04-18T08:44:14Z</time></trkpt><trkpt lat="45.77170468773901" lon="8.512949641622367"><ele>423.4</ele><time>2026-04-18T08:44:16Z</time></trkpt><trkpt lat="45.771625122448455" lon="8.512900790043036"><ele>423.0</ele><time>2026-04-18T08:44:25Z</time></trkpt><trkpt lat="45.77154118015573" lon="8.51302516419998"><ele>423.0</ele><time>2026-04-18T08:44:27Z</time></trkpt><trkpt lat="45.77152539956996" lon="8.513135732928546"><ele>423.0</ele><time>2026-04-18T08:44:28Z</time></trkpt><trkpt lat="45.77149396081317" lon="8.513309752377783"><ele>423.0</ele><time>2026-04-18T08:44:30Z</time></trkpt><trkpt lat="45.77148510274729" lon="8.51341082614938"><ele>423.0</ele><time>2026-04-18T08:44:31Z</time></trkpt><trkpt lat="45.77147211324982" lon="8.51350826605718"><ele>423.0</ele><time>2026-04-18T08:44:32Z</time></trkpt><trkpt lat="45.77144132950642" lon="8.51362526701372"><ele>423.0</ele><time>2026-04-18T08:44:33Z</time></trkpt><trkpt lat="45.7713877574384" lon="8.513736663925553"><ele>423.2</ele><time>2026-04-18T08:44:34Z</time></trkpt><trkpt lat="45.771330105779455" lon="8.51386409201817"><ele>423.4</ele><time>2026-04-18T08:44:35Z</time></trkpt><trkpt lat="45.77128467449158" lon="8.513989033301101"><ele>423.59999999999997</ele><time>2026-04-18T08:44:36Z</time></trkpt><trkpt lat="45.77123252380103" lon="8.514103903862374"><ele>423.79999999999995</ele><time>2026-04-18T08:44:37Z</time></trkpt><trkpt lat="45.77117217665335" lon="8.514250244367148"><ele>424.0</ele><time>2026-04-18T08:44:38Z</time></trkpt><trkpt lat="45.771126116256326" lon="8.514388809572509"><ele>424.0</ele><time>2026-04-18T08:44:39Z</time></trkpt><trkpt lat="45.771097015748715" lon="8.5145050260396"><ele>424.0</ele><time>2026-04-18T08:44:40Z</time></trkpt><trkpt lat="45.771072673929794" lon="8.51464303770904"><ele>424.0</ele><time>2026-04-18T08:44:41Z</time></trkpt><trkpt lat="45.77104254223254" lon="8.514792267345456"><ele>424.0</ele><time>2026-04-18T08:44:42Z</time></trkpt><trkpt lat="45.77102133995577" lon="8.51491724433052"><ele>424.0</ele><time>2026-04-18T08:44:43Z</time></trkpt><trkpt lat="45.771003408087964" lon="8.515009563509873"><ele>422.25</ele><time>2026-04-18T08:44:44Z</time></trkpt><trkpt lat="45.770946055436006" lon="8.515083103679887"><ele>420.5</ele><time>2026-04-18T08:44:49Z</time></trkpt><trkpt lat="45.77074009072297" lon="8.514957798213898"><ele>418.75</ele><time>2026-04-18T08:44:50Z</time></trkpt><trkpt lat="45.77063339711438" lon="8.514905719775394"><ele>417.0</ele><time>2026-04-18T08:44:51Z</time></trkpt><trkpt lat="45.77053569023477" lon="8.514867362396023"><ele>417.0</ele><time>2026-04-18T08:44:52Z</time></trkpt><trkpt lat="45.770444643965305" lon="8.514824506362297"><ele>417.0</ele><time>2026-04-18T08:44:53Z</time></trkpt><trkpt lat="45.77035955853307" lon="8.514790016288103"><ele>417.0</ele><time>2026-04-18T08:44:54Z</time></trkpt><trkpt lat="45.770291113009726" lon="8.51474792184478"><ele>417.0</ele><time>2026-04-18T08:44:55Z</time></trkpt><trkpt lat="45.77022643855695" lon="8.514737824040871"><ele>417.0</ele><time>2026-04-18T08:44:56Z</time></trkpt><trkpt lat="45.770122087113606" lon="8.514667156626183"><ele>417.0</ele><time>2026-04-18T08:44:58Z</time></trkpt><trkpt lat="45.77001630808564" lon="8.514624706931412"><ele>416.40000000000003</ele><time>2026-04-18T08:45:00Z</time></trkpt><trkpt lat="45.7699156621079" lon="8.51463534654193"><ele>415.8</ele><time>2026-04-18T08:45:01Z</time></trkpt><trkpt lat="45.769805593763586" lon="8.514669254750752"><ele>415.2</ele><time>2026-04-18T08:45:02Z</time></trkpt><trkpt lat="45.76971075387151" lon="8.514680926293657"><ele>414.6</ele><time>2026-04-18T08:45:03Z</time></trkpt><trkpt lat="45.769617205505355" lon="8.514717977754037"><ele>414.0</ele><time>2026-04-18T08:45:04Z</time></trkpt><trkpt lat="45.76952034075433" lon="8.514768549566025"><ele>414.0</ele><time>2026-04-18T08:45:05Z</time></trkpt><trkpt lat="45.76941107254954" lon="8.51480002561238"><ele>414.0</ele><time>2026-04-18T08:45:06Z</time></trkpt><trkpt lat="45.76932195205247" lon="8.514831927450471"><ele>414.0</ele><time>2026-04-18T08:45:07Z</time></trkpt><trkpt lat="45.76921692733298" lon="8.514851031073496"><ele>414.0</ele><time>2026-04-18T08:45:08Z</time></trkpt><trkpt lat="45.769127531916155" lon="8.514857650452193"><ele>414.0</ele><time>2026-04-18T08:45:09Z</time></trkpt><trkpt lat="45.76902747702354" lon="8.514863541606967"><ele>413.25</ele><time>2026-04-18T08:45:10Z</time></trkpt><trkpt lat="45.7689161622447" lon="8.514870599588136"><ele>412.5</ele><time>2026-04-18T08:45:11Z</time></trkpt><trkpt lat="45.76879088886632" lon="8.514859230996555"><ele>411.75</ele><time>2026-04-18T08:45:12Z</time></trkpt><trkpt lat="45.768666525685695" lon="8.51485392709752"><ele>411.0</ele><time>2026-04-18T08:45:13Z</time></trkpt><trkpt lat="45.768552210932015" lon="8.514833259104705"><ele>411.6666666666667</ele><time>2026-04-18T08:45:14Z</time></trkpt><trkpt lat="45.76846560521726" lon="8.514829216368284"><ele>412.33333333333337</ele><time>2026-04-18T08:45:15Z</time></trkpt><trkpt lat="45.768382106993336" lon="8.51484308927811"><ele>413.0</ele><time>2026-04-18T08:45:16Z</time></trkpt><trkpt lat="45.768291740528475" lon="8.514846085467134"><ele>413.6666666666667</ele><time>2026-04-18T08:45:17Z</time></trkpt><trkpt lat="45.768224212377945" lon="8.514821983748748"><ele>414.33333333333337</ele><time>2026-04-18T08:45:18Z</time></trkpt><trkpt lat="45.76814857857581" lon="8.514791424413666"><ele>415.0</ele><time>2026-04-18T08:45:19Z</time></trkpt><trkpt lat="45.768055973196276" lon="8.514748150492892"><ele>415.00000000000006</ele><time>2026-04-18T08:45:20Z</time></trkpt><trkpt lat="45.76796140565989" lon="8.5146626406679"><ele>415.0</ele><time>2026-04-18T08:45:21Z</time></trkpt><trkpt lat="45.767879708564784" lon="8.514590728360513"><ele>415.0</ele><time>2026-04-18T08:45:22Z</time></trkpt><trkpt lat="45.76782463693466" lon="8.514529801509086"><ele>415.0</ele><time>2026-04-18T08:45:23Z</time></trkpt><trkpt lat="45.767753437686636" lon="8.514512333570993"><ele>415.00000000000006</ele><time>2026-04-18T08:45:24Z</time></trkpt><trkpt lat="45.76768069256664" lon="8.514493308662237"><ele>415.0</ele><time>2026-04-18T08:45:25Z</time></trkpt><trkpt lat="45.76760366940351" lon="8.514473381194128"><ele>413.0</ele><time>2026-04-18T08:45:26Z</time></trkpt><trkpt lat="45.76748100536415" lon="8.514489294551417"><ele>411.0</ele><time>2026-04-18T08:45:27Z</time></trkpt><trkpt lat="45.76737762661748" lon="8.51449819675364"><ele>409.0</ele><time>2026-04-18T08:45:28Z</time></trkpt><trkpt lat="45.76726094978142" lon="8.514476061552243"><ele>407.0</ele><time>2026-04-18T08:45:29Z</time></trkpt><trkpt lat="45.7671402943215" lon="8.514410097759592"><ele>407.0</ele><time>2026-04-18T08:45:30Z</time></trkpt><trkpt lat="45.767013045732746" lon="8.514368353230253"><ele>407.0</ele><time>2026-04-18T08:45:31Z</time></trkpt><trkpt lat="45.766913266171535" lon="8.514348662509738"><ele>407.0</ele><time>2026-04-18T08:45:32Z</time></trkpt><trkpt lat="45.76683478461739" lon="8.514271682522198"><ele>407.0</ele><time>2026-04-18T08:45:33Z</time></trkpt><trkpt lat="45.76675117331498" lon="8.514197306222664"><ele>407.0</ele><time>2026-04-18T08:45:34Z</time></trkpt><trkpt lat="45.76666690222173" lon="8.514132953863122"><ele>407.49999999999994</ele><time>2026-04-18T08:45:35Z</time></trkpt><trkpt lat="45.76661087865289" lon="8.514084726249319"><ele>408.0</ele><time>2026-04-18T08:45:36Z</time></trkpt><trkpt lat="45.76652549632435" lon="8.514028305689754"><ele>408.5</ele><time>2026-04-18T08:45:37Z</time></trkpt><trkpt lat="45.76645175019019" lon="8.514015080761025"><ele>409.0</ele><time>2026-04-18T08:45:38Z</time></trkpt><trkpt lat="45.76638325531763" lon="8.513937044919835"><ele>409.49999999999994</ele><time>2026-04-18T08:45:40Z</time></trkpt><trkpt lat="45.76636627876063" lon="8.513763830958526"><ele>410.0</ele><time>2026-04-18T08:45:43Z</time></trkpt><trkpt lat="45.76628087694711" lon="8.51366725870619"><ele>407.5</ele><time>2026-04-18T08:45:45Z</time></trkpt><trkpt lat="45.76614849981167" lon="8.513604876695695"><ele>405.0</ele><time>2026-04-18T08:45:47Z</time></trkpt><trkpt lat="45.7660562473246" lon="8.513558919539902"><ele>402.5</ele><time>2026-04-18T08:45:48Z</time></trkpt><trkpt lat="45.76593145112159" lon="8.51350411731064"><ele>400.0</ele><time>2026-04-18T08:45:49Z</time></trkpt><trkpt lat="45.76581014409639" lon="8.513427034412452"><ele>400.0</ele><time>2026-04-18T08:45:50Z</time></trkpt><trkpt lat="45.76571017005988" lon="8.513365063778776"><ele>400.0</ele><time>2026-04-18T08:45:51Z</time></trkpt><trkpt lat="45.76560896933031" lon="8.513330318573097"><ele>400.0</ele><time>2026-04-18T08:45:52Z</time></trkpt><trkpt lat="45.76549770598815" lon="8.513299514245059"><ele>400.0</ele><time>2026-04-18T08:45:53Z</time></trkpt><trkpt lat="45.765407673416085" lon="8.513271781101068"><ele>400.0</ele><time>2026-04-18T08:45:54Z</time></trkpt><trkpt lat="45.76531168274651" lon="8.513251892079419"><ele>400.0</ele><time>2026-04-18T08:45:55Z</time></trkpt><trkpt lat="45.76524683691181" lon="8.513242963661304"><ele>400.0</ele><time>2026-04-18T08:45:56Z</time></trkpt><trkpt lat="45.765143870807904" lon="8.513229049061001"><ele>400.0</ele><time>2026-04-18T08:45:58Z</time></trkpt><trkpt lat="45.765108007147774" lon="8.51307471733917"><ele>400.0</ele><time>2026-04-18T08:46:00Z</time></trkpt><trkpt lat="45.765038347559155" lon="8.512927536913084"><ele>400.0</ele><time>2026-04-18T08:46:02Z</time></trkpt><trkpt lat="45.76497184825033" lon="8.512865737595343"><ele>398.0</ele><time>2026-04-18T08:46:03Z</time></trkpt><trkpt lat="45.76484328274295" lon="8.51279564383235"><ele>396.0</ele><time>2026-04-18T08:46:05Z</time></trkpt><trkpt lat="45.764764207415425" lon="8.512706609532316"><ele>394.0</ele><time>2026-04-18T08:46:06Z</time></trkpt><trkpt lat="45.76471090169012" lon="8.512646196221578"><ele>392.0</ele><time>2026-04-18T08:46:07Z</time></trkpt><trkpt lat="45.76460468869147" lon="8.512587017212438"><ele>390.0</ele><time>2026-04-18T08:46:09Z</time></trkpt><trkpt lat="45.764548365748226" lon="8.512644650975027"><ele>390.0</ele><time>2026-04-18T08:46:10Z</time></trkpt><trkpt lat="45.76449706663846" lon="8.512709622244687"><ele>390.0</ele><time>2026-04-18T08:46:11Z</time></trkpt><trkpt lat="45.76440067538934" lon="8.512794600408075"><ele>390.0</ele><time>2026-04-18T08:46:14Z</time></trkpt><trkpt lat="45.764285567789344" lon="8.512797601169956"><ele>390.0</ele><time>2026-04-18T08:46:16Z</time></trkpt><trkpt lat="45.76421066058867" lon="8.512823199406457"><ele>390.0</ele><time>2026-04-18T08:46:17Z</time></trkpt><trkpt lat="45.76411394869792" lon="8.512815597106867"><ele>389.2</ele><time>2026-04-18T08:46:18Z</time></trkpt><trkpt lat="45.76400048587025" lon="8.51284977355512"><ele>388.4</ele><time>2026-04-18T08:46:19Z</time></trkpt><trkpt lat="45.76392338376044" lon="8.512884683365591"><ele>387.6</ele><time>2026-04-18T08:46:20Z</time></trkpt><trkpt lat="45.76383511915433" lon="8.512936656054041"><ele>386.8</ele><time>2026-04-18T08:46:21Z</time></trkpt><trkpt lat="45.763771643244546" lon="8.512992054471697"><ele>386.0</ele><time>2026-04-18T08:46:22Z</time></trkpt><trkpt lat="45.76367977187011" lon="8.513102590768108"><ele>385.99999999999994</ele><time>2026-04-18T08:46:23Z</time></trkpt><trkpt lat="45.763612412089735" lon="8.51318484982374"><ele>386.0</ele><time>2026-04-18T08:46:24Z</time></trkpt><trkpt lat="45.76354549280508" lon="8.513251155404134"><ele>386.0</ele><time>2026-04-18T08:46:25Z</time></trkpt><trkpt lat="45.76349051377249" lon="8.513313589219342"><ele>386.0</ele><time>2026-04-18T08:46:26Z</time></trkpt><trkpt lat="45.76344254711007" lon="8.51340986614458"><ele>385.99999999999994</ele><time>2026-04-18T08:46:27Z</time></trkpt><trkpt lat="45.763400745015545" lon="8.513486450119341"><ele>386.0</ele><time>2026-04-18T08:46:28Z</time></trkpt><trkpt lat="45.76335549216856" lon="8.513569356091958"><ele>382.3333333333333</ele><time>2026-04-18T08:46:29Z</time></trkpt><trkpt lat="45.763298790731355" lon="8.51362657182781"><ele>378.66666666666663</ele><time>2026-04-18T08:46:30Z</time></trkpt><trkpt lat="45.76322937231007" lon="8.513633503647878"><ele>375.0</ele><time>2026-04-18T08:46:31Z</time></trkpt><trkpt lat="45.76314796436918" lon="8.513661647708295"><ele>371.3333333333333</ele><time>2026-04-18T08:46:32Z</time></trkpt><trkpt lat="45.76305669346062" lon="8.513690424819552"><ele>367.66666666666663</ele><time>2026-04-18T08:46:33Z</time></trkpt><trkpt lat="45.76296871348656" lon="8.513717552660653"><ele>364.0</ele><time>2026-04-18T08:46:34Z</time></trkpt><trkpt lat="45.762902179909695" lon="8.51373870205049"><ele>364.0</ele><time>2026-04-18T08:46:35Z</time></trkpt><trkpt lat="45.76283239115854" lon="8.513763098115941"><ele>364.0</ele><time>2026-04-18T08:46:36Z</time></trkpt><trkpt lat="45.762738722260956" lon="8.51379584196805"><ele>364.0</ele><time>2026-04-18T08:46:37Z</time></trkpt><trkpt lat="45.76267639944423" lon="8.51384200191097"><ele>364.0</ele><time>2026-04-18T08:46:38Z</time></trkpt><trkpt lat="45.76260154208973" lon="8.513843796062126"><ele>364.0</ele><time>2026-04-18T08:46:39Z</time></trkpt><trkpt lat="45.76249492019497" lon="8.51388949352824"><ele>364.0</ele><time>2026-04-18T08:46:41Z</time></trkpt><trkpt lat="45.76239647720925" lon="8.513886725376414"><ele>360.79999999999995</ele><time>2026-04-18T08:46:43Z</time></trkpt><trkpt lat="45.762292036292806" lon="8.513823709048607"><ele>357.59999999999997</ele><time>2026-04-18T08:46:45Z</time></trkpt><trkpt lat="45.76221399777887" lon="8.513783443928839"><ele>354.4</ele><time>2026-04-18T08:46:46Z</time></trkpt><trkpt lat="45.76214290292442" lon="8.513692298643074"><ele>351.2</ele><time>2026-04-18T08:46:47Z</time></trkpt><trkpt lat="45.76204138786569" lon="8.513647995354276"><ele>348.0</ele><time>2026-04-18T08:46:48Z</time></trkpt><trkpt lat="45.7619474783338" lon="8.513614722044892"><ele>346.59999999999997</ele><time>2026-04-18T08:46:49Z</time></trkpt><trkpt lat="45.761854747732215" lon="8.513586731489793"><ele>345.2</ele><time>2026-04-18T08:46:50Z</time></trkpt><trkpt lat="45.76177410965369" lon="8.51359664439039"><ele>343.8</ele><time>2026-04-18T08:46:51Z</time></trkpt><trkpt lat="45.76168759106788" lon="8.513602980458232"><ele>342.4</ele><time>2026-04-18T08:46:52Z</time></trkpt><trkpt lat="45.7615911796224" lon="8.513641506561354"><ele>341.0</ele><time>2026-04-18T08:46:53Z</time></trkpt><trkpt lat="45.76149701761721" lon="8.513685735000756"><ele>341.0</ele><time>2026-04-18T08:46:54Z</time></trkpt><trkpt lat="45.76138678866446" lon="8.513728091455027"><ele>341.0</ele><time>2026-04-18T08:46:55Z</time></trkpt><trkpt lat="45.76129868133536" lon="8.513764957113443"><ele>341.0</ele><time>2026-04-18T08:46:56Z</time></trkpt><trkpt lat="45.76121100561194" lon="8.513792194115876"><ele>341.0</ele><time>2026-04-18T08:46:57Z</time></trkpt><trkpt lat="45.761118129227754" lon="8.51381046206541"><ele>341.0</ele><time>2026-04-18T08:46:58Z</time></trkpt><trkpt lat="45.76104947158392" lon="8.513859276223998"><ele>339.6666666666667</ele><time>2026-04-18T08:46:59Z</time></trkpt><trkpt lat="45.760982800528495" lon="8.513876372730412"><ele>338.33333333333337</ele><time>2026-04-18T08:47:00Z</time></trkpt><trkpt lat="45.76087092786645" lon="8.513854222699443"><ele>337.0</ele><time>2026-04-18T08:47:02Z</time></trkpt><trkpt lat="45.76077035903091" lon="8.513750231476678"><ele>335.6666666666667</ele><time>2026-04-18T08:47:04Z</time></trkpt><trkpt lat="45.76070602380825" lon="8.513703473659993"><ele>334.3333333333333</ele><time>2026-04-18T08:47:05Z</time></trkpt><trkpt lat="45.76064579849138" lon="8.513656975258042"><ele>333.0</ele><time>2026-04-18T08:47:06Z</time></trkpt><trkpt lat="45.760568590103524" lon="8.513663837774127"><ele>332.2</ele><time>2026-04-18T08:47:07Z</time></trkpt><trkpt lat="45.76050874571812" lon="8.513747006037143"><ele>331.4</ele><time>2026-04-18T08:47:08Z</time></trkpt><trkpt lat="45.76043452126123" lon="8.513835444479886"><ele>330.59999999999997</ele><time>2026-04-18T08:47:09Z</time></trkpt><trkpt lat="45.760339485814036" lon="8.51394071207419"><ele>329.79999999999995</ele><time>2026-04-18T08:47:10Z</time></trkpt><trkpt lat="45.76025341111543" lon="8.513950311209431"><ele>329.0</ele><time>2026-04-18T08:47:11Z</time></trkpt><trkpt lat="45.76018198390227" lon="8.513938345571864"><ele>328.25</ele><time>2026-04-18T08:47:12Z</time></trkpt><trkpt lat="45.76009010016504" lon="8.513918959632745"><ele>327.5</ele><time>2026-04-18T08:47:13Z</time></trkpt><trkpt lat="45.75998319373547" lon="8.51390021381843"><ele>326.75</ele><time>2026-04-18T08:47:14Z</time></trkpt><trkpt lat="45.75985890227649" lon="8.513865070169896"><ele>326.0</ele><time>2026-04-18T08:47:15Z</time></trkpt><trkpt lat="45.75973166999269" lon="8.513820228104072"><ele>326.0</ele><time>2026-04-18T08:47:16Z</time></trkpt><trkpt lat="45.75963553459583" lon="8.51378862212821"><ele>326.0</ele><time>2026-04-18T08:47:17Z</time></trkpt><trkpt lat="45.7595639766332" lon="8.513791721627364"><ele>326.0</ele><time>2026-04-18T08:47:18Z</time></trkpt><trkpt lat="45.759467690080584" lon="8.513859256340902"><ele>326.0</ele><time>2026-04-18T08:47:20Z</time></trkpt><trkpt lat="45.759402062883545" lon="8.514045140751923"><ele>326.0</ele><time>2026-04-18T08:47:22Z</time></trkpt><trkpt lat="45.759369265716" lon="8.514217655033661"><ele>325.1666666666667</ele><time>2026-04-18T08:47:23Z</time></trkpt><trkpt lat="45.75933866467192" lon="8.514354920748877"><ele>324.33333333333337</ele><time>2026-04-18T08:47:24Z</time></trkpt><trkpt lat="45.759303795278655" lon="8.514452202029519"><ele>323.5</ele><time>2026-04-18T08:47:26Z</time></trkpt><trkpt lat="45.759289591804006" lon="8.514572564118525"><ele>322.6666666666667</ele><time>2026-04-18T08:47:28Z</time></trkpt><trkpt lat="45.75926341319887" lon="8.514678135560276"><ele>321.8333333333333</ele><time>2026-04-18T08:47:29Z</time></trkpt><trkpt lat="45.75922832088316" lon="8.514786323436983"><ele>321.0</ele><time>2026-04-18T08:47:30Z</time></trkpt><trkpt lat="45.75919806069948" lon="8.514868930016588"><ele>321.0</ele><time>2026-04-18T08:47:31Z</time></trkpt><trkpt lat="45.759107409819165" lon="8.51492399721423"><ele>321.0</ele><time>2026-04-18T08:47:33Z</time></trkpt><trkpt lat="45.759018253947694" lon="8.514898606967284"><ele>321.0</ele><time>2026-04-18T08:47:35Z</time></trkpt><trkpt lat="45.75894183851192" lon="8.514885044678756"><ele>321.0</ele><time>2026-04-18T08:47:37Z</time></trkpt><trkpt lat="45.75887089945903" lon="8.514899751104398"><ele>321.0</ele><time>2026-04-18T08:47:39Z</time></trkpt><trkpt lat="45.758756742238816" lon="8.514875460062465"><ele>321.0</ele><time>2026-04-18T08:47:41Z</time></trkpt><trkpt lat="45.75867855867188" lon="8.51485846200726"><ele>321.0</ele><time>2026-04-18T08:47:42Z</time></trkpt><trkpt lat="45.75859636302807" lon="8.514837357719639"><ele>321.0</ele><time>2026-04-18T08:47:43Z</time></trkpt><trkpt lat="45.75850930833975" lon="8.514824913950342"><ele>321.0</ele><time>2026-04-18T08:47:44Z</time></trkpt><trkpt lat="45.758423200817894" lon="8.51475615748276"><ele>321.0</ele><time>2026-04-18T08:47:45Z</time></trkpt><trkpt lat="45.75832531382037" lon="8.514692497342997"><ele>320.0</ele><time>2026-04-18T08:47:46Z</time></trkpt><trkpt lat="45.758232913278064" lon="8.514619405343034"><ele>319.0</ele><time>2026-04-18T08:47:47Z</time></trkpt><trkpt lat="45.758139698701996" lon="8.51454214152484"><ele>318.0</ele><time>2026-04-18T08:47:48Z</time></trkpt><trkpt lat="45.758043323695745" lon="8.514459466253147"><ele>317.0</ele><time>2026-04-18T08:47:49Z</time></trkpt><trkpt lat="45.75795688029911" lon="8.514385128820193"><ele>316.0</ele><time>2026-04-18T08:47:50Z</time></trkpt><trkpt lat="45.757880957556644" lon="8.514317930258558"><ele>315.8333333333333</ele><time>2026-04-18T08:47:51Z</time></trkpt><trkpt lat="45.75779304728482" lon="8.514262982407804"><ele>315.66666666666663</ele><time>2026-04-18T08:47:52Z</time></trkpt><trkpt lat="45.75769611429324" lon="8.51422082376576"><ele>315.5</ele><time>2026-04-18T08:47:53Z</time></trkpt><trkpt lat="45.75760642274689" lon="8.51418285705097"><ele>315.3333333333333</ele><time>2026-04-18T08:47:54Z</time></trkpt><trkpt lat="45.757528072774456" lon="8.514146033629842"><ele>315.1666666666667</ele><time>2026-04-18T08:47:55Z</time></trkpt><trkpt lat="45.75746448205698" lon="8.514115230088512"><ele>315.0</ele><time>2026-04-18T08:47:56Z</time></trkpt><trkpt lat="45.75739751682645" lon="8.514172795821203"><ele>315.0</ele><time>2026-04-18T08:47:57Z</time></trkpt><trkpt lat="45.757330942500005" lon="8.514161873844522"><ele>315.0</ele><time>2026-04-18T08:47:59Z</time></trkpt><trkpt lat="45.757252521340426" lon="8.514106366505652"><ele>315.0</ele><time>2026-04-18T08:48:01Z</time></trkpt><trkpt lat="45.75719253853374" lon="8.514061093688333"><ele>315.0</ele><time>2026-04-18T08:48:02Z</time></trkpt><trkpt lat="45.75713102562813" lon="8.514019547743686"><ele>315.0</ele><time>2026-04-18T08:48:03Z</time></trkpt><trkpt lat="45.75707868942053" lon="8.513940287643075"><ele>315.0</ele><time>2026-04-18T08:48:04Z</time></trkpt><trkpt lat="45.75701136529643" lon="8.513859323499705"><ele>315.0</ele><time>2026-04-18T08:48:05Z</time></trkpt><trkpt lat="45.75692911354782" lon="8.513786889343802"><ele>315.0</ele><time>2026-04-18T08:48:06Z</time></trkpt><trkpt lat="45.756862816702764" lon="8.513715283245862"><ele>315.0</ele><time>2026-04-18T08:48:07Z</time></trkpt><trkpt lat="45.756792311057566" lon="8.513656056303216"><ele>315.0</ele><time>2026-04-18T08:48:08Z</time></trkpt><trkpt lat="45.756717549151894" lon="8.513677384365542"><ele>315.0</ele><time>2026-04-18T08:48:09Z</time></trkpt><trkpt lat="45.756600356984755" lon="8.513643431743379"><ele>315.4</ele><time>2026-04-18T08:48:11Z</time></trkpt><trkpt lat="45.7564751131007" lon="8.513633544216441"><ele>315.8</ele><time>2026-04-18T08:48:13Z</time></trkpt><trkpt lat="45.75638965222599" lon="8.513625609616389"><ele>316.2</ele><time>2026-04-18T08:48:14Z</time></trkpt><trkpt lat="45.756304018392306" lon="8.513615703518763"><ele>316.6</ele><time>2026-04-18T08:48:15Z</time></trkpt><trkpt lat="45.75622420890949" lon="8.51359628278268"><ele>317.0</ele><time>2026-04-18T08:48:16Z</time></trkpt><trkpt lat="45.75613060172061" lon="8.513582558284682"><ele>316.75</ele><time>2026-04-18T08:48:17Z</time></trkpt><trkpt lat="45.7560268711295" lon="8.513563526487962"><ele>316.5</ele><time>2026-04-18T08:48:18Z</time></trkpt><trkpt lat="45.75591745712055" lon="8.513548052853773"><ele>316.25</ele><time>2026-04-18T08:48:19Z</time></trkpt><trkpt lat="45.755800917313394" lon="8.513520932511572"><ele>316.0</ele><time>2026-04-18T08:48:20Z</time></trkpt><trkpt lat="45.75568262258859" lon="8.513514749189618"><ele>316.0</ele><time>2026-04-18T08:48:21Z</time></trkpt><trkpt lat="45.75558210082222" lon="8.513517640303764"><ele>316.0</ele><time>2026-04-18T08:48:22Z</time></trkpt><trkpt lat="45.75546606146739" lon="8.513531273768216"><ele>316.0</ele><time>2026-04-18T08:48:23Z</time></trkpt><trkpt lat="45.75534863122763" lon="8.51357923904863"><ele>316.0</ele><time>2026-04-18T08:48:24Z</time></trkpt><trkpt lat="45.75522477990202" lon="8.513591343703764"><ele>316.2</ele><time>2026-04-18T08:48:25Z</time></trkpt><trkpt lat="45.755104667197415" lon="8.513638635607226"><ele>316.40000000000003</ele><time>2026-04-18T08:48:26Z</time></trkpt><trkpt lat="45.75499541996098" lon="8.513687089862525"><ele>316.6</ele><time>2026-04-18T08:48:27Z</time></trkpt><trkpt lat="45.754899814477625" lon="8.513742199231913"><ele>316.8</ele><time>2026-04-18T08:48:28Z</time></trkpt><trkpt lat="45.754817153419154" lon="8.513802699248725"><ele>317.0</ele><time>2026-04-18T08:48:29Z</time></trkpt><trkpt lat="45.75475462082709" lon="8.5138575717063"><ele>317.0</ele><time>2026-04-18T08:48:30Z</time></trkpt><trkpt lat="45.754692580873545" lon="8.51392043387897"><ele>317.0</ele><time>2026-04-18T08:48:32Z</time></trkpt><trkpt lat="45.75464335001268" lon="8.513727989039348"><ele>317.0</ele><time>2026-04-18T08:48:36Z</time></trkpt><trkpt lat="45.75462110690669" lon="8.513622191074807"><ele>317.0</ele><time>2026-04-18T08:48:38Z</time></trkpt><trkpt lat="45.75461494604047" lon="8.51352852165864"><ele>317.0</ele><time>2026-04-18T08:48:43Z</time></trkpt><trkpt lat="45.75463389344442" lon="8.513432890403084"><ele>317.0</ele><time>2026-04-18T08:48:55Z</time></trkpt><trkpt lat="45.754634871246246" lon="8.513531895620856"><ele>317.0</ele><time>2026-04-18T08:49:02Z</time></trkpt><trkpt lat="45.75465235265431" lon="8.51364635408835"><ele>317.0</ele><time>2026-04-18T08:49:04Z</time></trkpt><trkpt lat="45.75467912583262" lon="8.513767872994578"><ele>317.0</ele><time>2026-04-18T08:49:17Z</time></trkpt><trkpt lat="45.75468249759842" lon="8.51386704938571"><ele>317.0</ele><time>2026-04-18T08:49:19Z</time></trkpt><trkpt lat="45.75475426683829" lon="8.513930456701406"><ele>317.0</ele><time>2026-04-18T08:49:27Z</time></trkpt><trkpt lat="45.75483467233985" lon="8.513850532621207"><ele>317.0</ele><time>2026-04-18T08:49:29Z</time></trkpt><trkpt lat="45.75490939733147" lon="8.513798105024957"><ele>317.0</ele><time>2026-04-18T08:49:31Z</time></trkpt><trkpt lat="45.754974666253474" lon="8.513751898189215"><ele>317.0</ele><time>2026-04-18T08:49:33Z</time></trkpt><trkpt lat="45.7550333251165" lon="8.513718748323685"><ele>317.0</ele><time>2026-04-18T08:49:35Z</time></trkpt><trkpt lat="45.75511090634066" lon="8.51369069847305"><ele>317.0</ele><time>2026-04-18T08:49:38Z</time></trkpt><trkpt lat="45.75519143134137" lon="8.513653080118978"><ele>317.0</ele><time>2026-04-18T08:49:40Z</time></trkpt><trkpt lat="45.75529299915724" lon="8.513621922358789"><ele>317.0</ele><time>2026-04-18T08:49:42Z</time></trkpt><trkpt lat="45.755356291968894" lon="8.513609036160004"><ele>316.8571428571429</ele><time>2026-04-18T08:49:43Z</time></trkpt><trkpt lat="45.75542175551848" lon="8.513594068230246"><ele>316.7142857142857</ele><time>2026-04-18T08:49:44Z</time></trkpt><trkpt lat="45.755491908744396" lon="8.513585558956674"><ele>316.57142857142856</ele><time>2026-04-18T08:49:45Z</time></trkpt><trkpt lat="45.75555720360183" lon="8.513578499963712"><ele>316.42857142857144</ele><time>2026-04-18T08:49:46Z</time></trkpt><trkpt lat="45.755624665825316" lon="8.513571131970034"><ele>316.2857142857143</ele><time>2026-04-18T08:49:47Z</time></trkpt><trkpt lat="45.755692918710125" lon="8.513566664650133"><ele>316.14285714285717</ele><time>2026-04-18T08:49:48Z</time></trkpt><trkpt lat="45.75576085883211" lon="8.513569041728617"><ele>316.0</ele><time>2026-04-18T08:49:49Z</time></trkpt><trkpt lat="45.75584279875728" lon="8.513575010688848"><ele>316.0</ele><time>2026-04-18T08:49:50Z</time></trkpt><trkpt lat="45.75594450604825" lon="8.513574919285723"><ele>316.0</ele><time>2026-04-18T08:49:51Z</time></trkpt><trkpt lat="45.75604757239567" lon="8.513590897327148"><ele>316.0</ele><time>2026-04-18T08:49:52Z</time></trkpt><trkpt lat="45.75615681073422" lon="8.51361563042602"><ele>316.0</ele><time>2026-04-18T08:49:53Z</time></trkpt><trkpt lat="45.756270842280706" lon="8.513634831815883"><ele>316.0</ele><time>2026-04-18T08:49:54Z</time></trkpt><trkpt lat="45.75639138687442" lon="8.513650321638023"><ele>316.25</ele><time>2026-04-18T08:49:55Z</time></trkpt><trkpt lat="45.7565200524962" lon="8.513673870116957"><ele>316.5</ele><time>2026-04-18T08:49:56Z</time></trkpt><trkpt lat="45.756647246983356" lon="8.513696925625931"><ele>316.75</ele><time>2026-04-18T08:49:57Z</time></trkpt><trkpt lat="45.75676260573732" lon="8.513710951567935"><ele>317.0</ele><time>2026-04-18T08:49:58Z</time></trkpt><trkpt lat="45.75686597625518" lon="8.513740382833904"><ele>316.6</ele><time>2026-04-18T08:49:59Z</time></trkpt><trkpt lat="45.75694386870961" lon="8.513816536094078"><ele>316.2</ele><time>2026-04-18T08:50:00Z</time></trkpt><trkpt lat="45.75700931649806" lon="8.513925498018041"><ele>315.8</ele><time>2026-04-18T08:50:01Z</time></trkpt><trkpt lat="45.7570811717024" lon="8.514013769096287"><ele>315.4</ele><time>2026-04-18T08:50:02Z</time></trkpt><trkpt lat="45.75715677119776" lon="8.514076609575307"><ele>315.0</ele><time>2026-04-18T08:50:03Z</time></trkpt><trkpt lat="45.75722990248921" lon="8.514131804866867"><ele>315.0</ele><time>2026-04-18T08:50:04Z</time></trkpt><trkpt lat="45.75729327552983" lon="8.514166922426531"><ele>315.0</ele><time>2026-04-18T08:50:05Z</time></trkpt><trkpt lat="45.75737572100344" lon="8.514198543069671"><ele>315.0</ele><time>2026-04-18T08:50:07Z</time></trkpt><trkpt lat="45.75745504344337" lon="8.514201225455553"><ele>315.0</ele><time>2026-04-18T08:50:10Z</time></trkpt><trkpt lat="45.7575169126933" lon="8.514182962853491"><ele>315.0</ele><time>2026-04-18T08:50:12Z</time></trkpt><trkpt lat="45.75759120973149" lon="8.514185322708784"><ele>315.0</ele><time>2026-04-18T08:50:16Z</time></trkpt><trkpt lat="45.75765871959204" lon="8.514157987025458"><ele>315.0</ele><time>2026-04-18T08:50:18Z</time></trkpt><trkpt lat="45.75775306609257" lon="8.51406543187402"><ele>315.0</ele><time>2026-04-18T08:50:20Z</time></trkpt><trkpt lat="45.7578106636682" lon="8.514009176674739"><ele>315.0</ele><time>2026-04-18T08:50:21Z</time></trkpt><trkpt lat="45.7578455550039" lon="8.513877282580221"><ele>315.0</ele><time>2026-04-18T08:50:23Z</time></trkpt><trkpt lat="45.75787021117468" lon="8.513737473702585"><ele>315.0</ele><time>2026-04-18T08:50:25Z</time></trkpt><trkpt lat="45.757898848012054" lon="8.513638753717192"><ele>315.0</ele><time>2026-04-18T08:50:26Z</time></trkpt><trkpt lat="45.75792304617556" lon="8.513522032729755"><ele>315.0</ele><time>2026-04-18T08:50:27Z</time></trkpt><trkpt lat="45.75794943983622" lon="8.513403269196353"><ele>315.8</ele><time>2026-04-18T08:50:28Z</time></trkpt><trkpt lat="45.75797408718336" lon="8.51327233431546"><ele>316.6</ele><time>2026-04-18T08:50:29Z</time></trkpt><trkpt lat="45.757999420238946" lon="8.513154535735971"><ele>317.4</ele><time>2026-04-18T08:50:30Z</time></trkpt><trkpt lat="45.75801980313714" lon="8.513022074735593"><ele>318.2</ele><time>2026-04-18T08:50:31Z</time></trkpt><trkpt lat="45.75802816205999" lon="8.512886477070978"><ele>319.0</ele><time>2026-04-18T08:50:32Z</time></trkpt><trkpt lat="45.75802845520097" lon="8.512744576218315"><ele>320.0</ele><time>2026-04-18T08:50:33Z</time></trkpt><trkpt lat="45.75801536007681" lon="8.512623230237176"><ele>321.0</ele><time>2026-04-18T08:50:34Z</time></trkpt><trkpt lat="45.75803532210543" lon="8.512530340005394"><ele>322.0</ele><time>2026-04-18T08:50:35Z</time></trkpt><trkpt lat="45.75805227589058" lon="8.51237493662786"><ele>323.0</ele><time>2026-04-18T08:50:37Z</time></trkpt><trkpt lat="45.75806334541931" lon="8.51227376126983"><ele>324.0</ele><time>2026-04-18T08:50:38Z</time></trkpt><trkpt lat="45.75802622400005" lon="8.512101209185287"><ele>324.5</ele><time>2026-04-18T08:50:40Z</time></trkpt><trkpt lat="45.757993186581636" lon="8.51200330761577"><ele>325.0</ele><time>2026-04-18T08:50:41Z</time></trkpt><trkpt lat="45.75797768724244" lon="8.511848397851171"><ele>325.5</ele><time>2026-04-18T08:50:43Z</time></trkpt><trkpt lat="45.75794638251393" lon="8.511669130778118"><ele>326.0</ele><time>2026-04-18T08:50:45Z</time></trkpt><trkpt lat="45.75793071473413" lon="8.511573043270314"><ele>326.5</ele><time>2026-04-18T08:50:46Z</time></trkpt><trkpt lat="45.75790279136764" lon="8.511491156527114"><ele>327.0</ele><time>2026-04-18T08:50:47Z</time></trkpt><trkpt lat="45.75789339835059" lon="8.51139614387293"><ele>327.0</ele><time>2026-04-18T08:50:48Z</time></trkpt><trkpt lat="45.75788447369311" lon="8.511283972873573"><ele>327.0</ele><time>2026-04-18T08:50:49Z</time></trkpt><trkpt lat="45.757888218830544" lon="8.511188323237823"><ele>327.0</ele><time>2026-04-18T08:50:50Z</time></trkpt><trkpt lat="45.75788989341242" lon="8.511088627218127"><ele>327.0</ele><time>2026-04-18T08:50:51Z</time></trkpt><trkpt lat="45.75788784855453" lon="8.510990003905569"><ele>327.0</ele><time>2026-04-18T08:50:52Z</time></trkpt><trkpt lat="45.75787201408629" lon="8.510897939513578"><ele>327.0</ele><time>2026-04-18T08:50:53Z</time></trkpt><trkpt lat="45.757886929188494" lon="8.510740761513821"><ele>327.6666666666667</ele><time>2026-04-18T08:50:55Z</time></trkpt><trkpt lat="45.75789136584792" lon="8.51063334800247"><ele>328.3333333333333</ele><time>2026-04-18T08:50:56Z</time></trkpt><trkpt lat="45.757902717164015" lon="8.510517528429302"><ele>329.0</ele><time>2026-04-18T08:50:57Z</time></trkpt><trkpt lat="45.75793322580524" lon="8.510401678017471"><ele>329.66666666666663</ele><time>2026-04-18T08:50:58Z</time></trkpt><trkpt lat="45.75794887647574" lon="8.510272769338295"><ele>330.3333333333333</ele><time>2026-04-18T08:50:59Z</time></trkpt><trkpt lat="45.75794676737424" lon="8.510141124505012"><ele>331.0</ele><time>2026-04-18T08:51:00Z</time></trkpt><trkpt lat="45.75797518123634" lon="8.509966186434545"><ele>332.20000000000005</ele><time>2026-04-18T08:51:02Z</time></trkpt><trkpt lat="45.75800126439805" lon="8.509798147908917"><ele>333.40000000000003</ele><time>2026-04-18T08:51:04Z</time></trkpt><trkpt lat="45.75802329869874" lon="8.509685326615385"><ele>334.6</ele><time>2026-04-18T08:51:05Z</time></trkpt><trkpt lat="45.7580114765565" lon="8.50953796889956"><ele>335.8</ele><time>2026-04-18T08:51:06Z</time></trkpt><trkpt lat="45.757973349174684" lon="8.509412657111831"><ele>337.0</ele><time>2026-04-18T08:51:07Z</time></trkpt><trkpt lat="45.75792531312487" lon="8.509300553594109"><ele>337.5</ele><time>2026-04-18T08:51:08Z</time></trkpt><trkpt lat="45.75788280041777" lon="8.509211213263288"><ele>338.0</ele><time>2026-04-18T08:51:09Z</time></trkpt><trkpt lat="45.75782767771967" lon="8.509102390814022"><ele>338.5</ele><time>2026-04-18T08:51:10Z</time></trkpt><trkpt lat="45.757789731050636" lon="8.509015974490536"><ele>339.0</ele><time>2026-04-18T08:51:11Z</time></trkpt><trkpt lat="45.75773629756493" lon="8.50893332830496"><ele>339.5</ele><time>2026-04-18T08:51:12Z</time></trkpt><trkpt lat="45.7576831765875" lon="8.508840615403551"><ele>340.0</ele><time>2026-04-18T08:51:13Z</time></trkpt><trkpt lat="45.757628142981744" lon="8.508738858830084"><ele>340.0</ele><time>2026-04-18T08:51:14Z</time></trkpt><trkpt lat="45.75757831508182" lon="8.508628469355056"><ele>340.0</ele><time>2026-04-18T08:51:15Z</time></trkpt><trkpt lat="45.75753553473001" lon="8.508536058428705"><ele>340.0</ele><time>2026-04-18T08:51:16Z</time></trkpt><trkpt lat="45.757498936273734" lon="8.508455641827526"><ele>340.0</ele><time>2026-04-18T08:51:17Z</time></trkpt><trkpt lat="45.75743926651257" lon="8.5083197405909"><ele>340.0</ele><time>2026-04-18T08:51:19Z</time></trkpt><trkpt lat="45.75739715067508" lon="8.508191109043976"><ele>340.0</ele><time>2026-04-18T08:51:21Z</time></trkpt><trkpt lat="45.75737506251811" lon="8.508072662986976"><ele>340.0</ele><time>2026-04-18T08:51:22Z</time></trkpt><trkpt lat="45.75733814262932" lon="8.507972782133125"><ele>340.0</ele><time>2026-04-18T08:51:23Z</time></trkpt><trkpt lat="45.757299154708775" lon="8.507887813806388"><ele>340.0</ele><time>2026-04-18T08:51:24Z</time></trkpt><trkpt lat="45.75725562479455" lon="8.507791803155774"><ele>340.0</ele><time>2026-04-18T08:51:25Z</time></trkpt><trkpt lat="45.75722456482725" lon="8.507698355363477"><ele>340.0</ele><time>2026-04-18T08:51:26Z</time></trkpt><trkpt lat="45.757188548460974" lon="8.50759764899549"><ele>340.0</ele><time>2026-04-18T08:51:27Z</time></trkpt><trkpt lat="45.75717381816977" lon="8.507507965167617"><ele>340.0</ele><time>2026-04-18T08:51:28Z</time></trkpt><trkpt lat="45.75716606369019" lon="8.507402343755837"><ele>342.2</ele><time>2026-04-18T08:51:29Z</time></trkpt><trkpt lat="45.7571487021337" lon="8.507294025870044"><ele>344.4</ele><time>2026-04-18T08:51:30Z</time></trkpt><trkpt lat="45.75712700057513" lon="8.507133947661599"><ele>346.6</ele><time>2026-04-18T08:51:32Z</time></trkpt><trkpt lat="45.75709325977894" lon="8.507035496159165"><ele>348.8</ele><time>2026-04-18T08:51:33Z</time></trkpt><trkpt lat="45.75706093220465" lon="8.506893500279515"><ele>351.0</ele><time>2026-04-18T08:51:34Z</time></trkpt><trkpt lat="45.75704189083992" lon="8.506761280972443"><ele>352.6666666666667</ele><time>2026-04-18T08:51:35Z</time></trkpt><trkpt lat="45.75701681255142" lon="8.506659235333313"><ele>354.3333333333333</ele><time>2026-04-18T08:51:36Z</time></trkpt><trkpt lat="45.75699290659105" lon="8.506568040306941"><ele>356.0</ele><time>2026-04-18T08:51:37Z</time></trkpt><trkpt lat="45.75696127980889" lon="8.506385584507711"><ele>357.66666666666663</ele><time>2026-04-18T08:51:39Z</time></trkpt><trkpt lat="45.75696080481285" lon="8.506286319637038"><ele>359.3333333333333</ele><time>2026-04-18T08:51:40Z</time></trkpt><trkpt lat="45.75696583657761" lon="8.506196209437434"><ele>361.0</ele><time>2026-04-18T08:51:41Z</time></trkpt><trkpt lat="45.756974331895556" lon="8.50610335437012"><ele>361.0</ele><time>2026-04-18T08:51:42Z</time></trkpt><trkpt lat="45.75696060793571" lon="8.505964397333058"><ele>361.0</ele><time>2026-04-18T08:51:43Z</time></trkpt><trkpt lat="45.756960660142866" lon="8.505802708175144"><ele>361.0</ele><time>2026-04-18T08:51:44Z</time></trkpt><trkpt lat="45.756958967744225" lon="8.505624752839694"><ele>361.0</ele><time>2026-04-18T08:51:45Z</time></trkpt><trkpt lat="45.75694862265616" lon="8.50550076947844"><ele>361.0</ele><time>2026-04-18T08:51:46Z</time></trkpt><trkpt lat="45.756939300812434" lon="8.505287300785486"><ele>361.0</ele><time>2026-04-18T08:51:48Z</time></trkpt><trkpt lat="45.75691692813725" lon="8.505107467369582"><ele>361.0</ele><time>2026-04-18T08:51:50Z</time></trkpt><trkpt lat="45.75689605952548" lon="8.50498849946893"><ele>361.0</ele><time>2026-04-18T08:51:51Z</time></trkpt><trkpt lat="45.75685941596482" lon="8.504906056417298"><ele>361.0</ele><time>2026-04-18T08:51:52Z</time></trkpt><trkpt lat="45.75682528124959" lon="8.504779476208476"><ele>361.0</ele><time>2026-04-18T08:51:54Z</time></trkpt><trkpt lat="45.756826056378394" lon="8.504681968313422"><ele>361.0</ele><time>2026-04-18T08:51:56Z</time></trkpt><trkpt lat="45.756842485858506" lon="8.504534137035307"><ele>359.8333333333333</ele><time>2026-04-18T08:51:58Z</time></trkpt><trkpt lat="45.75684482981463" lon="8.504439509726001"><ele>358.66666666666663</ele><time>2026-04-18T08:51:59Z</time></trkpt><trkpt lat="45.756857717094" lon="8.504327270862728"><ele>357.5</ele><time>2026-04-18T08:52:00Z</time></trkpt><trkpt lat="45.756911034932685" lon="8.504203285952945"><ele>356.3333333333333</ele><time>2026-04-18T08:52:02Z</time></trkpt><trkpt lat="45.75695053372571" lon="8.504108871878872"><ele>355.1666666666667</ele><time>2026-04-18T08:52:04Z</time></trkpt><trkpt lat="45.75700891081215" lon="8.503994185429594"><ele>354.0</ele><time>2026-04-18T08:52:06Z</time></trkpt><trkpt lat="45.75705184766223" lon="8.503847378110384"><ele>352.3333333333333</ele><time>2026-04-18T08:52:07Z</time></trkpt><trkpt lat="45.75710761481162" lon="8.503745830750297"><ele>350.6666666666667</ele><time>2026-04-18T08:52:08Z</time></trkpt><trkpt lat="45.75715862606654" lon="8.503660148104357"><ele>349.0</ele><time>2026-04-18T08:52:09Z</time></trkpt><trkpt lat="45.75718791092831" lon="8.503556934507042"><ele>347.33333333333337</ele><time>2026-04-18T08:52:10Z</time></trkpt><trkpt lat="45.75723349251596" lon="8.503465356440163"><ele>345.6666666666667</ele><time>2026-04-18T08:52:11Z</time></trkpt><trkpt lat="45.757282082356184" lon="8.503379732183681"><ele>344.0</ele><time>2026-04-18T08:52:12Z</time></trkpt><trkpt lat="45.75733826148845" lon="8.503293339794693"><ele>344.0</ele><time>2026-04-18T08:52:13Z</time></trkpt><trkpt lat="45.75738617032977" lon="8.503193861420963"><ele>344.0</ele><time>2026-04-18T08:52:14Z</time></trkpt><trkpt lat="45.757426750728065" lon="8.503095160022424"><ele>344.0</ele><time>2026-04-18T08:52:15Z</time></trkpt><trkpt lat="45.757460534756476" lon="8.503015455191802"><ele>344.0</ele><time>2026-04-18T08:52:16Z</time></trkpt><trkpt lat="45.75755729314876" lon="8.502847392384263"><ele>344.0</ele><time>2026-04-18T08:52:18Z</time></trkpt><trkpt lat="45.75758323027618" lon="8.502732081916642"><ele>344.5</ele><time>2026-04-18T08:52:19Z</time></trkpt><trkpt lat="45.75761511020054" lon="8.502631462922508"><ele>345.0</ele><time>2026-04-18T08:52:20Z</time></trkpt><trkpt lat="45.75764311317371" lon="8.502527636846516"><ele>345.5</ele><time>2026-04-18T08:52:21Z</time></trkpt><trkpt lat="45.757671078896244" lon="8.502364186654313"><ele>346.0</ele><time>2026-04-18T08:52:23Z</time></trkpt><trkpt lat="45.75768008932526" lon="8.502272830043825"><ele>346.5</ele><time>2026-04-18T08:52:24Z</time></trkpt><trkpt lat="45.75771658430397" lon="8.50215195574123"><ele>347.0</ele><time>2026-04-18T08:52:25Z</time></trkpt><trkpt lat="45.757779805302384" lon="8.502067351063427"><ele>347.0</ele><time>2026-04-18T08:52:26Z</time></trkpt><trkpt lat="45.75782220562965" lon="8.50198592013672"><ele>347.0</ele><time>2026-04-18T08:52:27Z</time></trkpt><trkpt lat="45.75787407480812" lon="8.501904914370664"><ele>347.0</ele><time>2026-04-18T08:52:28Z</time></trkpt><trkpt lat="45.75795742406231" lon="8.501821238821032"><ele>347.0</ele><time>2026-04-18T08:52:30Z</time></trkpt><trkpt lat="45.75794764261386" lon="8.501682018505662"><ele>347.0</ele><time>2026-04-18T08:52:31Z</time></trkpt><trkpt lat="45.75802436079951" lon="8.501660333671875"><ele>347.0</ele><time>2026-04-18T08:52:33Z</time></trkpt><trkpt lat="45.758080369555955" lon="8.501532016846177"><ele>347.0</ele><time>2026-04-18T08:52:34Z</time></trkpt><trkpt lat="45.75814677922643" lon="8.501387140941283"><ele>347.0</ele><time>2026-04-18T08:52:35Z</time></trkpt><trkpt lat="45.75822155380676" lon="8.501304514261609"><ele>347.0</ele><time>2026-04-18T08:52:37Z</time></trkpt><trkpt lat="45.758308078805804" lon="8.501249505537091"><ele>347.0</ele><time>2026-04-18T08:52:42Z</time></trkpt><trkpt lat="45.758441609471035" lon="8.501163180084166"><ele>348.20000000000005</ele><time>2026-04-18T08:52:44Z</time></trkpt><trkpt lat="45.758528930487465" lon="8.5011027411722"><ele>349.4</ele><time>2026-04-18T08:52:46Z</time></trkpt><trkpt lat="45.75859999362817" lon="8.501053206803096"><ele>350.6</ele><time>2026-04-18T08:52:48Z</time></trkpt><trkpt lat="45.75870922618448" lon="8.500976111876723"><ele>351.79999999999995</ele><time>2026-04-18T08:52:50Z</time></trkpt><trkpt lat="45.75879894265107" lon="8.50091279111333"><ele>353.0</ele><time>2026-04-18T08:52:51Z</time></trkpt><trkpt lat="45.75889194483407" lon="8.500844829142354"><ele>353.0</ele><time>2026-04-18T08:52:52Z</time></trkpt><trkpt lat="45.75898822842526" lon="8.50077236106266"><ele>353.0</ele><time>2026-04-18T08:52:53Z</time></trkpt><trkpt lat="45.75904588198172" lon="8.500728031172029"><ele>353.0</ele><time>2026-04-18T08:52:54Z</time></trkpt><trkpt lat="45.75915118754031" lon="8.500647062301816"><ele>353.0</ele><time>2026-04-18T08:52:56Z</time></trkpt><trkpt lat="45.75926200411937" lon="8.500558932261878"><ele>353.0</ele><time>2026-04-18T08:52:58Z</time></trkpt><trkpt lat="45.75939418776865" lon="8.500452978328541"><ele>352.5</ele><time>2026-04-18T08:53:00Z</time></trkpt><trkpt lat="45.75946579394331" lon="8.500393015302143"><ele>352.0</ele><time>2026-04-18T08:53:01Z</time></trkpt><trkpt lat="45.75955881889469" lon="8.500314782486642"><ele>351.5</ele><time>2026-04-18T08:53:03Z</time></trkpt><trkpt lat="45.75961764199382" lon="8.500265313069951"><ele>351.0</ele><time>2026-04-18T08:53:04Z</time></trkpt><trkpt lat="45.75967909552888" lon="8.500211954033869"><ele>350.5</ele><time>2026-04-18T08:53:05Z</time></trkpt><trkpt lat="45.7597604640154" lon="8.500140961693841"><ele>350.0</ele><time>2026-04-18T08:53:07Z</time></trkpt><trkpt lat="45.75981902536235" lon="8.500089868047056"><ele>350.0</ele><time>2026-04-18T08:53:16Z</time></trkpt><trkpt lat="45.75987399643551" lon="8.500041642494677"><ele>350.0</ele><time>2026-04-18T08:53:17Z</time></trkpt><trkpt lat="45.75993460035769" lon="8.4999884467746"><ele>350.0</ele><time>2026-04-18T08:53:18Z</time></trkpt><trkpt lat="45.76001409456373" lon="8.49991866990158"><ele>350.0</ele><time>2026-04-18T08:53:19Z</time></trkpt><trkpt lat="45.76008675052183" lon="8.499854577654261"><ele>350.0</ele><time>2026-04-18T08:53:20Z</time></trkpt><trkpt lat="45.76015154353133" lon="8.499795596820649"><ele>350.0</ele><time>2026-04-18T08:53:21Z</time></trkpt><trkpt lat="45.76020788483621" lon="8.499744309494197"><ele>349.0</ele><time>2026-04-18T08:53:22Z</time></trkpt><trkpt lat="45.76027376741355" lon="8.499681148587587"><ele>348.0</ele><time>2026-04-18T08:53:23Z</time></trkpt><trkpt lat="45.7603329312529" lon="8.499622655077456"><ele>347.0</ele><time>2026-04-18T08:53:24Z</time></trkpt><trkpt lat="45.760390439909685" lon="8.499565251477295"><ele>346.0</ele><time>2026-04-18T08:53:25Z</time></trkpt><trkpt lat="45.760500947794085" lon="8.499454945441112"><ele>345.0</ele><time>2026-04-18T08:53:27Z</time></trkpt><trkpt lat="45.76055664600627" lon="8.499401235564362"><ele>344.0</ele><time>2026-04-18T08:53:28Z</time></trkpt><trkpt lat="45.760613427179955" lon="8.499346675529996"><ele>344.0</ele><time>2026-04-18T08:53:29Z</time></trkpt><trkpt lat="45.760670093660835" lon="8.499292225639117"><ele>344.0</ele><time>2026-04-18T08:53:30Z</time></trkpt><trkpt lat="45.760740517003235" lon="8.499224557033697"><ele>344.0</ele><time>2026-04-18T08:53:31Z</time></trkpt><trkpt lat="45.76082863775505" lon="8.499136536738758"><ele>344.0</ele><time>2026-04-18T08:53:33Z</time></trkpt><trkpt lat="45.76088486923188" lon="8.499079590502692"><ele>344.0</ele><time>2026-04-18T08:53:34Z</time></trkpt><trkpt lat="45.76094689263918" lon="8.499016778754537"><ele>344.0</ele><time>2026-04-18T08:53:36Z</time></trkpt><trkpt lat="45.76102293799988" lon="8.498939766831514"><ele>346.5</ele><time>2026-04-18T08:53:38Z</time></trkpt><trkpt lat="45.7610995891185" lon="8.498993433730002"><ele>349.0</ele><time>2026-04-18T08:53:58.026Z</time></trkpt><trkpt lat="45.761201469628865" lon="8.498919687528655"><ele>351.5</ele><time>2026-04-18T08:53:59.024Z</time></trkpt><trkpt lat="45.76131663406442" lon="8.498826494817653"><ele>354.0</ele><time>2026-04-18T08:54:01Z</time></trkpt><trkpt lat="45.761057610648976" lon="8.499005390757889"><ele>354.0</ele><time>2026-04-18T08:54:02Z</time></trkpt><trkpt lat="45.76112346458859" lon="8.498960504833404"><ele>354.0</ele><time>2026-04-18T08:54:03Z</time></trkpt><trkpt lat="45.76124141438261" lon="8.49892245447543"><ele>354.0</ele><time>2026-04-18T08:54:04Z</time></trkpt><trkpt lat="45.7613561597813" lon="8.498828182456608"><ele>354.0</ele><time>2026-04-18T08:54:05Z</time></trkpt><trkpt lat="45.76144540611952" lon="8.498733932776345"><ele>354.0</ele><time>2026-04-18T08:54:06Z</time></trkpt><trkpt lat="45.76152589155695" lon="8.498652504140678"><ele>353.5</ele><time>2026-04-18T08:54:07Z</time></trkpt><trkpt lat="45.76160729076323" lon="8.498570110543751"><ele>353.0</ele><time>2026-04-18T08:54:08Z</time></trkpt><trkpt lat="45.76167294510513" lon="8.498503665581216"><ele>352.5</ele><time>2026-04-18T08:54:09Z</time></trkpt><trkpt lat="45.76174507454772" lon="8.498429065697016"><ele>352.0</ele><time>2026-04-18T08:54:10Z</time></trkpt><trkpt lat="45.7618175304675" lon="8.498354128097583"><ele>351.5</ele><time>2026-04-18T08:54:11Z</time></trkpt><trkpt lat="45.76188758494219" lon="8.498281674242918"><ele>351.0</ele><time>2026-04-18T08:54:12Z</time></trkpt><trkpt lat="45.76195734912017" lon="8.498209520591399"><ele>351.0</ele><time>2026-04-18T08:54:13Z</time></trkpt><trkpt lat="45.762021631194976" lon="8.49814303685262"><ele>351.0</ele><time>2026-04-18T08:54:14Z</time></trkpt><trkpt lat="45.76208466069886" lon="8.498077848533784"><ele>351.0</ele><time>2026-04-18T08:54:15Z</time></trkpt><trkpt lat="45.76215585968955" lon="8.498004210992422"><ele>351.0</ele><time>2026-04-18T08:54:16Z</time></trkpt><trkpt lat="45.762242763752255" lon="8.497915684488143"><ele>351.0</ele><time>2026-04-18T08:54:17Z</time></trkpt><trkpt lat="45.76234839451964" lon="8.497810498497994"><ele>351.20000000000005</ele><time>2026-04-18T08:54:18Z</time></trkpt><trkpt lat="45.762448014214065" lon="8.497712601200176"><ele>351.40000000000003</ele><time>2026-04-18T08:54:19Z</time></trkpt><trkpt lat="45.76255583191929" lon="8.497607977193182"><ele>351.6</ele><time>2026-04-18T08:54:20Z</time></trkpt><trkpt lat="45.762634189954824" lon="8.49753194023014"><ele>351.8</ele><time>2026-04-18T08:54:21Z</time></trkpt><trkpt lat="45.76269913850936" lon="8.497469885361541"><ele>352.0</ele><time>2026-04-18T08:54:23Z</time></trkpt><trkpt lat="45.762755299285914" lon="8.497416885049317"><ele>352.0</ele><time>2026-04-18T08:54:27Z</time></trkpt><trkpt lat="45.76281262670306" lon="8.497362783706182"><ele>352.0</ele><time>2026-04-18T08:54:29Z</time></trkpt><trkpt lat="45.762895226625616" lon="8.497286256608323"><ele>352.0</ele><time>2026-04-18T08:54:31Z</time></trkpt><trkpt lat="45.76295444967368" lon="8.497231886894603"><ele>352.0</ele><time>2026-04-18T08:54:32Z</time></trkpt><trkpt lat="45.763008089436774" lon="8.49718264293183"><ele>352.0</ele><time>2026-04-18T08:54:33Z</time></trkpt><trkpt lat="45.76312793871445" lon="8.497074279840943"><ele>352.0</ele><time>2026-04-18T08:54:35Z</time></trkpt><trkpt lat="45.763184573692435" lon="8.497023268173084"><ele>350.8333333333333</ele><time>2026-04-18T08:54:36Z</time></trkpt><trkpt lat="45.76325107815994" lon="8.49696336691878"><ele>349.66666666666663</ele><time>2026-04-18T08:54:38Z</time></trkpt><trkpt lat="45.763231823348924" lon="8.496872779936277"><ele>348.5</ele><time>2026-04-18T08:54:41Z</time></trkpt><trkpt lat="45.76316938314696" lon="8.496758737059526"><ele>347.3333333333333</ele><time>2026-04-18T08:54:42Z</time></trkpt><trkpt lat="45.76312043647233" lon="8.496658942588223"><ele>346.1666666666667</ele><time>2026-04-18T08:54:43Z</time></trkpt><trkpt lat="45.76307361087046" lon="8.496565799293723"><ele>345.0</ele><time>2026-04-18T08:54:44Z</time></trkpt><trkpt lat="45.76299429100706" lon="8.496513589605142"><ele>345.0</ele><time>2026-04-18T08:54:50Z</time></trkpt><trkpt lat="45.762929785983665" lon="8.496521026441858"><ele>345.0</ele><time>2026-04-18T08:54:52Z</time></trkpt><trkpt lat="45.76287576628561" lon="8.496469105887616"><ele>345.0</ele><time>2026-04-18T08:54:58Z</time></trkpt><trkpt lat="45.76280725701757" lon="8.496428359419419"><ele>345.0</ele><time>2026-04-18T08:55:01Z</time></trkpt><trkpt lat="45.76272443180178" lon="8.49641924753689"><ele>345.0</ele><time>2026-04-18T08:55:04Z</time></trkpt><trkpt lat="45.76263794868966" lon="8.496465585474224"><ele>345.0</ele><time>2026-04-18T08:55:07Z</time></trkpt><trkpt lat="45.76253415090583" lon="8.496553043445182"><ele>344.1666666666667</ele><time>2026-04-18T08:55:09Z</time></trkpt><trkpt lat="45.76245889160274" lon="8.49663428028165"><ele>343.3333333333333</ele><time>2026-04-18T08:55:10Z</time></trkpt><trkpt lat="45.762373677763016" lon="8.496695373015768"><ele>342.5</ele><time>2026-04-18T08:55:11Z</time></trkpt><trkpt lat="45.76230943470466" lon="8.496730731476317"><ele>341.66666666666663</ele><time>2026-04-18T08:55:12Z</time></trkpt><trkpt lat="45.762221758332934" lon="8.49677776686009"><ele>340.8333333333333</ele><time>2026-04-18T08:55:13Z</time></trkpt><trkpt lat="45.76215036168241" lon="8.496812498326866"><ele>340.0</ele><time>2026-04-18T08:55:14Z</time></trkpt><trkpt lat="45.7620836549666" lon="8.496855258968912"><ele>340.0</ele><time>2026-04-18T08:55:15Z</time></trkpt><trkpt lat="45.76200272336728" lon="8.49691058915256"><ele>340.0</ele><time>2026-04-18T08:55:16Z</time></trkpt><trkpt lat="45.76189045121968" lon="8.496990468936108"><ele>340.0</ele><time>2026-04-18T08:55:18Z</time></trkpt><trkpt lat="45.76181384974084" lon="8.497039313966582"><ele>340.0</ele><time>2026-04-18T08:55:19Z</time></trkpt><trkpt lat="45.761705584198616" lon="8.497097392231153"><ele>340.0</ele><time>2026-04-18T08:55:20Z</time></trkpt><trkpt lat="45.76160722717062" lon="8.4971703777713"><ele>340.16666666666663</ele><time>2026-04-18T08:55:21Z</time></trkpt><trkpt lat="45.7615145161474" lon="8.497255437898643"><ele>340.3333333333333</ele><time>2026-04-18T08:55:22Z</time></trkpt><trkpt lat="45.761454541955224" lon="8.497332032483778"><ele>340.5</ele><time>2026-04-18T08:55:23Z</time></trkpt><trkpt lat="45.7613846033955" lon="8.497375040919978"><ele>340.6666666666667</ele><time>2026-04-18T08:55:24Z</time></trkpt><trkpt lat="45.76131807016921" lon="8.497388117687798"><ele>340.83333333333337</ele><time>2026-04-18T08:55:25Z</time></trkpt><trkpt lat="45.76124450832443" lon="8.497400488040567"><ele>341.0</ele><time>2026-04-18T08:55:26Z</time></trkpt><trkpt lat="45.761176457519106" lon="8.497401337524687"><ele>341.0</ele><time>2026-04-18T08:55:27Z</time></trkpt><trkpt lat="45.76108312659302" lon="8.497332483438772"><ele>341.0</ele><time>2026-04-18T08:55:29Z</time></trkpt><trkpt lat="45.76100273342024" lon="8.497267522031095"><ele>341.0</ele><time>2026-04-18T08:55:32Z</time></trkpt><trkpt lat="45.76091782048227" lon="8.49730460140066"><ele>341.0</ele><time>2026-04-18T08:55:35Z</time></trkpt><trkpt lat="45.76086690895463" lon="8.497380191928912"><ele>341.0</ele><time>2026-04-18T08:55:38Z</time></trkpt><trkpt lat="45.76079512069794" lon="8.497429354047641"><ele>341.0</ele><time>2026-04-18T08:55:40Z</time></trkpt><trkpt lat="45.76079412405031" lon="8.497530382800385"><ele>341.0</ele><time>2026-04-18T08:55:45Z</time></trkpt><trkpt lat="45.76074773768627" lon="8.497631071128088"><ele>341.0</ele><time>2026-04-18T08:55:49Z</time></trkpt><trkpt lat="45.76068969500289" lon="8.497698147688315"><ele>341.0</ele><time>2026-04-18T08:55:51Z</time></trkpt><trkpt lat="45.76064397180899" lon="8.49786920063549"><ele>341.0</ele><time>2026-04-18T08:55:53Z</time></trkpt><trkpt lat="45.76056797469793" lon="8.497959580759417"><ele>341.0</ele><time>2026-04-18T08:55:55Z</time></trkpt><trkpt lat="45.76050213046032" lon="8.498000455336202"><ele>341.0</ele><time>2026-04-18T08:55:57Z</time></trkpt><trkpt lat="45.7604513273003" lon="8.49812280801954"><ele>341.0</ele><time>2026-04-18T08:56:09Z</time></trkpt><trkpt lat="45.76038730642868" lon="8.498152694709404"><ele>341.0</ele><time>2026-04-18T08:56:12Z</time></trkpt><trkpt lat="45.76043278867395" lon="8.498061658631348"><ele>341.0</ele><time>2026-04-18T08:56:23Z</time></trkpt><trkpt lat="45.760503151307475" lon="8.498008545445153"><ele>341.0</ele><time>2026-04-18T08:56:25Z</time></trkpt><trkpt lat="45.76057479939305" lon="8.497927120643103"><ele>341.0</ele><time>2026-04-18T08:56:28Z</time></trkpt><trkpt lat="45.76063612226492" lon="8.497825063297576"><ele>341.0</ele><time>2026-04-18T08:56:31Z</time></trkpt><trkpt lat="45.76066542421725" lon="8.497717039482318"><ele>341.0</ele><time>2026-04-18T08:56:33Z</time></trkpt><trkpt lat="45.76070339737204" lon="8.497634587153383"><ele>341.0</ele><time>2026-04-18T08:56:37Z</time></trkpt><trkpt lat="45.760754819664385" lon="8.497575415803329"><ele>341.0</ele><time>2026-04-18T08:56:40Z</time></trkpt><trkpt lat="45.760771359436006" lon="8.497448636985114"><ele>341.0</ele><time>2026-04-18T08:56:48Z</time></trkpt><trkpt lat="45.760798070806324" lon="8.497362703791781"><ele>341.0</ele><time>2026-04-18T08:56:54Z</time></trkpt><trkpt lat="45.76077250124495" lon="8.497234229530523"><ele>341.0</ele><time>2026-04-18T08:57:01Z</time></trkpt><trkpt lat="45.76069495996164" lon="8.49717537439302"><ele>341.0</ele><time>2026-04-18T08:57:03Z</time></trkpt><trkpt lat="45.760642911068715" lon="8.497121894936598"><ele>341.0</ele><time>2026-04-18T08:57:06Z</time></trkpt><trkpt lat="45.76063404200111" lon="8.497014758826538"><ele>341.0</ele><time>2026-04-18T08:57:17Z</time></trkpt><trkpt lat="45.76064769749269" lon="8.496916852640014"><ele>341.0</ele><time>2026-04-18T08:57:22Z</time></trkpt><trkpt lat="45.76056605211185" lon="8.496870383877539"><ele>341.0</ele><time>2026-04-18T08:57:25Z</time></trkpt><trkpt lat="45.76048433790153" lon="8.496863762237458"><ele>341.83333333333337</ele><time>2026-04-18T08:57:27Z</time></trkpt><trkpt lat="45.760416170464396" lon="8.496816766549049"><ele>342.6666666666667</ele><time>2026-04-18T08:57:29Z</time></trkpt><trkpt lat="45.76033088517835" lon="8.496815882590184"><ele>343.5</ele><time>2026-04-18T08:57:48Z</time></trkpt><trkpt lat="45.760247173085" lon="8.49679998266707"><ele>344.3333333333333</ele><time>2026-04-18T08:57:50Z</time></trkpt><trkpt lat="45.760151628262484" lon="8.496771761693125"><ele>345.16666666666663</ele><time>2026-04-18T08:57:52Z</time></trkpt><trkpt lat="45.76007381094968" lon="8.496807650886803"><ele>346.0</ele><time>2026-04-18T08:57:54Z</time></trkpt><trkpt lat="45.76000880088886" lon="8.496787394787955"><ele>348.3333333333333</ele><time>2026-04-18T08:58:04Z</time></trkpt><trkpt lat="45.76001945973929" lon="8.496692067531209"><ele>350.66666666666663</ele><time>2026-04-18T08:58:07Z</time></trkpt><trkpt lat="45.76007572029585" lon="8.496576576611055"><ele>353.0</ele><time>2026-04-18T08:58:09Z</time></trkpt><trkpt lat="45.760101867406355" lon="8.496435419609973"><ele>355.3333333333333</ele><time>2026-04-18T08:58:12Z</time></trkpt><trkpt lat="45.76016721805086" lon="8.496369713944643"><ele>357.6666666666667</ele><time>2026-04-18T08:58:14Z</time></trkpt><trkpt lat="45.760120226007224" lon="8.496303035649587"><ele>360.0</ele><time>2026-04-18T08:58:20Z</time></trkpt><trkpt lat="45.76004349766523" lon="8.496339126740658"><ele>360.0</ele><time>2026-04-18T08:59:01Z</time></trkpt><trkpt lat="45.76000480141574" lon="8.496420178354413"><ele>360.0</ele><time>2026-04-18T08:59:03Z</time></trkpt><trkpt lat="45.75995415650151" lon="8.496512335184878"><ele>360.0</ele><time>2026-04-18T08:59:08Z</time></trkpt><trkpt lat="45.75990695784372" lon="8.49644283122615"><ele>360.0</ele><time>2026-04-18T08:59:14Z</time></trkpt><trkpt lat="45.7599424573829" lon="8.496364496954834"><ele>360.0</ele><time>2026-04-18T08:59:17Z</time></trkpt><trkpt lat="45.75989465802309" lon="8.49643416007155"><ele>360.0</ele><time>2026-04-18T09:01:06Z</time></trkpt><trkpt lat="45.75997334558708" lon="8.49645341337778"><ele>360.0</ele><time>2026-04-18T09:09:57Z</time></trkpt><trkpt lat="45.76002976183905" lon="8.496391738497522"><ele>360.0</ele><time>2026-04-18T09:10:06Z</time></trkpt><trkpt lat="45.760065213421605" lon="8.496309526363826"><ele>360.0</ele><time>2026-04-18T09:10:12Z</time></trkpt><trkpt lat="45.76012558229146" lon="8.49626791934615"><ele>360.0</ele><time>2026-04-18T09:10:23Z</time></trkpt><trkpt lat="45.760226026575374" lon="8.496269889611707"><ele>360.0</ele><time>2026-04-18T09:11:06Z</time></trkpt><trkpt lat="45.76027598398476" lon="8.49632769725884"><ele>360.0</ele><time>2026-04-18T09:11:14Z</time></trkpt><trkpt lat="45.760315642101446" lon="8.496400741166171"><ele>360.0</ele><time>2026-04-18T09:11:25Z</time></trkpt><trkpt lat="45.76038611290761" lon="8.496409915640383"><ele>360.0</ele><time>2026-04-18T09:11:30Z</time></trkpt><trkpt lat="45.76047070386089" lon="8.496372252375783"><ele>358.0</ele><time>2026-04-18T09:11:34Z</time></trkpt><trkpt lat="45.7605032614164" lon="8.496487522460228"><ele>356.0</ele><time>2026-04-18T09:14:06Z</time></trkpt><trkpt lat="45.76053797878558" lon="8.496566232520365"><ele>354.0</ele><time>2026-04-18T09:14:08Z</time></trkpt><trkpt lat="45.760561611058606" lon="8.496656662184265"><ele>352.0</ele><time>2026-04-18T09:14:10Z</time></trkpt><trkpt lat="45.760585193697125" lon="8.49675906646732"><ele>350.0</ele><time>2026-04-18T09:14:12Z</time></trkpt><trkpt lat="45.76061853215921" lon="8.496856082415759"><ele>348.0</ele><time>2026-04-18T09:14:14Z</time></trkpt><trkpt lat="45.76066895229197" lon="8.496916858690895"><ele>346.0</ele><time>2026-04-18T09:14:16Z</time></trkpt><trkpt lat="45.7606533527901" lon="8.497016147660311"><ele>345.16666666666663</ele><time>2026-04-18T09:14:20Z</time></trkpt><trkpt lat="45.76069932898835" lon="8.497091510488858"><ele>344.3333333333333</ele><time>2026-04-18T09:14:27Z</time></trkpt><trkpt lat="45.760772078606976" lon="8.49713095492912"><ele>343.5</ele><time>2026-04-18T09:14:29Z</time></trkpt><trkpt lat="45.76082241606623" lon="8.497218236353271"><ele>342.6666666666667</ele><time>2026-04-18T09:14:31Z</time></trkpt><trkpt lat="45.760836049829685" lon="8.497309293004703"><ele>341.83333333333337</ele><time>2026-04-18T09:14:34Z</time></trkpt><trkpt lat="45.760811015768766" lon="8.49742694089822"><ele>341.0</ele><time>2026-04-18T09:14:37Z</time></trkpt><trkpt lat="45.76077202334752" lon="8.497515535806983"><ele>341.0</ele><time>2026-04-18T09:14:40Z</time></trkpt><trkpt lat="45.76078454732094" lon="8.497405395275027"><ele>341.0</ele><time>2026-04-18T09:15:23Z</time></trkpt><trkpt lat="45.760844204063936" lon="8.49735669615194"><ele>341.0</ele><time>2026-04-18T09:15:30Z</time></trkpt><trkpt lat="45.760910557078226" lon="8.497299558254237"><ele>341.0</ele><time>2026-04-18T09:15:33Z</time></trkpt><trkpt lat="45.76101664173788" lon="8.49725032935654"><ele>341.0</ele><time>2026-04-18T09:15:36Z</time></trkpt><trkpt lat="45.7610999490436" lon="8.497317929137672"><ele>341.0</ele><time>2026-04-18T09:15:40Z</time></trkpt><trkpt lat="45.76116774547767" lon="8.497328809958109"><ele>341.0</ele><time>2026-04-18T09:16:55Z</time></trkpt><trkpt lat="45.761207995860005" lon="8.497414919046236"><ele>341.0</ele><time>2026-04-18T09:16:58Z</time></trkpt><trkpt lat="45.761073538964425" lon="8.497288643178663"><ele>341.0</ele><time>2026-04-18T09:17:03Z</time></trkpt><trkpt lat="45.760984465477264" lon="8.49726107484779"><ele>341.0</ele><time>2026-04-18T09:17:06Z</time></trkpt><trkpt lat="45.760917861451404" lon="8.497302522138044"><ele>341.0</ele><time>2026-04-18T09:17:08Z</time></trkpt><trkpt lat="45.76086530770411" lon="8.49735492324581"><ele>341.0</ele><time>2026-04-18T09:17:10Z</time></trkpt><trkpt lat="45.76080682135948" lon="8.49741592634403"><ele>341.0</ele><time>2026-04-18T09:17:13Z</time></trkpt><trkpt lat="45.76079394822596" lon="8.497560423520191"><ele>341.0</ele><time>2026-04-18T09:17:15Z</time></trkpt><trkpt lat="45.760724978199036" lon="8.497617365615431"><ele>341.0</ele><time>2026-04-18T09:17:17Z</time></trkpt><trkpt lat="45.760662754892536" lon="8.497768636885487"><ele>341.0</ele><time>2026-04-18T09:17:20Z</time></trkpt><trkpt lat="45.76064045155047" lon="8.497870186131367"><ele>340.33333333333337</ele><time>2026-04-18T09:17:21Z</time></trkpt><trkpt lat="45.76058582693381" lon="8.497938791364255"><ele>339.6666666666667</ele><time>2026-04-18T09:17:23Z</time></trkpt><trkpt lat="45.760506637247595" lon="8.498004702145353"><ele>339.0</ele><time>2026-04-18T09:17:26Z</time></trkpt><trkpt lat="45.76045315391588" lon="8.498058576353312"><ele>338.3333333333333</ele><time>2026-04-18T09:17:29Z</time></trkpt><trkpt lat="45.760430560552784" lon="8.498169405052469"><ele>337.66666666666663</ele><time>2026-04-18T09:17:34Z</time></trkpt><trkpt lat="45.760437949944176" lon="8.498301255533306"><ele>337.0</ele><time>2026-04-18T09:17:36Z</time></trkpt><trkpt lat="45.7604059926717" lon="8.498379745789768"><ele>337.0</ele><time>2026-04-18T09:17:38Z</time></trkpt><trkpt lat="45.76037723608434" lon="8.498493728410855"><ele>337.0</ele><time>2026-04-18T09:17:41Z</time></trkpt><trkpt lat="45.76035107178565" lon="8.498595080118571"><ele>337.0</ele><time>2026-04-18T09:17:43Z</time></trkpt><trkpt lat="45.76029113531668" lon="8.49865221115777"><ele>337.0</ele><time>2026-04-18T09:17:46Z</time></trkpt><trkpt lat="45.76023920090613" lon="8.49871763543857"><ele>337.0</ele><time>2026-04-18T09:17:49Z</time></trkpt><trkpt lat="45.76016507861536" lon="8.498790724636267"><ele>337.0</ele><time>2026-04-18T09:17:52Z</time></trkpt><trkpt lat="45.7600866158588" lon="8.498840341844378"><ele>336.8333333333333</ele><time>2026-04-18T09:17:55Z</time></trkpt><trkpt lat="45.760112786392696" lon="8.498934694115233"><ele>336.66666666666663</ele><time>2026-04-18T09:18:08Z</time></trkpt><trkpt lat="45.76017234149559" lon="8.499012694404248"><ele>336.5</ele><time>2026-04-18T09:18:10Z</time></trkpt><trkpt lat="45.760147280849324" lon="8.49915686719974"><ele>336.3333333333333</ele><time>2026-04-18T09:18:13Z</time></trkpt><trkpt lat="45.76007233914821" lon="8.499229693792705"><ele>336.1666666666667</ele><time>2026-04-18T09:18:15Z</time></trkpt><trkpt lat="45.76000503026248" lon="8.499267014713551"><ele>336.0</ele><time>2026-04-18T09:18:17Z</time></trkpt><trkpt lat="45.759897953021785" lon="8.499322154834655"><ele>336.0</ele><time>2026-04-18T09:18:19Z</time></trkpt><trkpt lat="45.75983214773809" lon="8.499338924428999"><ele>336.0</ele><time>2026-04-18T09:18:20Z</time></trkpt><trkpt lat="45.75976617326821" lon="8.499354739876555"><ele>336.0</ele><time>2026-04-18T09:18:22Z</time></trkpt><trkpt lat="45.75969393343944" lon="8.499363903313677"><ele>336.0</ele><time>2026-04-18T09:18:24Z</time></trkpt><trkpt lat="45.75961396284077" lon="8.499372094062897"><ele>336.0</ele><time>2026-04-18T09:18:33Z</time></trkpt><trkpt lat="45.75949740646524" lon="8.499416342470127"><ele>336.0</ele><time>2026-04-18T09:18:35Z</time></trkpt><trkpt lat="45.759431996959655" lon="8.499435903467369"><ele>335.8333333333333</ele><time>2026-04-18T09:18:36Z</time></trkpt><trkpt lat="45.75933694748611" lon="8.499465948851771"><ele>335.6666666666667</ele><time>2026-04-18T09:18:38Z</time></trkpt><trkpt lat="45.75927494763983" lon="8.49950316251735"><ele>335.5</ele><time>2026-04-18T09:18:39Z</time></trkpt><trkpt lat="45.759190894520486" lon="8.499557115278405"><ele>335.33333333333337</ele><time>2026-04-18T09:18:41Z</time></trkpt><trkpt lat="45.75914735733273" lon="8.499640191157814"><ele>335.1666666666667</ele><time>2026-04-18T09:18:44Z</time></trkpt><trkpt lat="45.75908203682443" lon="8.499682938690201"><ele>335.0</ele><time>2026-04-18T09:18:46Z</time></trkpt><trkpt lat="45.759046738469564" lon="8.499759636152264"><ele>335.33333333333337</ele><time>2026-04-18T09:18:49Z</time></trkpt><trkpt lat="45.759064274737554" lon="8.499898109752012"><ele>335.6666666666667</ele><time>2026-04-18T09:19:00Z</time></trkpt><trkpt lat="45.75908776071367" lon="8.50000304893691"><ele>336.0</ele><time>2026-04-18T09:19:03Z</time></trkpt><trkpt lat="45.75906867497288" lon="8.500091949181622"><ele>336.3333333333333</ele><time>2026-04-18T09:19:05Z</time></trkpt><trkpt lat="45.759028021679846" lon="8.50017242327349"><ele>336.66666666666663</ele><time>2026-04-18T09:19:06Z</time></trkpt><trkpt lat="45.75897199342003" lon="8.500237136762983"><ele>337.0</ele><time>2026-04-18T09:19:08Z</time></trkpt><trkpt lat="45.75890758516496" lon="8.500271262941459"><ele>337.0</ele><time>2026-04-18T09:19:10Z</time></trkpt><trkpt lat="45.75881268045696" lon="8.500292847457736"><ele>337.0</ele><time>2026-04-18T09:19:13Z</time></trkpt><trkpt lat="45.758745428015125" lon="8.500398535774298"><ele>337.0</ele><time>2026-04-18T09:19:23Z</time></trkpt><trkpt lat="45.75863528529683" lon="8.500474410728568"><ele>337.0</ele><time>2026-04-18T09:19:25Z</time></trkpt><trkpt lat="45.75857187408044" lon="8.500531442237198"><ele>337.0</ele><time>2026-04-18T09:19:26Z</time></trkpt><trkpt lat="45.75850256477024" lon="8.500593369989064"><ele>337.3333333333333</ele><time>2026-04-18T09:19:27Z</time></trkpt><trkpt lat="45.75844258147153" lon="8.500649313075852"><ele>337.66666666666663</ele><time>2026-04-18T09:19:28Z</time></trkpt><trkpt lat="45.75838783622549" lon="8.500700178862113"><ele>338.0</ele><time>2026-04-18T09:19:29Z</time></trkpt><trkpt lat="45.75831807635985" lon="8.500787226885752"><ele>338.3333333333333</ele><time>2026-04-18T09:19:30Z</time></trkpt><trkpt lat="45.758250444832996" lon="8.500882128610472"><ele>338.6666666666667</ele><time>2026-04-18T09:19:31Z</time></trkpt><trkpt lat="45.75819224813243" lon="8.500969431858806"><ele>339.0</ele><time>2026-04-18T09:19:32Z</time></trkpt><trkpt lat="45.75815323131787" lon="8.501106539523185"><ele>339.0</ele><time>2026-04-18T09:19:34Z</time></trkpt><trkpt lat="45.75813998482025" lon="8.501198457674096"><ele>339.0</ele><time>2026-04-18T09:19:35Z</time></trkpt><trkpt lat="45.75811684972162" lon="8.501388122408004"><ele>339.0</ele><time>2026-04-18T09:19:37Z</time></trkpt><trkpt lat="45.758081581802095" lon="8.50154149732052"><ele>339.0</ele><time>2026-04-18T09:19:39Z</time></trkpt><trkpt lat="45.75803629991172" lon="8.501728085331735"><ele>340.6</ele><time>2026-04-18T09:19:41Z</time></trkpt><trkpt lat="45.75799191425687" lon="8.501836983029188"><ele>342.2</ele><time>2026-04-18T09:19:42Z</time></trkpt><trkpt lat="45.75792573479389" lon="8.501927556003817"><ele>343.8</ele><time>2026-04-18T09:19:43Z</time></trkpt><trkpt lat="45.75785496969541" lon="8.502024989731433"><ele>345.40000000000003</ele><time>2026-04-18T09:19:44Z</time></trkpt><trkpt lat="45.757771282043656" lon="8.502123983016824"><ele>347.0</ele><time>2026-04-18T09:19:45Z</time></trkpt><trkpt lat="45.75771877367128" lon="8.502235042811233"><ele>345.8571428571429</ele><time>2026-04-18T09:19:46Z</time></trkpt><trkpt lat="45.75767940571022" lon="8.502342307971027"><ele>344.71428571428567</ele><time>2026-04-18T09:19:47Z</time></trkpt><trkpt lat="45.75765091904766" lon="8.502446225066556"><ele>343.57142857142856</ele><time>2026-04-18T09:19:48Z</time></trkpt><trkpt lat="45.75761797927729" lon="8.502551153983623"><ele>342.42857142857144</ele><time>2026-04-18T09:19:49Z</time></trkpt><trkpt lat="45.75760808055889" lon="8.502644792707061"><ele>341.28571428571433</ele><time>2026-04-18T09:19:50Z</time></trkpt><trkpt lat="45.75758938029979" lon="8.50273520577962"><ele>340.1428571428571</ele><time>2026-04-18T09:19:51Z</time></trkpt><trkpt lat="45.757564440947405" lon="8.50282081863845"><ele>339.0</ele><time>2026-04-18T09:19:52Z</time></trkpt><trkpt lat="45.75751733362796" lon="8.5029012790631"><ele>340.0</ele><time>2026-04-18T09:19:53Z</time></trkpt><trkpt lat="45.757486931852036" lon="8.50299124061705"><ele>341.0</ele><time>2026-04-18T09:19:54Z</time></trkpt><trkpt lat="45.75740954589575" lon="8.503123389310803"><ele>342.0</ele><time>2026-04-18T09:19:56Z</time></trkpt><trkpt lat="45.75736737309355" lon="8.503193407681927"><ele>343.0</ele><time>2026-04-18T09:19:57Z</time></trkpt><trkpt lat="45.75728525017507" lon="8.503345190624987"><ele>344.0</ele><time>2026-04-18T09:19:59Z</time></trkpt><trkpt lat="45.75724849639555" lon="8.503437480277372"><ele>344.0</ele><time>2026-04-18T09:20:00Z</time></trkpt><trkpt lat="45.75718993383224" lon="8.503507558148804"><ele>344.0</ele><time>2026-04-18T09:20:01Z</time></trkpt><trkpt lat="45.757124189074496" lon="8.503642484226878"><ele>344.0</ele><time>2026-04-18T09:20:03Z</time></trkpt><trkpt lat="45.7570710979005" lon="8.503787285415891"><ele>344.0</ele><time>2026-04-18T09:20:05Z</time></trkpt><trkpt lat="45.75700040963743" lon="8.503906313812584"><ele>344.0</ele><time>2026-04-18T09:20:07Z</time></trkpt><trkpt lat="45.75696423361313" lon="8.504057594142743"><ele>345.6666666666667</ele><time>2026-04-18T09:20:09Z</time></trkpt><trkpt lat="45.7569441868014" lon="8.504161310446875"><ele>347.33333333333337</ele><time>2026-04-18T09:20:46Z</time></trkpt><trkpt lat="45.75685941898256" lon="8.504164372846384"><ele>349.0</ele><time>2026-04-18T09:20:52Z</time></trkpt><trkpt lat="45.75680548165701" lon="8.504217235538174"><ele>350.6666666666667</ele><time>2026-04-18T09:20:53Z</time></trkpt><trkpt lat="45.75673359131689" lon="8.504262790549497"><ele>352.3333333333333</ele><time>2026-04-18T09:20:54Z</time></trkpt><trkpt lat="45.75665914150351" lon="8.504311565872344"><ele>354.0</ele><time>2026-04-18T09:20:56Z</time></trkpt><trkpt lat="45.756603356450576" lon="8.504394605840364"><ele>350.6</ele><time>2026-04-18T09:20:58Z</time></trkpt><trkpt lat="45.75655360503434" lon="8.504547933707345"><ele>347.2</ele><time>2026-04-18T09:21:00Z</time></trkpt><trkpt lat="45.756497612465104" lon="8.504609583644676"><ele>343.8</ele><time>2026-04-18T09:21:02Z</time></trkpt><trkpt lat="45.75646090789645" lon="8.504720944173812"><ele>340.40000000000003</ele><time>2026-04-18T09:21:04Z</time></trkpt><trkpt lat="45.7563978268214" lon="8.504791732947611"><ele>337.0</ele><time>2026-04-18T09:21:06Z</time></trkpt><trkpt lat="45.756290008585545" lon="8.504795424959887"><ele>337.0</ele><time>2026-04-18T09:21:08Z</time></trkpt><trkpt lat="45.756213842889764" lon="8.50479248258317"><ele>337.0</ele><time>2026-04-18T09:21:09Z</time></trkpt><trkpt lat="45.7561026592984" lon="8.504843276973014"><ele>337.0</ele><time>2026-04-18T09:21:11Z</time></trkpt><trkpt lat="45.7560428009375" lon="8.504883007785404"><ele>337.0</ele><time>2026-04-18T09:21:12Z</time></trkpt><trkpt lat="45.755961905784" lon="8.504943295429573"><ele>337.0</ele><time>2026-04-18T09:21:14Z</time></trkpt><trkpt lat="45.7558533103924" lon="8.504976355358673"><ele>337.3333333333333</ele><time>2026-04-18T09:21:35Z</time></trkpt><trkpt lat="45.75578856902142" lon="8.505001373249772"><ele>337.66666666666663</ele><time>2026-04-18T09:21:38Z</time></trkpt><trkpt lat="45.75573054266819" lon="8.505105539537313"><ele>338.0</ele><time>2026-04-18T09:21:41Z</time></trkpt><trkpt lat="45.75569123881348" lon="8.505181171009008"><ele>338.3333333333333</ele><time>2026-04-18T09:21:44Z</time></trkpt><trkpt lat="45.75567904117255" lon="8.505280331638549"><ele>338.6666666666667</ele><time>2026-04-18T09:21:55Z</time></trkpt><trkpt lat="45.755624088485334" lon="8.50544594208804"><ele>339.0</ele><time>2026-04-18T09:21:57Z</time></trkpt><trkpt lat="45.75557707239379" lon="8.505537504874919"><ele>337.79999999999995</ele><time>2026-04-18T09:21:58Z</time></trkpt><trkpt lat="45.75555000467951" lon="8.50568527961274"><ele>336.59999999999997</ele><time>2026-04-18T09:21:59Z</time></trkpt><trkpt lat="45.75553458375015" lon="8.50582702540472"><ele>335.4</ele><time>2026-04-18T09:22:00Z</time></trkpt><trkpt lat="45.755514040586505" lon="8.505950569971345"><ele>334.2</ele><time>2026-04-18T09:22:01Z</time></trkpt><trkpt lat="45.755492325922724" lon="8.506048224835123"><ele>333.0</ele><time>2026-04-18T09:22:02Z</time></trkpt><trkpt lat="45.75543875113574" lon="8.506140086103287"><ele>333.0</ele><time>2026-04-18T09:22:03Z</time></trkpt><trkpt lat="45.75541773551366" lon="8.506243643942103"><ele>333.0</ele><time>2026-04-18T09:22:04Z</time></trkpt><trkpt lat="45.75538574137578" lon="8.506328397821399"><ele>333.0</ele><time>2026-04-18T09:22:05Z</time></trkpt><trkpt lat="45.75533065212377" lon="8.506396196955428"><ele>333.0</ele><time>2026-04-18T09:22:06Z</time></trkpt><trkpt lat="45.75529240222788" lon="8.506505470812511"><ele>333.0</ele><time>2026-04-18T09:22:07Z</time></trkpt><trkpt lat="45.75527721514309" lon="8.506597484084995"><ele>333.0</ele><time>2026-04-18T09:22:12Z</time></trkpt><trkpt lat="45.75521260193516" lon="8.506751944557868"><ele>333.8333333333333</ele><time>2026-04-18T09:22:14Z</time></trkpt><trkpt lat="45.75518239280814" lon="8.50683397658533"><ele>334.6666666666667</ele><time>2026-04-18T09:22:16Z</time></trkpt><trkpt lat="45.755118373737574" lon="8.506939903994809"><ele>335.5</ele><time>2026-04-18T09:22:19Z</time></trkpt><trkpt lat="45.755028698617785" lon="8.50703415848644"><ele>336.33333333333337</ele><time>2026-04-18T09:22:22Z</time></trkpt><trkpt lat="45.75495869111958" lon="8.50712855204789"><ele>337.1666666666667</ele><time>2026-04-18T09:22:24Z</time></trkpt><trkpt lat="45.7549254429394" lon="8.507212417246272"><ele>338.0</ele><time>2026-04-18T09:22:25Z</time></trkpt><trkpt lat="45.75489668404492" lon="8.507302748005904"><ele>338.0</ele><time>2026-04-18T09:22:26Z</time></trkpt><trkpt lat="45.754861547080765" lon="8.507398963578574"><ele>338.0</ele><time>2026-04-18T09:22:27Z</time></trkpt><trkpt lat="45.754800935516435" lon="8.507528379874877"><ele>338.0</ele><time>2026-04-18T09:22:29Z</time></trkpt><trkpt lat="45.754754160633844" lon="8.507628910918436"><ele>338.0</ele><time>2026-04-18T09:22:31Z</time></trkpt><trkpt lat="45.75472138480932" lon="8.507723372786513"><ele>338.0</ele><time>2026-04-18T09:22:32Z</time></trkpt><trkpt lat="45.75468071608266" lon="8.507809356731295"><ele>338.0</ele><time>2026-04-18T09:22:33Z</time></trkpt><trkpt lat="45.75464727566207" lon="8.507898188381057"><ele>337.2</ele><time>2026-04-18T09:22:34Z</time></trkpt><trkpt lat="45.75461643313605" lon="8.507989088882894"><ele>336.4</ele><time>2026-04-18T09:22:35Z</time></trkpt><trkpt lat="45.75458355407138" lon="8.508149895499335"><ele>335.59999999999997</ele><time>2026-04-18T09:22:37Z</time></trkpt><trkpt lat="45.75456386211367" lon="8.50825855423485"><ele>334.79999999999995</ele><time>2026-04-18T09:22:38Z</time></trkpt><trkpt lat="45.75453044304723" lon="8.508355920163696"><ele>334.0</ele><time>2026-04-18T09:22:39Z</time></trkpt><trkpt lat="45.75449525057894" lon="8.508503918548195"><ele>333.25</ele><time>2026-04-18T09:22:41Z</time></trkpt><trkpt lat="45.75452770007043" lon="8.508745934492879"><ele>332.5</ele><time>2026-04-18T09:22:43Z</time></trkpt><trkpt lat="45.754574459058375" lon="8.508875455142327"><ele>331.75</ele><time>2026-04-18T09:22:45Z</time></trkpt><trkpt lat="45.75457636117565" lon="8.509009787779723"><ele>331.0</ele><time>2026-04-18T09:22:47Z</time></trkpt><trkpt lat="45.75456087429336" lon="8.509125830938673"><ele>331.0</ele><time>2026-04-18T09:22:49Z</time></trkpt><trkpt lat="45.75450271219613" lon="8.509268986223994"><ele>331.0</ele><time>2026-04-18T09:22:50Z</time></trkpt><trkpt lat="45.75446773165776" lon="8.50938282082194"><ele>331.0</ele><time>2026-04-18T09:22:51Z</time></trkpt><trkpt lat="45.754417543467866" lon="8.509482385021604"><ele>331.0</ele><time>2026-04-18T09:22:52Z</time></trkpt><trkpt lat="45.75438588275339" lon="8.509605428983397"><ele>331.0</ele><time>2026-04-18T09:22:53Z</time></trkpt><trkpt lat="45.75435792108283" lon="8.509724827761874"><ele>331.16666666666663</ele><time>2026-04-18T09:22:54Z</time></trkpt><trkpt lat="45.75433348711391" lon="8.509815274911677"><ele>331.3333333333333</ele><time>2026-04-18T09:22:55Z</time></trkpt><trkpt lat="45.75426898129111" lon="8.50997015555327"><ele>331.5</ele><time>2026-04-18T09:22:57Z</time></trkpt><trkpt lat="45.7542262450149" lon="8.510050281663569"><ele>331.6666666666667</ele><time>2026-04-18T09:22:58Z</time></trkpt><trkpt lat="45.75416939519858" lon="8.510150493451093"><ele>331.83333333333337</ele><time>2026-04-18T09:22:59Z</time></trkpt><trkpt lat="45.75411040998825" lon="8.510231922382392"><ele>332.0</ele><time>2026-04-18T09:23:00Z</time></trkpt><trkpt lat="45.75405511465887" lon="8.510353778162848"><ele>331.83333333333337</ele><time>2026-04-18T09:23:01Z</time></trkpt><trkpt lat="45.754014571595924" lon="8.510461329087272"><ele>331.6666666666667</ele><time>2026-04-18T09:23:02Z</time></trkpt><trkpt lat="45.754031591567134" lon="8.510587559067085"><ele>331.5</ele><time>2026-04-18T09:23:04Z</time></trkpt><trkpt lat="45.75400994232156" lon="8.510713964708696"><ele>331.3333333333333</ele><time>2026-04-18T09:23:29Z</time></trkpt><trkpt lat="45.75399594619362" lon="8.510815616221674"><ele>331.16666666666663</ele><time>2026-04-18T09:23:30Z</time></trkpt><trkpt lat="45.753979200160266" lon="8.510907330465324"><ele>331.0</ele><time>2026-04-18T09:23:31Z</time></trkpt><trkpt lat="45.753969834308826" lon="8.511012301185682"><ele>331.0</ele><time>2026-04-18T09:23:32Z</time></trkpt><trkpt lat="45.75393787698085" lon="8.511178924290313"><ele>331.0</ele><time>2026-04-18T09:23:33Z</time></trkpt><trkpt lat="45.75392109325751" lon="8.511297391135901"><ele>331.0</ele><time>2026-04-18T09:23:34Z</time></trkpt><trkpt lat="45.753914170888955" lon="8.511448233264563"><ele>331.0</ele><time>2026-04-18T09:23:35Z</time></trkpt><trkpt lat="45.75391222117277" lon="8.51155188468299"><ele>331.0</ele><time>2026-04-18T09:23:36Z</time></trkpt><trkpt lat="45.753886501072124" lon="8.511643714335321"><ele>331.3333333333333</ele><time>2026-04-18T09:23:37Z</time></trkpt><trkpt lat="45.753854763083964" lon="8.511739309328012"><ele>331.66666666666663</ele><time>2026-04-18T09:23:38Z</time></trkpt><trkpt lat="45.753816154986716" lon="8.51184764375274"><ele>332.0</ele><time>2026-04-18T09:23:39Z</time></trkpt><trkpt lat="45.75379793635493" lon="8.511935434031539"><ele>332.3333333333333</ele><time>2026-04-18T09:23:41Z</time></trkpt><trkpt lat="45.7538509024471" lon="8.512055789416864"><ele>332.6666666666667</ele><time>2026-04-18T09:23:48Z</time></trkpt><trkpt lat="45.753812207373954" lon="8.512148393927472"><ele>333.0</ele><time>2026-04-18T09:23:50Z</time></trkpt><trkpt lat="45.7537570465302" lon="8.512249019281617"><ele>333.79999999999995</ele><time>2026-04-18T09:23:52Z</time></trkpt><trkpt lat="45.75372147491781" lon="8.51235595397474"><ele>334.6</ele><time>2026-04-18T09:23:55Z</time></trkpt><trkpt lat="45.75373578410532" lon="8.51247862441733"><ele>335.4</ele><time>2026-04-18T09:23:57Z</time></trkpt><trkpt lat="45.75372904094491" lon="8.512641533970195"><ele>336.20000000000005</ele><time>2026-04-18T09:23:59Z</time></trkpt><trkpt lat="45.753803163368204" lon="8.512768107879184"><ele>337.0</ele><time>2026-04-18T09:24:01Z</time></trkpt><trkpt lat="45.75381008531957" lon="8.512861446257993"><ele>337.0</ele><time>2026-04-18T09:24:02Z</time></trkpt><trkpt lat="45.75379300785346" lon="8.512981232493049"><ele>337.0</ele><time>2026-04-18T09:24:04Z</time></trkpt><trkpt lat="45.753681728336204" lon="8.513057215769308"><ele>337.0</ele><time>2026-04-18T09:24:11Z</time></trkpt><trkpt lat="45.75361197014917" lon="8.513088425553995"><ele>337.0</ele><time>2026-04-18T09:24:12Z</time></trkpt><trkpt lat="45.75350476195576" lon="8.513163249360659"><ele>337.0</ele><time>2026-04-18T09:24:14Z</time></trkpt><trkpt lat="45.75338594110444" lon="8.513237315670514"><ele>338.8333333333333</ele><time>2026-04-18T09:24:16Z</time></trkpt><trkpt lat="45.75332384466686" lon="8.513285479591701"><ele>340.66666666666663</ele><time>2026-04-18T09:24:17Z</time></trkpt><trkpt lat="45.7532550360708" lon="8.513325391602152"><ele>342.5</ele><time>2026-04-18T09:24:18Z</time></trkpt><trkpt lat="45.753182574306365" lon="8.513369649516305"><ele>344.3333333333333</ele><time>2026-04-18T09:24:19Z</time></trkpt><trkpt lat="45.75311319052823" lon="8.513412166053325"><ele>346.1666666666667</ele><time>2026-04-18T09:24:20Z</time></trkpt><trkpt lat="45.753036805310224" lon="8.51345412720401"><ele>348.0</ele><time>2026-04-18T09:24:21Z</time></trkpt><trkpt lat="45.752968691581046" lon="8.513496166136553"><ele>348.0</ele><time>2026-04-18T09:24:22Z</time></trkpt><trkpt lat="45.75289374658103" lon="8.513539009096966"><ele>348.0</ele><time>2026-04-18T09:24:23Z</time></trkpt><trkpt lat="45.752815120264465" lon="8.513565200143866"><ele>348.0</ele><time>2026-04-18T09:24:24Z</time></trkpt><trkpt lat="45.75273726412473" lon="8.513614763277157"><ele>348.0</ele><time>2026-04-18T09:24:25Z</time></trkpt><trkpt lat="45.75266321540484" lon="8.513647694597624"><ele>348.0</ele><time>2026-04-18T09:24:26Z</time></trkpt><trkpt lat="45.75258889737906" lon="8.513674985353774"><ele>348.0</ele><time>2026-04-18T09:24:27Z</time></trkpt><trkpt lat="45.752503365361285" lon="8.513733302323782"><ele>348.79999999999995</ele><time>2026-04-18T09:24:28Z</time></trkpt><trkpt lat="45.75241697019044" lon="8.513814182574508"><ele>349.6</ele><time>2026-04-18T09:24:29Z</time></trkpt><trkpt lat="45.75232480609356" lon="8.513893590212257"><ele>350.4</ele><time>2026-04-18T09:24:30Z</time></trkpt><trkpt lat="45.752235549542654" lon="8.51398090516321"><ele>351.20000000000005</ele><time>2026-04-18T09:24:31Z</time></trkpt><trkpt lat="45.75215582077145" lon="8.514084852278682"><ele>352.0</ele><time>2026-04-18T09:24:32Z</time></trkpt><trkpt lat="45.752067524454276" lon="8.514136075868421"><ele>352.0</ele><time>2026-04-18T09:24:33Z</time></trkpt><trkpt lat="45.751979632465904" lon="8.514234686060352"><ele>352.0</ele><time>2026-04-18T09:24:34Z</time></trkpt><trkpt lat="45.75187873991024" lon="8.51430937271624"><ele>352.0</ele><time>2026-04-18T09:24:35Z</time></trkpt><trkpt lat="45.751797360945716" lon="8.514375021614812"><ele>352.0</ele><time>2026-04-18T09:24:36Z</time></trkpt><trkpt lat="45.751726580139554" lon="8.514437908087288"><ele>352.0</ele><time>2026-04-18T09:24:37Z</time></trkpt><trkpt lat="45.75165078365139" lon="8.514487621911893"><ele>352.16666666666663</ele><time>2026-04-18T09:24:38Z</time></trkpt><trkpt lat="45.751582999591285" lon="8.514556561694146"><ele>352.3333333333333</ele><time>2026-04-18T09:24:39Z</time></trkpt><trkpt lat="45.75150414024277" lon="8.514614817320808"><ele>352.5</ele><time>2026-04-18T09:24:40Z</time></trkpt><trkpt lat="45.751434651535625" lon="8.514670878929698"><ele>352.6666666666667</ele><time>2026-04-18T09:24:41Z</time></trkpt><trkpt lat="45.751354930377694" lon="8.514707690529253"><ele>352.83333333333337</ele><time>2026-04-18T09:24:42Z</time></trkpt><trkpt lat="45.75128692430197" lon="8.514773238668191"><ele>353.0</ele><time>2026-04-18T09:24:43Z</time></trkpt><trkpt lat="45.75119854161801" lon="8.514817541383438"><ele>353.0</ele><time>2026-04-18T09:24:44Z</time></trkpt><trkpt lat="45.75111019212723" lon="8.514864009754923"><ele>353.0</ele><time>2026-04-18T09:24:45Z</time></trkpt><trkpt lat="45.75102330922558" lon="8.514917315782073"><ele>353.0</ele><time>2026-04-18T09:24:46Z</time></trkpt><trkpt lat="45.75094672488601" lon="8.514960710238807"><ele>353.0</ele><time>2026-04-18T09:24:47Z</time></trkpt><trkpt lat="45.75087063579351" lon="8.514996095114274"><ele>353.0</ele><time>2026-04-18T09:24:48Z</time></trkpt><trkpt lat="45.75079816012027" lon="8.515027028173126"><ele>353.0</ele><time>2026-04-18T09:24:49Z</time></trkpt><trkpt lat="45.750730132410375" lon="8.515057210445203"><ele>351.79999999999995</ele><time>2026-04-18T09:24:50Z</time></trkpt><trkpt lat="45.75063885131197" lon="8.515100740964884"><ele>350.6</ele><time>2026-04-18T09:24:52Z</time></trkpt><trkpt lat="45.75056438121371" lon="8.515135050315859"><ele>349.4</ele><time>2026-04-18T09:26:43Z</time></trkpt><trkpt lat="45.75049401790219" lon="8.515054678795915"><ele>348.20000000000005</ele><time>2026-04-18T09:26:49Z</time></trkpt><trkpt lat="45.750467921665994" lon="8.514957993816891"><ele>347.0</ele><time>2026-04-18T09:26:50Z</time></trkpt><trkpt lat="45.75038928082765" lon="8.51483274466972"><ele>347.0</ele><time>2026-04-18T09:26:52Z</time></trkpt><trkpt lat="45.75031471496874" lon="8.514704635319056"><ele>347.0</ele><time>2026-04-18T09:26:54Z</time></trkpt><trkpt lat="45.75022947944998" lon="8.514602575805775"><ele>347.0</ele><time>2026-04-18T09:26:56Z</time></trkpt><trkpt lat="45.75015960613759" lon="8.514482641827117"><ele>347.0</ele><time>2026-04-18T09:26:58Z</time></trkpt><trkpt lat="45.75008276522651" lon="8.514373095699561"><ele>347.0</ele><time>2026-04-18T09:27:00Z</time></trkpt><trkpt lat="45.75002434379127" lon="8.514292833928286"><ele>346.40000000000003</ele><time>2026-04-18T09:27:02Z</time></trkpt><trkpt lat="45.74996700466531" lon="8.514229980040454"><ele>345.8</ele><time>2026-04-18T09:27:03.999Z</time></trkpt><trkpt lat="45.74986352462021" lon="8.514254533493247"><ele>345.2</ele><time>2026-04-18T09:27:07.999Z</time></trkpt><trkpt lat="45.74981377627501" lon="8.51436794367007"><ele>344.6</ele><time>2026-04-18T09:27:09.999Z</time></trkpt><trkpt lat="45.74973645884101" lon="8.51451709311724"><ele>344.0</ele><time>2026-04-18T09:27:11.999Z</time></trkpt><trkpt lat="45.74970306202855" lon="8.51459965921058"><ele>344.0</ele><time>2026-04-18T09:27:12.999Z</time></trkpt><trkpt lat="45.74967607890124" lon="8.514690901937618"><ele>344.0</ele><time>2026-04-18T09:27:13.999Z</time></trkpt><trkpt lat="45.749645179822025" lon="8.514785703818998"><ele>344.0</ele><time>2026-04-18T09:27:14.999Z</time></trkpt><trkpt lat="45.74961426634894" lon="8.514885279673186"><ele>344.0</ele><time>2026-04-18T09:27:15.999Z</time></trkpt><trkpt lat="45.74957989379001" lon="8.514979253919241"><ele>344.0</ele><time>2026-04-18T09:27:16.999Z</time></trkpt><trkpt lat="45.749549655328906" lon="8.515061169921818"><ele>344.0</ele><time>2026-04-18T09:27:17.999Z</time></trkpt><trkpt lat="45.749498843188526" lon="8.515191826511739"><ele>344.0</ele><time>2026-04-18T09:27:19.999Z</time></trkpt><trkpt lat="45.749458177839166" lon="8.515343419386275"><ele>344.0</ele><time>2026-04-18T09:27:21.999Z</time></trkpt><trkpt lat="45.74942975475109" lon="8.515480656630729"><ele>344.0</ele><time>2026-04-18T09:27:23.999Z</time></trkpt><trkpt lat="45.74940891085707" lon="8.51558846438379"><ele>344.0</ele><time>2026-04-18T09:27:25.999Z</time></trkpt><trkpt lat="45.749387077506" lon="8.51573184410066"><ele>344.0</ele><time>2026-04-18T09:27:28.999Z</time></trkpt><trkpt lat="45.74936367070373" lon="8.515863007831005"><ele>343.6666666666667</ele><time>2026-04-18T09:27:30.999Z</time></trkpt><trkpt lat="45.749345112852815" lon="8.515967000048422"><ele>343.33333333333337</ele><time>2026-04-18T09:27:36.999Z</time></trkpt><trkpt lat="45.7493341021971" lon="8.516076218369546"><ele>343.0</ele><time>2026-04-18T09:27:37.999Z</time></trkpt><trkpt lat="45.74932633885088" lon="8.516186882065858"><ele>342.6666666666667</ele><time>2026-04-18T09:27:38.999Z</time></trkpt><trkpt lat="45.749322668562876" lon="8.5162958110563"><ele>342.3333333333333</ele><time>2026-04-18T09:27:39.999Z</time></trkpt><trkpt lat="45.749332716446055" lon="8.516430876921774"><ele>342.0</ele><time>2026-04-18T09:27:41Z</time></trkpt><trkpt lat="45.74935252251188" lon="8.51654733006696"><ele>341.99999999999994</ele><time>2026-04-18T09:27:42Z</time></trkpt><trkpt lat="45.749379513896386" lon="8.51664279666989"><ele>342.0</ele><time>2026-04-18T09:27:43Z</time></trkpt><trkpt lat="45.749411413219136" lon="8.516734441555817"><ele>342.0</ele><time>2026-04-18T09:27:44Z</time></trkpt><trkpt lat="45.74944197845284" lon="8.516815866235742"><ele>342.0</ele><time>2026-04-18T09:27:45Z</time></trkpt><trkpt lat="45.749478758777215" lon="8.516902418956978"><ele>342.0</ele><time>2026-04-18T09:27:46Z</time></trkpt><trkpt lat="45.749516507918926" lon="8.516995479018089"><ele>341.99999999999994</ele><time>2026-04-18T09:27:47Z</time></trkpt><trkpt lat="45.749557245739496" lon="8.517093067839136"><ele>342.0</ele><time>2026-04-18T09:27:48Z</time></trkpt><trkpt lat="45.74959428500734" lon="8.517186593620854"><ele>340.5</ele><time>2026-04-18T09:27:49Z</time></trkpt><trkpt lat="45.74962912993695" lon="8.517280325536907"><ele>339.0</ele><time>2026-04-18T09:27:50Z</time></trkpt><trkpt lat="45.74966393156669" lon="8.517373938599144"><ele>337.5</ele><time>2026-04-18T09:27:51Z</time></trkpt><trkpt lat="45.749699071943404" lon="8.517470673034037"><ele>336.0</ele><time>2026-04-18T09:27:52Z</time></trkpt><trkpt lat="45.749732430447814" lon="8.517565303658456"><ele>334.5</ele><time>2026-04-18T09:27:53Z</time></trkpt><trkpt lat="45.749767070299875" lon="8.51766713139376"><ele>333.0</ele><time>2026-04-18T09:27:54Z</time></trkpt><trkpt lat="45.74979405547594" lon="8.517769783544017"><ele>333.0</ele><time>2026-04-18T09:27:55Z</time></trkpt><trkpt lat="45.749820470281264" lon="8.517872515846376"><ele>333.0</ele><time>2026-04-18T09:27:56Z</time></trkpt><trkpt lat="45.74983716564796" lon="8.517972682917229"><ele>333.0</ele><time>2026-04-18T09:27:57Z</time></trkpt><trkpt lat="45.74985501394175" lon="8.518075491199635"><ele>333.0</ele><time>2026-04-18T09:27:58Z</time></trkpt><trkpt lat="45.74987227705354" lon="8.518174928069426"><ele>333.0</ele><time>2026-04-18T09:27:59Z</time></trkpt><trkpt lat="45.74988833566425" lon="8.518274870116743"><ele>333.0</ele><time>2026-04-18T09:28:00Z</time></trkpt><trkpt lat="45.749902697551825" lon="8.518369815426748"><ele>333.0</ele><time>2026-04-18T09:28:01Z</time></trkpt><trkpt lat="45.74990529099422" lon="8.518544453596654"><ele>332.0</ele><time>2026-04-18T09:28:03Z</time></trkpt><trkpt lat="45.74988472953394" lon="8.518641383598062"><ele>331.0</ele><time>2026-04-18T09:28:04Z</time></trkpt><trkpt lat="45.7498360497974" lon="8.51875296407371"><ele>330.0</ele><time>2026-04-18T09:28:05Z</time></trkpt><trkpt lat="45.74977462230023" lon="8.518842599850851"><ele>329.0</ele><time>2026-04-18T09:28:06Z</time></trkpt><trkpt lat="45.74969354100259" lon="8.518868781918037"><ele>328.0</ele><time>2026-04-18T09:28:07Z</time></trkpt><trkpt lat="45.74959706421171" lon="8.518893195774577"><ele>327.0</ele><time>2026-04-18T09:28:09Z</time></trkpt><trkpt lat="45.74952933293561" lon="8.518964690194476"><ele>325.6</ele><time>2026-04-18T09:29:04Z</time></trkpt><trkpt lat="45.749424481573605" lon="8.519111235529444"><ele>324.20000000000005</ele><time>2026-04-18T09:29:06Z</time></trkpt><trkpt lat="45.74938059994191" lon="8.519190722599665"><ele>322.8</ele><time>2026-04-18T09:29:07Z</time></trkpt><trkpt lat="45.74945188459401" lon="8.519063250898695"><ele>321.4</ele><time>2026-04-18T09:29:16.999Z</time></trkpt><trkpt lat="45.74949633664665" lon="8.518986855628734"><ele>320.0</ele><time>2026-04-18T09:29:17.999Z</time></trkpt><trkpt lat="45.74954702371104" lon="8.51892182080821"><ele>320.0</ele><time>2026-04-18T09:29:18.999Z</time></trkpt><trkpt lat="45.74960409664163" lon="8.518863049074604"><ele>320.0</ele><time>2026-04-18T09:29:19.999Z</time></trkpt><trkpt lat="45.74970098413428" lon="8.518841592721419"><ele>320.0</ele><time>2026-04-18T09:29:20.999Z</time></trkpt><trkpt lat="45.7497817311051" lon="8.51881381497763"><ele>320.0</ele><time>2026-04-18T09:29:21.999Z</time></trkpt><trkpt lat="45.74985539472282" lon="8.518765434205152"><ele>320.0</ele><time>2026-04-18T09:29:22.999Z</time></trkpt><trkpt lat="45.74993409172245" lon="8.518567799823803"><ele>321.4</ele><time>2026-04-18T09:29:23.999Z</time></trkpt><trkpt lat="45.74994125052473" lon="8.518425713405893"><ele>322.8</ele><time>2026-04-18T09:29:24.999Z</time></trkpt><trkpt lat="45.74992069409624" lon="8.518285334965757"><ele>324.20000000000005</ele><time>2026-04-18T09:29:25.999Z</time></trkpt><trkpt lat="45.7498932276854" lon="8.518150165908668"><ele>325.6</ele><time>2026-04-18T09:29:26.999Z</time></trkpt><trkpt lat="45.74986879476712" lon="8.518012361319137"><ele>327.0</ele><time>2026-04-18T09:29:27.999Z</time></trkpt><trkpt lat="45.74984435245812" lon="8.517873793116093"><ele>328.5</ele><time>2026-04-18T09:29:28.999Z</time></trkpt><trkpt lat="45.74981212331258" lon="8.51774024857123"><ele>330.0</ele><time>2026-04-18T09:29:29.999Z</time></trkpt><trkpt lat="45.74978002185" lon="8.517605454670587"><ele>331.5</ele><time>2026-04-18T09:29:30.999Z</time></trkpt><trkpt lat="45.74973063887926" lon="8.517478945797219"><ele>333.0</ele><time>2026-04-18T09:29:31.999Z</time></trkpt><trkpt lat="45.74944138439645" lon="8.516742705085319"><ele>334.2</ele><time>2026-04-18T09:29:37.999Z</time></trkpt><trkpt lat="45.74939109062945" lon="8.516608599895122"><ele>335.4</ele><time>2026-04-18T09:29:38.999Z</time></trkpt><trkpt lat="45.74935252354299" lon="8.516467586431345"><ele>336.59999999999997</ele><time>2026-04-18T09:29:40Z</time></trkpt><trkpt lat="45.749344412871174" lon="8.516319764309124"><ele>337.79999999999995</ele><time>2026-04-18T09:29:41Z</time></trkpt><trkpt lat="45.7493478501938" lon="8.516171049706365"><ele>339.0</ele><time>2026-04-18T09:29:42Z</time></trkpt><trkpt lat="45.749355603925096" lon="8.516023548936014"><ele>340.0</ele><time>2026-04-18T09:29:43Z</time></trkpt><trkpt lat="45.7493948444232" lon="8.515880356550175"><ele>341.0</ele><time>2026-04-18T09:29:44Z</time></trkpt><trkpt lat="45.749421566685534" lon="8.515731076089818"><ele>342.0</ele><time>2026-04-18T09:29:45Z</time></trkpt><trkpt lat="45.74943286848447" lon="8.515569971214783"><ele>343.0</ele><time>2026-04-18T09:29:46Z</time></trkpt><trkpt lat="45.74946342922659" lon="8.515414694443578"><ele>344.0</ele><time>2026-04-18T09:29:47Z</time></trkpt><trkpt lat="45.74949934864708" lon="8.515272703321239"><ele>344.0</ele><time>2026-04-18T09:29:48Z</time></trkpt><trkpt lat="45.74953840835223" lon="8.515134291137556"><ele>344.0</ele><time>2026-04-18T09:29:49Z</time></trkpt><trkpt lat="45.749582616437564" lon="8.515008218124368"><ele>344.0</ele><time>2026-04-18T09:29:50Z</time></trkpt><trkpt lat="45.749624192551266" lon="8.51487833263332"><ele>344.0</ele><time>2026-04-18T09:29:51Z</time></trkpt><trkpt lat="45.7496754201656" lon="8.51474298998102"><ele>344.0</ele><time>2026-04-18T09:29:52Z</time></trkpt><trkpt lat="45.749736911834944" lon="8.514612590655624"><ele>342.79999999999995</ele><time>2026-04-18T09:29:53Z</time></trkpt><trkpt lat="45.74980493955133" lon="8.514481677868403"><ele>341.59999999999997</ele><time>2026-04-18T09:29:54Z</time></trkpt><trkpt lat="45.749875755858966" lon="8.514355276425151"><ele>340.4</ele><time>2026-04-18T09:29:55Z</time></trkpt><trkpt lat="45.74993734290053" lon="8.514249682122792"><ele>339.2</ele><time>2026-04-18T09:29:56Z</time></trkpt><trkpt lat="45.749990586530316" lon="8.514124810349985"><ele>338.0</ele><time>2026-04-18T09:29:57Z</time></trkpt><trkpt lat="45.750053668094175" lon="8.514018423318262"><ele>338.0</ele><time>2026-04-18T09:29:58Z</time></trkpt><trkpt lat="45.75011210928431" lon="8.513923745910095"><ele>338.0</ele><time>2026-04-18T09:29:59Z</time></trkpt><trkpt lat="45.75016177589869" lon="8.513839358141283"><ele>338.0</ele><time>2026-04-18T09:30:00Z</time></trkpt><trkpt lat="45.75020561826429" lon="8.513773207653106"><ele>338.0</ele><time>2026-04-18T09:30:01Z</time></trkpt><trkpt lat="45.75025716619718" lon="8.513689139339183"><ele>338.0</ele><time>2026-04-18T09:30:02Z</time></trkpt><trkpt lat="45.75031912614269" lon="8.5135940347816"><ele>338.0</ele><time>2026-04-18T09:30:03Z</time></trkpt><trkpt lat="45.75038586951033" lon="8.513490466273046"><ele>337.75</ele><time>2026-04-18T09:30:04Z</time></trkpt><trkpt lat="45.750465185592574" lon="8.51337639616283"><ele>337.5</ele><time>2026-04-18T09:30:05Z</time></trkpt><trkpt lat="45.750547009375495" lon="8.513260337932493"><ele>337.25</ele><time>2026-04-18T09:30:06Z</time></trkpt><trkpt lat="45.75062482071506" lon="8.51314494412812"><ele>337.0</ele><time>2026-04-18T09:30:07Z</time></trkpt><trkpt lat="45.750700830873804" lon="8.513024368579739"><ele>337.25</ele><time>2026-04-18T09:30:08Z</time></trkpt><trkpt lat="45.7507797662675" lon="8.512905718083028"><ele>337.5</ele><time>2026-04-18T09:30:09Z</time></trkpt><trkpt lat="45.75086207703468" lon="8.512785547679215"><ele>337.75</ele><time>2026-04-18T09:30:10Z</time></trkpt><trkpt lat="45.75094307041226" lon="8.512664657648726"><ele>338.0</ele><time>2026-04-18T09:30:11Z</time></trkpt><trkpt lat="45.75102009560406" lon="8.512534958220208"><ele>338.75</ele><time>2026-04-18T09:30:12Z</time></trkpt><trkpt lat="45.751098017870184" lon="8.512390451942675"><ele>339.5</ele><time>2026-04-18T09:30:13Z</time></trkpt><trkpt lat="45.75117692696004" lon="8.512237831108031"><ele>340.25</ele><time>2026-04-18T09:30:14Z</time></trkpt><trkpt lat="45.75125443672908" lon="8.512072058131892"><ele>341.0</ele><time>2026-04-18T09:30:15Z</time></trkpt><trkpt lat="45.75133463337116" lon="8.511902100946303"><ele>341.25</ele><time>2026-04-18T09:30:16Z</time></trkpt><trkpt lat="45.751419594199646" lon="8.511729746021388"><ele>341.5</ele><time>2026-04-18T09:30:17Z</time></trkpt><trkpt lat="45.751498921058875" lon="8.511563503285211"><ele>341.75</ele><time>2026-04-18T09:30:18Z</time></trkpt><trkpt lat="45.75157175832811" lon="8.511408609969456"><ele>342.0</ele><time>2026-04-18T09:30:19Z</time></trkpt><trkpt lat="45.751650856055036" lon="8.511255453486818"><ele>343.25</ele><time>2026-04-18T09:30:20Z</time></trkpt><trkpt lat="45.75172995172496" lon="8.511098604265953"><ele>344.5</ele><time>2026-04-18T09:30:21Z</time></trkpt><trkpt lat="45.751810452339456" lon="8.51093753255665"><ele>345.75</ele><time>2026-04-18T09:30:22Z</time></trkpt><trkpt lat="45.75188577450009" lon="8.510766062308443"><ele>347.0</ele><time>2026-04-18T09:30:23Z</time></trkpt><trkpt lat="45.75196254672706" lon="8.510609608211503"><ele>347.0</ele><time>2026-04-18T09:30:24Z</time></trkpt><trkpt lat="45.75203465569885" lon="8.510454208923795"><ele>347.0</ele><time>2026-04-18T09:30:25Z</time></trkpt><trkpt lat="45.75210611662448" lon="8.510303144767624"><ele>347.0</ele><time>2026-04-18T09:30:26Z</time></trkpt><trkpt lat="45.75217912105766" lon="8.51015902590827"><ele>347.0</ele><time>2026-04-18T09:30:27Z</time></trkpt><trkpt lat="45.7522505782079" lon="8.510004866749314"><ele>348.0</ele><time>2026-04-18T09:30:28Z</time></trkpt><trkpt lat="45.7523216066677" lon="8.509846590090262"><ele>349.0</ele><time>2026-04-18T09:30:29Z</time></trkpt><trkpt lat="45.75238586880419" lon="8.509681746235016"><ele>350.0</ele><time>2026-04-18T09:30:30Z</time></trkpt><trkpt lat="45.752445140040244" lon="8.509513491510562"><ele>351.0</ele><time>2026-04-18T09:30:31Z</time></trkpt><trkpt lat="45.75249598893764" lon="8.509347356299797"><ele>351.20000000000005</ele><time>2026-04-18T09:30:32Z</time></trkpt><trkpt lat="45.752540076767126" lon="8.509188233928848"><ele>351.40000000000003</ele><time>2026-04-18T09:30:33Z</time></trkpt><trkpt lat="45.75257853437257" lon="8.509044293920331"><ele>351.6</ele><time>2026-04-18T09:30:34Z</time></trkpt><trkpt lat="45.75261645088639" lon="8.508921543319826"><ele>351.8</ele><time>2026-04-18T09:30:35Z</time></trkpt><trkpt lat="45.752650674090454" lon="8.508805311218715"><ele>352.0</ele><time>2026-04-18T09:30:36Z</time></trkpt><trkpt lat="45.752677790045496" lon="8.508690484801935"><ele>352.0</ele><time>2026-04-18T09:30:37Z</time></trkpt><trkpt lat="45.75270263124193" lon="8.50857151996438"><ele>352.0</ele><time>2026-04-18T09:30:38Z</time></trkpt><trkpt lat="45.75275033482314" lon="8.508455229027748"><ele>352.0</ele><time>2026-04-18T09:30:39Z</time></trkpt><trkpt lat="45.752786593659216" lon="8.508333098375136"><ele>352.0</ele><time>2026-04-18T09:30:40Z</time></trkpt><trkpt lat="45.752827913364136" lon="8.508216032856087"><ele>352.0</ele><time>2026-04-18T09:30:41Z</time></trkpt><trkpt lat="45.75286467500624" lon="8.508094731524608"><ele>352.0</ele><time>2026-04-18T09:30:42Z</time></trkpt><trkpt lat="45.752898418175285" lon="8.507963045390753"><ele>352.0</ele><time>2026-04-18T09:30:43Z</time></trkpt><trkpt lat="45.752932007767036" lon="8.507832269123279"><ele>352.0</ele><time>2026-04-18T09:30:44Z</time></trkpt><trkpt lat="45.752967854896184" lon="8.507692535214415"><ele>352.0</ele><time>2026-04-18T09:30:45Z</time></trkpt><trkpt lat="45.75300833598965" lon="8.507524857331797"><ele>352.0</ele><time>2026-04-18T09:30:46Z</time></trkpt><trkpt lat="45.75303984554773" lon="8.507352417985135"><ele>352.75</ele><time>2026-04-18T09:30:47Z</time></trkpt><trkpt lat="45.75306761461978" lon="8.507159571107799"><ele>353.5</ele><time>2026-04-18T09:30:48Z</time></trkpt><trkpt lat="45.75307003902111" lon="8.506966594251047"><ele>354.25</ele><time>2026-04-18T09:30:49Z</time></trkpt><trkpt lat="45.75307959720008" lon="8.506775568131312"><ele>355.0</ele><time>2026-04-18T09:30:50Z</time></trkpt><trkpt lat="45.753080860951314" lon="8.506583392280607"><ele>356.5</ele><time>2026-04-18T09:30:51Z</time></trkpt><trkpt lat="45.753087530743855" lon="8.506388004223743"><ele>358.0</ele><time>2026-04-18T09:30:52Z</time></trkpt><trkpt lat="45.753093558440746" lon="8.5061966581229"><ele>359.5</ele><time>2026-04-18T09:30:53Z</time></trkpt><trkpt lat="45.753100275737985" lon="8.505996282826201"><ele>361.0</ele><time>2026-04-18T09:30:54Z</time></trkpt><trkpt lat="45.75310641646489" lon="8.505805462696278"><ele>362.0</ele><time>2026-04-18T09:30:55Z</time></trkpt><trkpt lat="45.75311338510828" lon="8.505616852858974"><ele>363.0</ele><time>2026-04-18T09:30:56Z</time></trkpt><trkpt lat="45.753121067561054" lon="8.505419250919456"><ele>364.0</ele><time>2026-04-18T09:30:57Z</time></trkpt><trkpt lat="45.753126815279394" lon="8.505212485820623"><ele>365.0</ele><time>2026-04-18T09:30:58Z</time></trkpt><trkpt lat="45.753137430945614" lon="8.505010689537585"><ele>365.5</ele><time>2026-04-18T09:30:59Z</time></trkpt><trkpt lat="45.753147289236594" lon="8.504803230325386"><ele>366.0</ele><time>2026-04-18T09:31:00Z</time></trkpt><trkpt lat="45.75315648553611" lon="8.504598840188052"><ele>366.5</ele><time>2026-04-18T09:31:01Z</time></trkpt><trkpt lat="45.753163772872085" lon="8.504394416073783"><ele>367.0</ele><time>2026-04-18T09:31:02Z</time></trkpt><trkpt lat="45.7531693276628" lon="8.504189575784556"><ele>368.0</ele><time>2026-04-18T09:31:03Z</time></trkpt><trkpt lat="45.753182176215844" lon="8.503985778426559"><ele>369.0</ele><time>2026-04-18T09:31:04Z</time></trkpt><trkpt lat="45.753184403918034" lon="8.503786257581249"><ele>370.0</ele><time>2026-04-18T09:31:05Z</time></trkpt><trkpt lat="45.753192840350074" lon="8.503580976747585"><ele>371.0</ele><time>2026-04-18T09:31:06Z</time></trkpt><trkpt lat="45.75320018429635" lon="8.503365617953456"><ele>371.33333333333337</ele><time>2026-04-18T09:31:07Z</time></trkpt><trkpt lat="45.753195259896174" lon="8.503148638662667"><ele>371.6666666666667</ele><time>2026-04-18T09:31:08Z</time></trkpt><trkpt lat="45.75321115869066" lon="8.50294179405192"><ele>372.0</ele><time>2026-04-18T09:31:09Z</time></trkpt><trkpt lat="45.75324589389576" lon="8.502682153216957"><ele>373.25</ele><time>2026-04-18T09:31:10Z</time></trkpt><trkpt lat="45.75328161893819" lon="8.502517283988272"><ele>374.5</ele><time>2026-04-18T09:31:11Z</time></trkpt><trkpt lat="45.75333759834803" lon="8.502313936472735"><ele>375.75</ele><time>2026-04-18T09:31:12Z</time></trkpt><trkpt lat="45.75339238975332" lon="8.502120501182949"><ele>377.0</ele><time>2026-04-18T09:31:13Z</time></trkpt><trkpt lat="45.753450404187234" lon="8.501926660650915"><ele>376.5</ele><time>2026-04-18T09:31:14Z</time></trkpt><trkpt lat="45.75351640709661" lon="8.501738746232993"><ele>376.0</ele><time>2026-04-18T09:31:14.999Z</time></trkpt><trkpt lat="45.75358675648046" lon="8.501551757504425"><ele>375.5</ele><time>2026-04-18T09:31:15.999Z</time></trkpt><trkpt lat="45.753670303660456" lon="8.501374296042385"><ele>375.0</ele><time>2026-04-18T09:31:16.999Z</time></trkpt><trkpt lat="45.753751331089276" lon="8.501197608263292"><ele>376.5</ele><time>2026-04-18T09:31:17.999Z</time></trkpt><trkpt lat="45.753842377960694" lon="8.501028745330602"><ele>378.0</ele><time>2026-04-18T09:31:19Z</time></trkpt><trkpt lat="45.75393621941001" lon="8.50087717876522"><ele>379.5</ele><time>2026-04-18T09:31:20Z</time></trkpt><trkpt lat="45.754032018757655" lon="8.50072118312012"><ele>381.0</ele><time>2026-04-18T09:31:21Z</time></trkpt><trkpt lat="45.75411429184012" lon="8.500568171092679"><ele>381.0</ele><time>2026-04-18T09:31:22Z</time></trkpt><trkpt lat="45.754174444836" lon="8.500430591967083"><ele>381.0</ele><time>2026-04-18T09:31:23Z</time></trkpt><trkpt lat="45.75421504884509" lon="8.500296618991777"><ele>381.0</ele><time>2026-04-18T09:31:24Z</time></trkpt><trkpt lat="45.75423930565355" lon="8.500155764646202"><ele>381.0</ele><time>2026-04-18T09:31:25Z</time></trkpt><trkpt lat="45.75424451658945" lon="8.500001663054931"><ele>381.0</ele><time>2026-04-18T09:31:26Z</time></trkpt><trkpt lat="45.75424986364315" lon="8.499846232847652"><ele>381.75</ele><time>2026-04-18T09:31:27Z</time></trkpt><trkpt lat="45.75426179061689" lon="8.49968120650744"><ele>382.5</ele><time>2026-04-18T09:31:28Z</time></trkpt><trkpt lat="45.754282396892435" lon="8.499509818592305"><ele>383.25</ele><time>2026-04-18T09:31:29Z</time></trkpt><trkpt lat="45.754344973076094" lon="8.49935865178328"><ele>384.0</ele><time>2026-04-18T09:31:30Z</time></trkpt><trkpt lat="45.7544040466227" lon="8.499191271047332"><ele>384.75</ele><time>2026-04-18T09:31:31Z</time></trkpt><trkpt lat="45.75452946271387" lon="8.499083589680824"><ele>385.5</ele><time>2026-04-18T09:31:32Z</time></trkpt><trkpt lat="45.754626887818205" lon="8.49893818789421"><ele>386.25</ele><time>2026-04-18T09:31:33Z</time></trkpt><trkpt lat="45.754742491997575" lon="8.498818704147784"><ele>387.0</ele><time>2026-04-18T09:31:34Z</time></trkpt><trkpt lat="45.7548525918164" lon="8.49870436083919"><ele>387.75</ele><time>2026-04-18T09:31:35Z</time></trkpt><trkpt lat="45.754953162620964" lon="8.498586370317454"><ele>388.5</ele><time>2026-04-18T09:31:36Z</time></trkpt><trkpt lat="45.7550507541619" lon="8.498477737937494"><ele>389.25</ele><time>2026-04-18T09:31:37Z</time></trkpt><trkpt lat="45.75513714217899" lon="8.498352518359399"><ele>390.0</ele><time>2026-04-18T09:31:38Z</time></trkpt><trkpt lat="45.755215703591126" lon="8.498226143208052"><ele>390.2</ele><time>2026-04-18T09:31:39Z</time></trkpt><trkpt lat="45.75527916274644" lon="8.498089583132767"><ele>390.4</ele><time>2026-04-18T09:31:40Z</time></trkpt><trkpt lat="45.75532017116603" lon="8.497940784829401"><ele>390.6</ele><time>2026-04-18T09:31:41Z</time></trkpt><trkpt lat="45.755343175329884" lon="8.497785272293369"><ele>390.8</ele><time>2026-04-18T09:31:42Z</time></trkpt><trkpt lat="45.75536032285679" lon="8.497635103216846"><ele>391.0</ele><time>2026-04-18T09:31:43Z</time></trkpt><trkpt lat="45.75537543994697" lon="8.497490242432264"><ele>391.6</ele><time>2026-04-18T09:31:44Z</time></trkpt><trkpt lat="45.75539690531022" lon="8.497344915033223"><ele>392.20000000000005</ele><time>2026-04-18T09:31:45Z</time></trkpt><trkpt lat="45.75542547349696" lon="8.497202547357933"><ele>392.79999999999995</ele><time>2026-04-18T09:31:46Z</time></trkpt><trkpt lat="45.755465938682136" lon="8.497065932442124"><ele>393.4</ele><time>2026-04-18T09:31:47Z</time></trkpt><trkpt lat="45.75551946585859" lon="8.496953517599707"><ele>394.0</ele><time>2026-04-18T09:31:48Z</time></trkpt><trkpt lat="45.755576761650346" lon="8.496845678918126"><ele>394.33333333333337</ele><time>2026-04-18T09:31:49Z</time></trkpt><trkpt lat="45.75563233275526" lon="8.496749028769699"><ele>394.6666666666667</ele><time>2026-04-18T09:31:50Z</time></trkpt><trkpt lat="45.755685876875496" lon="8.496660552184446"><ele>395.0</ele><time>2026-04-18T09:31:51Z</time></trkpt><trkpt lat="45.755730156452756" lon="8.49658620213408"><ele>395.33333333333337</ele><time>2026-04-18T09:31:52Z</time></trkpt><trkpt lat="45.75574724817533" lon="8.496481184226928"><ele>395.6666666666667</ele><time>2026-04-18T09:32:01Z</time></trkpt><trkpt lat="45.7556838266899" lon="8.4966295135927"><ele>396.0</ele><time>2026-04-18T09:32:04Z</time></trkpt><trkpt lat="45.75568534906244" lon="8.496777938073514"><ele>396.0</ele><time>2026-04-18T09:32:05Z</time></trkpt><trkpt lat="45.75564372417909" lon="8.496876949201011"><ele>396.0</ele><time>2026-04-18T09:32:06Z</time></trkpt><trkpt lat="45.75560162268677" lon="8.496977093851712"><ele>396.0</ele><time>2026-04-18T09:32:07Z</time></trkpt><trkpt lat="45.75555880832424" lon="8.497078934374036"><ele>396.0</ele><time>2026-04-18T09:32:08Z</time></trkpt><trkpt lat="45.75551389024424" lon="8.497185778921752"><ele>396.0</ele><time>2026-04-18T09:32:09Z</time></trkpt><trkpt lat="45.75538962080702" lon="8.497240287241418"><ele>395.6666666666667</ele><time>2026-04-18T09:32:10Z</time></trkpt><trkpt lat="45.75536675478625" lon="8.497363436914064"><ele>395.33333333333337</ele><time>2026-04-18T09:32:11Z</time></trkpt><trkpt lat="45.755351119985896" lon="8.497483080788264"><ele>395.0</ele><time>2026-04-18T09:32:12Z</time></trkpt><trkpt lat="45.755332637412245" lon="8.49759686178737"><ele>394.6666666666667</ele><time>2026-04-18T09:32:13Z</time></trkpt><trkpt lat="45.75531771299527" lon="8.49769584093502"><ele>394.33333333333337</ele><time>2026-04-18T09:32:14Z</time></trkpt><trkpt lat="45.75530231854929" lon="8.497788127327325"><ele>394.0</ele><time>2026-04-18T09:32:15Z</time></trkpt><trkpt lat="45.75528096102066" lon="8.497878571283291"><ele>393.57142857142856</ele><time>2026-04-18T09:32:16Z</time></trkpt><trkpt lat="45.75526085789058" lon="8.497967161093058"><ele>393.14285714285717</ele><time>2026-04-18T09:32:17Z</time></trkpt><trkpt lat="45.75523485907378" lon="8.498062543176667"><ele>392.71428571428567</ele><time>2026-04-18T09:32:18Z</time></trkpt><trkpt lat="45.75520095428279" lon="8.498149524092385"><ele>392.2857142857143</ele><time>2026-04-18T09:32:19Z</time></trkpt><trkpt lat="45.75516425181919" lon="8.498239297829375"><ele>391.85714285714283</ele><time>2026-04-18T09:32:20Z</time></trkpt><trkpt lat="45.75511690329578" lon="8.498321474761878"><ele>391.4285714285714</ele><time>2026-04-18T09:32:21Z</time></trkpt><trkpt lat="45.755054533986886" lon="8.498399144379416"><ele>391.0</ele><time>2026-04-18T09:32:22Z</time></trkpt><trkpt lat="45.75498542366765" lon="8.498477551470495"><ele>390.85714285714283</ele><time>2026-04-18T09:32:23Z</time></trkpt><trkpt lat="45.75491949922276" lon="8.498553311829872"><ele>390.7142857142857</ele><time>2026-04-18T09:32:24Z</time></trkpt><trkpt lat="45.7548655363405" lon="8.498624724942967"><ele>390.57142857142856</ele><time>2026-04-18T09:32:25Z</time></trkpt><trkpt lat="45.75481588746682" lon="8.498688253928792"><ele>390.42857142857144</ele><time>2026-04-18T09:32:26Z</time></trkpt><trkpt lat="45.754761347274496" lon="8.498734474097784"><ele>390.2857142857143</ele><time>2026-04-18T09:32:27Z</time></trkpt><trkpt lat="45.75469454711006" lon="8.498830012195425"><ele>390.1428571428571</ele><time>2026-04-18T09:32:52Z</time></trkpt><trkpt lat="45.754648498808365" lon="8.498892397630307"><ele>390.0</ele><time>2026-04-18T09:32:53Z</time></trkpt><trkpt lat="45.75452805671377" lon="8.499023282186545"><ele>389.4</ele><time>2026-04-18T09:32:55Z</time></trkpt><trkpt lat="45.75445243766036" lon="8.49912316008475"><ele>388.8</ele><time>2026-04-18T09:32:56Z</time></trkpt><trkpt lat="45.75438523224486" lon="8.499213750813272"><ele>388.20000000000005</ele><time>2026-04-18T09:32:57Z</time></trkpt><trkpt lat="45.75432432066003" lon="8.499305595079964"><ele>387.6</ele><time>2026-04-18T09:32:58Z</time></trkpt><trkpt lat="45.75426144185098" lon="8.499300288144225"><ele>387.0</ele><time>2026-04-18T09:33:03Z</time></trkpt><trkpt lat="45.75421476517318" lon="8.49916714603379"><ele>387.0</ele><time>2026-04-18T09:33:05Z</time></trkpt><trkpt lat="45.75409002145676" lon="8.499233931934066"><ele>387.0</ele><time>2026-04-18T09:33:07Z</time></trkpt><trkpt lat="45.754012750096265" lon="8.499233101648699"><ele>387.0</ele><time>2026-04-18T09:33:08Z</time></trkpt><trkpt lat="45.7539411348158" lon="8.499250774666615"><ele>387.0</ele><time>2026-04-18T09:33:09Z</time></trkpt><trkpt lat="45.75386918460365" lon="8.499269736461663"><ele>387.0</ele><time>2026-04-18T09:33:10Z</time></trkpt><trkpt lat="45.753790685185045" lon="8.499294998476872"><ele>387.0</ele><time>2026-04-18T09:33:11Z</time></trkpt><trkpt lat="45.75372018577097" lon="8.499328296103108"><ele>387.0</ele><time>2026-04-18T09:33:12Z</time></trkpt><trkpt lat="45.753661502108635" lon="8.49936994519152"><ele>387.0</ele><time>2026-04-18T09:33:13Z</time></trkpt><trkpt lat="45.75355577912455" lon="8.499431771476983"><ele>387.0</ele><time>2026-04-18T09:33:15Z</time></trkpt><trkpt lat="45.7534683359519" lon="8.499439191376057"><ele>387.0</ele><time>2026-04-18T09:33:17Z</time></trkpt><trkpt lat="45.75359402346632" lon="8.499394952112516"><ele>387.0</ele><time>2026-04-18T09:33:22.999Z</time></trkpt><trkpt lat="45.75367721548578" lon="8.49934899157888"><ele>387.0</ele><time>2026-04-18T09:33:23.999Z</time></trkpt><trkpt lat="45.75374283560694" lon="8.499312005641361"><ele>387.0</ele><time>2026-04-18T09:33:24.999Z</time></trkpt><trkpt lat="45.753827891632085" lon="8.499275944363907"><ele>387.0</ele><time>2026-04-18T09:33:25.999Z</time></trkpt><trkpt lat="45.75391538917773" lon="8.499233415266575"><ele>387.0</ele><time>2026-04-18T09:33:27Z</time></trkpt><trkpt lat="45.75401255023131" lon="8.49923026154227"><ele>387.0</ele><time>2026-04-18T09:33:28Z</time></trkpt><trkpt lat="45.75408551476318" lon="8.499215144812133"><ele>387.0</ele><time>2026-04-18T09:33:29Z</time></trkpt><trkpt lat="45.754189737719244" lon="8.49919183990072"><ele>387.0</ele><time>2026-04-18T09:33:31Z</time></trkpt><trkpt lat="45.7542768892626" lon="8.499172160516522"><ele>387.0</ele><time>2026-04-18T09:33:33Z</time></trkpt><trkpt lat="45.75430922294651" lon="8.499316649936578"><ele>387.0</ele><time>2026-04-18T09:33:34Z</time></trkpt><trkpt lat="45.75430248794812" lon="8.499424474473585"><ele>387.0</ele><time>2026-04-18T09:33:36Z</time></trkpt><trkpt lat="45.75427316124447" lon="8.49951356156263"><ele>387.0</ele><time>2026-04-18T09:33:37Z</time></trkpt><trkpt lat="45.75424108924056" lon="8.49962101763639"><ele>387.0</ele><time>2026-04-18T09:33:38Z</time></trkpt><trkpt lat="45.754223771911384" lon="8.499728701716865"><ele>386.5</ele><time>2026-04-18T09:33:39Z</time></trkpt><trkpt lat="45.754215101410914" lon="8.499852060291358"><ele>386.0</ele><time>2026-04-18T09:33:40Z</time></trkpt><trkpt lat="45.75421628523909" lon="8.499980336493861"><ele>385.5</ele><time>2026-04-18T09:33:41Z</time></trkpt><trkpt lat="45.75420582455045" lon="8.500097635109913"><ele>385.0</ele><time>2026-04-18T09:33:42Z</time></trkpt><trkpt lat="45.75419055602929" lon="8.500204461452336"><ele>384.5</ele><time>2026-04-18T09:33:43Z</time></trkpt><trkpt lat="45.754168385196465" lon="8.500328735822324"><ele>384.0</ele><time>2026-04-18T09:33:44Z</time></trkpt><trkpt lat="45.75412569880705" lon="8.500447603146497"><ele>383.4</ele><time>2026-04-18T09:33:45Z</time></trkpt><trkpt lat="45.75407795407759" lon="8.500555345565736"><ele>382.79999999999995</ele><time>2026-04-18T09:33:46Z</time></trkpt><trkpt lat="45.754022879102415" lon="8.500661950124735"><ele>382.20000000000005</ele><time>2026-04-18T09:33:47Z</time></trkpt><trkpt lat="45.75394927798689" lon="8.500789340348689"><ele>381.6</ele><time>2026-04-18T09:33:48Z</time></trkpt><trkpt lat="45.75386118222464" lon="8.500939683401599"><ele>381.0</ele><time>2026-04-18T09:33:49Z</time></trkpt><trkpt lat="45.75377042442931" lon="8.501107487765875"><ele>382.33333333333337</ele><time>2026-04-18T09:33:50Z</time></trkpt><trkpt lat="45.7536792003917" lon="8.501287973302052"><ele>383.6666666666667</ele><time>2026-04-18T09:33:51Z</time></trkpt><trkpt lat="45.75359666069529" lon="8.501479841395298"><ele>385.0</ele><time>2026-04-18T09:33:52Z</time></trkpt><trkpt lat="45.75353158293289" lon="8.50165648759363"><ele>385.0</ele><time>2026-04-18T09:33:53Z</time></trkpt><trkpt lat="45.75346061779293" lon="8.501806778093059"><ele>385.0</ele><time>2026-04-18T09:33:54Z</time></trkpt><trkpt lat="45.75340962449056" lon="8.501982265770923"><ele>385.0</ele><time>2026-04-18T09:33:55Z</time></trkpt><trkpt lat="45.75335270387525" lon="8.502136194308571"><ele>385.0</ele><time>2026-04-18T09:33:56Z</time></trkpt><trkpt lat="45.7533089116387" lon="8.502282973647189"><ele>383.4</ele><time>2026-04-18T09:33:57Z</time></trkpt><trkpt lat="45.75326961304295" lon="8.502414236965764"><ele>381.8</ele><time>2026-04-18T09:33:58Z</time></trkpt><trkpt lat="45.753235121055354" lon="8.502538963680916"><ele>380.20000000000005</ele><time>2026-04-18T09:33:59Z</time></trkpt><trkpt lat="45.75320919011589" lon="8.502663329954498"><ele>378.6</ele><time>2026-04-18T09:34:00Z</time></trkpt><trkpt lat="45.75319006703457" lon="8.50278315065372"><ele>377.0</ele><time>2026-04-18T09:34:01Z</time></trkpt><trkpt lat="45.7531795510748" lon="8.502896817610878"><ele>376.1666666666667</ele><time>2026-04-18T09:34:02Z</time></trkpt><trkpt lat="45.75317650325709" lon="8.502999408286197"><ele>375.33333333333337</ele><time>2026-04-18T09:34:03Z</time></trkpt><trkpt lat="45.753168172350186" lon="8.503102147696403"><ele>374.5</ele><time>2026-04-18T09:34:04Z</time></trkpt><trkpt lat="45.75315709628484" lon="8.50319785604085"><ele>373.6666666666667</ele><time>2026-04-18T09:34:05Z</time></trkpt><trkpt lat="45.753150442002614" lon="8.503292671535043"><ele>372.8333333333333</ele><time>2026-04-18T09:34:06Z</time></trkpt><trkpt lat="45.753143121681006" lon="8.503401701686055"><ele>372.0</ele><time>2026-04-18T09:34:07Z</time></trkpt><trkpt lat="45.75314344527456" lon="8.503553603165546"><ele>372.0</ele><time>2026-04-18T09:34:08Z</time></trkpt><trkpt lat="45.75313654160976" lon="8.503727865099808"><ele>372.0</ele><time>2026-04-18T09:34:09Z</time></trkpt><trkpt lat="45.75313701549575" lon="8.5038960770172"><ele>372.0</ele><time>2026-04-18T09:34:10Z</time></trkpt><trkpt lat="45.753143374000125" lon="8.504070647823433"><ele>372.0</ele><time>2026-04-18T09:34:11Z</time></trkpt><trkpt lat="45.753139020601175" lon="8.504247888317478"><ele>371.75</ele><time>2026-04-18T09:34:12Z</time></trkpt><trkpt lat="45.75313234582937" lon="8.50442418185744"><ele>371.5</ele><time>2026-04-18T09:34:13Z</time></trkpt><trkpt lat="45.75312018227796" lon="8.504607458267738"><ele>371.25</ele><time>2026-04-18T09:34:14Z</time></trkpt><trkpt lat="45.753097281952016" lon="8.50478932114087"><ele>371.0</ele><time>2026-04-18T09:34:15Z</time></trkpt><trkpt lat="45.75306383587198" lon="8.504962269122412"><ele>370.0</ele><time>2026-04-18T09:34:16Z</time></trkpt><trkpt lat="45.75302685713757" lon="8.505132673824601"><ele>369.0</ele><time>2026-04-18T09:34:17Z</time></trkpt><trkpt lat="45.7530330563999" lon="8.505313100280771"><ele>368.0</ele><time>2026-04-18T09:34:18Z</time></trkpt><trkpt lat="45.75302500709169" lon="8.505509390433868"><ele>367.0</ele><time>2026-04-18T09:34:19Z</time></trkpt><trkpt lat="45.753016718253654" lon="8.505719906818827"><ele>366.0</ele><time>2026-04-18T09:34:20Z</time></trkpt><trkpt lat="45.753016718253654" lon="8.505719906818827"><ele>365.0</ele><time>2026-04-18T09:34:20Z</time></trkpt><trkpt lat="45.75297410847476" lon="8.506632807403781"><ele>364.0</ele><time>2026-04-18T09:34:24Z</time></trkpt><trkpt lat="45.75297563383509" lon="8.506861250771664"><ele>363.0</ele><time>2026-04-18T09:34:25Z</time></trkpt><trkpt lat="45.75303907209416" lon="8.506710562840503"><ele>362.0</ele><time>2026-04-18T09:34:26Z</time></trkpt><trkpt lat="45.75303315416847" lon="8.506886401046637"><ele>361.0</ele><time>2026-04-18T09:34:27Z</time></trkpt><trkpt lat="45.753041232887156" lon="8.507073708453278"><ele>359.5</ele><time>2026-04-18T09:34:28Z</time></trkpt><trkpt lat="45.75302043423065" lon="8.50724796997538"><ele>358.0</ele><time>2026-04-18T09:34:29Z</time></trkpt><trkpt lat="45.75298390662369" lon="8.507422632171872"><ele>356.5</ele><time>2026-04-18T09:34:30Z</time></trkpt><trkpt lat="45.75296530980838" lon="8.507603806329481"><ele>355.0</ele><time>2026-04-18T09:34:31Z</time></trkpt><trkpt lat="45.75292080209949" lon="8.507776114842468"><ele>354.4</ele><time>2026-04-18T09:34:32Z</time></trkpt><trkpt lat="45.75286357776728" lon="8.507939611483726"><ele>353.8</ele><time>2026-04-18T09:34:33Z</time></trkpt><trkpt lat="45.752824869661865" lon="8.508097349065707"><ele>353.20000000000005</ele><time>2026-04-18T09:34:34Z</time></trkpt><trkpt lat="45.7527914453966" lon="8.50822006132699"><ele>352.6</ele><time>2026-04-18T09:34:35Z</time></trkpt><trkpt lat="45.752754362620045" lon="8.508360441649852"><ele>352.0</ele><time>2026-04-18T09:34:36Z</time></trkpt><trkpt lat="45.752718140959686" lon="8.508492466891305"><ele>352.0</ele><time>2026-04-18T09:34:37Z</time></trkpt><trkpt lat="45.75266639300668" lon="8.508628862817838"><ele>352.0</ele><time>2026-04-18T09:34:38Z</time></trkpt><trkpt lat="45.752638689173864" lon="8.508790057278304"><ele>352.0</ele><time>2026-04-18T09:34:39Z</time></trkpt><trkpt lat="45.75260197643485" lon="8.508921736891864"><ele>352.0</ele><time>2026-04-18T09:34:40Z</time></trkpt><trkpt lat="45.752556748467526" lon="8.509019284453611"><ele>352.0</ele><time>2026-04-18T09:34:41Z</time></trkpt><trkpt lat="45.75254173288226" lon="8.509116205179593"><ele>352.0</ele><time>2026-04-18T09:34:42Z</time></trkpt><trkpt lat="45.752508847842776" lon="8.509213655332156"><ele>352.0</ele><time>2026-04-18T09:34:43Z</time></trkpt><trkpt lat="45.7524579124632" lon="8.50934760718472"><ele>352.0</ele><time>2026-04-18T09:34:44Z</time></trkpt><trkpt lat="45.75241925745983" lon="8.509463585064397"><ele>352.0</ele><time>2026-04-18T09:34:45Z</time></trkpt><trkpt lat="45.75237975427517" lon="8.509590650113054"><ele>352.0</ele><time>2026-04-18T09:34:46Z</time></trkpt><trkpt lat="45.75233232462187" lon="8.50971500682299"><ele>351.8333333333333</ele><time>2026-04-18T09:34:47Z</time></trkpt><trkpt lat="45.75228104252519" lon="8.50983230414378"><ele>351.66666666666663</ele><time>2026-04-18T09:34:48Z</time></trkpt><trkpt lat="45.75222499190333" lon="8.509941686539632"><ele>351.5</ele><time>2026-04-18T09:34:49Z</time></trkpt><trkpt lat="45.752184990199915" lon="8.510035037172072"><ele>351.3333333333333</ele><time>2026-04-18T09:34:50Z</time></trkpt><trkpt lat="45.75214089808156" lon="8.510123270440749"><ele>351.1666666666667</ele><time>2026-04-18T09:34:51Z</time></trkpt><trkpt lat="45.75209735959833" lon="8.51020940860369"><ele>351.0</ele><time>2026-04-18T09:34:52Z</time></trkpt><trkpt lat="45.752056285816984" lon="8.510298389789186"><ele>351.0</ele><time>2026-04-18T09:34:53Z</time></trkpt><trkpt lat="45.75200772474966" lon="8.510402442790705"><ele>351.0</ele><time>2026-04-18T09:34:54Z</time></trkpt><trkpt lat="45.751954645876936" lon="8.510517431922306"><ele>351.0</ele><time>2026-04-18T09:34:55Z</time></trkpt><trkpt lat="45.75189779421721" lon="8.510641218187954"><ele>351.0</ele><time>2026-04-18T09:34:56Z</time></trkpt><trkpt lat="45.7518316318051" lon="8.510776316545773"><ele>351.0</ele><time>2026-04-18T09:34:57Z</time></trkpt><trkpt lat="45.75176474412254" lon="8.510914889449687"><ele>350.20000000000005</ele><time>2026-04-18T09:34:58Z</time></trkpt><trkpt lat="45.75169576594573" lon="8.511056194528697"><ele>349.40000000000003</ele><time>2026-04-18T09:34:59Z</time></trkpt><trkpt lat="45.75163484495608" lon="8.511189150209134"><ele>348.6</ele><time>2026-04-18T09:35:00Z</time></trkpt><trkpt lat="45.75157898249058" lon="8.511304341325605"><ele>347.8</ele><time>2026-04-18T09:35:01Z</time></trkpt><trkpt lat="45.75152291190142" lon="8.511417189619639"><ele>347.0</ele><time>2026-04-18T09:35:02Z</time></trkpt><trkpt lat="45.75147149691391" lon="8.511529800409162"><ele>346.0</ele><time>2026-04-18T09:35:03Z</time></trkpt><trkpt lat="45.751424922685125" lon="8.511637266500475"><ele>345.0</ele><time>2026-04-18T09:35:04Z</time></trkpt><trkpt lat="45.75136710202354" lon="8.511756606237995"><ele>344.0</ele><time>2026-04-18T09:35:05Z</time></trkpt><trkpt lat="45.75130841395967" lon="8.511885697658702"><ele>343.0</ele><time>2026-04-18T09:35:06Z</time></trkpt><trkpt lat="45.75124983781822" lon="8.512006492759731"><ele>342.0</ele><time>2026-04-18T09:35:07Z</time></trkpt><trkpt lat="45.75119622177269" lon="8.512120183548593"><ele>341.8333333333333</ele><time>2026-04-18T09:35:08Z</time></trkpt><trkpt lat="45.75114717677757" lon="8.512226697168407"><ele>341.6666666666667</ele><time>2026-04-18T09:35:09Z</time></trkpt><trkpt lat="45.751093339479404" lon="8.512329958377943"><ele>341.5</ele><time>2026-04-18T09:35:10Z</time></trkpt><trkpt lat="45.75104508785895" lon="8.512426248656347"><ele>341.33333333333337</ele><time>2026-04-18T09:35:11Z</time></trkpt><trkpt lat="45.75099732845609" lon="8.512511400322825"><ele>341.1666666666667</ele><time>2026-04-18T09:35:12Z</time></trkpt><trkpt lat="45.750954330461965" lon="8.51258579918387"><ele>341.0</ele><time>2026-04-18T09:35:13Z</time></trkpt><trkpt lat="45.750895974715306" lon="8.512666679315894"><ele>340.4</ele><time>2026-04-18T09:35:14Z</time></trkpt><trkpt lat="45.750832462320275" lon="8.512767035105027"><ele>339.8</ele><time>2026-04-18T09:35:15Z</time></trkpt><trkpt lat="45.750758066250626" lon="8.512872420315077"><ele>339.2</ele><time>2026-04-18T09:35:16Z</time></trkpt><trkpt lat="45.750678528265794" lon="8.513001435246768"><ele>338.59999999999997</ele><time>2026-04-18T09:35:17Z</time></trkpt><trkpt lat="45.750589492851375" lon="8.513137528657216"><ele>338.0</ele><time>2026-04-18T09:35:18Z</time></trkpt><trkpt lat="45.7505087298568" lon="8.513267699248487"><ele>337.79999999999995</ele><time>2026-04-18T09:35:19Z</time></trkpt><trkpt lat="45.75042534310776" lon="8.513386359802668"><ele>337.6</ele><time>2026-04-18T09:35:20Z</time></trkpt><trkpt lat="45.75035400599698" lon="8.513486867915347"><ele>337.4</ele><time>2026-04-18T09:35:21.001Z</time></trkpt><trkpt lat="45.75029863502752" lon="8.51358186537266"><ele>337.20000000000005</ele><time>2026-04-18T09:35:22.001Z</time></trkpt><trkpt lat="45.75024768989688" lon="8.513636139013228"><ele>337.0</ele><time>2026-04-18T09:35:23.001Z</time></trkpt><trkpt lat="45.75013756144317" lon="8.513635308674791"><ele>336.66666666666663</ele><time>2026-04-18T09:35:25.001Z</time></trkpt><trkpt lat="45.75006588932889" lon="8.513553831106451"><ele>336.3333333333333</ele><time>2026-04-18T09:35:26.001Z</time></trkpt><trkpt lat="45.750007093404655" lon="8.513452236315976"><ele>336.0</ele><time>2026-04-18T09:35:27Z</time></trkpt><trkpt lat="45.749788274702325" lon="8.512962003334843"><ele>336.4</ele><time>2026-04-18T09:35:31Z</time></trkpt><trkpt lat="45.749738049679785" lon="8.512854131087186"><ele>336.8</ele><time>2026-04-18T09:35:32Z</time></trkpt><trkpt lat="45.74968080858501" lon="8.512737619271034"><ele>337.2</ele><time>2026-04-18T09:35:33Z</time></trkpt><trkpt lat="45.74962537282096" lon="8.512606320802028"><ele>337.59999999999997</ele><time>2026-04-18T09:35:34Z</time></trkpt><trkpt lat="45.749567827237655" lon="8.512486280889094"><ele>338.0</ele><time>2026-04-18T09:35:35Z</time></trkpt><trkpt lat="45.74952033175798" lon="8.512375008967279"><ele>338.0</ele><time>2026-04-18T09:35:36Z</time></trkpt><trkpt lat="45.74948775637245" lon="8.512292350963252"><ele>338.0</ele><time>2026-04-18T09:35:37Z</time></trkpt><trkpt lat="45.74955720546196" lon="8.512235748856805"><ele>338.0</ele><time>2026-04-18T09:42:45Z</time></trkpt><trkpt lat="45.74960661310263" lon="8.512176321556217"><ele>338.0</ele><time>2026-04-18T09:43:09Z</time></trkpt><trkpt lat="45.74953031447323" lon="8.512206326376567"><ele>338.0</ele><time>2026-04-18T09:51:55Z</time></trkpt><trkpt lat="45.74946127037957" lon="8.512129509881197"><ele>338.0</ele><time>2026-04-18T10:09:24Z</time></trkpt><trkpt lat="45.749388069472815" lon="8.512071477717345"><ele>337.4</ele><time>2026-04-18T10:09:27Z</time></trkpt><trkpt lat="45.749341865375136" lon="8.511973450178498"><ele>336.79999999999995</ele><time>2026-04-18T10:09:30Z</time></trkpt><trkpt lat="45.7492803362147" lon="8.511867263136804"><ele>336.2</ele><time>2026-04-18T10:09:33Z</time></trkpt><trkpt lat="45.74918418277994" lon="8.51171967474944"><ele>335.6</ele><time>2026-04-18T10:09:35Z</time></trkpt><trkpt lat="45.749116427677905" lon="8.511631373538428"><ele>335.0</ele><time>2026-04-18T10:09:36Z</time></trkpt><trkpt lat="45.74904916132135" lon="8.511546183760464"><ele>335.0</ele><time>2026-04-18T10:09:37Z</time></trkpt><trkpt lat="45.748984675154055" lon="8.511460697698999"><ele>335.0</ele><time>2026-04-18T10:09:38Z</time></trkpt><trkpt lat="45.74891711111726" lon="8.51136912008196"><ele>335.0</ele><time>2026-04-18T10:09:39Z</time></trkpt><trkpt lat="45.74884125669933" lon="8.511287558348458"><ele>335.0</ele><time>2026-04-18T10:09:40Z</time></trkpt><trkpt lat="45.74876375944781" lon="8.51122602789931"><ele>335.0</ele><time>2026-04-18T10:09:41Z</time></trkpt><trkpt lat="45.748681468513496" lon="8.51116807087901"><ele>335.6666666666667</ele><time>2026-04-18T10:09:42Z</time></trkpt><trkpt lat="45.74860914408899" lon="8.511113627616"><ele>336.33333333333337</ele><time>2026-04-18T10:09:43Z</time></trkpt><trkpt lat="45.74850473852982" lon="8.511026170265534"><ele>337.0</ele><time>2026-04-18T10:09:45Z</time></trkpt><trkpt lat="45.748420126016704" lon="8.510944481368657"><ele>337.6666666666667</ele><time>2026-04-18T10:09:47Z</time></trkpt><trkpt lat="45.74835525821867" lon="8.510898401561931"><ele>338.3333333333333</ele><time>2026-04-18T10:09:48Z</time></trkpt><trkpt lat="45.74829762750598" lon="8.510851793391742"><ele>339.0</ele><time>2026-04-18T10:09:49Z</time></trkpt><trkpt lat="45.74822887792765" lon="8.510778192531946"><ele>339.0</ele><time>2026-04-18T10:09:51Z</time></trkpt><trkpt lat="45.74837640904306" lon="8.510959008272179"><ele>339.0</ele><time>2026-04-18T10:10:01Z</time></trkpt><trkpt lat="45.74845212664478" lon="8.51102576233348"><ele>339.0</ele><time>2026-04-18T10:10:02Z</time></trkpt><trkpt lat="45.74854069532647" lon="8.511069087358349"><ele>339.0</ele><time>2026-04-18T10:10:03Z</time></trkpt><trkpt lat="45.748606634510764" lon="8.511135779536987"><ele>339.57142857142856</ele><time>2026-04-18T10:10:04Z</time></trkpt><trkpt lat="45.748664720770115" lon="8.511187577763579"><ele>340.14285714285717</ele><time>2026-04-18T10:10:05Z</time></trkpt><trkpt lat="45.74872209278971" lon="8.511240468552922"><ele>340.7142857142857</ele><time>2026-04-18T10:10:06Z</time></trkpt><trkpt lat="45.748798637380446" lon="8.511288293719137"><ele>341.2857142857143</ele><time>2026-04-18T10:10:08Z</time></trkpt><trkpt lat="45.74885771468794" lon="8.511229519942399"><ele>341.8571428571429</ele><time>2026-04-18T10:10:10Z</time></trkpt><trkpt lat="45.74888006051502" lon="8.511131583070835"><ele>342.42857142857144</ele><time>2026-04-18T10:10:11Z</time></trkpt><trkpt lat="45.74886211811471" lon="8.511044008563843"><ele>343.0</ele><time>2026-04-18T10:10:12Z</time></trkpt><trkpt lat="45.74880928668783" lon="8.510874414915303"><ele>343.0</ele><time>2026-04-18T10:10:14Z</time></trkpt><trkpt lat="45.7487787329135" lon="8.510787009993782"><ele>343.0</ele><time>2026-04-18T10:10:15Z</time></trkpt><trkpt lat="45.74872946197275" lon="8.510624648571616"><ele>343.0</ele><time>2026-04-18T10:10:17Z</time></trkpt><trkpt lat="45.74868537665553" lon="8.510470439165179"><ele>343.0</ele><time>2026-04-18T10:10:19Z</time></trkpt><trkpt lat="45.74867929366617" lon="8.510299311705714"><ele>343.0</ele><time>2026-04-18T10:10:20.999Z</time></trkpt><trkpt lat="45.74869785093525" lon="8.51013036308461"><ele>344.59999999999997</ele><time>2026-04-18T10:10:22.999Z</time></trkpt><trkpt lat="45.748736811925454" lon="8.509983732468573"><ele>346.2</ele><time>2026-04-18T10:10:24.999Z</time></trkpt><trkpt lat="45.74878919735703" lon="8.509884445329655"><ele>347.8</ele><time>2026-04-18T10:10:27.999Z</time></trkpt><trkpt lat="45.7488553621439" lon="8.509738396161877"><ele>349.4</ele><time>2026-04-18T10:10:29.999Z</time></trkpt><trkpt lat="45.748900351488146" lon="8.509569299327268"><ele>351.0</ele><time>2026-04-18T10:10:31.999Z</time></trkpt><trkpt lat="45.74891552340522" lon="8.509480595083458"><ele>352.0</ele><time>2026-04-18T10:10:32.999Z</time></trkpt><trkpt lat="45.74887876194095" lon="8.509371978327371"><ele>353.0</ele><time>2026-04-18T10:10:33.999Z</time></trkpt><trkpt lat="45.74884031626316" lon="8.509271457343058"><ele>354.0</ele><time>2026-04-18T10:10:34.999Z</time></trkpt><trkpt lat="45.74879276006685" lon="8.509161905117601"><ele>355.0</ele><time>2026-04-18T10:10:36.999Z</time></trkpt><trkpt lat="45.748754885941004" lon="8.509065395924523"><ele>356.0</ele><time>2026-04-18T10:10:38.999Z</time></trkpt><trkpt lat="45.74863294379278" lon="8.508886729215096"><ele>356.0</ele><time>2026-04-18T10:10:39.999Z</time></trkpt><trkpt lat="45.74863574311203" lon="8.508767653136479"><ele>356.0</ele><time>2026-04-18T10:10:40.999Z</time></trkpt><trkpt lat="45.748640502952746" lon="8.508658175543276"><ele>356.0</ele><time>2026-04-18T10:10:41.999Z</time></trkpt><trkpt lat="45.748645789480946" lon="8.508536584102812"><ele>356.0</ele><time>2026-04-18T10:10:42.999Z</time></trkpt><trkpt lat="45.74864972770094" lon="8.508446004106823"><ele>356.0</ele><time>2026-04-18T10:10:43.999Z</time></trkpt><trkpt lat="45.748904969156506" lon="8.508388640043508"><ele>355.8</ele><time>2026-04-18T10:10:44.999Z</time></trkpt><trkpt lat="45.74889956861383" lon="8.508243278587987"><ele>355.6</ele><time>2026-04-18T10:10:46.999Z</time></trkpt><trkpt lat="45.74883937339097" lon="8.508098018185251"><ele>355.4</ele><time>2026-04-18T10:10:48.999Z</time></trkpt><trkpt lat="45.74878629454672" lon="8.508003427861707"><ele>355.2</ele><time>2026-04-18T10:10:50.999Z</time></trkpt><trkpt lat="45.74872196767501" lon="8.507863433267696"><ele>355.0</ele><time>2026-04-18T10:10:52.999Z</time></trkpt><trkpt lat="45.748659396991975" lon="8.507744045635441"><ele>355.8333333333333</ele><time>2026-04-18T10:10:54.999Z</time></trkpt><trkpt lat="45.74860839757968" lon="8.507672079804433"><ele>356.66666666666663</ele><time>2026-04-18T10:10:55.999Z</time></trkpt><trkpt lat="45.74856755591866" lon="8.507587995085263"><ele>357.5</ele><time>2026-04-18T10:10:56.999Z</time></trkpt><trkpt lat="45.74849313494671" lon="8.507480236625819"><ele>358.3333333333333</ele><time>2026-04-18T10:10:58.999Z</time></trkpt><trkpt lat="45.748460356266136" lon="8.507370180416315"><ele>359.1666666666667</ele><time>2026-04-18T10:11:00.999Z</time></trkpt><trkpt lat="45.74845435689795" lon="8.507276006355774"><ele>360.0</ele><time>2026-04-18T10:11:01.999Z</time></trkpt><trkpt lat="45.74844013036513" lon="8.50716322142643"><ele>360.5</ele><time>2026-04-18T10:11:02.999Z</time></trkpt><trkpt lat="45.74842917208272" lon="8.50703488728776"><ele>361.0</ele><time>2026-04-18T10:11:03.999Z</time></trkpt><trkpt lat="45.74842005771144" lon="8.506938147357468"><ele>361.5</ele><time>2026-04-18T10:11:04.999Z</time></trkpt><trkpt lat="45.74842794739611" lon="8.50678583112348"><ele>362.0</ele><time>2026-04-18T10:11:06.999Z</time></trkpt><trkpt lat="45.74843231235934" lon="8.506684073744758"><ele>362.5</ele><time>2026-04-18T10:11:07.999Z</time></trkpt><trkpt lat="45.74842903443525" lon="8.506577676575152"><ele>363.0</ele><time>2026-04-18T10:11:08.998Z</time></trkpt><trkpt lat="45.74843829648832" lon="8.50646325059632"><ele>363.0</ele><time>2026-04-18T10:11:10.998Z</time></trkpt><trkpt lat="45.74845734087639" lon="8.506349718712993"><ele>363.0</ele><time>2026-04-18T10:11:19.999Z</time></trkpt><trkpt lat="45.74846431567716" lon="8.506241390263167"><ele>363.0</ele><time>2026-04-18T10:11:21.999Z</time></trkpt><trkpt lat="45.74847094651811" lon="8.50613380390943"><ele>363.0</ele><time>2026-04-18T10:11:23.999Z</time></trkpt><trkpt lat="45.748476584500544" lon="8.506016987210861"><ele>363.0</ele><time>2026-04-18T10:11:25.999Z</time></trkpt><trkpt lat="45.74847751306294" lon="8.505897154088203"><ele>363.0</ele><time>2026-04-18T10:11:27.999Z</time></trkpt><trkpt lat="45.748470101995125" lon="8.505790211604715"><ele>364.3333333333333</ele><time>2026-04-18T10:11:30.999Z</time></trkpt><trkpt lat="45.74846441100508" lon="8.50568090789339"><ele>365.6666666666667</ele><time>2026-04-18T10:11:33.999Z</time></trkpt><trkpt lat="45.7484963322732" lon="8.505575030298335"><ele>367.0</ele><time>2026-04-18T10:11:46.999Z</time></trkpt><trkpt lat="45.7484917072874" lon="8.505444754026454"><ele>368.33333333333337</ele><time>2026-04-18T10:11:49.999Z</time></trkpt><trkpt lat="45.74851001354062" lon="8.505310606810488"><ele>369.6666666666667</ele><time>2026-04-18T10:12:04.999Z</time></trkpt><trkpt lat="45.74845308257391" lon="8.505190047205502"><ele>371.0</ele><time>2026-04-18T10:12:08.999Z</time></trkpt><trkpt lat="45.74838994976431" lon="8.505127065292832"><ele>372.1666666666667</ele><time>2026-04-18T10:12:09.999Z</time></trkpt><trkpt lat="45.748358234095676" lon="8.505019341090671"><ele>373.33333333333337</ele><time>2026-04-18T10:12:11.999Z</time></trkpt><trkpt lat="45.74838274361917" lon="8.50491065657274"><ele>374.5</ele><time>2026-04-18T10:12:13.999Z</time></trkpt><trkpt lat="45.74840806477974" lon="8.50481006530284"><ele>375.6666666666667</ele><time>2026-04-18T10:12:16.999Z</time></trkpt><trkpt lat="45.748481338837664" lon="8.504759655329174"><ele>376.8333333333333</ele><time>2026-04-18T10:12:32.999Z</time></trkpt><trkpt lat="45.74857419329261" lon="8.504759565094572"><ele>378.0</ele><time>2026-04-18T10:12:36.999Z</time></trkpt><trkpt lat="45.74864037165764" lon="8.504783418536952"><ele>378.8333333333333</ele><time>2026-04-18T10:12:37.999Z</time></trkpt><trkpt lat="45.74870714598156" lon="8.504797279915563"><ele>379.6666666666667</ele><time>2026-04-18T10:12:38.999Z</time></trkpt><trkpt lat="45.748783087209254" lon="8.50481592291637"><ele>380.5</ele><time>2026-04-18T10:12:39.999Z</time></trkpt><trkpt lat="45.74888486972591" lon="8.504837181106819"><ele>381.33333333333337</ele><time>2026-04-18T10:12:41.999Z</time></trkpt><trkpt lat="45.74898342156493" lon="8.50485519532905"><ele>382.1666666666667</ele><time>2026-04-18T10:12:43.999Z</time></trkpt><trkpt lat="45.7490485246698" lon="8.504864722627289"><ele>383.0</ele><time>2026-04-18T10:12:44.999Z</time></trkpt><trkpt lat="45.7491184928753" lon="8.50490532119465"><ele>383.0</ele><time>2026-04-18T10:12:47.999Z</time></trkpt><trkpt lat="45.749056899683886" lon="8.504865689774217"><ele>383.0</ele><time>2026-04-18T10:12:53.999Z</time></trkpt><trkpt lat="45.74894410211497" lon="8.504848008133026"><ele>383.0</ele><time>2026-04-18T10:12:55.999Z</time></trkpt><trkpt lat="45.74885895030359" lon="8.504832443235738"><ele>383.0</ele><time>2026-04-18T10:12:57.999Z</time></trkpt><trkpt lat="45.74875009055093" lon="8.5048084571898"><ele>383.0</ele><time>2026-04-18T10:12:59.999Z</time></trkpt><trkpt lat="45.74867117319583" lon="8.504767112988503"><ele>383.0</ele><time>2026-04-18T10:13:01.999Z</time></trkpt><trkpt lat="45.74859538637103" lon="8.504762051926374"><ele>383.0</ele><time>2026-04-18T10:13:03.999Z</time></trkpt><trkpt lat="45.74851934718324" lon="8.504780791937703"><ele>383.0</ele><time>2026-04-18T10:13:05.999Z</time></trkpt><trkpt lat="45.74843842897464" lon="8.50479450297036"><ele>383.0</ele><time>2026-04-18T10:13:07.999Z</time></trkpt><trkpt lat="45.748328705485164" lon="8.50479073389467"><ele>383.0</ele><time>2026-04-18T10:13:09.999Z</time></trkpt><trkpt lat="45.74826438991072" lon="8.504752069289"><ele>383.0</ele><time>2026-04-18T10:13:10.999Z</time></trkpt><trkpt lat="45.74819826570356" lon="8.504751373980842"><ele>382.1666666666667</ele><time>2026-04-18T10:13:11.999Z</time></trkpt><trkpt lat="45.74813329362051" lon="8.504754913184415"><ele>381.33333333333337</ele><time>2026-04-18T10:13:12.999Z</time></trkpt><trkpt lat="45.74806653087284" lon="8.504753365878635"><ele>380.5</ele><time>2026-04-18T10:13:13.999Z</time></trkpt><trkpt lat="45.74800246047323" lon="8.504748654006809"><ele>379.6666666666667</ele><time>2026-04-18T10:13:14.998Z</time></trkpt><trkpt lat="45.74793884841695" lon="8.504750850232055"><ele>378.8333333333333</ele><time>2026-04-18T10:13:15.998Z</time></trkpt><trkpt lat="45.74781563479397" lon="8.504765612762684"><ele>378.0</ele><time>2026-04-18T10:13:17.998Z</time></trkpt><trkpt lat="45.74771269815333" lon="8.504794810428109"><ele>378.3333333333333</ele><time>2026-04-18T10:13:19.998Z</time></trkpt><trkpt lat="45.74763978496526" lon="8.50480290752291"><ele>378.6666666666667</ele><time>2026-04-18T10:13:21.998Z</time></trkpt><trkpt lat="45.747613026086064" lon="8.504634971278321"><ele>379.0</ele><time>2026-04-18T10:13:28.998Z</time></trkpt><trkpt lat="45.747631934088126" lon="8.504545994423314"><ele>379.33333333333337</ele><time>2026-04-18T10:13:30.999Z</time></trkpt><trkpt lat="45.74764957555182" lon="8.504449539636722"><ele>379.6666666666667</ele><time>2026-04-18T10:13:48.999Z</time></trkpt><trkpt lat="45.74765260761181" lon="8.504343526133779"><ele>380.0</ele><time>2026-04-18T10:13:49.999Z</time></trkpt><trkpt lat="45.74769242779184" lon="8.504225071248777"><ele>380.33333333333337</ele><time>2026-04-18T10:13:50.999Z</time></trkpt><trkpt lat="45.74771000010954" lon="8.504092744667169"><ele>380.6666666666667</ele><time>2026-04-18T10:13:51.999Z</time></trkpt><trkpt lat="45.74772598335512" lon="8.503972384427634"><ele>381.0</ele><time>2026-04-18T10:13:52.999Z</time></trkpt><trkpt lat="45.74774151437882" lon="8.503855429598003"><ele>381.3333333333333</ele><time>2026-04-18T10:13:53.999Z</time></trkpt><trkpt lat="45.74775487637519" lon="8.503754808419457"><ele>381.66666666666663</ele><time>2026-04-18T10:13:54.999Z</time></trkpt><trkpt lat="45.74772638354286" lon="8.503673900364747"><ele>382.0</ele><time>2026-04-18T10:13:55.999Z</time></trkpt><trkpt lat="45.74767720072233" lon="8.503600630533256"><ele>382.0</ele><time>2026-04-18T10:13:59.999Z</time></trkpt><trkpt lat="45.74759750879612" lon="8.50359300947294"><ele>382.0</ele><time>2026-04-18T10:14:01.999Z</time></trkpt><trkpt lat="45.74752236177332" lon="8.503583889224865"><ele>382.0</ele><time>2026-04-18T10:14:02.999Z</time></trkpt><trkpt lat="45.7474318665162" lon="8.503561838085066"><ele>382.0</ele><time>2026-04-18T10:14:03.999Z</time></trkpt><trkpt lat="45.747336321176284" lon="8.5035416408132"><ele>382.0</ele><time>2026-04-18T10:14:04.999Z</time></trkpt><trkpt lat="45.747237481251815" lon="8.50353877193872"><ele>382.0</ele><time>2026-04-18T10:14:05.999Z</time></trkpt><trkpt lat="45.74715202315955" lon="8.50355604722638"><ele>382.0</ele><time>2026-04-18T10:14:06.999Z</time></trkpt><trkpt lat="45.74705846781228" lon="8.503562116936703"><ele>382.0</ele><time>2026-04-18T10:14:07.999Z</time></trkpt><trkpt lat="45.74696503803498" lon="8.50355919358263"><ele>382.0</ele><time>2026-04-18T10:14:08.999Z</time></trkpt><trkpt lat="45.7468762739215" lon="8.503538113242183"><ele>382.0</ele><time>2026-04-18T10:14:09.999Z</time></trkpt><trkpt lat="45.74676856675388" lon="8.503504122525424"><ele>382.0</ele><time>2026-04-18T10:14:11.999Z</time></trkpt><trkpt lat="45.74667534722116" lon="8.503486320847307"><ele>382.3333333333333</ele><time>2026-04-18T10:14:13.999Z</time></trkpt><trkpt lat="45.74660235710153" lon="8.503437514881247"><ele>382.66666666666663</ele><time>2026-04-18T10:14:15.999Z</time></trkpt><trkpt lat="45.74653962854003" lon="8.50341134631663"><ele>383.0</ele><time>2026-04-18T10:14:16.999Z</time></trkpt><trkpt lat="45.746461734772794" lon="8.503376160591527"><ele>383.3333333333333</ele><time>2026-04-18T10:14:17.999Z</time></trkpt><trkpt lat="45.74636932824116" lon="8.503358444929042"><ele>383.6666666666667</ele><time>2026-04-18T10:14:18.999Z</time></trkpt><trkpt lat="45.74628627825109" lon="8.503351989813758"><ele>384.0</ele><time>2026-04-18T10:14:19.999Z</time></trkpt><trkpt lat="45.746220169675496" lon="8.503354165037125"><ele>384.0</ele><time>2026-04-18T10:14:20.999Z</time></trkpt><trkpt lat="45.74609115482651" lon="8.503308885153237"><ele>384.0</ele><time>2026-04-18T10:14:22.999Z</time></trkpt><trkpt lat="45.74600982363121" lon="8.503285586244541"><ele>384.0</ele><time>2026-04-18T10:14:23.999Z</time></trkpt><trkpt lat="45.74594134602192" lon="8.503266287778533"><ele>384.0</ele><time>2026-04-18T10:14:24.999Z</time></trkpt><trkpt lat="45.74587010392438" lon="8.503258633078683"><ele>384.0</ele><time>2026-04-18T10:14:25.999Z</time></trkpt><trkpt lat="45.74580485885274" lon="8.503240419660406"><ele>384.0</ele><time>2026-04-18T10:14:26.999Z</time></trkpt><trkpt lat="45.74568354822211" lon="8.503212122819455"><ele>384.0</ele><time>2026-04-18T10:14:28.999Z</time></trkpt><trkpt lat="45.745596545406876" lon="8.503183934619205"><ele>384.0</ele><time>2026-04-18T10:14:29.999Z</time></trkpt><trkpt lat="45.74551521395954" lon="8.503174848785159"><ele>384.0</ele><time>2026-04-18T10:14:30.999Z</time></trkpt><trkpt lat="45.745415080297846" lon="8.503181895775338"><ele>384.0</ele><time>2026-04-18T10:14:31.999Z</time></trkpt><trkpt lat="45.745288498565486" lon="8.50318287361224"><ele>384.0</ele><time>2026-04-18T10:14:32.999Z</time></trkpt><trkpt lat="45.745188995872" lon="8.503176716811817"><ele>383.2</ele><time>2026-04-18T10:14:33.999Z</time></trkpt><trkpt lat="45.745114690264394" lon="8.503149420545409"><ele>382.4</ele><time>2026-04-18T10:14:35Z</time></trkpt><trkpt lat="45.74500571449876" lon="8.503104399919778"><ele>381.6</ele><time>2026-04-18T10:14:37Z</time></trkpt><trkpt lat="45.74490143777653" lon="8.503113619632648"><ele>380.8</ele><time>2026-04-18T10:14:39Z</time></trkpt><trkpt lat="45.744809642294314" lon="8.503144064799711"><ele>380.0</ele><time>2026-04-18T10:14:41Z</time></trkpt><trkpt lat="45.74470431188226" lon="8.503178029890593"><ele>380.0</ele><time>2026-04-18T10:14:43Z</time></trkpt><trkpt lat="45.74463864488216" lon="8.503175348104351"><ele>380.0</ele><time>2026-04-18T10:14:45Z</time></trkpt><trkpt lat="45.74457941240949" lon="8.503136207716521"><ele>380.0</ele><time>2026-04-18T10:14:50Z</time></trkpt><trkpt lat="45.74457537787992" lon="8.503016998912962"><ele>380.0</ele><time>2026-04-18T10:14:52Z</time></trkpt><trkpt lat="45.74459190892938" lon="8.502898089676435"><ele>380.0</ele><time>2026-04-18T10:14:53Z</time></trkpt><trkpt lat="45.744584847928174" lon="8.502751287187"><ele>380.0</ele><time>2026-04-18T10:14:55Z</time></trkpt><trkpt lat="45.74458178280458" lon="8.502648765069859"><ele>379.6</ele><time>2026-04-18T10:14:56Z</time></trkpt><trkpt lat="45.74456324075273" lon="8.502428170617094"><ele>379.2</ele><time>2026-04-18T10:14:58Z</time></trkpt><trkpt lat="45.74446115388086" lon="8.502355044436175"><ele>378.79999999999995</ele><time>2026-04-18T10:15:01Z</time></trkpt><trkpt lat="45.74439317186567" lon="8.502377173163712"><ele>378.4</ele><time>2026-04-18T10:15:02Z</time></trkpt><trkpt lat="45.74432880770149" lon="8.50239622399788"><ele>378.0</ele><time>2026-04-18T10:15:03Z</time></trkpt><trkpt lat="45.744255047419976" lon="8.50241052446122"><ele>378.0</ele><time>2026-04-18T10:15:04Z</time></trkpt><trkpt lat="45.74411110694942" lon="8.502422138720954"><ele>378.0</ele><time>2026-04-18T10:15:05Z</time></trkpt><trkpt lat="45.74394415978796" lon="8.502426667021203"><ele>378.0</ele><time>2026-04-18T10:15:06Z</time></trkpt><trkpt lat="45.74376385388185" lon="8.502624686169865"><ele>378.0</ele><time>2026-04-18T10:15:07Z</time></trkpt><trkpt lat="45.743582325152936" lon="8.502627357054404"><ele>378.0</ele><time>2026-04-18T10:15:08Z</time></trkpt><trkpt lat="45.74343534565888" lon="8.50263004106587"><ele>378.0</ele><time>2026-04-18T10:15:09Z</time></trkpt><trkpt lat="45.74331242171853" lon="8.502632432291506"><ele>379.0</ele><time>2026-04-18T10:15:10Z</time></trkpt><trkpt lat="45.74321379177114" lon="8.50263590724997"><ele>380.0</ele><time>2026-04-18T10:15:11Z</time></trkpt><trkpt lat="45.74311454962319" lon="8.502639403791134"><ele>381.0</ele><time>2026-04-18T10:15:12Z</time></trkpt><trkpt lat="45.74304439465154" lon="8.502642116960821"><ele>382.0</ele><time>2026-04-18T10:15:13Z</time></trkpt><trkpt lat="45.7429290374635" lon="8.502649336404637"><ele>383.0</ele><time>2026-04-18T10:15:15Z</time></trkpt><trkpt lat="45.74283419732327" lon="8.50265527181095"><ele>383.0</ele><time>2026-04-18T10:15:17Z</time></trkpt><trkpt lat="45.74276281805727" lon="8.50265973895436"><ele>383.0</ele><time>2026-04-18T10:15:20Z</time></trkpt><trkpt lat="45.74286057945612" lon="8.50265183194297"><ele>383.0</ele><time>2026-04-18T10:15:23.999Z</time></trkpt><trkpt lat="45.74298999252825" lon="8.50254060193389"><ele>383.0</ele><time>2026-04-18T10:15:24.999Z</time></trkpt><trkpt lat="45.74311621371716" lon="8.502508441645542"><ele>383.0</ele><time>2026-04-18T10:15:25.999Z</time></trkpt><trkpt lat="45.74322447578053" lon="8.502504479123814"><ele>383.0</ele><time>2026-04-18T10:15:26.999Z</time></trkpt><trkpt lat="45.743316135619544" lon="8.50249398116145"><ele>383.0</ele><time>2026-04-18T10:15:27.999Z</time></trkpt><trkpt lat="45.74342139664417" lon="8.502482262717876"><ele>383.0</ele><time>2026-04-18T10:15:28.999Z</time></trkpt><trkpt lat="45.743514627435594" lon="8.502469013267731"><ele>383.0</ele><time>2026-04-18T10:15:29.999Z</time></trkpt><trkpt lat="45.74358894773356" lon="8.502461841863385"><ele>383.0</ele><time>2026-04-18T10:15:30.999Z</time></trkpt><trkpt lat="45.74365969973789" lon="8.50245964078287"><ele>383.0</ele><time>2026-04-18T10:15:31.999Z</time></trkpt><trkpt lat="45.74372860275312" lon="8.50245685283144"><ele>381.75</ele><time>2026-04-18T10:15:32.999Z</time></trkpt><trkpt lat="45.74383492845202" lon="8.502468524871645"><ele>380.5</ele><time>2026-04-18T10:15:34.999Z</time></trkpt><trkpt lat="45.743797458590905" lon="8.50225602641537"><ele>379.25</ele><time>2026-04-18T10:15:37.999Z</time></trkpt><trkpt lat="45.74377088431841" lon="8.502103771065121"><ele>378.0</ele><time>2026-04-18T10:15:38.999Z</time></trkpt><trkpt lat="45.74373241149411" lon="8.50194966859302"><ele>377.79999999999995</ele><time>2026-04-18T10:15:39.999Z</time></trkpt><trkpt lat="45.74369772306629" lon="8.50182938882897"><ele>377.6</ele><time>2026-04-18T10:15:40.999Z</time></trkpt><trkpt lat="45.7436623744606" lon="8.50172770057468"><ele>377.4</ele><time>2026-04-18T10:15:41.999Z</time></trkpt><trkpt lat="45.743618604835014" lon="8.501619377823637"><ele>377.20000000000005</ele><time>2026-04-18T10:15:42.999Z</time></trkpt><trkpt lat="45.74352536821647" lon="8.50148910544597"><ele>377.0</ele><time>2026-04-18T10:15:44.999Z</time></trkpt><trkpt lat="45.74347246860768" lon="8.501434639756184"><ele>377.83333333333337</ele><time>2026-04-18T10:15:45.999Z</time></trkpt><trkpt lat="45.74340541450153" lon="8.501335291902327"><ele>378.6666666666667</ele><time>2026-04-18T10:15:46.999Z</time></trkpt><trkpt lat="45.74334505018469" lon="8.501251388586102"><ele>379.5</ele><time>2026-04-18T10:15:47.999Z</time></trkpt><trkpt lat="45.743278109712946" lon="8.501192545544857"><ele>380.3333333333333</ele><time>2026-04-18T10:15:48.999Z</time></trkpt><trkpt lat="45.743209205996614" lon="8.501139975940195"><ele>381.16666666666663</ele><time>2026-04-18T10:15:49.999Z</time></trkpt><trkpt lat="45.74314313153915" lon="8.501102731114589"><ele>382.0</ele><time>2026-04-18T10:15:50.999Z</time></trkpt><trkpt lat="45.743072307614796" lon="8.50103174393623"><ele>382.0</ele><time>2026-04-18T10:15:52Z</time></trkpt><trkpt lat="45.743004310824574" lon="8.500990446617408"><ele>382.0</ele><time>2026-04-18T10:15:53Z</time></trkpt><trkpt lat="45.74293169216098" lon="8.50093273322149"><ele>382.0</ele><time>2026-04-18T10:15:54Z</time></trkpt><trkpt lat="45.7428591006842" lon="8.500866741072441"><ele>382.0</ele><time>2026-04-18T10:15:55Z</time></trkpt><trkpt lat="45.74275040307142" lon="8.500815640445266"><ele>382.0</ele><time>2026-04-18T10:15:57Z</time></trkpt><trkpt lat="45.74259933933242" lon="8.500765706144794"><ele>382.0</ele><time>2026-04-18T10:15:59Z</time></trkpt><trkpt lat="45.74250754868909" lon="8.500739480976922"><ele>382.0</ele><time>2026-04-18T10:16:00Z</time></trkpt><trkpt lat="45.7423995442317" lon="8.500743540796512"><ele>382.0</ele><time>2026-04-18T10:16:01Z</time></trkpt><trkpt lat="45.74229207040321" lon="8.50073239502469"><ele>382.0</ele><time>2026-04-18T10:16:02Z</time></trkpt><trkpt lat="45.74218990137289" lon="8.50073168941715"><ele>382.0</ele><time>2026-04-18T10:16:03Z</time></trkpt><trkpt lat="45.742099946105746" lon="8.500728185926317"><ele>382.0</ele><time>2026-04-18T10:16:04Z</time></trkpt><trkpt lat="45.74200734556231" lon="8.500734106376786"><ele>382.0</ele><time>2026-04-18T10:16:05Z</time></trkpt><trkpt lat="45.74194106716444" lon="8.500736587798801"><ele>382.0</ele><time>2026-04-18T10:16:06Z</time></trkpt><trkpt lat="45.74184692218698" lon="8.500753867410829"><ele>382.0</ele><time>2026-04-18T10:16:07Z</time></trkpt><trkpt lat="45.7417720668819" lon="8.500765736217968"><ele>382.0</ele><time>2026-04-18T10:16:08Z</time></trkpt><trkpt lat="45.74170470201567" lon="8.50077147689943"><ele>382.0</ele><time>2026-04-18T10:16:09Z</time></trkpt><trkpt lat="45.74163968393811" lon="8.500813341024374"><ele>381.20000000000005</ele><time>2026-04-18T10:16:10Z</time></trkpt><trkpt lat="45.74156382088141" lon="8.500857129570564"><ele>380.4</ele><time>2026-04-18T10:16:11Z</time></trkpt><trkpt lat="45.741474938686025" lon="8.50089508096098"><ele>379.6</ele><time>2026-04-18T10:16:12Z</time></trkpt><trkpt lat="45.74138257068625" lon="8.500941181141018"><ele>378.79999999999995</ele><time>2026-04-18T10:16:13Z</time></trkpt><trkpt lat="45.74127972745177" lon="8.500988153423183"><ele>378.0</ele><time>2026-04-18T10:16:14Z</time></trkpt><trkpt lat="45.74120724818225" lon="8.501013860408452"><ele>378.0</ele><time>2026-04-18T10:16:15Z</time></trkpt><trkpt lat="45.741140863156815" lon="8.50104389354776"><ele>378.0</ele><time>2026-04-18T10:16:16Z</time></trkpt><trkpt lat="45.74100629938627" lon="8.501044245008002"><ele>378.0</ele><time>2026-04-18T10:16:18Z</time></trkpt><trkpt lat="45.74093107755972" lon="8.50105872355249"><ele>378.0</ele><time>2026-04-18T10:16:19Z</time></trkpt><trkpt lat="45.740832145087914" lon="8.501075763844815"><ele>378.0</ele><time>2026-04-18T10:16:21Z</time></trkpt><trkpt lat="45.740712168656664" lon="8.50108475145092"><ele>377.2</ele><time>2026-04-18T10:16:23Z</time></trkpt><trkpt lat="45.74064733169282" lon="8.501108387684551"><ele>376.4</ele><time>2026-04-18T10:16:24Z</time></trkpt><trkpt lat="45.74057096019435" lon="8.501144811465421"><ele>375.59999999999997</ele><time>2026-04-18T10:16:26Z</time></trkpt><trkpt lat="45.74047263053632" lon="8.501140354098801"><ele>374.79999999999995</ele><time>2026-04-18T10:16:28Z</time></trkpt><trkpt lat="45.7403574887004" lon="8.501114082154778"><ele>374.0</ele><time>2026-04-18T10:16:30Z</time></trkpt><trkpt lat="45.74027257560131" lon="8.501081575742322"><ele>374.0</ele><time>2026-04-18T10:16:31Z</time></trkpt><trkpt lat="45.740188785530705" lon="8.501089707727882"><ele>374.0</ele><time>2026-04-18T10:16:32Z</time></trkpt><trkpt lat="45.74012185375055" lon="8.50108587049751"><ele>374.0</ele><time>2026-04-18T10:16:33Z</time></trkpt><trkpt lat="45.7400460843396" lon="8.501108430307548"><ele>374.0</ele><time>2026-04-18T10:16:34Z</time></trkpt><trkpt lat="45.73997152604987" lon="8.501127246142909"><ele>374.0</ele><time>2026-04-18T10:16:35Z</time></trkpt><trkpt lat="45.73988999307025" lon="8.501184439997289"><ele>374.0</ele><time>2026-04-18T10:16:37Z</time></trkpt><trkpt lat="45.73981364838074" lon="8.50122048032486"><ele>374.0</ele><time>2026-04-18T10:16:38Z</time></trkpt><trkpt lat="45.73972855493105" lon="8.501232553466888"><ele>374.0</ele><time>2026-04-18T10:16:39Z</time></trkpt><trkpt lat="45.73964822730504" lon="8.50125431089612"><ele>374.0</ele><time>2026-04-18T10:16:40Z</time></trkpt><trkpt lat="45.73958201620799" lon="8.501255172926193"><ele>374.0</ele><time>2026-04-18T10:16:41Z</time></trkpt><trkpt lat="45.73950142609968" lon="8.501264119662517"><ele>374.0</ele><time>2026-04-18T10:16:42Z</time></trkpt><trkpt lat="45.739384436410106" lon="8.501266791054489"><ele>374.0</ele><time>2026-04-18T10:16:43Z</time></trkpt><trkpt lat="45.739298495659355" lon="8.501273248147687"><ele>373.83333333333337</ele><time>2026-04-18T10:16:44Z</time></trkpt><trkpt lat="45.73921786097076" lon="8.501258308183434"><ele>373.6666666666667</ele><time>2026-04-18T10:16:45Z</time></trkpt><trkpt lat="45.73914158499045" lon="8.5012387280863"><ele>373.5</ele><time>2026-04-18T10:16:46Z</time></trkpt><trkpt lat="45.739054010640935" lon="8.501220322973648"><ele>373.3333333333333</ele><time>2026-04-18T10:16:47Z</time></trkpt><trkpt lat="45.73897205465227" lon="8.501216156373989"><ele>373.16666666666663</ele><time>2026-04-18T10:16:48Z</time></trkpt><trkpt lat="45.73890052923134" lon="8.501187059241103"><ele>373.0</ele><time>2026-04-18T10:16:49Z</time></trkpt><trkpt lat="45.73880843960788" lon="8.501165504627066"><ele>373.0</ele><time>2026-04-18T10:16:50Z</time></trkpt><trkpt lat="45.73873386209142" lon="8.501157705174808"><ele>373.0</ele><time>2026-04-18T10:16:51Z</time></trkpt><trkpt lat="45.738667010846136" lon="8.501158066633405"><ele>373.0</ele><time>2026-04-18T10:16:52Z</time></trkpt><trkpt lat="45.738590872394056" lon="8.501162535574839"><ele>373.0</ele><time>2026-04-18T10:16:53Z</time></trkpt><trkpt lat="45.73850373370629" lon="8.501172261866666"><ele>373.0</ele><time>2026-04-18T10:16:54Z</time></trkpt><trkpt lat="45.73840376179719" lon="8.501197817921563"><ele>373.0</ele><time>2026-04-18T10:16:55Z</time></trkpt><trkpt lat="45.73831073247101" lon="8.501226282633057"><ele>372.8333333333333</ele><time>2026-04-18T10:16:56Z</time></trkpt><trkpt lat="45.7382167290408" lon="8.501251793370947"><ele>372.66666666666663</ele><time>2026-04-18T10:16:57Z</time></trkpt><trkpt lat="45.73812347544078" lon="8.50125660879684"><ele>372.5</ele><time>2026-04-18T10:16:58Z</time></trkpt><trkpt lat="45.73803013120406" lon="8.501259222677561"><ele>372.3333333333333</ele><time>2026-04-18T10:16:59Z</time></trkpt><trkpt lat="45.73795451125455" lon="8.501266580363419"><ele>372.1666666666667</ele><time>2026-04-18T10:17:00Z</time></trkpt><trkpt lat="45.73789060756468" lon="8.501272773898062"><ele>372.0</ele><time>2026-04-18T10:17:01Z</time></trkpt><trkpt lat="45.73780180559705" lon="8.501289645625095"><ele>372.0</ele><time>2026-04-18T10:17:02Z</time></trkpt><trkpt lat="45.73773231392644" lon="8.501309404856498"><ele>372.0</ele><time>2026-04-18T10:17:03Z</time></trkpt><trkpt lat="45.73763620814537" lon="8.501338253321354"><ele>372.0</ele><time>2026-04-18T10:17:04Z</time></trkpt><trkpt lat="45.7375503138526" lon="8.501341370584925"><ele>372.0</ele><time>2026-04-18T10:17:05Z</time></trkpt><trkpt lat="45.73745229509769" lon="8.501358732231758"><ele>372.0</ele><time>2026-04-18T10:17:06Z</time></trkpt><trkpt lat="45.73735006940303" lon="8.501377718760525"><ele>372.40000000000003</ele><time>2026-04-18T10:17:07Z</time></trkpt><trkpt lat="45.73725831566151" lon="8.501416407876029"><ele>372.8</ele><time>2026-04-18T10:17:08Z</time></trkpt><trkpt lat="45.7371528156323" lon="8.501415507148083"><ele>373.2</ele><time>2026-04-18T10:17:10Z</time></trkpt><trkpt lat="45.7370691309743" lon="8.501412855656564"><ele>373.6</ele><time>2026-04-18T10:17:11Z</time></trkpt><trkpt lat="45.73699689899227" lon="8.501412028089426"><ele>374.0</ele><time>2026-04-18T10:17:12Z</time></trkpt><trkpt lat="45.73688346539618" lon="8.50141205724612"><ele>373.0</ele><time>2026-04-18T10:17:14Z</time></trkpt><trkpt lat="45.73680985813377" lon="8.501412583390621"><ele>372.0</ele><time>2026-04-18T10:17:15Z</time></trkpt><trkpt lat="45.73669435219176" lon="8.501410255925192"><ele>371.0</ele><time>2026-04-18T10:17:16Z</time></trkpt><trkpt lat="45.73658246996577" lon="8.501405170303943"><ele>370.0</ele><time>2026-04-18T10:17:17Z</time></trkpt><trkpt lat="45.73648248708884" lon="8.501397117121645"><ele>369.0</ele><time>2026-04-18T10:17:18Z</time></trkpt><trkpt lat="45.736401575821844" lon="8.50144099164859"><ele>369.0</ele><time>2026-04-18T10:17:19Z</time></trkpt><trkpt lat="45.73631521208445" lon="8.501427771785917"><ele>369.0</ele><time>2026-04-18T10:17:21Z</time></trkpt><trkpt lat="45.736251417722265" lon="8.501458984506094"><ele>369.0</ele><time>2026-04-18T10:17:24Z</time></trkpt><trkpt lat="45.73616253442507" lon="8.501438419238967"><ele>369.0</ele><time>2026-04-18T10:17:30Z</time></trkpt><trkpt lat="45.736056410709445" lon="8.501363505106484"><ele>369.0</ele><time>2026-04-18T10:17:31Z</time></trkpt><trkpt lat="45.73599013629941" lon="8.501298854772541"><ele>369.0</ele><time>2026-04-18T10:17:32Z</time></trkpt><trkpt lat="45.735926658599546" lon="8.50123027803719"><ele>368.3333333333333</ele><time>2026-04-18T10:17:33Z</time></trkpt><trkpt lat="45.73585883425552" lon="8.501152081539653"><ele>367.6666666666667</ele><time>2026-04-18T10:17:34Z</time></trkpt><trkpt lat="45.73582630320278" lon="8.501066935871563"><ele>367.0</ele><time>2026-04-18T10:17:35Z</time></trkpt><trkpt lat="45.73577368266967" lon="8.500996401553655"><ele>366.33333333333337</ele><time>2026-04-18T10:17:36Z</time></trkpt><trkpt lat="45.73570205773569" lon="8.500895420763154"><ele>365.6666666666667</ele><time>2026-04-18T10:17:38Z</time></trkpt><trkpt lat="45.73563098739388" lon="8.500811649352276"><ele>365.0</ele><time>2026-04-18T10:17:40Z</time></trkpt><trkpt lat="45.735518778359086" lon="8.500668867604396"><ele>365.0</ele><time>2026-04-18T10:17:43Z</time></trkpt><trkpt lat="45.73544905833197" lon="8.500582408562439"><ele>365.0</ele><time>2026-04-18T10:17:46Z</time></trkpt><trkpt lat="45.73539613236198" lon="8.50049433703492"><ele>365.0</ele><time>2026-04-18T10:17:48Z</time></trkpt><trkpt lat="45.73534546603429" lon="8.500440668522272"><ele>365.0</ele><time>2026-04-18T10:17:49Z</time></trkpt><trkpt lat="45.73527800880439" lon="8.500359227986173"><ele>365.0</ele><time>2026-04-18T10:17:50Z</time></trkpt><trkpt lat="45.73522358287788" lon="8.500282464193445"><ele>365.0</ele><time>2026-04-18T10:17:52Z</time></trkpt><trkpt lat="45.735145117055" lon="8.500201354777154"><ele>363.8</ele><time>2026-04-18T10:17:54Z</time></trkpt><trkpt lat="45.735067226226185" lon="8.500180049169186"><ele>362.6</ele><time>2026-04-18T10:17:55Z</time></trkpt><trkpt lat="45.734971224900285" lon="8.500150867491453"><ele>361.4</ele><time>2026-04-18T10:17:56Z</time></trkpt><trkpt lat="45.73489189385561" lon="8.500110665292345"><ele>360.2</ele><time>2026-04-18T10:17:57Z</time></trkpt><trkpt lat="45.73482620387746" lon="8.500074283575772"><ele>359.0</ele><time>2026-04-18T10:17:58Z</time></trkpt><trkpt lat="45.73469907918192" lon="8.5000038767693"><ele>359.0</ele><time>2026-04-18T10:18:00Z</time></trkpt><trkpt lat="45.73462845589337" lon="8.499988348049078"><ele>359.0</ele><time>2026-04-18T10:18:01Z</time></trkpt><trkpt lat="45.73455921634022" lon="8.49994860737618"><ele>359.0</ele><time>2026-04-18T10:18:02Z</time></trkpt><trkpt lat="45.7344901997383" lon="8.499893241755844"><ele>359.0</ele><time>2026-04-18T10:18:03Z</time></trkpt><trkpt lat="45.73439919132594" lon="8.499870432650786"><ele>359.0</ele><time>2026-04-18T10:18:04Z</time></trkpt><trkpt lat="45.73431261043129" lon="8.49981653632339"><ele>359.0</ele><time>2026-04-18T10:18:05Z</time></trkpt><trkpt lat="45.734225455014325" lon="8.499777085789118"><ele>358.4</ele><time>2026-04-18T10:18:06Z</time></trkpt><trkpt lat="45.734136508890984" lon="8.49975809521296"><ele>357.79999999999995</ele><time>2026-04-18T10:18:07Z</time></trkpt><trkpt lat="45.7340410399477" lon="8.499725933178398"><ele>357.20000000000005</ele><time>2026-04-18T10:18:08Z</time></trkpt><trkpt lat="45.733958537736584" lon="8.49965854029191"><ele>356.6</ele><time>2026-04-18T10:18:09Z</time></trkpt><trkpt lat="45.733874632440084" lon="8.499601265131961"><ele>356.0</ele><time>2026-04-18T10:18:10Z</time></trkpt><trkpt lat="45.733799140016195" lon="8.499573331623376"><ele>355.6</ele><time>2026-04-18T10:18:11Z</time></trkpt><trkpt lat="45.73371327970627" lon="8.499506716602617"><ele>355.20000000000005</ele><time>2026-04-18T10:18:12Z</time></trkpt><trkpt lat="45.73362246423677" lon="8.499458088204753"><ele>354.79999999999995</ele><time>2026-04-18T10:18:13Z</time></trkpt><trkpt lat="45.73353398037535" lon="8.499408102140185"><ele>354.4</ele><time>2026-04-18T10:18:14Z</time></trkpt><trkpt lat="45.73344596194626" lon="8.499366527709533"><ele>354.0</ele><time>2026-04-18T10:18:15Z</time></trkpt><trkpt lat="45.733367934553" lon="8.499314983497024"><ele>353.6</ele><time>2026-04-18T10:18:16Z</time></trkpt><trkpt lat="45.73328665056912" lon="8.499303399209987"><ele>353.2</ele><time>2026-04-18T10:18:17Z</time></trkpt><trkpt lat="45.73315073881664" lon="8.499243857814568"><ele>352.8</ele><time>2026-04-18T10:18:19Z</time></trkpt><trkpt lat="45.733064666384465" lon="8.499222739714291"><ele>352.40000000000003</ele><time>2026-04-18T10:18:20Z</time></trkpt><trkpt lat="45.732950228925965" lon="8.499214425706533"><ele>352.0</ele><time>2026-04-18T10:18:21Z</time></trkpt><trkpt lat="45.73284057291377" lon="8.499214905107285"><ele>352.0</ele><time>2026-04-18T10:18:22Z</time></trkpt><trkpt lat="45.7327369789286" lon="8.499216104631909"><ele>352.0</ele><time>2026-04-18T10:18:23Z</time></trkpt><trkpt lat="45.732637580098704" lon="8.499247410350833"><ele>352.0</ele><time>2026-04-18T10:18:24Z</time></trkpt><trkpt lat="45.73255251905478" lon="8.499282107375683"><ele>352.0</ele><time>2026-04-18T10:18:25Z</time></trkpt><trkpt lat="45.73248580273439" lon="8.499292708336045"><ele>352.0</ele><time>2026-04-18T10:18:26Z</time></trkpt><trkpt lat="45.73241384638953" lon="8.499282199280671"><ele>352.0</ele><time>2026-04-18T10:18:27Z</time></trkpt><trkpt lat="45.73234163309556" lon="8.49928802305863"><ele>351.5</ele><time>2026-04-18T10:18:28Z</time></trkpt><trkpt lat="45.73222599801354" lon="8.499293677978304"><ele>351.0</ele><time>2026-04-18T10:18:30Z</time></trkpt><trkpt lat="45.732157134399394" lon="8.49929473837479"><ele>350.5</ele><time>2026-04-18T10:18:31Z</time></trkpt><trkpt lat="45.732087426644746" lon="8.499297420772747"><ele>350.0</ele><time>2026-04-18T10:18:32Z</time></trkpt><trkpt lat="45.73201886420124" lon="8.499285376362582"><ele>349.5</ele><time>2026-04-18T10:18:33Z</time></trkpt><trkpt lat="45.73195571563989" lon="8.499272548538796"><ele>349.0</ele><time>2026-04-18T10:18:34Z</time></trkpt><trkpt lat="45.73189498632001" lon="8.499232743317863"><ele>348.79999999999995</ele><time>2026-04-18T10:18:35Z</time></trkpt><trkpt lat="45.73182320771102" lon="8.499362881305759"><ele>348.59999999999997</ele><time>2026-04-18T10:18:36Z</time></trkpt><trkpt lat="45.73181355220429" lon="8.49953179785513"><ele>348.4</ele><time>2026-04-18T10:18:37Z</time></trkpt><trkpt lat="45.731798055856785" lon="8.499687043305384"><ele>348.2</ele><time>2026-04-18T10:18:38Z</time></trkpt><trkpt lat="45.73176932733024" lon="8.499814771291964"><ele>348.0</ele><time>2026-04-18T10:18:39Z</time></trkpt><trkpt lat="45.73175688211159" lon="8.499904679590053"><ele>348.0</ele><time>2026-04-18T10:18:40Z</time></trkpt><trkpt lat="45.73170607672744" lon="8.499967751263688"><ele>348.0</ele><time>2026-04-18T10:18:42Z</time></trkpt><trkpt lat="45.73164662366167" lon="8.500052863184864"><ele>348.0</ele><time>2026-04-18T10:18:44Z</time></trkpt><trkpt lat="45.7315004610875" lon="8.499904639196826"><ele>348.0</ele><time>2026-04-18T10:18:45Z</time></trkpt><trkpt lat="45.73144157907743" lon="8.499833618180872"><ele>348.0</ele><time>2026-04-18T10:18:46Z</time></trkpt><trkpt lat="45.731352809271904" lon="8.499758196296993"><ele>348.0</ele><time>2026-04-18T10:18:48Z</time></trkpt><trkpt lat="45.731260450408556" lon="8.499662469895286"><ele>348.0</ele><time>2026-04-18T10:18:50Z</time></trkpt><trkpt lat="45.73120422103384" lon="8.499608469077714"><ele>348.0</ele><time>2026-04-18T10:18:52.001Z</time></trkpt><trkpt lat="45.73112884655327" lon="8.499794075702876"><ele>348.0</ele><time>2026-04-18T10:18:54.001Z</time></trkpt><trkpt lat="45.731074474296854" lon="8.499874879940844"><ele>348.0</ele><time>2026-04-18T10:19:21.001Z</time></trkpt><trkpt lat="45.73113013990061" lon="8.499998705030851"><ele>348.0</ele><time>2026-04-18T10:19:23.001Z</time></trkpt><trkpt lat="45.73121394492627" lon="8.500081864486521"><ele>348.0</ele><time>2026-04-18T10:19:25.001Z</time></trkpt><trkpt lat="45.73128623872923" lon="8.500148652371244"><ele>348.0</ele><time>2026-04-18T10:19:27.001Z</time></trkpt><trkpt lat="45.73134514106324" lon="8.500208399312186"><ele>348.0</ele><time>2026-04-18T10:19:29.001Z</time></trkpt><trkpt lat="45.731309390128935" lon="8.500128272313296"><ele>348.0</ele><time>2026-04-18T10:19:40Z</time></trkpt><trkpt lat="45.73124816979326" lon="8.500068179893457"><ele>348.0</ele><time>2026-04-18T10:19:42Z</time></trkpt><trkpt lat="45.73122157651503" lon="8.500176427533876"><ele>348.0</ele><time>2026-04-18T10:19:45Z</time></trkpt><trkpt lat="45.731311993334494" lon="8.500246192156224"><ele>348.0</ele><time>2026-04-18T10:19:48Z</time></trkpt><trkpt lat="45.7313691263277" lon="8.500302272223982"><ele>348.0</ele><time>2026-04-18T10:19:49Z</time></trkpt><trkpt lat="45.73128729223484" lon="8.500706683940804"><ele>348.5</ele><time>2026-04-18T10:19:51Z</time></trkpt><trkpt lat="45.731261978218704" lon="8.500847557937815"><ele>349.0</ele><time>2026-04-18T10:19:53Z</time></trkpt><trkpt lat="45.731260292394275" lon="8.500941854364934"><ele>349.5</ele><time>2026-04-18T10:19:55Z</time></trkpt><trkpt lat="45.73126929268378" lon="8.50105785124584"><ele>350.0</ele><time>2026-04-18T10:19:57Z</time></trkpt><trkpt lat="45.73128665633049" lon="8.501230599286288"><ele>350.5</ele><time>2026-04-18T10:19:59Z</time></trkpt><trkpt lat="45.73130131508243" lon="8.501334720980447"><ele>351.0</ele><time>2026-04-18T10:20:00Z</time></trkpt><trkpt lat="45.731291408859654" lon="8.50143023919085"><ele>351.4</ele><time>2026-04-18T10:20:01Z</time></trkpt><trkpt lat="45.73123423122198" lon="8.50162433635361"><ele>351.8</ele><time>2026-04-18T10:20:03Z</time></trkpt><trkpt lat="45.73119903206818" lon="8.501726763129971"><ele>352.2</ele><time>2026-04-18T10:20:04Z</time></trkpt><trkpt lat="45.73116296448949" lon="8.501829104360189"><ele>352.59999999999997</ele><time>2026-04-18T10:20:05Z</time></trkpt><trkpt lat="45.73112532986169" lon="8.501937158099846"><ele>353.0</ele><time>2026-04-18T10:20:06Z</time></trkpt><trkpt lat="45.73108559645821" lon="8.502026462970322"><ele>353.75</ele><time>2026-04-18T10:20:07Z</time></trkpt><trkpt lat="45.73107645153519" lon="8.502233690079073"><ele>354.5</ele><time>2026-04-18T10:20:09Z</time></trkpt><trkpt lat="45.7310081148185" lon="8.50242223495426"><ele>355.25</ele><time>2026-04-18T10:20:11Z</time></trkpt><trkpt lat="45.73097881647809" lon="8.50255753496587"><ele>356.0</ele><time>2026-04-18T10:20:12Z</time></trkpt><trkpt lat="45.73096939420391" lon="8.502678931525834"><ele>356.0</ele><time>2026-04-18T10:20:13Z</time></trkpt><trkpt lat="45.730956330608954" lon="8.502795624506447"><ele>356.0</ele><time>2026-04-18T10:20:14Z</time></trkpt><trkpt lat="45.73094041821106" lon="8.502897728033835"><ele>356.0</ele><time>2026-04-18T10:20:15Z</time></trkpt><trkpt lat="45.73093851428215" lon="8.503054334931939"><ele>356.0</ele><time>2026-04-18T10:20:17Z</time></trkpt><trkpt lat="45.73093618129984" lon="8.503170006215706"><ele>356.0</ele><time>2026-04-18T10:20:18Z</time></trkpt><trkpt lat="45.7309365662299" lon="8.503332978188912"><ele>356.1666666666667</ele><time>2026-04-18T10:20:19Z</time></trkpt><trkpt lat="45.7309512271491" lon="8.503488814807977"><ele>356.33333333333337</ele><time>2026-04-18T10:20:20Z</time></trkpt><trkpt lat="45.7309322443647" lon="8.503616844936984"><ele>356.5</ele><time>2026-04-18T10:20:21Z</time></trkpt><trkpt lat="45.73093949585342" lon="8.503719266849577"><ele>356.6666666666667</ele><time>2026-04-18T10:20:22Z</time></trkpt><trkpt lat="45.73096371488928" lon="8.50380276078967"><ele>356.8333333333333</ele><time>2026-04-18T10:20:23Z</time></trkpt><trkpt lat="45.73096107049046" lon="8.503911079475843"><ele>357.0</ele><time>2026-04-18T10:20:24.001Z</time></trkpt><trkpt lat="45.7309392390243" lon="8.504040719773943"><ele>357.5</ele><time>2026-04-18T10:20:25.001Z</time></trkpt><trkpt lat="45.730922054950746" lon="8.504154478330014"><ele>358.0</ele><time>2026-04-18T10:20:26.001Z</time></trkpt><trkpt lat="45.73092938200827" lon="8.504264074283206"><ele>358.5</ele><time>2026-04-18T10:20:27.001Z</time></trkpt><trkpt lat="45.73092560796947" lon="8.504385255734816"><ele>359.0</ele><time>2026-04-18T10:20:28.001Z</time></trkpt><trkpt lat="45.7309227480241" lon="8.504496274102797"><ele>359.5</ele><time>2026-04-18T10:20:29.001Z</time></trkpt><trkpt lat="45.73090953017207" lon="8.504600808795054"><ele>360.0</ele><time>2026-04-18T10:20:30.001Z</time></trkpt><trkpt lat="45.730886255537385" lon="8.504702924958687"><ele>361.4</ele><time>2026-04-18T10:20:31.001Z</time></trkpt><trkpt lat="45.73093889585698" lon="8.504931610788098"><ele>362.8</ele><time>2026-04-18T10:20:33.001Z</time></trkpt><trkpt lat="45.7309557199531" lon="8.505032740235453"><ele>364.20000000000005</ele><time>2026-04-18T10:20:34.001Z</time></trkpt><trkpt lat="45.73098217889778" lon="8.505194246036362"><ele>365.6</ele><time>2026-04-18T10:20:36.001Z</time></trkpt><trkpt lat="45.730986261241625" lon="8.505293721245145"><ele>367.0</ele><time>2026-04-18T10:20:37.001Z</time></trkpt><trkpt lat="45.730932743340944" lon="8.505393648558858"><ele>368.0</ele><time>2026-04-18T10:20:40.001Z</time></trkpt><trkpt lat="45.73087341479677" lon="8.505572571410049"><ele>369.0</ele><time>2026-04-18T10:20:42.001Z</time></trkpt><trkpt lat="45.730832809675825" lon="8.50564255849323"><ele>370.0</ele><time>2026-04-18T10:20:44.001Z</time></trkpt><trkpt lat="45.73078097765477" lon="8.505707270762832"><ele>371.0</ele><time>2026-04-18T10:20:45.001Z</time></trkpt><trkpt lat="45.730717146850125" lon="8.505771273890563"><ele>372.0</ele><time>2026-04-18T10:20:49.001Z</time></trkpt><trkpt lat="45.73063458308885" lon="8.505878301394953"><ele>372.0</ele><time>2026-04-18T10:20:51.001Z</time></trkpt><trkpt lat="45.73058067032754" lon="8.506031211634717"><ele>372.0</ele><time>2026-04-18T10:20:53.001Z</time></trkpt><trkpt lat="45.7305461330933" lon="8.506139382500471"><ele>372.0</ele><time>2026-04-18T10:20:55.001Z</time></trkpt><trkpt lat="45.730519930128516" lon="8.506298372361506"><ele>372.0</ele><time>2026-04-18T10:20:57.001Z</time></trkpt><trkpt lat="45.730529820473265" lon="8.506398520357367"><ele>372.0</ele><time>2026-04-18T10:20:58.001Z</time></trkpt><trkpt lat="45.73053641297281" lon="8.50649974624057"><ele>372.3333333333333</ele><time>2026-04-18T10:20:59.001Z</time></trkpt><trkpt lat="45.73057233069978" lon="8.506608287807712"><ele>372.6666666666667</ele><time>2026-04-18T10:21:01.001Z</time></trkpt><trkpt lat="45.730556303951225" lon="8.506698967814618"><ele>373.0</ele><time>2026-04-18T10:21:03.001Z</time></trkpt><trkpt lat="45.730509255921845" lon="8.506840684377146"><ele>373.33333333333337</ele><time>2026-04-18T10:21:05.001Z</time></trkpt><trkpt lat="45.73049949052394" lon="8.506940349669586"><ele>373.6666666666667</ele><time>2026-04-18T10:21:06.001Z</time></trkpt><trkpt lat="45.73048961978597" lon="8.507039314940991"><ele>374.0</ele><time>2026-04-18T10:21:07.001Z</time></trkpt><trkpt lat="45.73045102434605" lon="8.507158837891945"><ele>374.0</ele><time>2026-04-18T10:21:09.001Z</time></trkpt><trkpt lat="45.7304652643266" lon="8.507283981001242"><ele>374.0</ele><time>2026-04-18T10:21:11.001Z</time></trkpt><trkpt lat="45.730510462917756" lon="8.507387856738026"><ele>374.0</ele><time>2026-04-18T10:21:13.001Z</time></trkpt><trkpt lat="45.7305882786813" lon="8.50742348856592"><ele>374.0</ele><time>2026-04-18T10:21:15.001Z</time></trkpt><trkpt lat="45.73065416205992" lon="8.507417796315972"><ele>374.0</ele><time>2026-04-18T10:21:16.001Z</time></trkpt><trkpt lat="45.73074362620623" lon="8.507425746984154"><ele>374.0</ele><time>2026-04-18T10:21:18.001Z</time></trkpt><trkpt lat="45.730828000361434" lon="8.507483806489915"><ele>374.0</ele><time>2026-04-18T10:21:20.001Z</time></trkpt><trkpt lat="45.7308802480227" lon="8.507589806162038"><ele>374.0</ele><time>2026-04-18T10:21:23.001Z</time></trkpt><trkpt lat="45.73084514294235" lon="8.507705917967565"><ele>374.0</ele><time>2026-04-18T10:21:26.001Z</time></trkpt><trkpt lat="45.73080818096309" lon="8.50787281473775"><ele>374.0</ele><time>2026-04-18T10:21:28.001Z</time></trkpt><trkpt lat="45.730926034866116" lon="8.508012251387678"><ele>372.1666666666667</ele><time>2026-04-18T10:21:29.001Z</time></trkpt><trkpt lat="45.73090997385739" lon="8.508115242102276"><ele>370.33333333333337</ele><time>2026-04-18T10:21:30.001Z</time></trkpt><trkpt lat="45.7309008659273" lon="8.508236946320062"><ele>368.5</ele><time>2026-04-18T10:21:31.001Z</time></trkpt><trkpt lat="45.73089926769445" lon="8.50836012840526"><ele>366.6666666666667</ele><time>2026-04-18T10:21:32.001Z</time></trkpt><trkpt lat="45.73090599398903" lon="8.508481084198063"><ele>364.8333333333333</ele><time>2026-04-18T10:21:33.001Z</time></trkpt><trkpt lat="45.73092240931147" lon="8.508594430983365"><ele>363.0</ele><time>2026-04-18T10:21:34.001Z</time></trkpt><trkpt lat="45.73098303857201" lon="8.50873662010478"><ele>362.25</ele><time>2026-04-18T10:21:35.001Z</time></trkpt><trkpt lat="45.73088330267871" lon="8.50889781323673"><ele>361.5</ele><time>2026-04-18T10:21:36.001Z</time></trkpt><trkpt lat="45.730909687623935" lon="8.509026176157155"><ele>360.75</ele><time>2026-04-18T10:21:37.001Z</time></trkpt><trkpt lat="45.730905724485666" lon="8.509173743019554"><ele>360.0</ele><time>2026-04-18T10:21:38.001Z</time></trkpt><trkpt lat="45.730904488889585" lon="8.509323805634478"><ele>360.0</ele><time>2026-04-18T10:21:39.001Z</time></trkpt><trkpt lat="45.73108351697074" lon="8.509449414351781"><ele>360.0</ele><time>2026-04-18T10:21:40.001Z</time></trkpt><trkpt lat="45.731095213025924" lon="8.50961955332772"><ele>360.0</ele><time>2026-04-18T10:21:41.001Z</time></trkpt><trkpt lat="45.73109927254794" lon="8.50978385571669"><ele>360.0</ele><time>2026-04-18T10:21:42.001Z</time></trkpt><trkpt lat="45.731097047153014" lon="8.509925028412304"><ele>360.25</ele><time>2026-04-18T10:21:43.001Z</time></trkpt><trkpt lat="45.73109050122526" lon="8.510083290691162"><ele>360.5</ele><time>2026-04-18T10:21:44.001Z</time></trkpt><trkpt lat="45.73107099358837" lon="8.5102639822077"><ele>360.75</ele><time>2026-04-18T10:21:45.001Z</time></trkpt><trkpt lat="45.73104680951637" lon="8.510425744550398"><ele>361.0</ele><time>2026-04-18T10:21:46.001Z</time></trkpt><trkpt lat="45.73098655630962" lon="8.510660638115874"><ele>361.20000000000005</ele><time>2026-04-18T10:21:47.001Z</time></trkpt><trkpt lat="45.73092515543474" lon="8.510847796347015"><ele>361.40000000000003</ele><time>2026-04-18T10:21:48.001Z</time></trkpt><trkpt lat="45.730869763259236" lon="8.510984265593176"><ele>361.6</ele><time>2026-04-18T10:21:49Z</time></trkpt><trkpt lat="45.73081751403729" lon="8.511094649919194"><ele>361.8</ele><time>2026-04-18T10:21:50Z</time></trkpt><trkpt lat="45.73075987614736" lon="8.511204130296036"><ele>362.0</ele><time>2026-04-18T10:21:51Z</time></trkpt><trkpt lat="45.730686135021806" lon="8.511344290976428"><ele>362.0</ele><time>2026-04-18T10:21:52Z</time></trkpt><trkpt lat="45.73058799651114" lon="8.511514447611143"><ele>362.0</ele><time>2026-04-18T10:21:53Z</time></trkpt><trkpt lat="45.73049129758206" lon="8.511689998668833"><ele>362.0</ele><time>2026-04-18T10:21:54Z</time></trkpt><trkpt lat="45.73036345115255" lon="8.511850193035624"><ele>362.0</ele><time>2026-04-18T10:21:55Z</time></trkpt><trkpt lat="45.73026533288037" lon="8.51199441147423"><ele>362.0</ele><time>2026-04-18T10:21:56Z</time></trkpt><trkpt lat="45.73015205738196" lon="8.51216090874969"><ele>362.0</ele><time>2026-04-18T10:21:57Z</time></trkpt><trkpt lat="45.73003126068783" lon="8.512338461061072"><ele>362.0</ele><time>2026-04-18T10:21:58Z</time></trkpt><trkpt lat="45.72994396035882" lon="8.512466778806864"><ele>362.0</ele><time>2026-04-18T10:21:59Z</time></trkpt><trkpt lat="45.72987089750026" lon="8.512578528620546"><ele>362.0</ele><time>2026-04-18T10:22:00Z</time></trkpt><trkpt lat="45.72980847528234" lon="8.512674185018604"><ele>362.0</ele><time>2026-04-18T10:22:01Z</time></trkpt><trkpt lat="45.72973746574817" lon="8.51278300077355"><ele>362.0</ele><time>2026-04-18T10:22:02Z</time></trkpt><trkpt lat="45.72965047578251" lon="8.51291630510008"><ele>363.0</ele><time>2026-04-18T10:22:03Z</time></trkpt><trkpt lat="45.729552038744025" lon="8.513067150972484"><ele>364.0</ele><time>2026-04-18T10:22:04Z</time></trkpt><trkpt lat="45.729445078657584" lon="8.513232848153303"><ele>365.0</ele><time>2026-04-18T10:22:05Z</time></trkpt><trkpt lat="45.72936263554678" lon="8.513362913893664"><ele>366.0</ele><time>2026-04-18T10:22:06Z</time></trkpt><trkpt lat="45.72929167619262" lon="8.513474862287975"><ele>366.0</ele><time>2026-04-18T10:22:07Z</time></trkpt><trkpt lat="45.72921166032198" lon="8.513601098656569"><ele>366.0</ele><time>2026-04-18T10:22:08Z</time></trkpt><trkpt lat="45.7291361215795" lon="8.513720208464363"><ele>366.0</ele><time>2026-04-18T10:22:09Z</time></trkpt><trkpt lat="45.72904847959903" lon="8.513857500952739"><ele>366.0</ele><time>2026-04-18T10:22:10Z</time></trkpt><trkpt lat="45.72896758589628" lon="8.513987711169953"><ele>364.25</ele><time>2026-04-18T10:22:11Z</time></trkpt><trkpt lat="45.72888035365756" lon="8.514129160304037"><ele>362.5</ele><time>2026-04-18T10:22:12Z</time></trkpt><trkpt lat="45.72879849284869" lon="8.514261899708067"><ele>360.75</ele><time>2026-04-18T10:22:13Z</time></trkpt><trkpt lat="45.72872722219923" lon="8.514377732868628"><ele>359.0</ele><time>2026-04-18T10:22:14Z</time></trkpt><trkpt lat="45.72866291340967" lon="8.514481305756101"><ele>359.0</ele><time>2026-04-18T10:22:15Z</time></trkpt><trkpt lat="45.7286160352635" lon="8.514556805628985"><ele>359.0</ele><time>2026-04-18T10:22:16Z</time></trkpt><trkpt lat="45.72855758037407" lon="8.51465095067854"><ele>359.0</ele><time>2026-04-18T10:22:17Z</time></trkpt><trkpt lat="45.728512945884894" lon="8.514722836795274"><ele>359.0</ele><time>2026-04-18T10:22:18Z</time></trkpt><trkpt lat="45.728426980932326" lon="8.514861288212442"><ele>359.0</ele><time>2026-04-18T10:22:20Z</time></trkpt><trkpt lat="45.72836732725321" lon="8.514957363743582"><ele>359.0</ele><time>2026-04-18T10:22:21Z</time></trkpt><trkpt lat="45.72830150282717" lon="8.515063377631312"><ele>359.4</ele><time>2026-04-18T10:22:22Z</time></trkpt><trkpt lat="45.728232231463764" lon="8.515174943025063"><ele>359.79999999999995</ele><time>2026-04-18T10:22:23Z</time></trkpt><trkpt lat="45.72816069940254" lon="8.515290149410204"><ele>360.20000000000005</ele><time>2026-04-18T10:22:24.001Z</time></trkpt><trkpt lat="45.72808636139897" lon="8.515409256610473"><ele>360.6</ele><time>2026-04-18T10:22:25.001Z</time></trkpt><trkpt lat="45.72801852500393" lon="8.51551671100848"><ele>361.0</ele><time>2026-04-18T10:22:26.001Z</time></trkpt><trkpt lat="45.72792849495809" lon="8.515659320677276"><ele>360.75</ele><time>2026-04-18T10:22:27.001Z</time></trkpt><trkpt lat="45.72783556905101" lon="8.515806517506148"><ele>360.5</ele><time>2026-04-18T10:22:28.001Z</time></trkpt><trkpt lat="45.72775017787066" lon="8.515941779078704"><ele>360.25</ele><time>2026-04-18T10:22:29.001Z</time></trkpt><trkpt lat="45.72766492628213" lon="8.516076819628879"><ele>360.0</ele><time>2026-04-18T10:22:30.001Z</time></trkpt><trkpt lat="45.727601245041754" lon="8.51617769213849"><ele>358.6</ele><time>2026-04-18T10:22:31.001Z</time></trkpt><trkpt lat="45.72753042166143" lon="8.5162898780825"><ele>357.2</ele><time>2026-04-18T10:22:32.001Z</time></trkpt><trkpt lat="45.72745951850478" lon="8.51640219039854"><ele>355.79999999999995</ele><time>2026-04-18T10:22:33.001Z</time></trkpt><trkpt lat="45.727381983267364" lon="8.516525008007504"><ele>354.4</ele><time>2026-04-18T10:22:34.001Z</time></trkpt><trkpt lat="45.727305546400274" lon="8.516646085826594"><ele>353.0</ele><time>2026-04-18T10:22:35.001Z</time></trkpt><trkpt lat="45.72723049974263" lon="8.516764961368542"><ele>353.0</ele><time>2026-04-18T10:22:36.001Z</time></trkpt><trkpt lat="45.727154039259" lon="8.516886076711259"><ele>353.0</ele><time>2026-04-18T10:22:37.001Z</time></trkpt><trkpt lat="45.72709539033562" lon="8.516978977832391"><ele>353.0</ele><time>2026-04-18T10:22:38.001Z</time></trkpt><trkpt lat="45.72703585554349" lon="8.51707328262871"><ele>353.0</ele><time>2026-04-18T10:22:39.001Z</time></trkpt><trkpt lat="45.7269787986908" lon="8.517163662011583"><ele>353.0</ele><time>2026-04-18T10:22:40.001Z</time></trkpt><trkpt lat="45.72690696311928" lon="8.517274521292075"><ele>353.0</ele><time>2026-04-18T10:22:41.001Z</time></trkpt><trkpt lat="45.72683596389497" lon="8.517382274986177"><ele>353.0</ele><time>2026-04-18T10:22:42.001Z</time></trkpt><trkpt lat="45.726760394559236" lon="8.517496965005021"><ele>353.0</ele><time>2026-04-18T10:22:43.001Z</time></trkpt><trkpt lat="45.726693514836704" lon="8.51759846678032"><ele>353.0</ele><time>2026-04-18T10:22:44.001Z</time></trkpt><trkpt lat="45.726639025299946" lon="8.517678350988785"><ele>353.0</ele><time>2026-04-18T10:22:45.001Z</time></trkpt><trkpt lat="45.72659078302234" lon="8.517748508737931"><ele>353.0</ele><time>2026-04-18T10:22:46.001Z</time></trkpt><trkpt lat="45.72653167376209" lon="8.517834470207672"><ele>353.0</ele><time>2026-04-18T10:22:47.001Z</time></trkpt><trkpt lat="45.72647076796929" lon="8.517923044038058"><ele>353.0</ele><time>2026-04-18T10:22:48.001Z</time></trkpt><trkpt lat="45.726401196998545" lon="8.518024219363173"><ele>353.0</ele><time>2026-04-18T10:22:49.001Z</time></trkpt><trkpt lat="45.72631418009777" lon="8.518151156958833"><ele>353.0</ele><time>2026-04-18T10:22:50.001Z</time></trkpt><trkpt lat="45.72622997113609" lon="8.518274115032241"><ele>353.5</ele><time>2026-04-18T10:22:51.001Z</time></trkpt><trkpt lat="45.7261513877453" lon="8.518388511289722"><ele>354.0</ele><time>2026-04-18T10:22:52.001Z</time></trkpt><trkpt lat="45.72606386478308" lon="8.518512567554579"><ele>354.5</ele><time>2026-04-18T10:22:53.001Z</time></trkpt><trkpt lat="45.725969174242756" lon="8.518643776150542"><ele>355.0</ele><time>2026-04-18T10:22:54.001Z</time></trkpt><trkpt lat="45.725878406821806" lon="8.51876954868523"><ele>353.75</ele><time>2026-04-18T10:22:55.001Z</time></trkpt><trkpt lat="45.72578412453094" lon="8.518900191678068"><ele>352.5</ele><time>2026-04-18T10:22:56.001Z</time></trkpt><trkpt lat="45.72569076597133" lon="8.519028177051094"><ele>351.25</ele><time>2026-04-18T10:22:57.001Z</time></trkpt><trkpt lat="45.72559438023154" lon="8.51915485487935"><ele>350.0</ele><time>2026-04-18T10:22:58.001Z</time></trkpt><trkpt lat="45.72551892156375" lon="8.519254028609797"><ele>350.0</ele><time>2026-04-18T10:22:59.001Z</time></trkpt><trkpt lat="45.72543702915335" lon="8.5193616582039"><ele>350.0</ele><time>2026-04-18T10:23:00.001Z</time></trkpt><trkpt lat="45.72536552103273" lon="8.519455639902985"><ele>350.0</ele><time>2026-04-18T10:23:01.001Z</time></trkpt><trkpt lat="45.72531264333259" lon="8.51952513599265"><ele>350.0</ele><time>2026-04-18T10:23:03.001Z</time></trkpt><trkpt lat="45.725147810160365" lon="8.519212969133457"><ele>350.0</ele><time>2026-04-18T10:23:10.001Z</time></trkpt><trkpt lat="45.725186300940145" lon="8.519291350304615"><ele>350.0</ele><time>2026-04-18T10:23:13.001Z</time></trkpt><trkpt lat="45.72517363589546" lon="8.519452189581555"><ele>350.0</ele><time>2026-04-18T10:23:15.001Z</time></trkpt><trkpt lat="45.72515697741568" lon="8.519724360734232"><ele>350.0</ele><time>2026-04-18T10:23:17.001Z</time></trkpt><trkpt lat="45.72507515482968" lon="8.519826183716066"><ele>350.0</ele><time>2026-04-18T10:23:18.001Z</time></trkpt><trkpt lat="45.72497494197808" lon="8.51995089229893"><ele>350.0</ele><time>2026-04-18T10:23:19.001Z</time></trkpt><trkpt lat="45.72486473254188" lon="8.520085386782462"><ele>350.0</ele><time>2026-04-18T10:23:20.001Z</time></trkpt><trkpt lat="45.724739441726996" lon="8.520237038165348"><ele>350.0</ele><time>2026-04-18T10:23:21.001Z</time></trkpt><trkpt lat="45.72460478724474" lon="8.520400023283141"><ele>349.33333333333337</ele><time>2026-04-18T10:23:22.001Z</time></trkpt><trkpt lat="45.72447128742559" lon="8.520561610792983"><ele>348.6666666666667</ele><time>2026-04-18T10:23:23.001Z</time></trkpt><trkpt lat="45.72433884539314" lon="8.520719232027426"><ele>348.0</ele><time>2026-04-18T10:23:24.001Z</time></trkpt><trkpt lat="45.724221229690016" lon="8.520854257510457"><ele>348.0</ele><time>2026-04-18T10:23:25.001Z</time></trkpt><trkpt lat="45.724101714285474" lon="8.52099146387022"><ele>348.0</ele><time>2026-04-18T10:23:26.001Z</time></trkpt><trkpt lat="45.72399262362776" lon="8.521116124982706"><ele>348.0</ele><time>2026-04-18T10:23:27.001Z</time></trkpt><trkpt lat="45.72387890409902" lon="8.521244860422694"><ele>348.0</ele><time>2026-04-18T10:23:28.001Z</time></trkpt><trkpt lat="45.72376121190242" lon="8.521378093180836"><ele>346.6666666666667</ele><time>2026-04-18T10:23:29.001Z</time></trkpt><trkpt lat="45.72364294970141" lon="8.521511195588722"><ele>345.33333333333337</ele><time>2026-04-18T10:23:30.001Z</time></trkpt><trkpt lat="45.7235148240652" lon="8.521652880695386"><ele>344.0</ele><time>2026-04-18T10:23:31.001Z</time></trkpt><trkpt lat="45.72339203878512" lon="8.521788660226884"><ele>343.6666666666667</ele><time>2026-04-18T10:23:32.001Z</time></trkpt><trkpt lat="45.72324954698437" lon="8.521946231838339"><ele>343.3333333333333</ele><time>2026-04-18T10:23:33.001Z</time></trkpt><trkpt lat="45.72309359056204" lon="8.52211869294151"><ele>343.0</ele><time>2026-04-18T10:23:34.001Z</time></trkpt><trkpt lat="45.722928705495875" lon="8.522301027782643"><ele>342.0</ele><time>2026-04-18T10:23:35.001Z</time></trkpt><trkpt lat="45.72278470604459" lon="8.522460266537975"><ele>341.0</ele><time>2026-04-18T10:23:36.001Z</time></trkpt><trkpt lat="45.72266683500337" lon="8.522590611786008"><ele>340.0</ele><time>2026-04-18T10:23:37.001Z</time></trkpt><trkpt lat="45.722565221759865" lon="8.52270297868872"><ele>340.0</ele><time>2026-04-18T10:23:38.001Z</time></trkpt><trkpt lat="45.72247596520331" lon="8.522801681181953"><ele>340.0</ele><time>2026-04-18T10:23:39.001Z</time></trkpt><trkpt lat="45.72238817831836" lon="8.52289875844384"><ele>340.0</ele><time>2026-04-18T10:23:40.001Z</time></trkpt><trkpt lat="45.72228652496701" lon="8.523011169776115"><ele>340.0</ele><time>2026-04-18T10:23:41.001Z</time></trkpt><trkpt lat="45.72219628239816" lon="8.5231109625717"><ele>340.8</ele><time>2026-04-18T10:23:42.001Z</time></trkpt><trkpt lat="45.722117120299814" lon="8.523198544138753"><ele>341.6</ele><time>2026-04-18T10:23:43.001Z</time></trkpt><trkpt lat="45.72202712270768" lon="8.523299293597134"><ele>342.4</ele><time>2026-04-18T10:23:44.001Z</time></trkpt><trkpt lat="45.72194075890317" lon="8.523395975213116"><ele>343.2</ele><time>2026-04-18T10:23:45.001Z</time></trkpt><trkpt lat="45.72184298905173" lon="8.523505425281268"><ele>344.0</ele><time>2026-04-18T10:23:46.001Z</time></trkpt><trkpt lat="45.72171798488109" lon="8.523645363892337"><ele>340.6666666666667</ele><time>2026-04-18T10:23:47.001Z</time></trkpt><trkpt lat="45.72158265443761" lon="8.523798033667763"><ele>337.3333333333333</ele><time>2026-04-18T10:23:48.001Z</time></trkpt><trkpt lat="45.72145592822794" lon="8.523943488017185"><ele>334.0</ele><time>2026-04-18T10:23:49.001Z</time></trkpt><trkpt lat="45.721352655320175" lon="8.524061538417321"><ele>334.0</ele><time>2026-04-18T10:23:50Z</time></trkpt><trkpt lat="45.72125567068123" lon="8.524172400360028"><ele>334.0</ele><time>2026-04-18T10:23:51Z</time></trkpt><trkpt lat="45.721169881151546" lon="8.524270866691598"><ele>334.0</ele><time>2026-04-18T10:23:52Z</time></trkpt><trkpt lat="45.72100866780274" lon="8.524456132298937"><ele>334.0</ele><time>2026-04-18T10:23:54Z</time></trkpt><trkpt lat="45.720927660993276" lon="8.524549224928819"><ele>333.79999999999995</ele><time>2026-04-18T10:23:55Z</time></trkpt><trkpt lat="45.72083999296525" lon="8.524649972600493"><ele>333.59999999999997</ele><time>2026-04-18T10:23:56Z</time></trkpt><trkpt lat="45.72075556272744" lon="8.524747473735871"><ele>333.4</ele><time>2026-04-18T10:23:57Z</time></trkpt><trkpt lat="45.720674557440596" lon="8.524842606611266"><ele>333.2</ele><time>2026-04-18T10:23:58Z</time></trkpt><trkpt lat="45.72060396548083" lon="8.52492589736337"><ele>333.0</ele><time>2026-04-18T10:23:59Z</time></trkpt><trkpt lat="45.72053490272331" lon="8.525009149426618"><ele>333.0</ele><time>2026-04-18T10:24:00Z</time></trkpt><trkpt lat="45.720460681808234" lon="8.525104349904975"><ele>333.0</ele><time>2026-04-18T10:24:01Z</time></trkpt><trkpt lat="45.72037352267279" lon="8.525213318329053"><ele>333.0</ele><time>2026-04-18T10:24:02Z</time></trkpt><trkpt lat="45.720287702831314" lon="8.525318766499067"><ele>333.0</ele><time>2026-04-18T10:24:03Z</time></trkpt><trkpt lat="45.720213590486956" lon="8.525412119075401"><ele>333.0</ele><time>2026-04-18T10:24:04Z</time></trkpt><trkpt lat="45.72014200923145" lon="8.525502287721402"><ele>332.4</ele><time>2026-04-18T10:24:05Z</time></trkpt><trkpt lat="45.72006979662252" lon="8.525595773981701"><ele>331.79999999999995</ele><time>2026-04-18T10:24:06Z</time></trkpt><trkpt lat="45.7199914353231" lon="8.525698136428032"><ele>331.2</ele><time>2026-04-18T10:24:07Z</time></trkpt><trkpt lat="45.71991147763156" lon="8.525805955178217"><ele>330.6</ele><time>2026-04-18T10:24:08Z</time></trkpt><trkpt lat="45.71983378139043" lon="8.525911567421968"><ele>330.0</ele><time>2026-04-18T10:24:09Z</time></trkpt><trkpt lat="45.719762854164806" lon="8.526007978516102"><ele>330.0</ele><time>2026-04-18T10:24:10Z</time></trkpt><trkpt lat="45.719700807238915" lon="8.526093204032396"><ele>330.0</ele><time>2026-04-18T10:24:11Z</time></trkpt><trkpt lat="45.71963997794951" lon="8.526177438357145"><ele>330.0</ele><time>2026-04-18T10:24:12Z</time></trkpt><trkpt lat="45.719583317148846" lon="8.526255900300264"><ele>330.0</ele><time>2026-04-18T10:24:13Z</time></trkpt><trkpt lat="45.719508189234745" lon="8.526359934904237"><ele>330.0</ele><time>2026-04-18T10:24:14Z</time></trkpt><trkpt lat="45.719431518530165" lon="8.52646952827159"><ele>330.2</ele><time>2026-04-18T10:24:15Z</time></trkpt><trkpt lat="45.71933968574596" lon="8.526603170665037"><ele>330.4</ele><time>2026-04-18T10:24:16Z</time></trkpt><trkpt lat="45.71926370538644" lon="8.526715054659377"><ele>330.6</ele><time>2026-04-18T10:24:17Z</time></trkpt><trkpt lat="45.71919312038912" lon="8.526819967667386"><ele>330.8</ele><time>2026-04-18T10:24:18Z</time></trkpt><trkpt lat="45.719126255595235" lon="8.526919351271058"><ele>331.0</ele><time>2026-04-18T10:24:19Z</time></trkpt><trkpt lat="45.71905635456508" lon="8.527025894611084"><ele>329.8</ele><time>2026-04-18T10:24:20Z</time></trkpt><trkpt lat="45.71897990555897" lon="8.527143465015179"><ele>328.6</ele><time>2026-04-18T10:24:21Z</time></trkpt><trkpt lat="45.71890917772542" lon="8.527252236863026"><ele>327.4</ele><time>2026-04-18T10:24:22Z</time></trkpt><trkpt lat="45.71885646337989" lon="8.527335076395559"><ele>326.2</ele><time>2026-04-18T10:24:23Z</time></trkpt><trkpt lat="45.71877650732402" lon="8.527461028424813"><ele>325.0</ele><time>2026-04-18T10:24:25Z</time></trkpt><trkpt lat="45.71872588013286" lon="8.527541567794424"><ele>325.0</ele><time>2026-04-18T10:24:28Z</time></trkpt><trkpt lat="45.718665474004275" lon="8.527639479674168"><ele>325.0</ele><time>2026-04-18T10:24:30Z</time></trkpt><trkpt lat="45.71860158808586" lon="8.527746644769422"><ele>325.0</ele><time>2026-04-18T10:24:32Z</time></trkpt><trkpt lat="45.7185526990936" lon="8.527829063954204"><ele>325.0</ele><time>2026-04-18T10:24:33Z</time></trkpt><trkpt lat="45.718507934208226" lon="8.52790517896227"><ele>325.0</ele><time>2026-04-18T10:24:34Z</time></trkpt><trkpt lat="45.71841926090238" lon="8.528058149491832"><ele>325.25</ele><time>2026-04-18T10:24:36Z</time></trkpt><trkpt lat="45.718350127913354" lon="8.528183035342085"><ele>325.5</ele><time>2026-04-18T10:24:37Z</time></trkpt><trkpt lat="45.71827790539891" lon="8.528314897046586"><ele>325.75</ele><time>2026-04-18T10:24:38Z</time></trkpt><trkpt lat="45.71821209166302" lon="8.528435706513381"><ele>326.0</ele><time>2026-04-18T10:24:39Z</time></trkpt><trkpt lat="45.71813635860149" lon="8.528578653589829"><ele>326.0</ele><time>2026-04-18T10:24:40Z</time></trkpt><trkpt lat="45.71805119994027" lon="8.528715749594472"><ele>326.0</ele><time>2026-04-18T10:24:41Z</time></trkpt><trkpt lat="45.717955531412954" lon="8.52886856087796"><ele>326.0</ele><time>2026-04-18T10:24:42Z</time></trkpt><trkpt lat="45.71787701159598" lon="8.528983687770445"><ele>326.0</ele><time>2026-04-18T10:24:43Z</time></trkpt><trkpt lat="45.71779801771402" lon="8.529093654318487"><ele>324.5</ele><time>2026-04-18T10:24:44Z</time></trkpt><trkpt lat="45.71772210509148" lon="8.52919638532612"><ele>323.0</ele><time>2026-04-18T10:24:45Z</time></trkpt><trkpt lat="45.717134410480575" lon="8.528782813206986"><ele>323.0</ele><time>2026-04-18T10:24:46Z</time></trkpt><trkpt lat="45.717019911325266" lon="8.528856992120824"><ele>323.0</ele><time>2026-04-18T10:24:47Z</time></trkpt><trkpt lat="45.71689081061578" lon="8.528951197281847"><ele>323.0</ele><time>2026-04-18T10:24:48Z</time></trkpt><trkpt lat="45.716762037302594" lon="8.529032065389645"><ele>323.0</ele><time>2026-04-18T10:24:49Z</time></trkpt><trkpt lat="45.716655263472276" lon="8.529093450659285"><ele>324.75</ele><time>2026-04-18T10:24:50.001Z</time></trkpt><trkpt lat="45.716556365683694" lon="8.529193785978057"><ele>326.5</ele><time>2026-04-18T10:24:51.001Z</time></trkpt><trkpt lat="45.71644409351212" lon="8.529277577607902"><ele>328.25</ele><time>2026-04-18T10:24:52.001Z</time></trkpt><trkpt lat="45.716327936519086" lon="8.52933578123041"><ele>330.0</ele><time>2026-04-18T10:24:53.001Z</time></trkpt><trkpt lat="45.7162277295199" lon="8.529414341739466"><ele>330.0</ele><time>2026-04-18T10:24:54.001Z</time></trkpt><trkpt lat="45.7161245884116" lon="8.529468726262825"><ele>330.0</ele><time>2026-04-18T10:24:55.001Z</time></trkpt><trkpt lat="45.71604505480028" lon="8.529550171087834"><ele>330.0</ele><time>2026-04-18T10:24:56.001Z</time></trkpt><trkpt lat="45.71594674133504" lon="8.529602515494513"><ele>330.0</ele><time>2026-04-18T10:24:57.001Z</time></trkpt><trkpt lat="45.71585174793445" lon="8.529651723320884"><ele>330.0</ele><time>2026-04-18T10:24:58.001Z</time></trkpt><trkpt lat="45.71576491126587" lon="8.529722256466572"><ele>330.0</ele><time>2026-04-18T10:24:59.001Z</time></trkpt><trkpt lat="45.71568175128408" lon="8.529794322207815"><ele>330.0</ele><time>2026-04-18T10:25:00.001Z</time></trkpt><trkpt lat="45.71563921164068" lon="8.529884298827795"><ele>330.0</ele><time>2026-04-18T10:25:01.001Z</time></trkpt><trkpt lat="45.71555206581168" lon="8.530010063170165"><ele>330.0</ele><time>2026-04-18T10:25:02.001Z</time></trkpt><trkpt lat="45.71549521287047" lon="8.530081290396499"><ele>330.0</ele><time>2026-04-18T10:25:03.001Z</time></trkpt><trkpt lat="45.71541733380238" lon="8.530142977953709"><ele>330.0</ele><time>2026-04-18T10:25:04.001Z</time></trkpt><trkpt lat="45.71535384784476" lon="8.530207682124512"><ele>330.0</ele><time>2026-04-18T10:25:05.001Z</time></trkpt><trkpt lat="45.715271044731004" lon="8.530316198082021"><ele>330.0</ele><time>2026-04-18T10:25:06.001Z</time></trkpt><trkpt lat="45.715212085445096" lon="8.530408794548386"><ele>330.0</ele><time>2026-04-18T10:25:07.001Z</time></trkpt><trkpt lat="45.715133862961224" lon="8.530405136986037"><ele>330.0</ele><time>2026-04-18T10:25:09.001Z</time></trkpt><trkpt lat="45.71505005828396" lon="8.530246187939348"><ele>329.75</ele><time>2026-04-18T10:25:11.001Z</time></trkpt><trkpt lat="45.71497432950174" lon="8.530126733498278"><ele>329.5</ele><time>2026-04-18T10:25:12.001Z</time></trkpt><trkpt lat="45.71489082802332" lon="8.530022921196819"><ele>329.25</ele><time>2026-04-18T10:25:13.001Z</time></trkpt><trkpt lat="45.714818624605634" lon="8.52989242020835"><ele>329.0</ele><time>2026-04-18T10:25:14.001Z</time></trkpt><trkpt lat="45.7147299352064" lon="8.529754799305305"><ele>329.0</ele><time>2026-04-18T10:25:15.001Z</time></trkpt><trkpt lat="45.71463745037607" lon="8.529610224198816"><ele>329.0</ele><time>2026-04-18T10:25:16.001Z</time></trkpt><trkpt lat="45.71453632000111" lon="8.52949041565699"><ele>329.0</ele><time>2026-04-18T10:25:17.001Z</time></trkpt><trkpt lat="45.71441768645704" lon="8.529385803983905"><ele>329.0</ele><time>2026-04-18T10:25:18.001Z</time></trkpt><trkpt lat="45.714303649427926" lon="8.529255070088428"><ele>329.0</ele><time>2026-04-18T10:25:19.001Z</time></trkpt><trkpt lat="45.71423511320436" lon="8.529126400766886"><ele>329.0</ele><time>2026-04-18T10:25:20.001Z</time></trkpt><trkpt lat="45.714169232672795" lon="8.529022634451032"><ele>329.0</ele><time>2026-04-18T10:25:21.001Z</time></trkpt><trkpt lat="45.71411105200428" lon="8.528924844746347"><ele>329.0</ele><time>2026-04-18T10:25:22.001Z</time></trkpt><trkpt lat="45.714049492992366" lon="8.52883340433119"><ele>329.0</ele><time>2026-04-18T10:25:23.001Z</time></trkpt><trkpt lat="45.71399904489798" lon="8.528774019760327"><ele>329.79999999999995</ele><time>2026-04-18T10:25:24.001Z</time></trkpt><trkpt lat="45.713944613961374" lon="8.52864283803657"><ele>330.59999999999997</ele><time>2026-04-18T10:25:25.001Z</time></trkpt><trkpt lat="45.71386605787308" lon="8.528537658824003"><ele>331.4</ele><time>2026-04-18T10:25:26.001Z</time></trkpt><trkpt lat="45.71381649330282" lon="8.528448063873645"><ele>332.2</ele><time>2026-04-18T10:25:27.001Z</time></trkpt><trkpt lat="45.713793767380025" lon="8.528343126623424"><ele>333.0</ele><time>2026-04-18T10:25:28.001Z</time></trkpt><trkpt lat="45.71375310960595" lon="8.52815795729735"><ele>333.0</ele><time>2026-04-18T10:25:30.001Z</time></trkpt><trkpt lat="45.713727931432274" lon="8.52803791604654"><ele>333.0</ele><time>2026-04-18T10:25:31.001Z</time></trkpt><trkpt lat="45.71371997975462" lon="8.527935174228363"><ele>333.0</ele><time>2026-04-18T10:25:32.001Z</time></trkpt><trkpt lat="45.71366313420811" lon="8.527828784834771"><ele>333.0</ele><time>2026-04-18T10:25:33.001Z</time></trkpt><trkpt lat="45.71360998265353" lon="8.527753244643186"><ele>333.0</ele><time>2026-04-18T10:25:34.001Z</time></trkpt><trkpt lat="45.713566914802485" lon="8.527684783913857"><ele>333.0</ele><time>2026-04-18T10:25:35.001Z</time></trkpt><trkpt lat="45.71348983329292" lon="8.527665113282703"><ele>333.79999999999995</ele><time>2026-04-18T10:25:38.001Z</time></trkpt><trkpt lat="45.7134227331394" lon="8.527612247428477"><ele>334.6</ele><time>2026-04-18T10:26:05Z</time></trkpt><trkpt lat="45.713373926759466" lon="8.527528622641604"><ele>335.4</ele><time>2026-04-18T10:26:07Z</time></trkpt><trkpt lat="45.71331684878763" lon="8.527437097942087"><ele>336.20000000000005</ele><time>2026-04-18T10:26:10Z</time></trkpt><trkpt lat="45.71327544158561" lon="8.527318376762976"><ele>337.0</ele><time>2026-04-18T10:26:12Z</time></trkpt><trkpt lat="45.71320154990773" lon="8.527175847237565"><ele>337.0</ele><time>2026-04-18T10:26:14Z</time></trkpt><trkpt lat="45.71315721529591" lon="8.527100223047587"><ele>337.0</ele><time>2026-04-18T10:26:15Z</time></trkpt><trkpt lat="45.71308856266034" lon="8.526968276869411"><ele>337.0</ele><time>2026-04-18T10:26:17Z</time></trkpt><trkpt lat="45.713049681589" lon="8.526894570792626"><ele>337.0</ele><time>2026-04-18T10:26:18Z</time></trkpt><trkpt lat="45.71299683509718" lon="8.526763279083328"><ele>337.0</ele><time>2026-04-18T10:26:20Z</time></trkpt><trkpt lat="45.712953252549184" lon="8.526649901138049"><ele>337.0</ele><time>2026-04-18T10:26:22Z</time></trkpt><trkpt lat="45.71292935761498" lon="8.526554571846313"><ele>337.0</ele><time>2026-04-18T10:26:24Z</time></trkpt><trkpt lat="45.712906674793345" lon="8.526445138231706"><ele>337.0</ele><time>2026-04-18T10:26:25Z</time></trkpt><trkpt lat="45.712855244500915" lon="8.526377514426397"><ele>337.0</ele><time>2026-04-18T10:26:26Z</time></trkpt><trkpt lat="45.712789869992264" lon="8.526316332794446"><ele>337.0</ele><time>2026-04-18T10:26:28Z</time></trkpt><trkpt lat="45.71270098400383" lon="8.526266231126606"><ele>337.0</ele><time>2026-04-18T10:26:30Z</time></trkpt><trkpt lat="45.71260289803929" lon="8.526202604053388"><ele>337.0</ele><time>2026-04-18T10:26:32Z</time></trkpt><trkpt lat="45.712534438734444" lon="8.526194953729581"><ele>340.0</ele><time>2026-04-18T10:26:34Z</time></trkpt><trkpt lat="45.712471714299426" lon="8.52615394078221"><ele>343.0</ele><time>2026-04-18T10:26:35Z</time></trkpt><trkpt lat="45.7123916900677" lon="8.526077781998223"><ele>346.0</ele><time>2026-04-18T10:26:37Z</time></trkpt><trkpt lat="45.71230817550312" lon="8.526029522713761"><ele>349.0</ele><time>2026-04-18T10:26:39Z</time></trkpt><trkpt lat="45.71218744065028" lon="8.526019815813221"><ele>352.0</ele><time>2026-04-18T10:26:41Z</time></trkpt><trkpt lat="45.712139677442615" lon="8.52611498590123"><ele>352.0</ele><time>2026-04-18T10:26:52Z</time></trkpt><trkpt lat="45.71205897352018" lon="8.526221949068516"><ele>352.0</ele><time>2026-04-18T10:26:54Z</time></trkpt><trkpt lat="45.71199910767448" lon="8.526334154659958"><ele>352.0</ele><time>2026-04-18T10:26:56Z</time></trkpt><trkpt lat="45.71191523951089" lon="8.526426611582936"><ele>352.0</ele><time>2026-04-18T10:26:58Z</time></trkpt><trkpt lat="45.71180994083318" lon="8.52645699913497"><ele>352.0</ele><time>2026-04-18T10:27:05Z</time></trkpt><trkpt lat="45.711725993119366" lon="8.526508845942113"><ele>351.3333333333333</ele><time>2026-04-18T10:27:07Z</time></trkpt><trkpt lat="45.71164184348337" lon="8.526556508655194"><ele>350.66666666666663</ele><time>2026-04-18T10:27:09Z</time></trkpt><trkpt lat="45.71152299168559" lon="8.526583274035234"><ele>350.0</ele><time>2026-04-18T10:27:11Z</time></trkpt><trkpt lat="45.71146910366881" lon="8.526644553135833"><ele>349.3333333333333</ele><time>2026-04-18T10:27:12Z</time></trkpt><trkpt lat="45.7114190918538" lon="8.526710332244004"><ele>348.6666666666667</ele><time>2026-04-18T10:27:13Z</time></trkpt><trkpt lat="45.7113790558859" lon="8.526818507491079"><ele>348.0</ele><time>2026-04-18T10:27:14Z</time></trkpt><trkpt lat="45.711353803945684" lon="8.526910618998063"><ele>346.4</ele><time>2026-04-18T10:27:15Z</time></trkpt><trkpt lat="45.711315007755495" lon="8.527086845825249"><ele>344.79999999999995</ele><time>2026-04-18T10:27:17Z</time></trkpt><trkpt lat="45.71129751253756" lon="8.527193919741736"><ele>343.2</ele><time>2026-04-18T10:27:18Z</time></trkpt><trkpt lat="45.71129318033855" lon="8.527314053314917"><ele>341.6</ele><time>2026-04-18T10:27:19Z</time></trkpt><trkpt lat="45.71127803381659" lon="8.527440575252024"><ele>340.0</ele><time>2026-04-18T10:27:20Z</time></trkpt><trkpt lat="45.71123662438439" lon="8.527613316020886"><ele>340.0</ele><time>2026-04-18T10:27:22Z</time></trkpt><trkpt lat="45.711189703710154" lon="8.527722840323664"><ele>340.0</ele><time>2026-04-18T10:27:24Z</time></trkpt><trkpt lat="45.71108583032203" lon="8.527773366598629"><ele>340.0</ele><time>2026-04-18T10:27:26Z</time></trkpt><trkpt lat="45.71103118590829" lon="8.52783048578948"><ele>340.0</ele><time>2026-04-18T10:27:27.001Z</time></trkpt><trkpt lat="45.71096398547249" lon="8.527896934148691"><ele>340.0</ele><time>2026-04-18T10:27:28.001Z</time></trkpt><trkpt lat="45.71089956227534" lon="8.527960211710484"><ele>340.0</ele><time>2026-04-18T10:27:29.001Z</time></trkpt><trkpt lat="45.71084002913079" lon="8.528017274570933"><ele>339.3333333333333</ele><time>2026-04-18T10:27:30.001Z</time></trkpt><trkpt lat="45.71078323029526" lon="8.528098017174832"><ele>338.66666666666663</ele><time>2026-04-18T10:27:31.001Z</time></trkpt><trkpt lat="45.71071989729335" lon="8.528166732845152"><ele>338.0</ele><time>2026-04-18T10:27:32.001Z</time></trkpt><trkpt lat="45.7106566100845" lon="8.528250812927357"><ele>337.3333333333333</ele><time>2026-04-18T10:27:33.001Z</time></trkpt><trkpt lat="45.710588974223015" lon="8.528335498797913"><ele>336.6666666666667</ele><time>2026-04-18T10:27:34.001Z</time></trkpt><trkpt lat="45.71051855716388" lon="8.528432042489948"><ele>336.0</ele><time>2026-04-18T10:27:35.001Z</time></trkpt><trkpt lat="45.71043969304399" lon="8.528539003969636"><ele>336.0</ele><time>2026-04-18T10:27:36.001Z</time></trkpt><trkpt lat="45.71036246466459" lon="8.528639853942053"><ele>336.0</ele><time>2026-04-18T10:27:37.001Z</time></trkpt><trkpt lat="45.710297819007" lon="8.528728117442041"><ele>336.0</ele><time>2026-04-18T10:27:38.001Z</time></trkpt><trkpt lat="45.71024119370482" lon="8.528806902821373"><ele>336.0</ele><time>2026-04-18T10:27:39.001Z</time></trkpt><trkpt lat="45.71019508779853" lon="8.528872134812767"><ele>336.0</ele><time>2026-04-18T10:27:40.001Z</time></trkpt><trkpt lat="45.71012258891952" lon="8.528960346984183"><ele>336.0</ele><time>2026-04-18T10:27:42.001Z</time></trkpt><trkpt lat="45.710051500121054" lon="8.529042255673644"><ele>336.6666666666667</ele><time>2026-04-18T10:27:46.001Z</time></trkpt><trkpt lat="45.7100526690628" lon="8.52915039267463"><ele>337.3333333333333</ele><time>2026-04-18T10:27:47.001Z</time></trkpt><trkpt lat="45.70999747008641" lon="8.529212893692856"><ele>338.0</ele><time>2026-04-18T10:27:49.001Z</time></trkpt><trkpt lat="45.70995899744106" lon="8.529301932094343"><ele>338.66666666666663</ele><time>2026-04-18T10:27:51.001Z</time></trkpt><trkpt lat="45.70990958994356" lon="8.52937194307635"><ele>339.3333333333333</ele><time>2026-04-18T10:27:52.001Z</time></trkpt><trkpt lat="45.709842453290335" lon="8.529412525236085"><ele>340.0</ele><time>2026-04-18T10:27:53.001Z</time></trkpt><trkpt lat="45.70972911723035" lon="8.529527628098005"><ele>339.5</ele><time>2026-04-18T10:27:55.001Z</time></trkpt><trkpt lat="45.709672877916056" lon="8.529584744125835"><ele>339.0</ele><time>2026-04-18T10:27:56.001Z</time></trkpt><trkpt lat="45.70972323072263" lon="8.529915267134326"><ele>338.5</ele><time>2026-04-18T10:27:57Z</time></trkpt><trkpt lat="45.70968946299517" lon="8.53005142300109"><ele>338.0</ele><time>2026-04-18T10:27:58Z</time></trkpt><trkpt lat="45.7096488860889" lon="8.530175388014246"><ele>338.0</ele><time>2026-04-18T10:27:59Z</time></trkpt><trkpt lat="45.70959609646191" lon="8.53029636279459"><ele>338.0</ele><time>2026-04-18T10:28:00Z</time></trkpt><trkpt lat="45.70953714297215" lon="8.530394016484221"><ele>338.0</ele><time>2026-04-18T10:28:01Z</time></trkpt><trkpt lat="45.70948825088861" lon="8.530501996012182"><ele>338.0</ele><time>2026-04-18T10:28:02Z</time></trkpt><trkpt lat="45.709453399919056" lon="8.530612290053568"><ele>338.0</ele><time>2026-04-18T10:28:03Z</time></trkpt><trkpt lat="45.70942581784859" lon="8.530761643669255"><ele>336.75</ele><time>2026-04-18T10:28:04Z</time></trkpt><trkpt lat="45.709409347223364" lon="8.530952827792051"><ele>335.5</ele><time>2026-04-18T10:28:05Z</time></trkpt><trkpt lat="45.709396069373064" lon="8.53113843791108"><ele>334.25</ele><time>2026-04-18T10:28:06Z</time></trkpt><trkpt lat="45.70937450901619" lon="8.53130896944746"><ele>333.0</ele><time>2026-04-18T10:28:07Z</time></trkpt><trkpt lat="45.70935831974453" lon="8.53147391138279"><ele>334.59999999999997</ele><time>2026-04-18T10:28:08Z</time></trkpt><trkpt lat="45.70933505076483" lon="8.531623350514831"><ele>336.2</ele><time>2026-04-18T10:28:09Z</time></trkpt><trkpt lat="45.70930785770496" lon="8.531761622077354"><ele>337.8</ele><time>2026-04-18T10:28:10Z</time></trkpt><trkpt lat="45.70926698030402" lon="8.531895804735042"><ele>339.4</ele><time>2026-04-18T10:28:11Z</time></trkpt><trkpt lat="45.70925259196292" lon="8.532044810093833"><ele>341.0</ele><time>2026-04-18T10:28:12Z</time></trkpt><trkpt lat="45.70925859894925" lon="8.532230574825856"><ele>341.0</ele><time>2026-04-18T10:28:13Z</time></trkpt><trkpt lat="45.709245365200864" lon="8.532411934869698"><ele>341.0</ele><time>2026-04-18T10:28:14Z</time></trkpt><trkpt lat="45.70923032726277" lon="8.532579190049656"><ele>341.0</ele><time>2026-04-18T10:28:15Z</time></trkpt><trkpt lat="45.7092127826713" lon="8.532727179593628"><ele>341.0</ele><time>2026-04-18T10:28:16Z</time></trkpt><trkpt lat="45.70919582362505" lon="8.53286360609967"><ele>341.0</ele><time>2026-04-18T10:28:17Z</time></trkpt><trkpt lat="45.709188145593" lon="8.532988232726776"><ele>339.83333333333337</ele><time>2026-04-18T10:28:18Z</time></trkpt><trkpt lat="45.70917290497353" lon="8.533099792286961"><ele>338.6666666666667</ele><time>2026-04-18T10:28:19Z</time></trkpt><trkpt lat="45.70915538472352" lon="8.53319241862152"><ele>337.5</ele><time>2026-04-18T10:28:20Z</time></trkpt><trkpt lat="45.70912642146407" lon="8.533288948796873"><ele>336.3333333333333</ele><time>2026-04-18T10:28:21Z</time></trkpt><trkpt lat="45.70904208092546" lon="8.533400871520769"><ele>335.16666666666663</ele><time>2026-04-18T10:28:22Z</time></trkpt><trkpt lat="45.70896479669373" lon="8.533487593132524"><ele>334.0</ele><time>2026-04-18T10:28:23Z</time></trkpt><trkpt lat="45.70887661081394" lon="8.533599341492597"><ele>332.25</ele><time>2026-04-18T10:28:24Z</time></trkpt><trkpt lat="45.70879180235236" lon="8.53372542914875"><ele>330.5</ele><time>2026-04-18T10:28:25Z</time></trkpt><trkpt lat="45.708715876545526" lon="8.533860499211352"><ele>328.75</ele><time>2026-04-18T10:28:26Z</time></trkpt><trkpt lat="45.70863106868455" lon="8.533974959187882"><ele>327.0</ele><time>2026-04-18T10:28:27Z</time></trkpt><trkpt lat="45.70854697029306" lon="8.53408270258636"><ele>328.8</ele><time>2026-04-18T10:28:28Z</time></trkpt><trkpt lat="45.70846959527028" lon="8.534204584515884"><ele>330.6</ele><time>2026-04-18T10:28:29Z</time></trkpt><trkpt lat="45.70839498771746" lon="8.534343044826162"><ele>332.40000000000003</ele><time>2026-04-18T10:28:30Z</time></trkpt><trkpt lat="45.70833828031657" lon="8.534454223202388"><ele>334.20000000000005</ele><time>2026-04-18T10:28:31Z</time></trkpt><trkpt lat="45.70829193193187" lon="8.534587682008777"><ele>336.0</ele><time>2026-04-18T10:28:32Z</time></trkpt><trkpt lat="45.7082536838423" lon="8.534732907514217"><ele>336.0</ele><time>2026-04-18T10:28:33Z</time></trkpt><trkpt lat="45.70823129892103" lon="8.53487860245447"><ele>336.0</ele><time>2026-04-18T10:28:34Z</time></trkpt><trkpt lat="45.70819534472656" lon="8.535013753186465"><ele>336.0</ele><time>2026-04-18T10:28:35Z</time></trkpt><trkpt lat="45.70814386276394" lon="8.535150314384083"><ele>336.0</ele><time>2026-04-18T10:28:36Z</time></trkpt><trkpt lat="45.70806697730669" lon="8.535296982396796"><ele>336.0</ele><time>2026-04-18T10:28:37Z</time></trkpt><trkpt lat="45.70797344415753" lon="8.53545734420904"><ele>335.5</ele><time>2026-04-18T10:28:38Z</time></trkpt><trkpt lat="45.707878404815474" lon="8.535626005144465"><ele>335.0</ele><time>2026-04-18T10:28:39Z</time></trkpt><trkpt lat="45.7077997087788" lon="8.535791902954333"><ele>334.5</ele><time>2026-04-18T10:28:40Z</time></trkpt><trkpt lat="45.7077189811325" lon="8.535943763333588"><ele>334.0</ele><time>2026-04-18T10:28:41Z</time></trkpt><trkpt lat="45.707628458468214" lon="8.536090365997962"><ele>334.5</ele><time>2026-04-18T10:28:42Z</time></trkpt><trkpt lat="45.70755272164717" lon="8.536241686576682"><ele>335.0</ele><time>2026-04-18T10:28:43Z</time></trkpt><trkpt lat="45.70748520163383" lon="8.536398805905378"><ele>335.5</ele><time>2026-04-18T10:28:44Z</time></trkpt><trkpt lat="45.70743148573263" lon="8.536547104894046"><ele>336.0</ele><time>2026-04-18T10:28:45Z</time></trkpt><trkpt lat="45.70737488440505" lon="8.536697431337245"><ele>336.0</ele><time>2026-04-18T10:28:46Z</time></trkpt><trkpt lat="45.707300348598196" lon="8.536839272553609"><ele>336.0</ele><time>2026-04-18T10:28:47Z</time></trkpt><trkpt lat="45.707223368077756" lon="8.536986970227971"><ele>336.0</ele><time>2026-04-18T10:28:48Z</time></trkpt><trkpt lat="45.70716442128132" lon="8.537133787841778"><ele>336.0</ele><time>2026-04-18T10:28:49Z</time></trkpt><trkpt lat="45.707109909847944" lon="8.537254570480597"><ele>335.20000000000005</ele><time>2026-04-18T10:28:50Z</time></trkpt><trkpt lat="45.707037440432714" lon="8.537381763800209"><ele>334.40000000000003</ele><time>2026-04-18T10:28:51Z</time></trkpt><trkpt lat="45.70696844202578" lon="8.537489326761781"><ele>333.6</ele><time>2026-04-18T10:28:52Z</time></trkpt><trkpt lat="45.706937139970094" lon="8.537573288902559"><ele>332.8</ele><time>2026-04-18T10:28:53Z</time></trkpt><trkpt lat="45.70689461160836" lon="8.537669692494097"><ele>332.0</ele><time>2026-04-18T10:28:54Z</time></trkpt><trkpt lat="45.70684275698108" lon="8.53777278670086"><ele>333.5</ele><time>2026-04-18T10:28:55Z</time></trkpt><trkpt lat="45.7067972180359" lon="8.537916964924536"><ele>335.0</ele><time>2026-04-18T10:28:56Z</time></trkpt><trkpt lat="45.706766930950224" lon="8.538069711508399"><ele>336.5</ele><time>2026-04-18T10:28:57Z</time></trkpt><trkpt lat="45.70673838532862" lon="8.538263284663145"><ele>338.0</ele><time>2026-04-18T10:28:58Z</time></trkpt><trkpt lat="45.70668578898356" lon="8.53842251885605"><ele>338.0</ele><time>2026-04-18T10:28:59Z</time></trkpt><trkpt lat="45.706616088701736" lon="8.538590243969399"><ele>338.0</ele><time>2026-04-18T10:29:00Z</time></trkpt><trkpt lat="45.706556658074206" lon="8.53875586854182"><ele>338.0</ele><time>2026-04-18T10:29:01Z</time></trkpt><trkpt lat="45.70651031184567" lon="8.53887915247195"><ele>338.0</ele><time>2026-04-18T10:29:02Z</time></trkpt><trkpt lat="45.70647407987315" lon="8.538970053337222"><ele>338.0</ele><time>2026-04-18T10:29:03Z</time></trkpt><trkpt lat="45.70643792925353" lon="8.539062351797192"><ele>337.2</ele><time>2026-04-18T10:29:04Z</time></trkpt><trkpt lat="45.70639834452792" lon="8.539165906483754"><ele>336.4</ele><time>2026-04-18T10:29:05Z</time></trkpt><trkpt lat="45.70635687405021" lon="8.539305265431196"><ele>335.59999999999997</ele><time>2026-04-18T10:29:06Z</time></trkpt><trkpt lat="45.7063163896294" lon="8.539462398776132"><ele>334.79999999999995</ele><time>2026-04-18T10:29:07Z</time></trkpt><trkpt lat="45.70626695707243" lon="8.539637777691878"><ele>334.0</ele><time>2026-04-18T10:29:08Z</time></trkpt><trkpt lat="45.70621292331811" lon="8.53979901029637"><ele>333.75</ele><time>2026-04-18T10:29:09Z</time></trkpt><trkpt lat="45.70618139818761" lon="8.539933875154063"><ele>333.5</ele><time>2026-04-18T10:29:10Z</time></trkpt><trkpt lat="45.70616991536739" lon="8.54010196519935"><ele>333.25</ele><time>2026-04-18T10:29:11Z</time></trkpt><trkpt lat="45.70616689770166" lon="8.540304430373146"><ele>333.0</ele><time>2026-04-18T10:29:12Z</time></trkpt><trkpt lat="45.706177750981546" lon="8.540512711417716"><ele>333.0</ele><time>2026-04-18T10:29:13Z</time></trkpt><trkpt lat="45.70617614905415" lon="8.54065614222755"><ele>333.0</ele><time>2026-04-18T10:29:14Z</time></trkpt><trkpt lat="45.706169934007896" lon="8.540753051564165"><ele>333.0</ele><time>2026-04-18T10:29:15Z</time></trkpt><trkpt lat="45.70615241415402" lon="8.540858996067982"><ele>333.0</ele><time>2026-04-18T10:29:16Z</time></trkpt><trkpt lat="45.70611182604047" lon="8.540982373093865"><ele>333.0</ele><time>2026-04-18T10:29:17Z</time></trkpt><trkpt lat="45.70608835444756" lon="8.54112697951825"><ele>333.0</ele><time>2026-04-18T10:29:18Z</time></trkpt><trkpt lat="45.70605456260414" lon="8.541230329745996"><ele>333.6666666666667</ele><time>2026-04-18T10:29:19Z</time></trkpt><trkpt lat="45.70606348880706" lon="8.541333991736636"><ele>334.3333333333333</ele><time>2026-04-18T10:29:20Z</time></trkpt><trkpt lat="45.706080153348424" lon="8.541423650246301"><ele>335.0</ele><time>2026-04-18T10:29:21Z</time></trkpt><trkpt lat="45.706109477737186" lon="8.54155205991903"><ele>335.66666666666663</ele><time>2026-04-18T10:29:22Z</time></trkpt><trkpt lat="45.706161073308685" lon="8.541668072647726"><ele>336.3333333333333</ele><time>2026-04-18T10:29:23Z</time></trkpt><trkpt lat="45.70614548092317" lon="8.541811295549456"><ele>337.0</ele><time>2026-04-18T10:29:24Z</time></trkpt><trkpt lat="45.70616070921602" lon="8.541971077410672"><ele>334.20000000000005</ele><time>2026-04-18T10:29:25Z</time></trkpt><trkpt lat="45.70618929962317" lon="8.542093728314644"><ele>331.4</ele><time>2026-04-18T10:29:26Z</time></trkpt><trkpt lat="45.70619475233389" lon="8.542206821627556"><ele>328.6</ele><time>2026-04-18T10:29:27Z</time></trkpt><trkpt lat="45.706220021673026" lon="8.542370075990403"><ele>325.79999999999995</ele><time>2026-04-18T10:29:29Z</time></trkpt><trkpt lat="45.7062284636771" lon="8.542535884711716"><ele>323.0</ele><time>2026-04-18T10:29:31Z</time></trkpt><trkpt lat="45.70632292208556" lon="8.54264164308722"><ele>323.0</ele><time>2026-04-18T10:29:32Z</time></trkpt><trkpt lat="45.706385396288006" lon="8.542764392413883"><ele>323.0</ele><time>2026-04-18T10:29:33Z</time></trkpt><trkpt lat="45.70642580181889" lon="8.542868282935604"><ele>323.0</ele><time>2026-04-18T10:29:34Z</time></trkpt><trkpt lat="45.70644915810181" lon="8.542967517819795"><ele>323.0</ele><time>2026-04-18T10:29:35Z</time></trkpt><trkpt lat="45.70646914003492" lon="8.54306593351819"><ele>323.0</ele><time>2026-04-18T10:29:36Z</time></trkpt><trkpt lat="45.70645324178277" lon="8.543245424591543"><ele>323.33333333333337</ele><time>2026-04-18T10:29:38Z</time></trkpt><trkpt lat="45.70643855234435" lon="8.543340632985835"><ele>323.6666666666667</ele><time>2026-04-18T10:29:39Z</time></trkpt><trkpt lat="45.70643448682127" lon="8.543436240283212"><ele>324.0</ele><time>2026-04-18T10:29:40Z</time></trkpt><trkpt lat="45.7064455188078" lon="8.543549874975417"><ele>324.3333333333333</ele><time>2026-04-18T10:29:41Z</time></trkpt><trkpt lat="45.70647463641213" lon="8.54366634162586"><ele>324.66666666666663</ele><time>2026-04-18T10:29:42Z</time></trkpt><trkpt lat="45.7065169964605" lon="8.543789393611762"><ele>325.0</ele><time>2026-04-18T10:29:43Z</time></trkpt><trkpt lat="45.706560395714945" lon="8.543948526865739"><ele>325.2</ele><time>2026-04-18T10:29:44Z</time></trkpt><trkpt lat="45.70657960129962" lon="8.544092913516437"><ele>325.4</ele><time>2026-04-18T10:29:45Z</time></trkpt><trkpt lat="45.70659585432793" lon="8.544220937023098"><ele>325.6</ele><time>2026-04-18T10:29:46Z</time></trkpt><trkpt lat="45.70662045333035" lon="8.544355881483105"><ele>325.8</ele><time>2026-04-18T10:29:47Z</time></trkpt><trkpt lat="45.706642796947705" lon="8.544479902161262"><ele>326.0</ele><time>2026-04-18T10:29:48Z</time></trkpt><trkpt lat="45.706661967891414" lon="8.544609204834025"><ele>326.33333333333337</ele><time>2026-04-18T10:29:49Z</time></trkpt><trkpt lat="45.70663893965119" lon="8.544698297688136"><ele>326.6666666666667</ele><time>2026-04-18T10:29:50Z</time></trkpt><trkpt lat="45.70664620087288" lon="8.544827825523639"><ele>327.0</ele><time>2026-04-18T10:29:52Z</time></trkpt><trkpt lat="45.706661116489215" lon="8.544973199013263"><ele>327.3333333333333</ele><time>2026-04-18T10:29:54Z</time></trkpt><trkpt lat="45.70667078333806" lon="8.545063813984909"><ele>327.66666666666663</ele><time>2026-04-18T10:29:55Z</time></trkpt><trkpt lat="45.70670147592797" lon="8.545209584941968"><ele>328.0</ele><time>2026-04-18T10:29:57Z</time></trkpt><trkpt lat="45.706715932696135" lon="8.545342992264704"><ele>327.79999999999995</ele><time>2026-04-18T10:29:59Z</time></trkpt><trkpt lat="45.706725103039254" lon="8.54548873455298"><ele>327.6</ele><time>2026-04-18T10:30:01Z</time></trkpt><trkpt lat="45.70673583634164" lon="8.545636749063936"><ele>327.4</ele><time>2026-04-18T10:30:03Z</time></trkpt><trkpt lat="45.70674712126716" lon="8.545758311329442"><ele>327.20000000000005</ele><time>2026-04-18T10:30:05Z</time></trkpt><trkpt lat="45.70680594372064" lon="8.545900303923952"><ele>327.0</ele><time>2026-04-18T10:30:07Z</time></trkpt><trkpt lat="45.70691478484327" lon="8.545928649887161"><ele>327.5</ele><time>2026-04-18T10:30:09Z</time></trkpt><trkpt lat="45.70698127313113" lon="8.545911569939356"><ele>328.0</ele><time>2026-04-18T10:30:10Z</time></trkpt><trkpt lat="45.70705407026408" lon="8.545917199614177"><ele>328.5</ele><time>2026-04-18T10:30:11Z</time></trkpt><trkpt lat="45.70711706867788" lon="8.545903313828338"><ele>329.0</ele><time>2026-04-18T10:30:12Z</time></trkpt><trkpt lat="45.70717880239763" lon="8.54580146224569"><ele>329.5</ele><time>2026-04-18T10:30:14Z</time></trkpt><trkpt lat="45.70724048413787" lon="8.545765235355367"><ele>330.0</ele><time>2026-04-18T10:30:17Z</time></trkpt><trkpt lat="45.707278070977665" lon="8.545894562370725"><ele>330.0</ele><time>2026-04-18T10:30:18Z</time></trkpt><trkpt lat="45.707343274710155" lon="8.545994578005956"><ele>330.0</ele><time>2026-04-18T10:30:19Z</time></trkpt><trkpt lat="45.707389010686256" lon="8.546100074641485"><ele>330.0</ele><time>2026-04-18T10:30:20Z</time></trkpt><trkpt lat="45.70743653950444" lon="8.546196090712822"><ele>330.0</ele><time>2026-04-18T10:30:21Z</time></trkpt><trkpt lat="45.70748299918013" lon="8.546272202953821"><ele>330.0</ele><time>2026-04-18T10:30:22Z</time></trkpt><trkpt lat="45.70759232815157" lon="8.546386719156352"><ele>329.1666666666667</ele><time>2026-04-18T10:30:24Z</time></trkpt><trkpt lat="45.707671993772536" lon="8.546418814412721"><ele>328.3333333333333</ele><time>2026-04-18T10:30:25Z</time></trkpt><trkpt lat="45.707755292919174" lon="8.546428338539961"><ele>327.5</ele><time>2026-04-18T10:30:26Z</time></trkpt><trkpt lat="45.70783855836676" lon="8.546433368519894"><ele>326.66666666666663</ele><time>2026-04-18T10:30:27Z</time></trkpt><trkpt lat="45.707919257967866" lon="8.546424792561606"><ele>325.8333333333333</ele><time>2026-04-18T10:30:28Z</time></trkpt><trkpt lat="45.70800720852059" lon="8.546408890705074"><ele>325.0</ele><time>2026-04-18T10:30:29Z</time></trkpt><trkpt lat="45.70810518699451" lon="8.546391369567761"><ele>325.4</ele><time>2026-04-18T10:30:30Z</time></trkpt><trkpt lat="45.7082020236581" lon="8.546355357021822"><ele>325.8</ele><time>2026-04-18T10:30:31Z</time></trkpt><trkpt lat="45.70830051943552" lon="8.546299350646327"><ele>326.20000000000005</ele><time>2026-04-18T10:30:32Z</time></trkpt><trkpt lat="45.70838852458261" lon="8.546228938411646"><ele>326.6</ele><time>2026-04-18T10:30:33Z</time></trkpt><trkpt lat="45.70847400846269" lon="8.546126708089028"><ele>327.0</ele><time>2026-04-18T10:30:34Z</time></trkpt><trkpt lat="45.708541307067414" lon="8.546010679151728"><ele>324.40000000000003</ele><time>2026-04-18T10:30:35Z</time></trkpt><trkpt lat="45.70859599386609" lon="8.545870562401415"><ele>321.8</ele><time>2026-04-18T10:30:36Z</time></trkpt><trkpt lat="45.70863595559788" lon="8.545721530711276"><ele>319.2</ele><time>2026-04-18T10:30:37Z</time></trkpt><trkpt lat="45.70866876231892" lon="8.545566827571172"><ele>316.6</ele><time>2026-04-18T10:30:38Z</time></trkpt><trkpt lat="45.70867627624184" lon="8.545414952009795"><ele>314.0</ele><time>2026-04-18T10:30:39Z</time></trkpt><trkpt lat="45.7086842075921" lon="8.545253174612037"><ele>314.0</ele><time>2026-04-18T10:30:40Z</time></trkpt><trkpt lat="45.70870648861361" lon="8.545098937857455"><ele>314.0</ele><time>2026-04-18T10:30:41Z</time></trkpt><trkpt lat="45.708739502977885" lon="8.544949140558609"><ele>314.0</ele><time>2026-04-18T10:30:42Z</time></trkpt><trkpt lat="45.70878240923117" lon="8.544793456549153"><ele>314.0</ele><time>2026-04-18T10:30:43Z</time></trkpt><trkpt lat="45.708842501969436" lon="8.5446481765113"><ele>314.1666666666667</ele><time>2026-04-18T10:30:44Z</time></trkpt><trkpt lat="45.70890991941481" lon="8.544525722175"><ele>314.33333333333337</ele><time>2026-04-18T10:30:45Z</time></trkpt><trkpt lat="45.70898059081529" lon="8.544434472063326"><ele>314.5</ele><time>2026-04-18T10:30:46Z</time></trkpt><trkpt lat="45.70905541521715" lon="8.544366055438873"><ele>314.6666666666667</ele><time>2026-04-18T10:30:47Z</time></trkpt><trkpt lat="45.70911728601134" lon="8.544328104242142"><ele>314.8333333333333</ele><time>2026-04-18T10:30:48Z</time></trkpt><trkpt lat="45.7091945162071" lon="8.544314554141742"><ele>315.0</ele><time>2026-04-18T10:30:50Z</time></trkpt><trkpt lat="45.70920994949317" lon="8.544442800320658"><ele>315.0</ele><time>2026-04-18T10:30:52Z</time></trkpt><trkpt lat="45.709242781364935" lon="8.544539539475204"><ele>315.0</ele><time>2026-04-18T10:30:53Z</time></trkpt><trkpt lat="45.70927674440392" lon="8.54469479143772"><ele>315.0</ele><time>2026-04-18T10:30:54Z</time></trkpt><trkpt lat="45.70929060042055" lon="8.544851225985875"><ele>315.0</ele><time>2026-04-18T10:30:55Z</time></trkpt><trkpt lat="45.70932273061955" lon="8.545006029810494"><ele>315.0</ele><time>2026-04-18T10:30:56Z</time></trkpt><trkpt lat="45.709368294964854" lon="8.545197592761658"><ele>313.0</ele><time>2026-04-18T10:30:57Z</time></trkpt><trkpt lat="45.7094114522445" lon="8.545386438747952"><ele>311.0</ele><time>2026-04-18T10:30:58Z</time></trkpt><trkpt lat="45.709449503748296" lon="8.545507425105571"><ele>309.0</ele><time>2026-04-18T10:30:59Z</time></trkpt><trkpt lat="45.709506877823884" lon="8.545686515196568"><ele>307.0</ele><time>2026-04-18T10:31:00Z</time></trkpt><trkpt lat="45.709551449013546" lon="8.545863397924718"><ele>307.0</ele><time>2026-04-18T10:31:01Z</time></trkpt><trkpt lat="45.70960785008846" lon="8.546042878954012"><ele>307.0</ele><time>2026-04-18T10:31:02Z</time></trkpt><trkpt lat="45.70966681252508" lon="8.546225762888117"><ele>307.0</ele><time>2026-04-18T10:31:03Z</time></trkpt><trkpt lat="45.709721322649756" lon="8.546416074006197"><ele>307.0</ele><time>2026-04-18T10:31:04Z</time></trkpt><trkpt lat="45.709771369752644" lon="8.54661211880316"><ele>306.75</ele><time>2026-04-18T10:31:05Z</time></trkpt><trkpt lat="45.70981995764496" lon="8.546797236443203"><ele>306.5</ele><time>2026-04-18T10:31:06Z</time></trkpt><trkpt lat="45.70987255526266" lon="8.546982524100942"><ele>306.25</ele><time>2026-04-18T10:31:07Z</time></trkpt><trkpt lat="45.709924610962574" lon="8.547167790177188"><ele>306.0</ele><time>2026-04-18T10:31:08Z</time></trkpt><trkpt lat="45.709976163636206" lon="8.547350146304037"><ele>306.0</ele><time>2026-04-18T10:31:09Z</time></trkpt><trkpt lat="45.7100248387884" lon="8.547536902291945"><ele>306.0</ele><time>2026-04-18T10:31:10Z</time></trkpt><trkpt lat="45.71007367330968" lon="8.547719102595247"><ele>306.0</ele><time>2026-04-18T10:31:11Z</time></trkpt><trkpt lat="45.71012365541395" lon="8.547900426928049"><ele>306.0</ele><time>2026-04-18T10:31:12Z</time></trkpt><trkpt lat="45.71017237344852" lon="8.54808287121298"><ele>306.5</ele><time>2026-04-18T10:31:13Z</time></trkpt><trkpt lat="45.71021610955026" lon="8.548274220928292"><ele>307.0</ele><time>2026-04-18T10:31:14Z</time></trkpt><trkpt lat="45.710251268341715" lon="8.548474453114046"><ele>307.5</ele><time>2026-04-18T10:31:15Z</time></trkpt><trkpt lat="45.710270104799456" lon="8.548680475895214"><ele>308.0</ele><time>2026-04-18T10:31:16Z</time></trkpt><trkpt lat="45.710279180478985" lon="8.548883689409568"><ele>308.0</ele><time>2026-04-18T10:31:17Z</time></trkpt><trkpt lat="45.71028961183436" lon="8.549086615672005"><ele>308.0</ele><time>2026-04-18T10:31:18Z</time></trkpt><trkpt lat="45.71030070116225" lon="8.54929927171797"><ele>308.0</ele><time>2026-04-18T10:31:19Z</time></trkpt><trkpt lat="45.71031093081073" lon="8.549519392483338"><ele>308.0</ele><time>2026-04-18T10:31:20Z</time></trkpt><trkpt lat="45.710325839991555" lon="8.549741677228699"><ele>307.33333333333337</ele><time>2026-04-18T10:31:21Z</time></trkpt><trkpt lat="45.71034119439564" lon="8.549968152690509"><ele>306.6666666666667</ele><time>2026-04-18T10:31:22Z</time></trkpt><trkpt lat="45.710354636995135" lon="8.550196989079424"><ele>306.0</ele><time>2026-04-18T10:31:23Z</time></trkpt><trkpt lat="45.71036712223008" lon="8.550427847714394"><ele>307.3333333333333</ele><time>2026-04-18T10:31:24Z</time></trkpt><trkpt lat="45.71037611831928" lon="8.550662254888874"><ele>308.66666666666663</ele><time>2026-04-18T10:31:25Z</time></trkpt><trkpt lat="45.71039196601364" lon="8.550900361341764"><ele>310.0</ele><time>2026-04-18T10:31:26Z</time></trkpt><trkpt lat="45.710406160863016" lon="8.551142022790097"><ele>309.0</ele><time>2026-04-18T10:31:27Z</time></trkpt><trkpt lat="45.710422120459235" lon="8.55138279639194"><ele>308.0</ele><time>2026-04-18T10:31:28Z</time></trkpt><trkpt lat="45.7104391253863" lon="8.551618955502514"><ele>307.0</ele><time>2026-04-18T10:31:29Z</time></trkpt><trkpt lat="45.71046013809089" lon="8.55182987630376"><ele>305.66666666666663</ele><time>2026-04-18T10:31:30Z</time></trkpt><trkpt lat="45.71048513553714" lon="8.552054871854665"><ele>304.3333333333333</ele><time>2026-04-18T10:31:31Z</time></trkpt><trkpt lat="45.7105140718371" lon="8.552287096473533"><ele>303.0</ele><time>2026-04-18T10:31:32Z</time></trkpt><trkpt lat="45.71054767944543" lon="8.552522144429702"><ele>303.0</ele><time>2026-04-18T10:31:33Z</time></trkpt><trkpt lat="45.710589471566934" lon="8.552767600676049"><ele>303.0</ele><time>2026-04-18T10:31:34Z</time></trkpt><trkpt lat="45.710634441571955" lon="8.553018741151428"><ele>303.0</ele><time>2026-04-18T10:31:35Z</time></trkpt><trkpt lat="45.710678272603616" lon="8.553271867701211"><ele>302.5</ele><time>2026-04-18T10:31:36Z</time></trkpt><trkpt lat="45.710706142874784" lon="8.553531131296925"><ele>302.0</ele><time>2026-04-18T10:31:37Z</time></trkpt><trkpt lat="45.71080040961496" lon="8.554052745930223"><ele>302.0</ele><time>2026-04-18T10:31:39Z</time></trkpt><trkpt lat="45.710840053081384" lon="8.554319541262394"><ele>302.0</ele><time>2026-04-18T10:31:40Z</time></trkpt><trkpt lat="45.71087774031824" lon="8.554589204731316"><ele>302.0</ele><time>2026-04-18T10:31:41Z</time></trkpt><trkpt lat="45.71091633527974" lon="8.554855877192908"><ele>301.0</ele><time>2026-04-18T10:31:42Z</time></trkpt><trkpt lat="45.71095505477795" lon="8.555119505606458"><ele>300.0</ele><time>2026-04-18T10:31:43Z</time></trkpt><trkpt lat="45.710997841622046" lon="8.555376525953498"><ele>299.0</ele><time>2026-04-18T10:31:44Z</time></trkpt><trkpt lat="45.71103717112252" lon="8.555624188241302"><ele>300.33333333333337</ele><time>2026-04-18T10:31:45Z</time></trkpt><trkpt lat="45.711072225185745" lon="8.555863449729497"><ele>301.6666666666667</ele><time>2026-04-18T10:31:46Z</time></trkpt><trkpt lat="45.711107574191395" lon="8.556109696447088"><ele>303.0</ele><time>2026-04-18T10:31:47Z</time></trkpt><trkpt lat="45.711143736440796" lon="8.556350467882092"><ele>303.0</ele><time>2026-04-18T10:31:48Z</time></trkpt><trkpt lat="45.71118057702183" lon="8.556583672538794"><ele>303.0</ele><time>2026-04-18T10:31:49Z</time></trkpt><trkpt lat="45.71121709562612" lon="8.556795196970645"><ele>303.0</ele><time>2026-04-18T10:31:50Z</time></trkpt><trkpt lat="45.71124654142398" lon="8.557004536095466"><ele>301.6666666666667</ele><time>2026-04-18T10:31:51Z</time></trkpt><trkpt lat="45.711273879426834" lon="8.55722048720805"><ele>300.33333333333337</ele><time>2026-04-18T10:31:52Z</time></trkpt><trkpt lat="45.71130671632479" lon="8.557440373563688"><ele>299.0</ele><time>2026-04-18T10:31:53Z</time></trkpt><trkpt lat="45.71133980672909" lon="8.557665586681628"><ele>297.0</ele><time>2026-04-18T10:31:54Z</time></trkpt><trkpt lat="45.711371910883436" lon="8.557897803547574"><ele>295.0</ele><time>2026-04-18T10:31:55Z</time></trkpt><trkpt lat="45.71140704252143" lon="8.558134739623807"><ele>293.0</ele><time>2026-04-18T10:31:56Z</time></trkpt><trkpt lat="45.711439847012905" lon="8.558376620105802"><ele>293.0</ele><time>2026-04-18T10:31:57Z</time></trkpt><trkpt lat="45.71147661376893" lon="8.558593365594934"><ele>293.0</ele><time>2026-04-18T10:31:58Z</time></trkpt><trkpt lat="45.71149981422108" lon="8.558773858967207"><ele>293.0</ele><time>2026-04-18T10:31:59Z</time></trkpt><trkpt lat="45.71151263158408" lon="8.558912330850168"><ele>293.0</ele><time>2026-04-18T10:32:00Z</time></trkpt><trkpt lat="45.711508941173214" lon="8.559022195385536"><ele>292.83333333333337</ele><time>2026-04-18T10:32:01Z</time></trkpt><trkpt lat="45.71149061274817" lon="8.559121357593556"><ele>292.6666666666667</ele><time>2026-04-18T10:32:02Z</time></trkpt><trkpt lat="45.71145931128984" lon="8.559219171708298"><ele>292.5</ele><time>2026-04-18T10:32:03Z</time></trkpt><trkpt lat="45.71140923933416" lon="8.559319776854382"><ele>292.3333333333333</ele><time>2026-04-18T10:32:04Z</time></trkpt><trkpt lat="45.71132799621972" lon="8.559418189402498"><ele>292.16666666666663</ele><time>2026-04-18T10:32:05Z</time></trkpt><trkpt lat="45.71124167791714" lon="8.559474411069736"><ele>292.0</ele><time>2026-04-18T10:32:06Z</time></trkpt><trkpt lat="45.71114092651568" lon="8.559492766431621"><ele>293.4</ele><time>2026-04-18T10:32:07Z</time></trkpt><trkpt lat="45.71103116906778" lon="8.559474521983637"><ele>294.79999999999995</ele><time>2026-04-18T10:32:08Z</time></trkpt><trkpt lat="45.710918241875575" lon="8.559454746987486"><ele>296.2</ele><time>2026-04-18T10:32:09Z</time></trkpt><trkpt lat="45.71081284205055" lon="8.559449335809783"><ele>297.59999999999997</ele><time>2026-04-18T10:32:10Z</time></trkpt><trkpt lat="45.710728513349466" lon="8.559461829661"><ele>299.0</ele><time>2026-04-18T10:32:11Z</time></trkpt><trkpt lat="45.710662705347765" lon="8.559496772742994"><ele>299.1666666666667</ele><time>2026-04-18T10:32:13Z</time></trkpt><trkpt lat="45.71058469518814" lon="8.55957809356231"><ele>299.33333333333337</ele><time>2026-04-18T10:32:15Z</time></trkpt><trkpt lat="45.7105247037931" lon="8.559628722765968"><ele>299.5</ele><time>2026-04-18T10:32:16Z</time></trkpt><trkpt lat="45.71045667107532" lon="8.559689226615145"><ele>299.6666666666667</ele><time>2026-04-18T10:32:17Z</time></trkpt><trkpt lat="45.71037020076353" lon="8.559770059448796"><ele>299.8333333333333</ele><time>2026-04-18T10:32:18Z</time></trkpt><trkpt lat="45.71028301949906" lon="8.559838393244686"><ele>300.0</ele><time>2026-04-18T10:32:19Z</time></trkpt><trkpt lat="45.710190027654356" lon="8.559918325917199"><ele>300.0</ele><time>2026-04-18T10:32:20Z</time></trkpt><trkpt lat="45.71008726241346" lon="8.559999170826929"><ele>300.0</ele><time>2026-04-18T10:32:21Z</time></trkpt><trkpt lat="45.709977334962836" lon="8.560097774129208"><ele>300.0</ele><time>2026-04-18T10:32:22Z</time></trkpt><trkpt lat="45.70986776231195" lon="8.560190814831232"><ele>300.0</ele><time>2026-04-18T10:32:23Z</time></trkpt><trkpt lat="45.709761979881186" lon="8.560284657589568"><ele>300.25</ele><time>2026-04-18T10:32:24Z</time></trkpt><trkpt lat="45.709650798335566" lon="8.560377184994138"><ele>300.5</ele><time>2026-04-18T10:32:25Z</time></trkpt><trkpt lat="45.70954185422201" lon="8.560471417660235"><ele>300.75</ele><time>2026-04-18T10:32:26Z</time></trkpt><trkpt lat="45.70943105244032" lon="8.560563501410742"><ele>301.0</ele><time>2026-04-18T10:32:27Z</time></trkpt><trkpt lat="45.709318266275005" lon="8.560642856274397"><ele>301.5</ele><time>2026-04-18T10:32:28Z</time></trkpt><trkpt lat="45.70919576482254" lon="8.560661134094875"><ele>302.0</ele><time>2026-04-18T10:32:29Z</time></trkpt><trkpt lat="45.70907645319147" lon="8.56065749033897"><ele>302.5</ele><time>2026-04-18T10:32:30Z</time></trkpt><trkpt lat="45.70895559185138" lon="8.560618671456185"><ele>303.0</ele><time>2026-04-18T10:32:31Z</time></trkpt><trkpt lat="45.70881821527663" lon="8.560582998056242"><ele>303.0</ele><time>2026-04-18T10:32:32Z</time></trkpt><trkpt lat="45.70868960933546" lon="8.560503602888927"><ele>303.0</ele><time>2026-04-18T10:32:33Z</time></trkpt><trkpt lat="45.708564899945046" lon="8.560425381656854"><ele>303.0</ele><time>2026-04-18T10:32:34Z</time></trkpt><trkpt lat="45.708431752095194" lon="8.560397201078958"><ele>303.0</ele><time>2026-04-18T10:32:35Z</time></trkpt><trkpt lat="45.70833370113588" lon="8.56035683647985"><ele>304.0</ele><time>2026-04-18T10:32:36Z</time></trkpt><trkpt lat="45.70822268758393" lon="8.560301690792762"><ele>305.0</ele><time>2026-04-18T10:32:37Z</time></trkpt><trkpt lat="45.70801609143267" lon="8.560132297920152"><ele>306.0</ele><time>2026-04-18T10:32:38Z</time></trkpt><trkpt lat="45.7079187601745" lon="8.559971182635806"><ele>306.0</ele><time>2026-04-18T10:32:39Z</time></trkpt><trkpt lat="45.707865180471295" lon="8.559766497377556"><ele>306.0</ele><time>2026-04-18T10:32:40Z</time></trkpt><trkpt lat="45.707841781305284" lon="8.559536018966348"><ele>306.0</ele><time>2026-04-18T10:32:41Z</time></trkpt><trkpt lat="45.70782454432641" lon="8.559292887042808"><ele>307.3333333333333</ele><time>2026-04-18T10:32:42Z</time></trkpt><trkpt lat="45.70780602319205" lon="8.559040180691476"><ele>308.66666666666663</ele><time>2026-04-18T10:32:43Z</time></trkpt><trkpt lat="45.70778830611633" lon="8.558762731812193"><ele>310.0</ele><time>2026-04-18T10:32:44Z</time></trkpt><trkpt lat="45.707765754422006" lon="8.5585204844563"><ele>315.66666666666663</ele><time>2026-04-18T10:32:45Z</time></trkpt><trkpt lat="45.70774160413477" lon="8.558281609254008"><ele>321.3333333333333</ele><time>2026-04-18T10:32:46Z</time></trkpt><trkpt lat="45.707719889932385" lon="8.558048621760673"><ele>327.0</ele><time>2026-04-18T10:32:47Z</time></trkpt><trkpt lat="45.707687616700184" lon="8.557821921928031"><ele>328.0</ele><time>2026-04-18T10:32:48Z</time></trkpt><trkpt lat="45.7076638052867" lon="8.557599984580595"><ele>329.0</ele><time>2026-04-18T10:32:49Z</time></trkpt><trkpt lat="45.70762764350383" lon="8.557388440537597"><ele>330.0</ele><time>2026-04-18T10:32:50Z</time></trkpt><trkpt lat="45.70756190545446" lon="8.55720034412792"><ele>330.3333333333333</ele><time>2026-04-18T10:32:51Z</time></trkpt><trkpt lat="45.707456009661556" lon="8.557031324108086"><ele>330.66666666666663</ele><time>2026-04-18T10:32:52Z</time></trkpt><trkpt lat="45.707321461976534" lon="8.55687848207154"><ele>331.0</ele><time>2026-04-18T10:32:53Z</time></trkpt><trkpt lat="45.70715546214039" lon="8.556746329823815"><ele>331.0</ele><time>2026-04-18T10:32:54Z</time></trkpt><trkpt lat="45.70697175411382" lon="8.55663107877753"><ele>331.0</ele><time>2026-04-18T10:32:55Z</time></trkpt><trkpt lat="45.70679636342669" lon="8.556507218013566"><ele>331.0</ele><time>2026-04-18T10:32:56Z</time></trkpt><trkpt lat="45.70662510207258" lon="8.556403695787148"><ele>334.3333333333333</ele><time>2026-04-18T10:32:57Z</time></trkpt><trkpt lat="45.70647087182846" lon="8.556279870303356"><ele>337.6666666666667</ele><time>2026-04-18T10:32:58Z</time></trkpt><trkpt lat="45.70628272943106" lon="8.55616322778101"><ele>341.0</ele><time>2026-04-18T10:32:59Z</time></trkpt><trkpt lat="45.70610177365288" lon="8.556014115208741"><ele>344.0</ele><time>2026-04-18T10:33:00Z</time></trkpt><trkpt lat="45.7059168330513" lon="8.555884531222794"><ele>347.0</ele><time>2026-04-18T10:33:01Z</time></trkpt><trkpt lat="45.705728930427945" lon="8.555752871860989"><ele>350.0</ele><time>2026-04-18T10:33:02Z</time></trkpt><trkpt lat="45.70554138240723" lon="8.55564558090099"><ele>350.0</ele><time>2026-04-18T10:33:03Z</time></trkpt><trkpt lat="45.70537355700037" lon="8.55550106118821"><ele>350.0</ele><time>2026-04-18T10:33:04Z</time></trkpt><trkpt lat="45.70520606208811" lon="8.555382262778366"><ele>350.0</ele><time>2026-04-18T10:33:05Z</time></trkpt><trkpt lat="45.70504618622087" lon="8.555268735001258"><ele>354.33333333333337</ele><time>2026-04-18T10:33:06Z</time></trkpt><trkpt lat="45.704894193104685" lon="8.555160534886653"><ele>358.6666666666667</ele><time>2026-04-18T10:33:07Z</time></trkpt><trkpt lat="45.704751632468756" lon="8.555059307403669"><ele>363.0</ele><time>2026-04-18T10:33:08Z</time></trkpt><trkpt lat="45.704618826210826" lon="8.554966500559123"><ele>363.0</ele><time>2026-04-18T10:33:09Z</time></trkpt><trkpt lat="45.70448661002334" lon="8.554873931314772"><ele>363.0</ele><time>2026-04-18T10:33:10Z</time></trkpt><trkpt lat="45.70435886396229" lon="8.554784414756828"><ele>363.0</ele><time>2026-04-18T10:33:11Z</time></trkpt><trkpt lat="45.704230956487166" lon="8.554694785103887"><ele>363.0</ele><time>2026-04-18T10:33:12Z</time></trkpt><trkpt lat="45.704101612082944" lon="8.554603288871183"><ele>363.3333333333333</ele><time>2026-04-18T10:33:13Z</time></trkpt><trkpt lat="45.70396484866415" lon="8.554506502655414"><ele>363.66666666666663</ele><time>2026-04-18T10:33:14Z</time></trkpt><trkpt lat="45.7038251227193" lon="8.554407619954576"><ele>364.0</ele><time>2026-04-18T10:33:15Z</time></trkpt><trkpt lat="45.70368053611768" lon="8.554305297357292"><ele>365.3333333333333</ele><time>2026-04-18T10:33:16Z</time></trkpt><trkpt lat="45.70353325587241" lon="8.554201068510453"><ele>366.6666666666667</ele><time>2026-04-18T10:33:17Z</time></trkpt><trkpt lat="45.703382599818255" lon="8.554094450680473"><ele>368.0</ele><time>2026-04-18T10:33:18Z</time></trkpt><trkpt lat="45.70322638358129" lon="8.554007062555955"><ele>368.0</ele><time>2026-04-18T10:33:19Z</time></trkpt><trkpt lat="45.7030789849127" lon="8.553898206644064"><ele>368.0</ele><time>2026-04-18T10:33:20Z</time></trkpt><trkpt lat="45.702938422633125" lon="8.55378384110546"><ele>368.0</ele><time>2026-04-18T10:33:21Z</time></trkpt><trkpt lat="45.70278750810382" lon="8.553684141050999"><ele>370.33333333333337</ele><time>2026-04-18T10:33:22Z</time></trkpt><trkpt lat="45.70263588598659" lon="8.553591932200453"><ele>372.6666666666667</ele><time>2026-04-18T10:33:23Z</time></trkpt><trkpt lat="45.702478743143395" lon="8.553500718547426"><ele>375.0</ele><time>2026-04-18T10:33:24Z</time></trkpt><trkpt lat="45.702316669609516" lon="8.55341034263607"><ele>375.0</ele><time>2026-04-18T10:33:25Z</time></trkpt><trkpt lat="45.7021519915744" lon="8.553317187132556"><ele>375.0</ele><time>2026-04-18T10:33:26Z</time></trkpt><trkpt lat="45.70199055524105" lon="8.553227132307395"><ele>375.0</ele><time>2026-04-18T10:33:27Z</time></trkpt><trkpt lat="45.70183805114233" lon="8.553143157533384"><ele>374.2</ele><time>2026-04-18T10:33:28Z</time></trkpt><trkpt lat="45.70171739222852" lon="8.553077592272313"><ele>373.4</ele><time>2026-04-18T10:33:29Z</time></trkpt><trkpt lat="45.70161259426647" lon="8.553020680106219"><ele>372.6</ele><time>2026-04-18T10:33:30Z</time></trkpt><trkpt lat="45.70151563323816" lon="8.552968230205204"><ele>371.8</ele><time>2026-04-18T10:33:31Z</time></trkpt><trkpt lat="45.70143678662721" lon="8.552924938195934"><ele>371.0</ele><time>2026-04-18T10:33:32Z</time></trkpt><trkpt lat="45.701342602876" lon="8.552872498687446"><ele>371.0</ele><time>2026-04-18T10:33:34Z</time></trkpt><trkpt lat="45.70130049260994" lon="8.553081706148394"><ele>371.0</ele><time>2026-04-18T10:33:38Z</time></trkpt><trkpt lat="45.70128134890185" lon="8.553169461626409"><ele>371.0</ele><time>2026-04-18T10:33:40Z</time></trkpt><trkpt lat="45.70125756912226" lon="8.553307514663452"><ele>371.0</ele><time>2026-04-18T10:33:42Z</time></trkpt><trkpt lat="45.70125384727527" lon="8.553420245011216"><ele>371.0</ele><time>2026-04-18T10:33:43Z</time></trkpt><trkpt lat="45.70121765566938" lon="8.5535426193566"><ele>371.0</ele><time>2026-04-18T10:33:44Z</time></trkpt><trkpt lat="45.701196185546515" lon="8.553677153626156"><ele>371.0</ele><time>2026-04-18T10:33:45Z</time></trkpt><trkpt lat="45.701172027596954" lon="8.553830207330961"><ele>371.0</ele><time>2026-04-18T10:33:46Z</time></trkpt><trkpt lat="45.70114303908367" lon="8.553981103555042"><ele>371.0</ele><time>2026-04-18T10:33:47Z</time></trkpt><trkpt lat="45.70110808740573" lon="8.554121855881363"><ele>371.0</ele><time>2026-04-18T10:33:48Z</time></trkpt><trkpt lat="45.701087061264" lon="8.554266397206426"><ele>369.4</ele><time>2026-04-18T10:33:49Z</time></trkpt><trkpt lat="45.70105477050861" lon="8.554416342668251"><ele>367.8</ele><time>2026-04-18T10:33:50Z</time></trkpt><trkpt lat="45.701014758700474" lon="8.554569334365857"><ele>366.2</ele><time>2026-04-18T10:33:51Z</time></trkpt><trkpt lat="45.70098584328488" lon="8.554717212285231"><ele>364.59999999999997</ele><time>2026-04-18T10:33:52Z</time></trkpt><trkpt lat="45.70096644507532" lon="8.554861162352402"><ele>363.0</ele><time>2026-04-18T10:33:53Z</time></trkpt><trkpt lat="45.70093454304131" lon="8.55504383753341"><ele>363.0</ele><time>2026-04-18T10:33:54Z</time></trkpt><trkpt lat="45.700889415309604" lon="8.555210359941636"><ele>363.0</ele><time>2026-04-18T10:33:55Z</time></trkpt><trkpt lat="45.700865434199315" lon="8.555402602766351"><ele>363.0</ele><time>2026-04-18T10:33:56Z</time></trkpt><trkpt lat="45.70082750514067" lon="8.555590418799474"><ele>363.0</ele><time>2026-04-18T10:33:57Z</time></trkpt><trkpt lat="45.70078836790192" lon="8.555775359988013"><ele>363.0</ele><time>2026-04-18T10:33:58Z</time></trkpt><trkpt lat="45.70075035385497" lon="8.55595740595101"><ele>363.0</ele><time>2026-04-18T10:33:59Z</time></trkpt><trkpt lat="45.70071555989656" lon="8.556136093314716"><ele>363.0</ele><time>2026-04-18T10:34:00Z</time></trkpt><trkpt lat="45.70068081601122" lon="8.556327959557928"><ele>363.0</ele><time>2026-04-18T10:34:01Z</time></trkpt><trkpt lat="45.70064480477355" lon="8.556505973459664"><ele>362.5</ele><time>2026-04-18T10:34:02Z</time></trkpt><trkpt lat="45.70060861430466" lon="8.556692174639975"><ele>362.0</ele><time>2026-04-18T10:34:03Z</time></trkpt><trkpt lat="45.700572129015825" lon="8.556890259936843"><ele>361.5</ele><time>2026-04-18T10:34:04Z</time></trkpt><trkpt lat="45.700536463791515" lon="8.557074887125484"><ele>361.0</ele><time>2026-04-18T10:34:05Z</time></trkpt><trkpt lat="45.70050544931914" lon="8.557262491897633"><ele>360.75</ele><time>2026-04-18T10:34:06Z</time></trkpt><trkpt lat="45.700473533897465" lon="8.557452070369312"><ele>360.5</ele><time>2026-04-18T10:34:07Z</time></trkpt><trkpt lat="45.700435782714486" lon="8.557638270374156"><ele>360.25</ele><time>2026-04-18T10:34:08Z</time></trkpt><trkpt lat="45.70039476328096" lon="8.557846064917634"><ele>360.0</ele><time>2026-04-18T10:34:09Z</time></trkpt><trkpt lat="45.70034932821576" lon="8.558097772244075"><ele>359.6666666666667</ele><time>2026-04-18T10:34:10Z</time></trkpt><trkpt lat="45.700297044775006" lon="8.558330136344031"><ele>359.33333333333337</ele><time>2026-04-18T10:34:11Z</time></trkpt><trkpt lat="45.70025198482291" lon="8.558549792312764"><ele>359.0</ele><time>2026-04-18T10:34:12Z</time></trkpt><trkpt lat="45.7002279704686" lon="8.55873896800059"><ele>358.0</ele><time>2026-04-18T10:34:13Z</time></trkpt><trkpt lat="45.70019465921936" lon="8.558890744530427"><ele>357.0</ele><time>2026-04-18T10:34:14Z</time></trkpt><trkpt lat="45.70015279585413" lon="8.559035802250895"><ele>356.0</ele><time>2026-04-18T10:34:15Z</time></trkpt><trkpt lat="45.700119928068446" lon="8.55920482489693"><ele>355.0</ele><time>2026-04-18T10:34:16Z</time></trkpt><trkpt lat="45.70009200793071" lon="8.559398339208741"><ele>355.0</ele><time>2026-04-18T10:34:17Z</time></trkpt><trkpt lat="45.70005541262826" lon="8.559535808344108"><ele>355.0</ele><time>2026-04-18T10:34:18Z</time></trkpt><trkpt lat="45.700031058544425" lon="8.55969907804705"><ele>355.0</ele><time>2026-04-18T10:34:19Z</time></trkpt><trkpt lat="45.6999996817193" lon="8.55986653343951"><ele>355.0</ele><time>2026-04-18T10:34:20Z</time></trkpt><trkpt lat="45.69996925688946" lon="8.56000692734173"><ele>355.0</ele><time>2026-04-18T10:34:21Z</time></trkpt><trkpt lat="45.69994751872205" lon="8.56015719973979"><ele>355.0</ele><time>2026-04-18T10:34:22Z</time></trkpt><trkpt lat="45.69991513778411" lon="8.560314216897199"><ele>355.0</ele><time>2026-04-18T10:34:23Z</time></trkpt><trkpt lat="45.69987841790123" lon="8.560446097938101"><ele>355.0</ele><time>2026-04-18T10:34:24Z</time></trkpt><trkpt lat="45.699846557648144" lon="8.56059161054942"><ele>355.0</ele><time>2026-04-18T10:34:25Z</time></trkpt><trkpt lat="45.69981706864834" lon="8.560743100769391"><ele>355.0</ele><time>2026-04-18T10:34:26Z</time></trkpt><trkpt lat="45.699789476224964" lon="8.560911389881648"><ele>355.0</ele><time>2026-04-18T10:34:27Z</time></trkpt><trkpt lat="45.69974681779591" lon="8.561089869824704"><ele>355.0</ele><time>2026-04-18T10:34:28Z</time></trkpt><trkpt lat="45.699708177460295" lon="8.561285960091748"><ele>355.0</ele><time>2026-04-18T10:34:29Z</time></trkpt><trkpt lat="45.69967722993892" lon="8.561488165244205"><ele>355.0</ele><time>2026-04-18T10:34:30Z</time></trkpt><trkpt lat="45.699645999267446" lon="8.561671758869501"><ele>354.75</ele><time>2026-04-18T10:34:31Z</time></trkpt><trkpt lat="45.699610449616266" lon="8.561847137127582"><ele>354.5</ele><time>2026-04-18T10:34:32Z</time></trkpt><trkpt lat="45.699574750190614" lon="8.562026068240545"><ele>354.25</ele><time>2026-04-18T10:34:33Z</time></trkpt><trkpt lat="45.699537523562526" lon="8.562206875842152"><ele>354.0</ele><time>2026-04-18T10:34:34Z</time></trkpt><trkpt lat="45.69950552510313" lon="8.562385009146867"><ele>353.75</ele><time>2026-04-18T10:34:35Z</time></trkpt><trkpt lat="45.699469163266436" lon="8.562584786212923"><ele>353.5</ele><time>2026-04-18T10:34:36Z</time></trkpt><trkpt lat="45.699428197714425" lon="8.562777035683256"><ele>353.25</ele><time>2026-04-18T10:34:37Z</time></trkpt><trkpt lat="45.699387677932286" lon="8.562948625610222"><ele>353.0</ele><time>2026-04-18T10:34:38Z</time></trkpt><trkpt lat="45.69935075527758" lon="8.563143082092484"><ele>352.0</ele><time>2026-04-18T10:34:39Z</time></trkpt><trkpt lat="45.69928267690985" lon="8.563484968146092"><ele>351.0</ele><time>2026-04-18T10:34:41Z</time></trkpt><trkpt lat="45.69924095759135" lon="8.563648301649945"><ele>350.0</ele><time>2026-04-18T10:34:42Z</time></trkpt><trkpt lat="45.699210718609606" lon="8.563825079350718"><ele>349.75</ele><time>2026-04-18T10:34:43Z</time></trkpt><trkpt lat="45.69918145317015" lon="8.56399274023413"><ele>349.5</ele><time>2026-04-18T10:34:44Z</time></trkpt><trkpt lat="45.69915355164069" lon="8.564177489991339"><ele>349.25</ele><time>2026-04-18T10:34:45Z</time></trkpt><trkpt lat="45.699115811632645" lon="8.56435795910956"><ele>349.0</ele><time>2026-04-18T10:34:46Z</time></trkpt><trkpt lat="45.699091677641164" lon="8.564502037825998"><ele>349.75</ele><time>2026-04-18T10:34:47Z</time></trkpt><trkpt lat="45.69906412551679" lon="8.564652697114639"><ele>350.5</ele><time>2026-04-18T10:34:48Z</time></trkpt><trkpt lat="45.69903910992117" lon="8.564821231236762"><ele>351.25</ele><time>2026-04-18T10:34:49Z</time></trkpt><trkpt lat="45.69899418818557" lon="8.564980039150596"><ele>352.0</ele><time>2026-04-18T10:34:50Z</time></trkpt><trkpt lat="45.69896209037836" lon="8.565176990398506"><ele>352.3333333333333</ele><time>2026-04-18T10:34:51Z</time></trkpt><trkpt lat="45.698920136655445" lon="8.565405381116955"><ele>352.6666666666667</ele><time>2026-04-18T10:34:52Z</time></trkpt><trkpt lat="45.6988710424498" lon="8.565649987595862"><ele>353.0</ele><time>2026-04-18T10:34:53Z</time></trkpt><trkpt lat="45.69882433644706" lon="8.565879574359068"><ele>353.0</ele><time>2026-04-18T10:34:54Z</time></trkpt><trkpt lat="45.6987772138316" lon="8.56609609273551"><ele>353.0</ele><time>2026-04-18T10:34:55Z</time></trkpt><trkpt lat="45.698741216507806" lon="8.566282555031076"><ele>353.0</ele><time>2026-04-18T10:34:56Z</time></trkpt><trkpt lat="45.69871213904154" lon="8.566435560038627"><ele>353.0</ele><time>2026-04-18T10:34:57Z</time></trkpt><trkpt lat="45.69868517980252" lon="8.56658919018989"><ele>353.0</ele><time>2026-04-18T10:34:58Z</time></trkpt><trkpt lat="45.69866148239525" lon="8.566736285099186"><ele>353.0</ele><time>2026-04-18T10:34:59Z</time></trkpt><trkpt lat="45.69862900981462" lon="8.566886038691372"><ele>353.0</ele><time>2026-04-18T10:35:00Z</time></trkpt><trkpt lat="45.698598105252195" lon="8.567037674627988"><ele>353.0</ele><time>2026-04-18T10:35:01Z</time></trkpt><trkpt lat="45.6985675757572" lon="8.567182451675098"><ele>353.0</ele><time>2026-04-18T10:35:02Z</time></trkpt><trkpt lat="45.69854243362026" lon="8.567323386134776"><ele>351.25</ele><time>2026-04-18T10:35:03Z</time></trkpt><trkpt lat="45.69851102020996" lon="8.567476194135686"><ele>349.5</ele><time>2026-04-18T10:35:04Z</time></trkpt><trkpt lat="45.698479814434975" lon="8.567631190576499"><ele>347.75</ele><time>2026-04-18T10:35:05Z</time></trkpt><trkpt lat="45.698451561111355" lon="8.567789945544215"><ele>346.0</ele><time>2026-04-18T10:35:06Z</time></trkpt><trkpt lat="45.698425063723384" lon="8.567951514035979"><ele>346.0</ele><time>2026-04-18T10:35:07Z</time></trkpt><trkpt lat="45.6983982319286" lon="8.568094256968354"><ele>346.0</ele><time>2026-04-18T10:35:08Z</time></trkpt><trkpt lat="45.69837185886556" lon="8.56823377570362"><ele>346.0</ele><time>2026-04-18T10:35:09Z</time></trkpt><trkpt lat="45.69834640490655" lon="8.568364473236983"><ele>346.0</ele><time>2026-04-18T10:35:10Z</time></trkpt><trkpt lat="45.698321828326264" lon="8.568493468007325"><ele>346.0</ele><time>2026-04-18T10:35:11Z</time></trkpt><trkpt lat="45.698280391855285" lon="8.568610804238764"><ele>346.4</ele><time>2026-04-18T10:35:12Z</time></trkpt><trkpt lat="45.69825844848202" lon="8.56870624980625"><ele>346.8</ele><time>2026-04-18T10:35:13Z</time></trkpt><trkpt lat="45.698223212343855" lon="8.568850453630164"><ele>347.2</ele><time>2026-04-18T10:35:14Z</time></trkpt><trkpt lat="45.69818265358786" lon="8.569006543441839"><ele>347.59999999999997</ele><time>2026-04-18T10:35:15Z</time></trkpt><trkpt lat="45.69815007338881" lon="8.569128190312252"><ele>348.0</ele><time>2026-04-18T10:35:16Z</time></trkpt><trkpt lat="45.69812569265648" lon="8.569218209734323"><ele>348.0</ele><time>2026-04-18T10:35:17Z</time></trkpt><trkpt lat="45.698097522233375" lon="8.56933385627604"><ele>348.0</ele><time>2026-04-18T10:35:19Z</time></trkpt><trkpt lat="45.69811494229116" lon="8.569177250020266"><ele>348.0</ele><time>2026-04-18T10:35:31Z</time></trkpt><trkpt lat="45.6981566519291" lon="8.56906797806497"><ele>348.0</ele><time>2026-04-18T10:35:32Z</time></trkpt><trkpt lat="45.69819366906211" lon="8.568946865715057"><ele>348.0</ele><time>2026-04-18T10:35:34Z</time></trkpt><trkpt lat="45.698235560090644" lon="8.568841798409604"><ele>348.0</ele><time>2026-04-18T10:35:36Z</time></trkpt><trkpt lat="45.69825232443108" lon="8.568749204302803"><ele>348.0</ele><time>2026-04-18T10:35:37Z</time></trkpt><trkpt lat="45.69826745651784" lon="8.568652320156207"><ele>348.0</ele><time>2026-04-18T10:35:38Z</time></trkpt><trkpt lat="45.698289470504626" lon="8.56856709005997"><ele>348.0</ele><time>2026-04-18T10:35:39Z</time></trkpt><trkpt lat="45.69834119105811" lon="8.56849187413406"><ele>348.0</ele><time>2026-04-18T10:35:40Z</time></trkpt><trkpt lat="45.69836215370139" lon="8.568395679351022"><ele>348.0</ele><time>2026-04-18T10:35:41Z</time></trkpt><trkpt lat="45.69837482622924" lon="8.568252625970706"><ele>348.0</ele><time>2026-04-18T10:35:43Z</time></trkpt><trkpt lat="45.69840894226615" lon="8.568129025124065"><ele>347.59999999999997</ele><time>2026-04-18T10:35:45Z</time></trkpt><trkpt lat="45.69838540505018" lon="8.56821388377808"><ele>347.2</ele><time>2026-04-18T10:35:51Z</time></trkpt><trkpt lat="45.69819335027878" lon="8.568209922933075"><ele>346.8</ele><time>2026-04-18T10:35:52Z</time></trkpt><trkpt lat="45.69810628508962" lon="8.568190129188041"><ele>346.4</ele><time>2026-04-18T10:35:53Z</time></trkpt><trkpt lat="45.698017721818374" lon="8.568161813212315"><ele>346.0</ele><time>2026-04-18T10:35:54Z</time></trkpt><trkpt lat="45.69789559556453" lon="8.56813971312427"><ele>346.0</ele><time>2026-04-18T10:35:55Z</time></trkpt><trkpt lat="45.69777817651064" lon="8.56808583693681"><ele>346.0</ele><time>2026-04-18T10:35:56Z</time></trkpt><trkpt lat="45.6976847028775" lon="8.568060248790871"><ele>346.0</ele><time>2026-04-18T10:35:57Z</time></trkpt><trkpt lat="45.69760300596845" lon="8.56807709674217"><ele>346.0</ele><time>2026-04-18T10:35:58Z</time></trkpt><trkpt lat="45.697507596266" lon="8.568114886873463"><ele>346.0</ele><time>2026-04-18T10:35:59Z</time></trkpt><trkpt lat="45.697399411643644" lon="8.568161784496828"><ele>345.0</ele><time>2026-04-18T10:36:00Z</time></trkpt><trkpt lat="45.69728851597043" lon="8.568219513749904"><ele>344.0</ele><time>2026-04-18T10:36:01Z</time></trkpt><trkpt lat="45.69720640743777" lon="8.568266673039673"><ele>343.0</ele><time>2026-04-18T10:36:02Z</time></trkpt><trkpt lat="45.697118238221044" lon="8.568323392645652"><ele>342.0</ele><time>2026-04-18T10:36:03Z</time></trkpt><trkpt lat="45.697069698678916" lon="8.568381294416918"><ele>341.0</ele><time>2026-04-18T10:36:04Z</time></trkpt><trkpt lat="45.69698155802702" lon="8.568405815513005"><ele>340.1666666666667</ele><time>2026-04-18T10:36:05Z</time></trkpt><trkpt lat="45.696862844503414" lon="8.568372461461607"><ele>339.33333333333337</ele><time>2026-04-18T10:36:06Z</time></trkpt><trkpt lat="45.696774549440974" lon="8.568359181901474"><ele>338.5</ele><time>2026-04-18T10:36:07Z</time></trkpt><trkpt lat="45.69671492450072" lon="8.568311918215864"><ele>337.6666666666667</ele><time>2026-04-18T10:36:08Z</time></trkpt><trkpt lat="45.6966445507541" lon="8.568257824723645"><ele>336.8333333333333</ele><time>2026-04-18T10:36:09Z</time></trkpt><trkpt lat="45.69657009080648" lon="8.568228516973047"><ele>336.0</ele><time>2026-04-18T10:36:11Z</time></trkpt><trkpt lat="45.696512909323665" lon="8.568331144679057"><ele>336.0</ele><time>2026-04-18T10:36:13Z</time></trkpt><trkpt lat="45.69647847863526" lon="8.568431964299318"><ele>336.0</ele><time>2026-04-18T10:36:14Z</time></trkpt><trkpt lat="45.6964801957656" lon="8.568576939408056"><ele>336.0</ele><time>2026-04-18T10:36:16Z</time></trkpt><trkpt lat="45.69645012937638" lon="8.568665885075847"><ele>336.0</ele><time>2026-04-18T10:36:17Z</time></trkpt><trkpt lat="45.69641815522626" lon="8.568841847113838"><ele>336.0</ele><time>2026-04-18T10:36:19Z</time></trkpt><trkpt lat="45.69640487607128" lon="8.56893138901582"><ele>336.0</ele><time>2026-04-18T10:36:20Z</time></trkpt><trkpt lat="45.69636941605015" lon="8.569025664699804"><ele>335.8333333333333</ele><time>2026-04-18T10:36:21Z</time></trkpt><trkpt lat="45.696319440352056" lon="8.569120907858784"><ele>335.6666666666667</ele><time>2026-04-18T10:36:23Z</time></trkpt><trkpt lat="45.696277968703285" lon="8.569207230577405"><ele>335.5</ele><time>2026-04-18T10:36:25Z</time></trkpt><trkpt lat="45.69634022863422" lon="8.569245809890772"><ele>335.33333333333337</ele><time>2026-04-18T10:36:29Z</time></trkpt><trkpt lat="45.696367927278935" lon="8.569110921292006"><ele>335.1666666666667</ele><time>2026-04-18T10:36:31Z</time></trkpt><trkpt lat="45.69636948313817" lon="8.568976488403687"><ele>335.0</ele><time>2026-04-18T10:36:32Z</time></trkpt><trkpt lat="45.69638488375086" lon="8.568877987393417"><ele>335.0</ele><time>2026-04-18T10:36:33Z</time></trkpt><trkpt lat="45.69639874931021" lon="8.568755427293647"><ele>335.0</ele><time>2026-04-18T10:36:36Z</time></trkpt><trkpt lat="45.69640014073546" lon="8.568654894796735"><ele>335.0</ele><time>2026-04-18T10:36:38Z</time></trkpt><trkpt lat="45.696448099038825" lon="8.5685607308266"><ele>335.0</ele><time>2026-04-18T10:36:39Z</time></trkpt><trkpt lat="45.696488966493376" lon="8.568467118609647"><ele>335.0</ele><time>2026-04-18T10:36:40Z</time></trkpt><trkpt lat="45.69647530132502" lon="8.568377056938033"><ele>335.0</ele><time>2026-04-18T10:36:42Z</time></trkpt><trkpt lat="45.69638087847559" lon="8.56837065543165"><ele>335.1666666666667</ele><time>2026-04-18T10:36:45Z</time></trkpt><trkpt lat="45.69630838722066" lon="8.568367518554348"><ele>335.33333333333337</ele><time>2026-04-18T10:36:46Z</time></trkpt><trkpt lat="45.6962375683044" lon="8.568335413579478"><ele>335.5</ele><time>2026-04-18T10:36:47Z</time></trkpt><trkpt lat="45.69616836497124" lon="8.568301638164064"><ele>335.6666666666667</ele><time>2026-04-18T10:36:48Z</time></trkpt><trkpt lat="45.69608269673432" lon="8.568256970208367"><ele>335.8333333333333</ele><time>2026-04-18T10:36:49Z</time></trkpt><trkpt lat="45.695988446530215" lon="8.568214571152552"><ele>336.0</ele><time>2026-04-18T10:36:50Z</time></trkpt><trkpt lat="45.695886035696745" lon="8.568191924755515"><ele>336.5</ele><time>2026-04-18T10:36:51Z</time></trkpt><trkpt lat="45.695804917694446" lon="8.568185743896127"><ele>337.0</ele><time>2026-04-18T10:36:52Z</time></trkpt><trkpt lat="45.69574257813021" lon="8.568138455214498"><ele>337.5</ele><time>2026-04-18T10:36:53Z</time></trkpt><trkpt lat="45.69568486675708" lon="8.568085987269262"><ele>338.0</ele><time>2026-04-18T10:36:54Z</time></trkpt><trkpt lat="45.69564212097656" lon="8.567999582203726"><ele>338.5</ele><time>2026-04-18T10:36:55Z</time></trkpt><trkpt lat="45.695611773334754" lon="8.567901910182425"><ele>339.0</ele><time>2026-04-18T10:36:56Z</time></trkpt><trkpt lat="45.69558513562876" lon="8.567767011779265"><ele>339.2</ele><time>2026-04-18T10:36:57Z</time></trkpt><trkpt lat="45.69557430582572" lon="8.567637188669424"><ele>339.4</ele><time>2026-04-18T10:36:58Z</time></trkpt><trkpt lat="45.695556034101095" lon="8.567514441609637"><ele>339.6</ele><time>2026-04-18T10:36:59Z</time></trkpt><trkpt lat="45.69554004217991" lon="8.567357810786026"><ele>339.8</ele><time>2026-04-18T10:37:00Z</time></trkpt><trkpt lat="45.695531108337" lon="8.56722353763104"><ele>340.0</ele><time>2026-04-18T10:37:01Z</time></trkpt><trkpt lat="45.69552082616321" lon="8.56705500091794"><ele>340.0</ele><time>2026-04-18T10:37:02Z</time></trkpt><trkpt lat="45.695497397518935" lon="8.566869624814203"><ele>340.0</ele><time>2026-04-18T10:37:03Z</time></trkpt><trkpt lat="45.69547921948807" lon="8.566671352381421"><ele>340.0</ele><time>2026-04-18T10:37:04Z</time></trkpt><trkpt lat="45.69545902876797" lon="8.566448183827804"><ele>340.0</ele><time>2026-04-18T10:37:05Z</time></trkpt><trkpt lat="45.69544473403759" lon="8.566264369852489"><ele>340.5</ele><time>2026-04-18T10:37:06Z</time></trkpt><trkpt lat="45.69541990198485" lon="8.566115282617666"><ele>341.0</ele><time>2026-04-18T10:37:07Z</time></trkpt><trkpt lat="45.695411688245144" lon="8.56599716992557"><ele>341.5</ele><time>2026-04-18T10:37:08Z</time></trkpt><trkpt lat="45.69538965646462" lon="8.565893134172597"><ele>342.0</ele><time>2026-04-18T10:37:09Z</time></trkpt><trkpt lat="45.695378613642625" lon="8.565787737424829"><ele>342.5</ele><time>2026-04-18T10:37:11Z</time></trkpt><trkpt lat="45.69535385355826" lon="8.565666367392087"><ele>343.0</ele><time>2026-04-18T10:37:16Z</time></trkpt><trkpt lat="45.695283582088734" lon="8.565552897236055"><ele>344.3333333333333</ele><time>2026-04-18T10:37:18Z</time></trkpt><trkpt lat="45.69498785310044" lon="8.565772066750748"><ele>345.6666666666667</ele><time>2026-04-18T10:37:19Z</time></trkpt><trkpt lat="45.69491825452628" lon="8.565763345293435"><ele>347.0</ele><time>2026-04-18T10:37:20Z</time></trkpt><trkpt lat="45.694848407506896" lon="8.565770866729782"><ele>347.0</ele><time>2026-04-18T10:37:22Z</time></trkpt><trkpt lat="45.69478063304002" lon="8.56576948544952"><ele>347.0</ele><time>2026-04-18T10:37:24Z</time></trkpt><trkpt lat="45.694648640388124" lon="8.565722524060394"><ele>347.0</ele><time>2026-04-18T10:37:26Z</time></trkpt><trkpt lat="45.69456222112042" lon="8.565698345231642"><ele>347.0</ele><time>2026-04-18T10:37:27Z</time></trkpt><trkpt lat="45.69446377396094" lon="8.565679302089979"><ele>347.0</ele><time>2026-04-18T10:37:28Z</time></trkpt><trkpt lat="45.69435288357856" lon="8.565649366321162"><ele>347.0</ele><time>2026-04-18T10:37:29Z</time></trkpt><trkpt lat="45.694252639909806" lon="8.565630386640331"><ele>347.0</ele><time>2026-04-18T10:37:30Z</time></trkpt><trkpt lat="45.69416304585541" lon="8.565643711732928"><ele>347.0</ele><time>2026-04-18T10:37:31Z</time></trkpt><trkpt lat="45.69409225050828" lon="8.565645011270092"><ele>347.0</ele><time>2026-04-18T10:37:32Z</time></trkpt><trkpt lat="45.69401525901859" lon="8.565695395534409"><ele>347.0</ele><time>2026-04-18T10:37:33Z</time></trkpt><trkpt lat="45.693932089899576" lon="8.565741162206123"><ele>347.0</ele><time>2026-04-18T10:37:34Z</time></trkpt><trkpt lat="45.693865577282914" lon="8.56575853335547"><ele>347.0</ele><time>2026-04-18T10:37:35Z</time></trkpt><trkpt lat="45.69379836978473" lon="8.565737655034825"><ele>347.0</ele><time>2026-04-18T10:37:36Z</time></trkpt><trkpt lat="45.69370583162731" lon="8.565712053866314"><ele>347.0</ele><time>2026-04-18T10:37:37Z</time></trkpt><trkpt lat="45.693629453850754" lon="8.565703973598971"><ele>347.0</ele><time>2026-04-18T10:37:38Z</time></trkpt><trkpt lat="45.69355630591753" lon="8.565684951497808"><ele>347.0</ele><time>2026-04-18T10:37:39Z</time></trkpt><trkpt lat="45.693484646593646" lon="8.565666239274902"><ele>347.0</ele><time>2026-04-18T10:37:40Z</time></trkpt><trkpt lat="45.69338312633057" lon="8.565612751223794"><ele>347.0</ele><time>2026-04-18T10:37:41Z</time></trkpt><trkpt lat="45.693296981555164" lon="8.565606603005028"><ele>347.0</ele><time>2026-04-18T10:37:43Z</time></trkpt><trkpt lat="45.693274040050774" lon="8.56550477282827"><ele>347.0</ele><time>2026-04-18T10:37:47Z</time></trkpt><trkpt lat="45.69324852820262" lon="8.565406587513358"><ele>347.0</ele><time>2026-04-18T10:37:49Z</time></trkpt><trkpt lat="45.69318796538552" lon="8.565308591186696"><ele>347.0</ele><time>2026-04-18T10:37:51Z</time></trkpt><trkpt lat="45.69311553100104" lon="8.56517024287959"><ele>347.0</ele><time>2026-04-18T10:37:53Z</time></trkpt><trkpt lat="45.69309003828603" lon="8.565055816248417"><ele>347.0</ele><time>2026-04-18T10:37:54Z</time></trkpt><trkpt lat="45.693059980611665" lon="8.564934792774592"><ele>347.0</ele><time>2026-04-18T10:37:55Z</time></trkpt><trkpt lat="45.693027015269976" lon="8.564816607897358"><ele>347.0</ele><time>2026-04-18T10:37:56Z</time></trkpt><trkpt lat="45.692992744895626" lon="8.564661045780934"><ele>347.0</ele><time>2026-04-18T10:37:57Z</time></trkpt><trkpt lat="45.69298212811077" lon="8.564503989050102"><ele>347.0</ele><time>2026-04-18T10:37:58Z</time></trkpt><trkpt lat="45.69295475075782" lon="8.564412832279285"><ele>347.1666666666667</ele><time>2026-04-18T10:37:59Z</time></trkpt><trkpt lat="45.69293083041618" lon="8.56427500834371"><ele>347.33333333333337</ele><time>2026-04-18T10:38:01Z</time></trkpt><trkpt lat="45.6929331665858" lon="8.56418373379426"><ele>347.5</ele><time>2026-04-18T10:38:03Z</time></trkpt><trkpt lat="45.69293646097141" lon="8.564079042285586"><ele>347.6666666666667</ele><time>2026-04-18T10:38:05Z</time></trkpt><trkpt lat="45.69289590640661" lon="8.564156678818344"><ele>347.8333333333333</ele><time>2026-04-18T10:38:09Z</time></trkpt><trkpt lat="45.6929242048252" lon="8.564304444058791"><ele>348.0</ele><time>2026-04-18T10:38:11Z</time></trkpt><trkpt lat="45.69295286412509" lon="8.564389921018023"><ele>348.0</ele><time>2026-04-18T10:38:12Z</time></trkpt><trkpt lat="45.69297942898878" lon="8.56448889015586"><ele>348.0</ele><time>2026-04-18T10:38:14Z</time></trkpt><trkpt lat="45.69300552537912" lon="8.564632760440423"><ele>348.0</ele><time>2026-04-18T10:38:17Z</time></trkpt><trkpt lat="45.69302449595317" lon="8.564721893379705"><ele>348.0</ele><time>2026-04-18T10:38:18Z</time></trkpt><trkpt lat="45.69306580482545" lon="8.564872778362503"><ele>348.0</ele><time>2026-04-18T10:38:20Z</time></trkpt><trkpt lat="45.69311146715667" lon="8.565029008848681"><ele>347.8333333333333</ele><time>2026-04-18T10:38:22Z</time></trkpt><trkpt lat="45.693136480037595" lon="8.565117855032616"><ele>347.6666666666667</ele><time>2026-04-18T10:38:23Z</time></trkpt><trkpt lat="45.69315768631922" lon="8.565224934182464"><ele>347.5</ele><time>2026-04-18T10:38:24Z</time></trkpt><trkpt lat="45.69320098593273" lon="8.565326062668577"><ele>347.33333333333337</ele><time>2026-04-18T10:38:26Z</time></trkpt><trkpt lat="45.69317989287193" lon="8.565452748169085"><ele>347.1666666666667</ele><time>2026-04-18T10:38:29Z</time></trkpt><trkpt lat="45.693221973316035" lon="8.565522832055281"><ele>347.0</ele><time>2026-04-18T10:38:31Z</time></trkpt><trkpt lat="45.69321474040931" lon="8.56564350778865"><ele>347.0</ele><time>2026-04-18T10:38:35Z</time></trkpt><trkpt lat="45.693171540050955" lon="8.565826548617654"><ele>347.0</ele><time>2026-04-18T10:38:37Z</time></trkpt><trkpt lat="45.69315379477125" lon="8.56594392180168"><ele>347.0</ele><time>2026-04-18T10:38:38Z</time></trkpt><trkpt lat="45.693108910636084" lon="8.566014631511383"><ele>347.0</ele><time>2026-04-18T10:38:39Z</time></trkpt><trkpt lat="45.69307673508212" lon="8.56614612777372"><ele>347.0</ele><time>2026-04-18T10:38:41Z</time></trkpt><trkpt lat="45.69296828570516" lon="8.566145421525"><ele>347.0</ele><time>2026-04-18T10:38:43Z</time></trkpt><trkpt lat="45.69287087737399" lon="8.56613054955823"><ele>347.0</ele><time>2026-04-18T10:38:44Z</time></trkpt><trkpt lat="45.692800438810444" lon="8.566221812279226"><ele>347.0</ele><time>2026-04-18T10:38:46Z</time></trkpt><trkpt lat="45.692814708539174" lon="8.566310365294273"><ele>347.0</ele><time>2026-04-18T10:38:48Z</time></trkpt><trkpt lat="45.69284119174445" lon="8.566461788731118"><ele>347.0</ele><time>2026-04-18T10:38:50Z</time></trkpt><trkpt lat="45.6928332905665" lon="8.566623218518766"><ele>347.20000000000005</ele><time>2026-04-18T10:38:51Z</time></trkpt><trkpt lat="45.69280958460619" lon="8.566826260348343"><ele>347.4</ele><time>2026-04-18T10:38:52Z</time></trkpt><trkpt lat="45.69279894696208" lon="8.566998337001746"><ele>347.6</ele><time>2026-04-18T10:38:53Z</time></trkpt><trkpt lat="45.6927968491314" lon="8.567112506781386"><ele>347.79999999999995</ele><time>2026-04-18T10:38:54Z</time></trkpt><trkpt lat="45.69277446033348" lon="8.567208247797518"><ele>348.0</ele><time>2026-04-18T10:38:55Z</time></trkpt><trkpt lat="45.69275552795675" lon="8.567322375288795"><ele>347.2</ele><time>2026-04-18T10:38:57Z</time></trkpt><trkpt lat="45.69273377576426" lon="8.567429326550807"><ele>346.4</ele><time>2026-04-18T10:39:06Z</time></trkpt><trkpt lat="45.69276033948607" lon="8.567583548062622"><ele>345.59999999999997</ele><time>2026-04-18T10:39:08Z</time></trkpt><trkpt lat="45.69276790588659" lon="8.567688912461117"><ele>344.79999999999995</ele><time>2026-04-18T10:39:10Z</time></trkpt><trkpt lat="45.69278284326997" lon="8.567824816891228"><ele>344.0</ele><time>2026-04-18T10:39:12Z</time></trkpt><trkpt lat="45.69279230220294" lon="8.56796890552591"><ele>343.8571428571429</ele><time>2026-04-18T10:39:14Z</time></trkpt><trkpt lat="45.69279247325488" lon="8.568070422101124"><ele>343.7142857142857</ele><time>2026-04-18T10:39:16Z</time></trkpt><trkpt lat="45.692807718271645" lon="8.568179283222177"><ele>343.57142857142856</ele><time>2026-04-18T10:39:18Z</time></trkpt><trkpt lat="45.6928054560987" lon="8.568279972914125"><ele>343.42857142857144</ele><time>2026-04-18T10:39:20Z</time></trkpt><trkpt lat="45.69275262764405" lon="8.56834311005488"><ele>343.2857142857143</ele><time>2026-04-18T10:39:23Z</time></trkpt><trkpt lat="45.69274414657387" lon="8.568253295953262"><ele>343.14285714285717</ele><time>2026-04-18T10:39:30Z</time></trkpt><trkpt lat="45.692807681377275" lon="8.568247892792204"><ele>343.0</ele><time>2026-04-18T10:39:33Z</time></trkpt><trkpt lat="45.692805827100074" lon="8.568074992424826"><ele>343.0</ele><time>2026-04-18T10:39:37Z</time></trkpt><trkpt lat="45.69278691487004" lon="8.567970597831145"><ele>343.0</ele><time>2026-04-18T10:39:38Z</time></trkpt><trkpt lat="45.69278091111654" lon="8.567851300882909"><ele>343.0</ele><time>2026-04-18T10:39:39Z</time></trkpt><trkpt lat="45.692772700738146" lon="8.567748610063127"><ele>343.0</ele><time>2026-04-18T10:39:40Z</time></trkpt><trkpt lat="45.69275992149613" lon="8.567653992651376"><ele>343.0</ele><time>2026-04-18T10:39:41Z</time></trkpt><trkpt lat="45.69274323426187" lon="8.567547028561574"><ele>343.0</ele><time>2026-04-18T10:39:42Z</time></trkpt><trkpt lat="45.69273867625731" lon="8.567447796632308"><ele>343.0</ele><time>2026-04-18T10:39:43Z</time></trkpt><trkpt lat="45.69275327830963" lon="8.567264529445543"><ele>343.2</ele><time>2026-04-18T10:39:45Z</time></trkpt><trkpt lat="45.69277770557689" lon="8.567124772285343"><ele>343.4</ele><time>2026-04-18T10:39:47Z</time></trkpt><trkpt lat="45.69279320726866" lon="8.566935271135081"><ele>343.59999999999997</ele><time>2026-04-18T10:39:49Z</time></trkpt><trkpt lat="45.6927943245988" lon="8.566823532433595"><ele>343.79999999999995</ele><time>2026-04-18T10:39:50Z</time></trkpt><trkpt lat="45.692801315649895" lon="8.566725354623097"><ele>344.0</ele><time>2026-04-18T10:39:51Z</time></trkpt><trkpt lat="45.69282337039267" lon="8.566625217406727"><ele>344.5</ele><time>2026-04-18T10:39:52Z</time></trkpt><trkpt lat="45.69282241940418" lon="8.566451352050889"><ele>345.0</ele><time>2026-04-18T10:39:54Z</time></trkpt><trkpt lat="45.692793097847996" lon="8.566334337741052"><ele>345.5</ele><time>2026-04-18T10:40:04Z</time></trkpt><trkpt lat="45.69271097001876" lon="8.56628404685675"><ele>346.0</ele><time>2026-04-18T10:40:07Z</time></trkpt><trkpt lat="45.69265036422458" lon="8.56631767766594"><ele>346.5</ele><time>2026-04-18T10:40:10Z</time></trkpt><trkpt lat="45.692626099239554" lon="8.566427105971774"><ele>347.0</ele><time>2026-04-18T10:40:14Z</time></trkpt><trkpt lat="45.69263901012815" lon="8.566529562831178"><ele>347.0</ele><time>2026-04-18T10:40:16Z</time></trkpt><trkpt lat="45.69263102705537" lon="8.566619900110783"><ele>347.0</ele><time>2026-04-18T10:40:19Z</time></trkpt><trkpt lat="45.692564536189366" lon="8.566696748860682"><ele>347.0</ele><time>2026-04-18T10:40:21Z</time></trkpt><trkpt lat="45.69246377712386" lon="8.566820026320816"><ele>347.0</ele><time>2026-04-18T10:40:23Z</time></trkpt><trkpt lat="45.69239415839729" lon="8.566898791669203"><ele>347.0</ele><time>2026-04-18T10:40:24Z</time></trkpt><trkpt lat="45.69232565391392" lon="8.566971640705699"><ele>347.0</ele><time>2026-04-18T10:40:25Z</time></trkpt><trkpt lat="45.69226551701624" lon="8.567016806214768"><ele>347.0</ele><time>2026-04-18T10:40:26Z</time></trkpt><trkpt lat="45.69217265334598" lon="8.567083877749774"><ele>347.0</ele><time>2026-04-18T10:40:28Z</time></trkpt><trkpt lat="45.69208529361324" lon="8.567207597744694"><ele>347.0</ele><time>2026-04-18T10:40:30Z</time></trkpt><trkpt lat="45.692042366708776" lon="8.567296157022051"><ele>347.0</ele><time>2026-04-18T10:40:32Z</time></trkpt><trkpt lat="45.69194216904195" lon="8.56738544575159"><ele>346.6666666666667</ele><time>2026-04-18T10:40:34Z</time></trkpt><trkpt lat="45.69193475898549" lon="8.567495611640933"><ele>346.33333333333337</ele><time>2026-04-18T10:40:39Z</time></trkpt><trkpt lat="45.69190236257629" lon="8.567593009021005"><ele>346.0</ele><time>2026-04-18T10:40:41Z</time></trkpt><trkpt lat="45.69184600669469" lon="8.567646543879704"><ele>345.6666666666667</ele><time>2026-04-18T10:40:45Z</time></trkpt><trkpt lat="45.69177030110429" lon="8.567627146091205"><ele>345.3333333333333</ele><time>2026-04-18T10:40:59Z</time></trkpt><trkpt lat="45.69171645390718" lon="8.56756991532085"><ele>345.0</ele><time>2026-04-18T10:41:08Z</time></trkpt><trkpt lat="45.691677398143796" lon="8.567455538094718"><ele>345.0</ele><time>2026-04-18T10:41:11Z</time></trkpt><trkpt lat="45.691612234748305" lon="8.567451687803267"><ele>345.0</ele><time>2026-04-18T10:41:14Z</time></trkpt><trkpt lat="45.69152562069342" lon="8.567490369090413"><ele>345.0</ele><time>2026-04-18T10:41:18Z</time></trkpt><trkpt lat="45.691472403079345" lon="8.567549860704457"><ele>345.0</ele><time>2026-04-18T10:41:20Z</time></trkpt><trkpt lat="45.691354010061836" lon="8.567620258601016"><ele>345.0</ele><time>2026-04-18T10:41:22Z</time></trkpt><trkpt lat="45.6912700012497" lon="8.56761059775554"><ele>345.0</ele><time>2026-04-18T10:41:25Z</time></trkpt><trkpt lat="45.69118369530172" lon="8.567562346829906"><ele>344.6</ele><time>2026-04-18T10:41:27Z</time></trkpt><trkpt lat="45.69104235016661" lon="8.56756461185822"><ele>344.2</ele><time>2026-04-18T10:41:29Z</time></trkpt><trkpt lat="45.690959178816165" lon="8.567576634491122"><ele>343.79999999999995</ele><time>2026-04-18T10:41:30Z</time></trkpt><trkpt lat="45.69088758112594" lon="8.567621797482364"><ele>343.4</ele><time>2026-04-18T10:41:31Z</time></trkpt><trkpt lat="45.690780810403155" lon="8.567723012869777"><ele>343.0</ele><time>2026-04-18T10:41:33Z</time></trkpt><trkpt lat="45.69068242838487" lon="8.56780974390405"><ele>343.0</ele><time>2026-04-18T10:41:34Z</time></trkpt><trkpt lat="45.69061288190429" lon="8.567855143750862"><ele>343.0</ele><time>2026-04-18T10:41:35Z</time></trkpt><trkpt lat="45.690548706717635" lon="8.567875541935322"><ele>343.0</ele><time>2026-04-18T10:41:37Z</time></trkpt><trkpt lat="45.6905581313471" lon="8.56796968088863"><ele>343.0</ele><time>2026-04-18T10:41:51Z</time></trkpt><trkpt lat="45.69062640935163" lon="8.568113221956201"><ele>343.0</ele><time>2026-04-18T10:41:53Z</time></trkpt><trkpt lat="45.690645065312054" lon="8.568218854513509"><ele>343.0</ele><time>2026-04-18T10:41:54Z</time></trkpt><trkpt lat="45.690675906676155" lon="8.568314427974622"><ele>344.0</ele><time>2026-04-18T10:41:55Z</time></trkpt><trkpt lat="45.690721394272" lon="8.56851228746047"><ele>345.0</ele><time>2026-04-18T10:41:57Z</time></trkpt><trkpt lat="45.69074930677688" lon="8.568619495213364"><ele>346.0</ele><time>2026-04-18T10:41:58Z</time></trkpt><trkpt lat="45.69076182513243" lon="8.568714284315739"><ele>347.0</ele><time>2026-04-18T10:41:59Z</time></trkpt><trkpt lat="45.69078135902299" lon="8.56882934303942"><ele>348.0</ele><time>2026-04-18T10:42:00Z</time></trkpt><trkpt lat="45.69078129048518" lon="8.568941082318434"><ele>348.0</ele><time>2026-04-18T10:42:01Z</time></trkpt><trkpt lat="45.69077467118631" lon="8.569054814870926"><ele>348.0</ele><time>2026-04-18T10:42:02Z</time></trkpt><trkpt lat="45.69078688371455" lon="8.569162738353135"><ele>348.0</ele><time>2026-04-18T10:42:03Z</time></trkpt><trkpt lat="45.69079588862864" lon="8.56926752389911"><ele>348.0</ele><time>2026-04-18T10:42:04Z</time></trkpt><trkpt lat="45.690801959211264" lon="8.56941297170628"><ele>348.0</ele><time>2026-04-18T10:42:06Z</time></trkpt><trkpt lat="45.69081460469346" lon="8.569618884950906"><ele>347.1666666666667</ele><time>2026-04-18T10:42:08Z</time></trkpt><trkpt lat="45.690826977069655" lon="8.569721486842305"><ele>346.3333333333333</ele><time>2026-04-18T10:42:09Z</time></trkpt><trkpt lat="45.69084145129361" lon="8.569853132950119"><ele>345.5</ele><time>2026-04-18T10:42:10Z</time></trkpt><trkpt lat="45.69085544309222" lon="8.569962858548413"><ele>344.66666666666663</ele><time>2026-04-18T10:42:11Z</time></trkpt><trkpt lat="45.690869156685004" lon="8.57005490979843"><ele>343.8333333333333</ele><time>2026-04-18T10:42:12Z</time></trkpt><trkpt lat="45.690884113508794" lon="8.570182076276575"><ele>343.0</ele><time>2026-04-18T10:42:13Z</time></trkpt><trkpt lat="45.69089507309865" lon="8.570283771840641"><ele>342.3333333333333</ele><time>2026-04-18T10:42:14Z</time></trkpt><trkpt lat="45.69089763624497" lon="8.570405338401716"><ele>341.66666666666663</ele><time>2026-04-18T10:42:15Z</time></trkpt><trkpt lat="45.690912447747756" lon="8.570497925939026"><ele>341.0</ele><time>2026-04-18T10:42:16Z</time></trkpt><trkpt lat="45.69094185720844" lon="8.57057788067402"><ele>340.3333333333333</ele><time>2026-04-18T10:42:18Z</time></trkpt><trkpt lat="45.6909343577779" lon="8.570697756144579"><ele>339.6666666666667</ele><time>2026-04-18T10:44:44Z</time></trkpt><trkpt lat="45.69101177482823" lon="8.570709766933648"><ele>339.0</ele><time>2026-04-18T10:44:59Z</time></trkpt><trkpt lat="45.69092727685972" lon="8.570600606903271"><ele>339.0</ele><time>2026-04-18T10:45:11Z</time></trkpt><trkpt lat="45.690910976411004" lon="8.570455414604192"><ele>339.0</ele><time>2026-04-18T10:45:13Z</time></trkpt><trkpt lat="45.69088873079363" lon="8.570332008522973"><ele>339.0</ele><time>2026-04-18T10:45:26Z</time></trkpt><trkpt lat="45.69087663329149" lon="8.570227034278844"><ele>339.0</ele><time>2026-04-18T10:45:28Z</time></trkpt><trkpt lat="45.690869266692694" lon="8.57010747910868"><ele>339.0</ele><time>2026-04-18T10:45:30Z</time></trkpt><trkpt lat="45.69084127336474" lon="8.569917101792095"><ele>339.6666666666667</ele><time>2026-04-18T10:45:32Z</time></trkpt><trkpt lat="45.69083831704029" lon="8.569822480630034"><ele>340.3333333333333</ele><time>2026-04-18T10:45:33Z</time></trkpt><trkpt lat="45.69081977120319" lon="8.569716826521665"><ele>341.0</ele><time>2026-04-18T10:45:34Z</time></trkpt><trkpt lat="45.69081049102016" lon="8.569600356368785"><ele>341.66666666666663</ele><time>2026-04-18T10:45:35Z</time></trkpt><trkpt lat="45.69079420309518" lon="8.569481884129333"><ele>342.3333333333333</ele><time>2026-04-18T10:45:36Z</time></trkpt><trkpt lat="45.69078711872987" lon="8.569358751475846"><ele>343.0</ele><time>2026-04-18T10:45:37Z</time></trkpt><trkpt lat="45.690798526329885" lon="8.569268298318784"><ele>344.0</ele><time>2026-04-18T10:45:38Z</time></trkpt><trkpt lat="45.690775114129224" lon="8.569129245309398"><ele>345.0</ele><time>2026-04-18T10:45:40Z</time></trkpt><trkpt lat="45.6907688563846" lon="8.568987653269296"><ele>346.0</ele><time>2026-04-18T10:45:49Z</time></trkpt><trkpt lat="45.69076600406632" lon="8.568798252548143"><ele>347.0</ele><time>2026-04-18T10:45:51Z</time></trkpt><trkpt lat="45.690746233613964" lon="8.56863218903306"><ele>348.0</ele><time>2026-04-18T10:45:53Z</time></trkpt><trkpt lat="45.690709431482766" lon="8.56847648010087"><ele>348.0</ele><time>2026-04-18T10:45:55Z</time></trkpt><trkpt lat="45.6906793266304" lon="8.568334572019022"><ele>348.0</ele><time>2026-04-18T10:45:57Z</time></trkpt><trkpt lat="45.690666741197475" lon="8.568206953112842"><ele>348.0</ele><time>2026-04-18T10:45:59Z</time></trkpt><trkpt lat="45.690636056247506" lon="8.56808800920924"><ele>348.0</ele><time>2026-04-18T10:46:18Z</time></trkpt><trkpt lat="45.6905874995812" lon="8.567973642514099"><ele>348.0</ele><time>2026-04-18T10:46:20Z</time></trkpt><trkpt lat="45.69055192873904" lon="8.567897233133673"><ele>348.0</ele><time>2026-04-18T10:46:21Z</time></trkpt><trkpt lat="45.690511939269236" lon="8.567780054157467"><ele>347.0</ele><time>2026-04-18T10:46:23Z</time></trkpt><trkpt lat="45.690464031955244" lon="8.56767027956206"><ele>346.0</ele><time>2026-04-18T10:46:25Z</time></trkpt><trkpt lat="45.69042261798006" lon="8.567557292534067"><ele>345.0</ele><time>2026-04-18T10:46:27Z</time></trkpt><trkpt lat="45.690371912258165" lon="8.567425157392503"><ele>344.0</ele><time>2026-04-18T10:46:29Z</time></trkpt><trkpt lat="45.69032261744416" lon="8.567272032764325"><ele>343.0</ele><time>2026-04-18T10:46:31Z</time></trkpt><trkpt lat="45.69027742204693" lon="8.567144018833776"><ele>343.0</ele><time>2026-04-18T10:46:33Z</time></trkpt><trkpt lat="45.69024095330774" lon="8.56702266591508"><ele>343.0</ele><time>2026-04-18T10:46:35Z</time></trkpt><trkpt lat="45.69021131726295" lon="8.566905528143216"><ele>343.0</ele><time>2026-04-18T10:46:37Z</time></trkpt><trkpt lat="45.690212841032945" lon="8.566808794857698"><ele>343.0</ele><time>2026-04-18T10:46:40Z</time></trkpt><trkpt lat="45.69021259938323" lon="8.566925916832272"><ele>343.0</ele><time>2026-04-18T10:46:50Z</time></trkpt><trkpt lat="45.69025087288178" lon="8.567020193040701"><ele>343.0</ele><time>2026-04-18T10:46:53Z</time></trkpt><trkpt lat="45.690272567126975" lon="8.567106244219769"><ele>343.0</ele><time>2026-04-18T10:46:58Z</time></trkpt><trkpt lat="45.69032322128476" lon="8.567285171685942"><ele>343.0</ele><time>2026-04-18T10:47:00Z</time></trkpt><trkpt lat="45.69036322827424" lon="8.567401969853918"><ele>343.0</ele><time>2026-04-18T10:47:02Z</time></trkpt><trkpt lat="45.69042529119287" lon="8.56752651132404"><ele>343.0</ele><time>2026-04-18T10:47:07Z</time></trkpt><trkpt lat="45.690460441893904" lon="8.56761276543042"><ele>343.0</ele><time>2026-04-18T10:47:08Z</time></trkpt><trkpt lat="45.69048733069587" lon="8.567739846819546"><ele>343.0</ele><time>2026-04-18T10:47:09Z</time></trkpt><trkpt lat="45.690528818538176" lon="8.567815449781952"><ele>343.0</ele><time>2026-04-18T10:47:10Z</time></trkpt><trkpt lat="45.69057202665019" lon="8.567944169320702"><ele>343.0</ele><time>2026-04-18T10:47:12Z</time></trkpt><trkpt lat="45.69063781458424" lon="8.568107206578732"><ele>343.0</ele><time>2026-04-18T10:47:14Z</time></trkpt><trkpt lat="45.69068125416909" lon="8.568229948332343"><ele>343.0</ele><time>2026-04-18T10:47:16Z</time></trkpt><trkpt lat="45.690714225233236" lon="8.568346370983479"><ele>343.8333333333333</ele><time>2026-04-18T10:47:21Z</time></trkpt><trkpt lat="45.690727140578524" lon="8.568449466074942"><ele>344.66666666666663</ele><time>2026-04-18T10:47:26Z</time></trkpt><trkpt lat="45.69074144886963" lon="8.568538336500092"><ele>345.5</ele><time>2026-04-18T10:47:27Z</time></trkpt><trkpt lat="45.69077148492465" lon="8.568646508855666"><ele>346.3333333333333</ele><time>2026-04-18T10:47:28Z</time></trkpt><trkpt lat="45.69077165677671" lon="8.568750767302458"><ele>347.1666666666667</ele><time>2026-04-18T10:47:39Z</time></trkpt><trkpt lat="45.69077625000179" lon="8.56885448668332"><ele>348.0</ele><time>2026-04-18T10:47:41Z</time></trkpt><trkpt lat="45.690780203723875" lon="8.568999205065731"><ele>348.0</ele><time>2026-04-18T10:47:43Z</time></trkpt><trkpt lat="45.69077042692161" lon="8.569109003579523"><ele>348.0</ele><time>2026-04-18T10:47:55Z</time></trkpt><trkpt lat="45.690796121005704" lon="8.569327493888684"><ele>348.0</ele><time>2026-04-18T10:48:31Z</time></trkpt><trkpt lat="45.69079975288859" lon="8.569475005589943"><ele>348.0</ele><time>2026-04-18T10:48:33Z</time></trkpt><trkpt lat="45.69081092168438" lon="8.569601678040842"><ele>348.0</ele><time>2026-04-18T10:48:35Z</time></trkpt><trkpt lat="45.6908189649809" lon="8.569692561914707"><ele>347.1666666666667</ele><time>2026-04-18T10:48:36Z</time></trkpt><trkpt lat="45.69083845931832" lon="8.569833476016896"><ele>346.3333333333333</ele><time>2026-04-18T10:48:38Z</time></trkpt><trkpt lat="45.69085246141906" lon="8.569963838551661"><ele>345.5</ele><time>2026-04-18T10:48:40Z</time></trkpt><trkpt lat="45.690861471772095" lon="8.570057736776942"><ele>344.66666666666663</ele><time>2026-04-18T10:48:43Z</time></trkpt><trkpt lat="45.69087955778073" lon="8.57015950277943"><ele>343.8333333333333</ele><time>2026-04-18T10:48:45Z</time></trkpt><trkpt lat="45.69088150046667" lon="8.570295353560242"><ele>343.0</ele><time>2026-04-18T10:48:49Z</time></trkpt><trkpt lat="45.69090086043278" lon="8.570421613343505"><ele>342.2</ele><time>2026-04-18T10:48:52Z</time></trkpt><trkpt lat="45.6909214254751" lon="8.57058928154425"><ele>341.4</ele><time>2026-04-18T10:48:54Z</time></trkpt><trkpt lat="45.69094831176375" lon="8.570713502985067"><ele>340.59999999999997</ele><time>2026-04-18T10:48:56Z</time></trkpt><trkpt lat="45.69100550813897" lon="8.570873827429164"><ele>339.79999999999995</ele><time>2026-04-18T10:49:01.999Z</time></trkpt><trkpt lat="45.69106160280099" lon="8.570946130983572"><ele>339.0</ele><time>2026-04-18T10:49:02.999Z</time></trkpt><trkpt lat="45.69110419647057" lon="8.571017101763"><ele>339.0</ele><time>2026-04-18T10:49:03.999Z</time></trkpt><trkpt lat="45.69117199304116" lon="8.571124874652932"><ele>339.0</ele><time>2026-04-18T10:49:05.999Z</time></trkpt><trkpt lat="45.69123055927369" lon="8.571202803368504"><ele>339.0</ele><time>2026-04-18T10:49:08Z</time></trkpt><trkpt lat="45.69128531898889" lon="8.571354372515275"><ele>339.0</ele><time>2026-04-18T10:49:10Z</time></trkpt><trkpt lat="45.69130370269529" lon="8.571512909078264"><ele>339.0</ele><time>2026-04-18T10:49:12Z</time></trkpt><trkpt lat="45.69132046043192" lon="8.571658202290699"><ele>338.6666666666667</ele><time>2026-04-18T10:49:14Z</time></trkpt><trkpt lat="45.69134605333191" lon="8.571790507109045"><ele>338.3333333333333</ele><time>2026-04-18T10:49:16Z</time></trkpt><trkpt lat="45.691363450182436" lon="8.571900491937448"><ele>338.0</ele><time>2026-04-18T10:49:17Z</time></trkpt><trkpt lat="45.69136122877139" lon="8.571996669857397"><ele>337.66666666666663</ele><time>2026-04-18T10:49:18Z</time></trkpt><trkpt lat="45.69139298652357" lon="8.572095027521833"><ele>337.3333333333333</ele><time>2026-04-18T10:49:20Z</time></trkpt><trkpt lat="45.69140729772627" lon="8.572191735003216"><ele>337.0</ele><time>2026-04-18T10:49:22Z</time></trkpt><trkpt lat="45.69142733004527" lon="8.572313125557486"><ele>336.5</ele><time>2026-04-18T10:49:30Z</time></trkpt><trkpt lat="45.691451657151035" lon="8.572412364848796"><ele>336.0</ele><time>2026-04-18T10:49:36Z</time></trkpt><trkpt lat="45.691468237999494" lon="8.572500081800303"><ele>335.5</ele><time>2026-04-18T10:49:44Z</time></trkpt><trkpt lat="45.69150557301376" lon="8.572578355123202"><ele>335.0</ele><time>2026-04-18T10:49:46Z</time></trkpt><trkpt lat="45.69152714049745" lon="8.572673820524129"><ele>334.5</ele><time>2026-04-18T10:49:49Z</time></trkpt><trkpt lat="45.691589672593125" lon="8.572782489006242"><ele>334.0</ele><time>2026-04-18T10:49:52Z</time></trkpt><trkpt lat="45.69166746104056" lon="8.572842734961732"><ele>334.0</ele><time>2026-04-18T10:49:55Z</time></trkpt><trkpt lat="45.69173957548619" lon="8.572921221422336"><ele>333.0</ele><time>2026-04-18T10:49:58Z</time></trkpt><trkpt lat="45.69177328163668" lon="8.573029233017984"><ele>333.0</ele><time>2026-04-18T10:50:01Z</time></trkpt></trkseg><trkseg><trkpt lat="45.69191720976252" lon="8.573094580531917"><ele>333.1666666666667</ele><time>2026-04-18T11:13:14Z</time></trkpt><trkpt lat="45.692007294655" lon="8.573126076855683"><ele>333.3333333333333</ele><time>2026-04-18T11:13:16Z</time></trkpt><trkpt lat="45.69211853869063" lon="8.573139395549509"><ele>333.5</ele><time>2026-04-18T11:13:18Z</time></trkpt><trkpt lat="45.69219323193975" lon="8.573113420326555"><ele>333.66666666666663</ele><time>2026-04-18T11:13:19Z</time></trkpt><trkpt lat="45.6922717423699" lon="8.573092091040568"><ele>333.8333333333333</ele><time>2026-04-18T11:13:20Z</time></trkpt><trkpt lat="45.692348667497654" lon="8.573075641613423"><ele>334.0</ele><time>2026-04-18T11:13:21Z</time></trkpt><trkpt lat="45.69241787960523" lon="8.57306606282478"><ele>334.0</ele><time>2026-04-18T11:13:22Z</time></trkpt><trkpt lat="45.692481727327674" lon="8.573065492288494"><ele>334.0</ele><time>2026-04-18T11:13:23Z</time></trkpt><trkpt lat="45.69258635087253" lon="8.573064107538292"><ele>334.0</ele><time>2026-04-18T11:13:25Z</time></trkpt><trkpt lat="45.69265023375289" lon="8.573044904298506"><ele>334.0</ele><time>2026-04-18T11:13:26Z</time></trkpt><trkpt lat="45.69274636173411" lon="8.573055404722995"><ele>334.0</ele><time>2026-04-18T11:13:28Z</time></trkpt><trkpt lat="45.692803372292296" lon="8.573165960803744"><ele>334.0</ele><time>2026-04-18T11:13:31Z</time></trkpt><trkpt lat="45.692803351844496" lon="8.573272306758575"><ele>334.0</ele><time>2026-04-18T11:13:34Z</time></trkpt><trkpt lat="45.69276499562635" lon="8.573347822920477"><ele>334.0</ele><time>2026-04-18T11:13:36Z</time></trkpt><trkpt lat="45.69269498362446" lon="8.573499408331125"><ele>334.0</ele><time>2026-04-18T11:13:38Z</time></trkpt><trkpt lat="45.69266339295774" lon="8.573631278369808"><ele>334.0</ele><time>2026-04-18T11:13:39Z</time></trkpt><trkpt lat="45.69261701953938" lon="8.5737883033482"><ele>334.0</ele><time>2026-04-18T11:13:40Z</time></trkpt><trkpt lat="45.692576470903326" lon="8.573942978731656"><ele>333.79999999999995</ele><time>2026-04-18T11:13:41Z</time></trkpt><trkpt lat="45.69254063192173" lon="8.574072361942301"><ele>333.59999999999997</ele><time>2026-04-18T11:13:42Z</time></trkpt><trkpt lat="45.69250236525453" lon="8.574184470127468"><ele>333.4</ele><time>2026-04-18T11:13:43Z</time></trkpt><trkpt lat="45.69248281960733" lon="8.57429596059526"><ele>333.2</ele><time>2026-04-18T11:13:44Z</time></trkpt><trkpt lat="45.69245727691886" lon="8.574439156655371"><ele>333.0</ele><time>2026-04-18T11:13:45Z</time></trkpt><trkpt lat="45.69244138515294" lon="8.574567073638132"><ele>333.0</ele><time>2026-04-18T11:13:46Z</time></trkpt><trkpt lat="45.69243099120842" lon="8.574703264339604"><ele>333.0</ele><time>2026-04-18T11:13:47Z</time></trkpt><trkpt lat="45.69241631849293" lon="8.574848153356346"><ele>333.0</ele><time>2026-04-18T11:13:48Z</time></trkpt><trkpt lat="45.692407538303584" lon="8.574973377438253"><ele>333.0</ele><time>2026-04-18T11:13:49Z</time></trkpt><trkpt lat="45.69240993413814" lon="8.575072754019764"><ele>333.0</ele><time>2026-04-18T11:13:50Z</time></trkpt><trkpt lat="45.69240315305956" lon="8.575200929862898"><ele>333.0</ele><time>2026-04-18T11:13:52Z</time></trkpt><trkpt lat="45.692381231435746" lon="8.5752962229935"><ele>333.4</ele><time>2026-04-18T11:13:53Z</time></trkpt><trkpt lat="45.692299322967735" lon="8.575462691302766"><ele>333.79999999999995</ele><time>2026-04-18T11:13:55Z</time></trkpt><trkpt lat="45.692233465557194" lon="8.575629584907174"><ele>334.2</ele><time>2026-04-18T11:13:57Z</time></trkpt><trkpt lat="45.69219925737678" lon="8.575744028239347"><ele>334.6</ele><time>2026-04-18T11:13:58Z</time></trkpt><trkpt lat="45.69215405697221" lon="8.575824667389357"><ele>335.0</ele><time>2026-04-18T11:13:59Z</time></trkpt><trkpt lat="45.69212417923315" lon="8.575942212774228"><ele>335.0</ele><time>2026-04-18T11:14:00Z</time></trkpt><trkpt lat="45.69208911078519" lon="8.576104302533407"><ele>335.0</ele><time>2026-04-18T11:14:02Z</time></trkpt><trkpt lat="45.6920663003644" lon="8.576200640745284"><ele>335.0</ele><time>2026-04-18T11:14:03Z</time></trkpt><trkpt lat="45.69203385922961" lon="8.57636016480872"><ele>335.0</ele><time>2026-04-18T11:14:04Z</time></trkpt><trkpt lat="45.692002014140556" lon="8.576519677472644"><ele>335.0</ele><time>2026-04-18T11:14:05Z</time></trkpt><trkpt lat="45.691965711591635" lon="8.57665001698139"><ele>335.0</ele><time>2026-04-18T11:14:06Z</time></trkpt><trkpt lat="45.691931068975606" lon="8.576771866529418"><ele>335.0</ele><time>2026-04-18T11:14:07Z</time></trkpt><trkpt lat="45.69190580305246" lon="8.576873484831067"><ele>335.0</ele><time>2026-04-18T11:14:08Z</time></trkpt><trkpt lat="45.69187302135731" lon="8.577006906347385"><ele>335.0</ele><time>2026-04-18T11:14:08.999Z</time></trkpt><trkpt lat="45.69184659433111" lon="8.577111234272271"><ele>335.0</ele><time>2026-04-18T11:14:09.999Z</time></trkpt><trkpt lat="45.69181444174422" lon="8.57721967460252"><ele>335.0</ele><time>2026-04-18T11:14:10.999Z</time></trkpt><trkpt lat="45.69178345080056" lon="8.577318833070652"><ele>334.0</ele><time>2026-04-18T11:14:11.999Z</time></trkpt><trkpt lat="45.69174452073402" lon="8.577452594971973"><ele>333.0</ele><time>2026-04-18T11:14:12.999Z</time></trkpt><trkpt lat="45.6917091337147" lon="8.57760448248667"><ele>332.0</ele><time>2026-04-18T11:14:13.999Z</time></trkpt><trkpt lat="45.69166529938709" lon="8.57774569803161"><ele>331.0</ele><time>2026-04-18T11:14:14.999Z</time></trkpt><trkpt lat="45.69162965126925" lon="8.577844501296166"><ele>330.0</ele><time>2026-04-18T11:14:15.999Z</time></trkpt><trkpt lat="45.69160430424586" lon="8.577949077248672"><ele>329.8333333333333</ele><time>2026-04-18T11:14:16.999Z</time></trkpt><trkpt lat="45.69157307930097" lon="8.578052373167203"><ele>329.6666666666667</ele><time>2026-04-18T11:14:17.999Z</time></trkpt><trkpt lat="45.691563078897055" lon="8.578152714742874"><ele>329.5</ele><time>2026-04-18T11:14:18.999Z</time></trkpt><trkpt lat="45.6915322761237" lon="8.578234434966813"><ele>329.33333333333337</ele><time>2026-04-18T11:14:19.999Z</time></trkpt><trkpt lat="45.69151040866176" lon="8.578324103214138"><ele>329.1666666666667</ele><time>2026-04-18T11:14:20.999Z</time></trkpt><trkpt lat="45.69150524073625" lon="8.57847104162898"><ele>329.0</ele><time>2026-04-18T11:14:22.999Z</time></trkpt><trkpt lat="45.69157794642922" lon="8.578609562977759"><ele>329.0</ele><time>2026-04-18T11:14:24.999Z</time></trkpt><trkpt lat="45.6916650949306" lon="8.578682783362023"><ele>329.0</ele><time>2026-04-18T11:14:25.999Z</time></trkpt><trkpt lat="45.6917295904022" lon="8.578760691150697"><ele>329.0</ele><time>2026-04-18T11:14:26.999Z</time></trkpt><trkpt lat="45.69180462492641" lon="8.578836011795556"><ele>329.0</ele><time>2026-04-18T11:14:27.999Z</time></trkpt><trkpt lat="45.6918860877751" lon="8.578931628804177"><ele>329.0</ele><time>2026-04-18T11:14:28.999Z</time></trkpt><trkpt lat="45.69194243339848" lon="8.579043142514681"><ele>328.83333333333337</ele><time>2026-04-18T11:14:29.999Z</time></trkpt><trkpt lat="45.692009356606086" lon="8.579136598494982"><ele>328.6666666666667</ele><time>2026-04-18T11:14:30.999Z</time></trkpt><trkpt lat="45.692055986035484" lon="8.579233837509076"><ele>328.5</ele><time>2026-04-18T11:14:32Z</time></trkpt><trkpt lat="45.69209982146396" lon="8.579325502692068"><ele>328.3333333333333</ele><time>2026-04-18T11:14:33Z</time></trkpt><trkpt lat="45.69215693944575" lon="8.579434525150067"><ele>328.16666666666663</ele><time>2026-04-18T11:14:34Z</time></trkpt><trkpt lat="45.69219579109154" lon="8.579554557526968"><ele>328.0</ele><time>2026-04-18T11:14:35Z</time></trkpt><trkpt lat="45.69223288300001" lon="8.579676960287287"><ele>327.59999999999997</ele><time>2026-04-18T11:14:36Z</time></trkpt><trkpt lat="45.69226690880698" lon="8.579804499869981"><ele>327.2</ele><time>2026-04-18T11:14:37Z</time></trkpt><trkpt lat="45.69229414911937" lon="8.579943855425142"><ele>326.8</ele><time>2026-04-18T11:14:38Z</time></trkpt><trkpt lat="45.69231558951044" lon="8.580039958333685"><ele>326.4</ele><time>2026-04-18T11:14:39Z</time></trkpt><trkpt lat="45.692357504603216" lon="8.580208063809538"><ele>326.0</ele><time>2026-04-18T11:14:41Z</time></trkpt><trkpt lat="45.69234233701948" lon="8.580328803965186"><ele>326.1666666666667</ele><time>2026-04-18T11:14:42Z</time></trkpt><trkpt lat="45.69234388853258" lon="8.58042163311001"><ele>326.33333333333337</ele><time>2026-04-18T11:14:43Z</time></trkpt><trkpt lat="45.69236408826646" lon="8.580537956890732"><ele>326.5</ele><time>2026-04-18T11:14:44Z</time></trkpt><trkpt lat="45.69237573894334" lon="8.580652756309624"><ele>326.6666666666667</ele><time>2026-04-18T11:14:46Z</time></trkpt><trkpt lat="45.692374611017925" lon="8.580771111838535"><ele>326.8333333333333</ele><time>2026-04-18T11:14:48Z</time></trkpt><trkpt lat="45.69242202477652" lon="8.580850648830353"><ele>327.0</ele><time>2026-04-18T11:14:50Z</time></trkpt><trkpt lat="45.69239896228384" lon="8.580990377157441"><ele>327.0</ele><time>2026-04-18T11:15:24Z</time></trkpt><trkpt lat="45.692355766105614" lon="8.581102141532927"><ele>327.0</ele><time>2026-04-18T11:15:26Z</time></trkpt><trkpt lat="45.692289578751144" lon="8.581223884031393"><ele>327.0</ele><time>2026-04-18T11:15:30Z</time></trkpt><trkpt lat="45.69224474388051" lon="8.581344834763414"><ele>327.0</ele><time>2026-04-18T11:15:31Z</time></trkpt><trkpt lat="45.69221359737426" lon="8.58144619947231"><ele>327.0</ele><time>2026-04-18T11:15:32Z</time></trkpt><trkpt lat="45.69214579369806" lon="8.581585552221487"><ele>327.0</ele><time>2026-04-18T11:15:34Z</time></trkpt><trkpt lat="45.69204129688331" lon="8.581691642820822"><ele>327.0</ele><time>2026-04-18T11:15:36Z</time></trkpt><trkpt lat="45.69200204886492" lon="8.581778659360877"><ele>327.0</ele><time>2026-04-18T11:15:37Z</time></trkpt><trkpt lat="45.691961650299845" lon="8.581864040916475"><ele>327.0</ele><time>2026-04-18T11:15:38Z</time></trkpt><trkpt lat="45.69188936298188" lon="8.58200198109127"><ele>327.0</ele><time>2026-04-18T11:15:39Z</time></trkpt><trkpt lat="45.691834387881" lon="8.582095315531701"><ele>327.0</ele><time>2026-04-18T11:15:40Z</time></trkpt><trkpt lat="45.69178995714796" lon="8.582170657651798"><ele>327.0</ele><time>2026-04-18T11:15:41Z</time></trkpt><trkpt lat="45.69176782239815" lon="8.58226003802188"><ele>327.0</ele><time>2026-04-18T11:15:42Z</time></trkpt><trkpt lat="45.691764403564754" lon="8.582387662543866"><ele>327.0</ele><time>2026-04-18T11:15:43Z</time></trkpt><trkpt lat="45.69175042395259" lon="8.582546392417198"><ele>327.0</ele><time>2026-04-18T11:15:44Z</time></trkpt><trkpt lat="45.69170257645566" lon="8.58275273272422"><ele>326.8</ele><time>2026-04-18T11:15:45Z</time></trkpt><trkpt lat="45.691675482436565" lon="8.582910055950354"><ele>326.6</ele><time>2026-04-18T11:15:46Z</time></trkpt><trkpt lat="45.69164516469996" lon="8.583025368809448"><ele>326.40000000000003</ele><time>2026-04-18T11:15:47Z</time></trkpt><trkpt lat="45.691622035208596" lon="8.58313101734221"><ele>326.20000000000005</ele><time>2026-04-18T11:15:48Z</time></trkpt><trkpt lat="45.691593256742166" lon="8.583256102676712"><ele>326.0</ele><time>2026-04-18T11:15:49Z</time></trkpt><trkpt lat="45.691570826742215" lon="8.58337741897682"><ele>326.0</ele><time>2026-04-18T11:15:50Z</time></trkpt><trkpt lat="45.691534234400976" lon="8.583475503250217"><ele>326.0</ele><time>2026-04-18T11:15:51Z</time></trkpt><trkpt lat="45.69150213967963" lon="8.583634032021992"><ele>326.0</ele><time>2026-04-18T11:15:53Z</time></trkpt><trkpt lat="45.69148757951932" lon="8.58373209774106"><ele>326.0</ele><time>2026-04-18T11:15:54Z</time></trkpt><trkpt lat="45.69146821610364" lon="8.583843079266193"><ele>326.0</ele><time>2026-04-18T11:15:55Z</time></trkpt><trkpt lat="45.69142699464416" lon="8.583966474618009"><ele>326.0</ele><time>2026-04-18T11:15:56Z</time></trkpt><trkpt lat="45.691404881114174" lon="8.58407191329213"><ele>326.33333333333337</ele><time>2026-04-18T11:15:57Z</time></trkpt><trkpt lat="45.69137962651212" lon="8.584192195143219"><ele>326.6666666666667</ele><time>2026-04-18T11:15:58Z</time></trkpt><trkpt lat="45.69136212707489" lon="8.584289001030877"><ele>327.0</ele><time>2026-04-18T11:15:59Z</time></trkpt><trkpt lat="45.69135389017813" lon="8.584407122407546"><ele>327.3333333333333</ele><time>2026-04-18T11:16:00Z</time></trkpt><trkpt lat="45.691343307461764" lon="8.5845191115665"><ele>327.66666666666663</ele><time>2026-04-18T11:16:01Z</time></trkpt><trkpt lat="45.69131446869863" lon="8.584639488221322"><ele>328.0</ele><time>2026-04-18T11:16:02Z</time></trkpt><trkpt lat="45.69129665941904" lon="8.584743540410686"><ele>328.0</ele><time>2026-04-18T11:16:03Z</time></trkpt><trkpt lat="45.691280512161555" lon="8.584861773417368"><ele>328.0</ele><time>2026-04-18T11:16:04Z</time></trkpt><trkpt lat="45.69125704336167" lon="8.584975736890332"><ele>328.0</ele><time>2026-04-18T11:16:05Z</time></trkpt><trkpt lat="45.69123463472997" lon="8.585082731658433"><ele>328.0</ele><time>2026-04-18T11:16:06Z</time></trkpt><trkpt lat="45.69118224733918" lon="8.585198110158355"><ele>328.0</ele><time>2026-04-18T11:16:07Z</time></trkpt><trkpt lat="45.691149488566616" lon="8.585314452493158"><ele>328.0</ele><time>2026-04-18T11:16:08Z</time></trkpt><trkpt lat="45.69111133230748" lon="8.585413466238615"><ele>327.66666666666663</ele><time>2026-04-18T11:16:09Z</time></trkpt><trkpt lat="45.69109323778164" lon="8.585559996283878"><ele>327.3333333333333</ele><time>2026-04-18T11:16:11Z</time></trkpt><trkpt lat="45.691090730132025" lon="8.5856565075052"><ele>327.0</ele><time>2026-04-18T11:16:13Z</time></trkpt><trkpt lat="45.69101640213145" lon="8.58570950540195"><ele>326.6666666666667</ele><time>2026-04-18T11:16:28Z</time></trkpt><trkpt lat="45.69093757725021" lon="8.585701364635451"><ele>326.33333333333337</ele><time>2026-04-18T11:16:34Z</time></trkpt><trkpt lat="45.6908417173603" lon="8.585697626456753"><ele>326.0</ele><time>2026-04-18T11:16:36Z</time></trkpt><trkpt lat="45.69071094262023" lon="8.58564726240987"><ele>325.5</ele><time>2026-04-18T11:16:38Z</time></trkpt><trkpt lat="45.69064600319362" lon="8.585629635453529"><ele>325.0</ele><time>2026-04-18T11:16:39Z</time></trkpt><trkpt lat="45.69057971481527" lon="8.58562329739364"><ele>324.5</ele><time>2026-04-18T11:16:40Z</time></trkpt><trkpt lat="45.69050108911542" lon="8.585656688130376"><ele>324.0</ele><time>2026-04-18T11:16:42Z</time></trkpt><trkpt lat="45.69045089898485" lon="8.585761838389296"><ele>323.5</ele><time>2026-04-18T11:16:44Z</time></trkpt><trkpt lat="45.69037738505902" lon="8.585784396145739"><ele>323.0</ele><time>2026-04-18T11:16:46Z</time></trkpt><trkpt lat="45.6902987330051" lon="8.58578488659758"><ele>322.4</ele><time>2026-04-18T11:16:47Z</time></trkpt><trkpt lat="45.69017141951001" lon="8.585749245856608"><ele>321.79999999999995</ele><time>2026-04-18T11:16:49Z</time></trkpt><trkpt lat="45.690085522080146" lon="8.585677295242215"><ele>321.2</ele><time>2026-04-18T11:16:51Z</time></trkpt><trkpt lat="45.6900204243718" lon="8.585621271967094"><ele>320.6</ele><time>2026-04-18T11:16:53Z</time></trkpt><trkpt lat="45.68995705386502" lon="8.585578702826462"><ele>320.0</ele><time>2026-04-18T11:16:54Z</time></trkpt><trkpt lat="45.68985999557151" lon="8.585546693145293"><ele>320.0</ele><time>2026-04-18T11:16:55Z</time></trkpt><trkpt lat="45.68976361517553" lon="8.585554579443645"><ele>320.0</ele><time>2026-04-18T11:16:56Z</time></trkpt><trkpt lat="45.68968689699988" lon="8.585516526034075"><ele>320.0</ele><time>2026-04-18T11:16:57Z</time></trkpt><trkpt lat="45.68962726334265" lon="8.585481487022108"><ele>320.0</ele><time>2026-04-18T11:16:58Z</time></trkpt><trkpt lat="45.689570509732036" lon="8.58542880681985"><ele>320.0</ele><time>2026-04-18T11:16:59Z</time></trkpt><trkpt lat="45.68949709361649" lon="8.585378150320995"><ele>320.0</ele><time>2026-04-18T11:17:00Z</time></trkpt><trkpt lat="45.68942110300186" lon="8.585376318403666"><ele>320.0</ele><time>2026-04-18T11:17:02Z</time></trkpt><trkpt lat="45.689335340992386" lon="8.585372948989477"><ele>320.0</ele><time>2026-04-18T11:17:06Z</time></trkpt><trkpt lat="45.689252499784075" lon="8.58540730978396"><ele>320.0</ele><time>2026-04-18T11:17:08Z</time></trkpt><trkpt lat="45.689182941961924" lon="8.585459692476375"><ele>320.0</ele><time>2026-04-18T11:17:09Z</time></trkpt><trkpt lat="45.68911757991388" lon="8.585474591847719"><ele>320.0</ele><time>2026-04-18T11:17:10Z</time></trkpt><trkpt lat="45.68904774084612" lon="8.585506659584205"><ele>320.0</ele><time>2026-04-18T11:17:13Z</time></trkpt><trkpt lat="45.688980102958354" lon="8.585583807199308"><ele>320.0</ele><time>2026-04-18T11:17:17Z</time></trkpt><trkpt lat="45.68897060180745" lon="8.585685453228844"><ele>320.0</ele><time>2026-04-18T11:17:19Z</time></trkpt><trkpt lat="45.688987538090856" lon="8.585826181119831"><ele>320.0</ele><time>2026-04-18T11:17:21Z</time></trkpt><trkpt lat="45.688994306604236" lon="8.585918533439056"><ele>320.0</ele><time>2026-04-18T11:17:24Z</time></trkpt><trkpt lat="45.68898033111348" lon="8.58601060991274"><ele>320.0</ele><time>2026-04-18T11:17:27Z</time></trkpt><trkpt lat="45.68897775092813" lon="8.586150448137092"><ele>320.0</ele><time>2026-04-18T11:17:29Z</time></trkpt><trkpt lat="45.68898595973836" lon="8.586264807955097"><ele>319.8</ele><time>2026-04-18T11:17:30Z</time></trkpt><trkpt lat="45.68899343765627" lon="8.586411374432895"><ele>319.6</ele><time>2026-04-18T11:17:31Z</time></trkpt><trkpt lat="45.68896677154026" lon="8.58656500964301"><ele>319.4</ele><time>2026-04-18T11:17:32Z</time></trkpt><trkpt lat="45.68894741898104" lon="8.58668713145586"><ele>319.2</ele><time>2026-04-18T11:17:33Z</time></trkpt><trkpt lat="45.68893570857705" lon="8.58680581738178"><ele>319.0</ele><time>2026-04-18T11:17:34Z</time></trkpt><trkpt lat="45.688919859354414" lon="8.58691105344871"><ele>318.66666666666663</ele><time>2026-04-18T11:17:35Z</time></trkpt><trkpt lat="45.688907195683875" lon="8.587027802212015"><ele>318.3333333333333</ele><time>2026-04-18T11:17:36Z</time></trkpt><trkpt lat="45.68889852528642" lon="8.587122176928943"><ele>318.0</ele><time>2026-04-18T11:17:37Z</time></trkpt><trkpt lat="45.68887857340801" lon="8.58723550198012"><ele>317.6666666666667</ele><time>2026-04-18T11:17:39Z</time></trkpt><trkpt lat="45.6888594268965" lon="8.587362652145092"><ele>317.33333333333337</ele><time>2026-04-18T11:17:41Z</time></trkpt><trkpt lat="45.68886697913173" lon="8.58745739712597"><ele>317.0</ele><time>2026-04-18T11:17:43Z</time></trkpt><trkpt lat="45.688851069789465" lon="8.58754660088073"><ele>317.0</ele><time>2026-04-18T11:17:46Z</time></trkpt><trkpt lat="45.68879302123696" lon="8.587652233251173"><ele>317.0</ele><time>2026-04-18T11:17:50Z</time></trkpt><trkpt lat="45.6887801308301" lon="8.58775002256693"><ele>317.0</ele><time>2026-04-18T11:17:55Z</time></trkpt><trkpt lat="45.68872167984246" lon="8.58769016268484"><ele>317.0</ele><time>2026-04-18T11:18:19.001Z</time></trkpt><trkpt lat="45.68866602329427" lon="8.587641019259733"><ele>317.0</ele><time>2026-04-18T11:18:20.001Z</time></trkpt><trkpt lat="45.6885864906613" lon="8.587569249690635"><ele>317.0</ele><time>2026-04-18T11:18:21.001Z</time></trkpt><trkpt lat="45.68851507151058" lon="8.587509403258233"><ele>316.6666666666667</ele><time>2026-04-18T11:18:22.001Z</time></trkpt><trkpt lat="45.6884492675087" lon="8.58744764525689"><ele>316.33333333333337</ele><time>2026-04-18T11:18:23.001Z</time></trkpt><trkpt lat="45.688386594212275" lon="8.587408247650108"><ele>316.0</ele><time>2026-04-18T11:18:24.001Z</time></trkpt><trkpt lat="45.68830299422399" lon="8.587384403005853"><ele>315.6666666666667</ele><time>2026-04-18T11:18:25.001Z</time></trkpt><trkpt lat="45.68824789293617" lon="8.587335359624715"><ele>315.3333333333333</ele><time>2026-04-18T11:18:26.001Z</time></trkpt><trkpt lat="45.68817695887258" lon="8.587287908306694"><ele>315.0</ele><time>2026-04-18T11:18:27.001Z</time></trkpt><trkpt lat="45.688103060126174" lon="8.587225605211882"><ele>315.0</ele><time>2026-04-18T11:18:28.001Z</time></trkpt><trkpt lat="45.688049311809245" lon="8.58716267536219"><ele>315.0</ele><time>2026-04-18T11:18:29.001Z</time></trkpt><trkpt lat="45.68796777896178" lon="8.587059485113958"><ele>315.0</ele><time>2026-04-18T11:18:31.001Z</time></trkpt><trkpt lat="45.68783876885578" lon="8.587009386924144"><ele>315.0</ele><time>2026-04-18T11:18:33.001Z</time></trkpt><trkpt lat="45.687777456372466" lon="8.586970101170275"><ele>315.0</ele><time>2026-04-18T11:18:36Z</time></trkpt><trkpt lat="45.68774455690423" lon="8.586886610759258"><ele>315.0</ele><time>2026-04-18T11:18:48Z</time></trkpt><trkpt lat="45.68777987578421" lon="8.586734636125101"><ele>315.4</ele><time>2026-04-18T11:18:50Z</time></trkpt><trkpt lat="45.68779561745174" lon="8.586564222947866"><ele>315.8</ele><time>2026-04-18T11:18:52Z</time></trkpt><trkpt lat="45.687828350874874" lon="8.586445425210664"><ele>316.2</ele><time>2026-04-18T11:18:54Z</time></trkpt><trkpt lat="45.68786233582454" lon="8.586330869002273"><ele>316.6</ele><time>2026-04-18T11:18:56Z</time></trkpt><trkpt lat="45.68787898425" lon="8.58618745593163"><ele>317.0</ele><time>2026-04-18T11:18:58Z</time></trkpt><trkpt lat="45.687861719511595" lon="8.58602361594303"><ele>317.33333333333337</ele><time>2026-04-18T11:19:00Z</time></trkpt><trkpt lat="45.687830720294144" lon="8.585877961580673"><ele>317.6666666666667</ele><time>2026-04-18T11:19:02Z</time></trkpt><trkpt lat="45.6878142091717" lon="8.585740903409521"><ele>318.0</ele><time>2026-04-18T11:19:04.001Z</time></trkpt><trkpt lat="45.68780690079177" lon="8.58584791498619"><ele>318.3333333333333</ele><time>2026-04-18T11:19:12.001Z</time></trkpt><trkpt lat="45.68785538959073" lon="8.585964014995177"><ele>318.66666666666663</ele><time>2026-04-18T11:19:13.001Z</time></trkpt><trkpt lat="45.68786177104066" lon="8.58605465309815"><ele>319.0</ele><time>2026-04-18T11:19:14.001Z</time></trkpt><trkpt lat="45.68786813272206" lon="8.586148722709266"><ele>318.66666666666663</ele><time>2026-04-18T11:19:15.001Z</time></trkpt><trkpt lat="45.68787777901241" lon="8.586238973394341"><ele>318.3333333333333</ele><time>2026-04-18T11:19:16.001Z</time></trkpt><trkpt lat="45.68787417023328" lon="8.586346704394842"><ele>318.0</ele><time>2026-04-18T11:19:17.001Z</time></trkpt><trkpt lat="45.687851987226985" lon="8.586450156551757"><ele>317.6666666666667</ele><time>2026-04-18T11:19:18.001Z</time></trkpt><trkpt lat="45.687825719170235" lon="8.586538029024684"><ele>317.33333333333337</ele><time>2026-04-18T11:19:19.001Z</time></trkpt><trkpt lat="45.687802390587564" lon="8.586684496317543"><ele>317.0</ele><time>2026-04-18T11:19:21.001Z</time></trkpt><trkpt lat="45.687792462008986" lon="8.58678005183336"><ele>317.0</ele><time>2026-04-18T11:19:22.001Z</time></trkpt><trkpt lat="45.68778968545489" lon="8.586894415516698"><ele>317.0</ele><time>2026-04-18T11:19:23.001Z</time></trkpt><trkpt lat="45.687763414428694" lon="8.587037536497622"><ele>317.0</ele><time>2026-04-18T11:19:25.001Z</time></trkpt><trkpt lat="45.68771002116251" lon="8.58716726475781"><ele>317.0</ele><time>2026-04-18T11:19:27.001Z</time></trkpt><trkpt lat="45.68766575774065" lon="8.587286452841985"><ele>317.0</ele><time>2026-04-18T11:19:29.001Z</time></trkpt><trkpt lat="45.68763469504634" lon="8.587408420756027"><ele>317.2</ele><time>2026-04-18T11:19:31.001Z</time></trkpt><trkpt lat="45.68758667232451" lon="8.587546472739668"><ele>317.4</ele><time>2026-04-18T11:19:33.001Z</time></trkpt><trkpt lat="45.687552395985044" lon="8.587660794143634"><ele>317.6</ele><time>2026-04-18T11:19:35.001Z</time></trkpt><trkpt lat="45.68750636917552" lon="8.587787280734103"><ele>317.8</ele><time>2026-04-18T11:19:37.001Z</time></trkpt><trkpt lat="45.6874729926115" lon="8.587892632166197"><ele>318.0</ele><time>2026-04-18T11:19:39.001Z</time></trkpt><trkpt lat="45.68743823512137" lon="8.588008521465271"><ele>318.0</ele><time>2026-04-18T11:19:41.001Z</time></trkpt><trkpt lat="45.68742176643654" lon="8.588134056967549"><ele>318.0</ele><time>2026-04-18T11:19:43.001Z</time></trkpt><trkpt lat="45.68737724868433" lon="8.588293930595947"><ele>318.0</ele><time>2026-04-18T11:19:45.001Z</time></trkpt><trkpt lat="45.68732959236796" lon="8.588380551807617"><ele>318.0</ele><time>2026-04-18T11:19:46.001Z</time></trkpt><trkpt lat="45.6873005064844" lon="8.588483854369596"><ele>318.0</ele><time>2026-04-18T11:19:47.001Z</time></trkpt><trkpt lat="45.68726651616914" lon="8.58858800960376"><ele>318.0</ele><time>2026-04-18T11:19:48.001Z</time></trkpt><trkpt lat="45.68723383248333" lon="8.588668169868182"><ele>317.57142857142856</ele><time>2026-04-18T11:19:49.001Z</time></trkpt><trkpt lat="45.68720154591227" lon="8.588768628345795"><ele>317.14285714285717</ele><time>2026-04-18T11:19:50.001Z</time></trkpt><trkpt lat="45.68717302149597" lon="8.588861182505761"><ele>316.7142857142857</ele><time>2026-04-18T11:19:51.001Z</time></trkpt><trkpt lat="45.687138993735715" lon="8.588951971806164"><ele>316.2857142857143</ele><time>2026-04-18T11:19:52.001Z</time></trkpt><trkpt lat="45.68710048242048" lon="8.58905042425085"><ele>315.8571428571429</ele><time>2026-04-18T11:19:53.001Z</time></trkpt><trkpt lat="45.68707272164893" lon="8.5891401476201"><ele>315.42857142857144</ele><time>2026-04-18T11:19:54.001Z</time></trkpt><trkpt lat="45.68704518380939" lon="8.589247801905733"><ele>315.0</ele><time>2026-04-18T11:19:55.001Z</time></trkpt><trkpt lat="45.68699576893287" lon="8.589328703248453"><ele>315.0</ele><time>2026-04-18T11:19:56.001Z</time></trkpt><trkpt lat="45.68694597740574" lon="8.589413118465906"><ele>315.0</ele><time>2026-04-18T11:19:57.001Z</time></trkpt><trkpt lat="45.68690915532074" lon="8.589554025950164"><ele>315.0</ele><time>2026-04-18T11:19:58.001Z</time></trkpt><trkpt lat="45.68686593244035" lon="8.58968904450196"><ele>315.0</ele><time>2026-04-18T11:19:59.001Z</time></trkpt><trkpt lat="45.68682684206874" lon="8.589819598361053"><ele>315.0</ele><time>2026-04-18T11:20:00.001Z</time></trkpt><trkpt lat="45.68678719204101" lon="8.589918872771456"><ele>315.2</ele><time>2026-04-18T11:20:01.001Z</time></trkpt><trkpt lat="45.68674842841888" lon="8.590020688626453"><ele>315.4</ele><time>2026-04-18T11:20:02.001Z</time></trkpt><trkpt lat="45.68668819678782" lon="8.590148574462976"><ele>315.6</ele><time>2026-04-18T11:20:04.001Z</time></trkpt><trkpt lat="45.68665124992943" lon="8.590240126439907"><ele>315.8</ele><time>2026-04-18T11:20:05.001Z</time></trkpt><trkpt lat="45.686546820224294" lon="8.590349571458344"><ele>316.0</ele><time>2026-04-18T11:20:07.001Z</time></trkpt><trkpt lat="45.68649619325752" lon="8.590407856483107"><ele>316.0</ele><time>2026-04-18T11:20:08.001Z</time></trkpt><trkpt lat="45.686441216372124" lon="8.590587124010492"><ele>316.0</ele><time>2026-04-18T11:20:10.001Z</time></trkpt><trkpt lat="45.68640830589353" lon="8.590701545868928"><ele>316.0</ele><time>2026-04-18T11:20:11.001Z</time></trkpt><trkpt lat="45.68637318542836" lon="8.590790738577287"><ele>316.0</ele><time>2026-04-18T11:20:12.001Z</time></trkpt><trkpt lat="45.68633010870141" lon="8.590894710851751"><ele>316.0</ele><time>2026-04-18T11:20:13.001Z</time></trkpt><trkpt lat="45.686310272042405" lon="8.590983573346588"><ele>316.0</ele><time>2026-04-18T11:20:14.001Z</time></trkpt><trkpt lat="45.6862652672214" lon="8.591075323072818"><ele>315.5</ele><time>2026-04-18T11:20:15.001Z</time></trkpt><trkpt lat="45.686245015392096" lon="8.591213391179325"><ele>315.0</ele><time>2026-04-18T11:20:17.001Z</time></trkpt><trkpt lat="45.68620056255786" lon="8.591292679598183"><ele>314.5</ele><time>2026-04-18T11:20:18.001Z</time></trkpt><trkpt lat="45.68615932341936" lon="8.591401797375992"><ele>314.0</ele><time>2026-04-18T11:20:19.001Z</time></trkpt><trkpt lat="45.686117985447105" lon="8.591536892254943"><ele>313.5</ele><time>2026-04-18T11:20:20.001Z</time></trkpt><trkpt lat="45.68607114338106" lon="8.591637645656405"><ele>313.0</ele><time>2026-04-18T11:20:21.001Z</time></trkpt><trkpt lat="45.686014243720116" lon="8.59175828640684"><ele>312.8</ele><time>2026-04-18T11:20:22.001Z</time></trkpt><trkpt lat="45.685920995868884" lon="8.591868046746054"><ele>312.6</ele><time>2026-04-18T11:20:23.001Z</time></trkpt><trkpt lat="45.68584814530243" lon="8.591955714230327"><ele>312.4</ele><time>2026-04-18T11:20:24.001Z</time></trkpt><trkpt lat="45.68575852443391" lon="8.592038042403345"><ele>312.2</ele><time>2026-04-18T11:20:25.001Z</time></trkpt><trkpt lat="45.68568453108016" lon="8.592110657301122"><ele>312.0</ele><time>2026-04-18T11:20:26.001Z</time></trkpt><trkpt lat="45.68561345686233" lon="8.592212988084828"><ele>312.0</ele><time>2026-04-18T11:20:28.001Z</time></trkpt><trkpt lat="45.685561645193964" lon="8.592316803836445"><ele>312.0</ele><time>2026-04-18T11:20:29.001Z</time></trkpt><trkpt lat="45.68549994671413" lon="8.59246191684162"><ele>312.0</ele><time>2026-04-18T11:20:30.001Z</time></trkpt><trkpt lat="45.68543570917154" lon="8.592572583919026"><ele>312.0</ele><time>2026-04-18T11:20:31.001Z</time></trkpt><trkpt lat="45.6853856747237" lon="8.59264603275996"><ele>312.0</ele><time>2026-04-18T11:20:32.001Z</time></trkpt><trkpt lat="45.68532772797174" lon="8.592760020786356"><ele>312.0</ele><time>2026-04-18T11:20:34.001Z</time></trkpt><trkpt lat="45.68527381516796" lon="8.59280747105054"><ele>312.0</ele><time>2026-04-18T11:20:35.001Z</time></trkpt><trkpt lat="45.68519223666205" lon="8.592862730597888"><ele>312.0</ele><time>2026-04-18T11:20:36.001Z</time></trkpt><trkpt lat="45.685123497040024" lon="8.592913698918604"><ele>312.0</ele><time>2026-04-18T11:20:37.001Z</time></trkpt><trkpt lat="45.68507594635713" lon="8.592983259163566"><ele>312.0</ele><time>2026-04-18T11:20:38.001Z</time></trkpt><trkpt lat="45.68503939819971" lon="8.593057703310931"><ele>312.0</ele><time>2026-04-18T11:20:40.001Z</time></trkpt><trkpt lat="45.68498604283692" lon="8.593112146478889"><ele>312.0</ele><time>2026-04-18T11:20:42.001Z</time></trkpt><trkpt lat="45.68492895596816" lon="8.593154136476258"><ele>311.5</ele><time>2026-04-18T11:20:45.001Z</time></trkpt><trkpt lat="45.68484876624369" lon="8.593197634890123"><ele>311.0</ele><time>2026-04-18T11:20:56.001Z</time></trkpt><trkpt lat="45.684781284765045" lon="8.593208163879538"><ele>310.5</ele><time>2026-04-18T11:20:57.001Z</time></trkpt><trkpt lat="45.68468738739652" lon="8.59318951371432"><ele>310.0</ele><time>2026-04-18T11:20:58.001Z</time></trkpt><trkpt lat="45.68458393326046" lon="8.593145849369863"><ele>309.5</ele><time>2026-04-18T11:20:59.001Z</time></trkpt><trkpt lat="45.68450118169295" lon="8.593113570778268"><ele>309.0</ele><time>2026-04-18T11:21:00.001Z</time></trkpt><trkpt lat="45.684427407801884" lon="8.593086809943419"><ele>310.5</ele><time>2026-04-18T11:21:01.001Z</time></trkpt><trkpt lat="45.68435876714904" lon="8.593063572204988"><ele>312.0</ele><time>2026-04-18T11:21:02.001Z</time></trkpt><trkpt lat="45.68428285456735" lon="8.5931311341901"><ele>313.5</ele><time>2026-04-18T11:21:04.001Z</time></trkpt><trkpt lat="45.68425269669492" lon="8.593232596201412"><ele>315.0</ele><time>2026-04-18T11:21:05.001Z</time></trkpt><trkpt lat="45.684245027340936" lon="8.593357730908622"><ele>316.5</ele><time>2026-04-18T11:21:06.001Z</time></trkpt><trkpt lat="45.68426816942921" lon="8.593460775389325"><ele>318.0</ele><time>2026-04-18T11:21:08.001Z</time></trkpt><trkpt lat="45.684201694282336" lon="8.593497281581762"><ele>318.0</ele><time>2026-04-18T11:21:27.001Z</time></trkpt><trkpt lat="45.68411189126593" lon="8.59344482019341"><ele>318.0</ele><time>2026-04-18T11:21:29.001Z</time></trkpt><trkpt lat="45.684029375630516" lon="8.593405531801638"><ele>318.0</ele><time>2026-04-18T11:21:31.001Z</time></trkpt><trkpt lat="45.68391988380493" lon="8.59337175991264"><ele>318.0</ele><time>2026-04-18T11:21:33.001Z</time></trkpt><trkpt lat="45.683858622553" lon="8.593345792308705"><ele>318.0</ele><time>2026-04-18T11:21:34.001Z</time></trkpt><trkpt lat="45.683791644065785" lon="8.593325127626708"><ele>318.0</ele><time>2026-04-18T11:21:35.001Z</time></trkpt><trkpt lat="45.683720913816146" lon="8.593318938108407"><ele>318.0</ele><time>2026-04-18T11:21:36.001Z</time></trkpt><trkpt lat="45.683637270491744" lon="8.593317698861872"><ele>318.0</ele><time>2026-04-18T11:21:37.001Z</time></trkpt><trkpt lat="45.68355660784891" lon="8.593354761365388"><ele>318.0</ele><time>2026-04-18T11:21:38.001Z</time></trkpt><trkpt lat="45.68348562110137" lon="8.593403379973374"><ele>318.0</ele><time>2026-04-18T11:21:39.001Z</time></trkpt><trkpt lat="45.6834259486571" lon="8.5934502776227"><ele>318.0</ele><time>2026-04-18T11:21:40.001Z</time></trkpt><trkpt lat="45.68334250604254" lon="8.593471039802342"><ele>318.0</ele><time>2026-04-18T11:21:42.001Z</time></trkpt><trkpt lat="45.6832648448371" lon="8.59350531068887"><ele>319.8</ele><time>2026-04-18T11:21:43.001Z</time></trkpt><trkpt lat="45.68318120485721" lon="8.593558647107882"><ele>321.6</ele><time>2026-04-18T11:21:44.001Z</time></trkpt><trkpt lat="45.68310527765142" lon="8.59363048167833"><ele>323.40000000000003</ele><time>2026-04-18T11:21:45.001Z</time></trkpt><trkpt lat="45.68302613899857" lon="8.593684008220572"><ele>325.20000000000005</ele><time>2026-04-18T11:21:46.001Z</time></trkpt><trkpt lat="45.68295899816244" lon="8.593714346764925"><ele>327.0</ele><time>2026-04-18T11:21:47.001Z</time></trkpt><trkpt lat="45.6828454837374" lon="8.593739773802014"><ele>327.0</ele><time>2026-04-18T11:21:49.001Z</time></trkpt><trkpt lat="45.682790836975954" lon="8.593668563178992"><ele>327.0</ele><time>2026-04-18T11:21:52.001Z</time></trkpt><trkpt lat="45.68279376797145" lon="8.59349168984582"><ele>327.0</ele><time>2026-04-18T11:21:54.001Z</time></trkpt><trkpt lat="45.68282196188627" lon="8.59335554803208"><ele>327.0</ele><time>2026-04-18T11:21:55.001Z</time></trkpt><trkpt lat="45.68284859123476" lon="8.593222865566839"><ele>327.0</ele><time>2026-04-18T11:21:56.001Z</time></trkpt><trkpt lat="45.68286080109573" lon="8.593125808223164"><ele>327.0</ele><time>2026-04-18T11:21:57.001Z</time></trkpt><trkpt lat="45.68287210730657" lon="8.593027391755435"><ele>327.0</ele><time>2026-04-18T11:21:58.001Z</time></trkpt><trkpt lat="45.682894382064454" lon="8.592902940234683"><ele>327.0</ele><time>2026-04-18T11:22:00.001Z</time></trkpt><trkpt lat="45.68290671077401" lon="8.592806001677388"><ele>327.0</ele><time>2026-04-18T11:22:04.001Z</time></trkpt><trkpt lat="45.682874126912786" lon="8.59289531962231"><ele>327.0</ele><time>2026-04-18T11:22:08.001Z</time></trkpt><trkpt lat="45.6828533571855" lon="8.593064480580312"><ele>327.0</ele><time>2026-04-18T11:22:10.001Z</time></trkpt><trkpt lat="45.68282267921196" lon="8.59314739124942"><ele>328.1666666666667</ele><time>2026-04-18T11:22:12.001Z</time></trkpt><trkpt lat="45.682709066569004" lon="8.593118967499892"><ele>329.3333333333333</ele><time>2026-04-18T11:22:15.001Z</time></trkpt><trkpt lat="45.68263680964876" lon="8.593070745848994"><ele>330.5</ele><time>2026-04-18T11:22:17.001Z</time></trkpt><trkpt lat="45.68257132525828" lon="8.593043699954473"><ele>331.66666666666663</ele><time>2026-04-18T11:22:19.001Z</time></trkpt><trkpt lat="45.68250254368213" lon="8.593018960272477"><ele>332.8333333333333</ele><time>2026-04-18T11:22:20.001Z</time></trkpt><trkpt lat="45.68242650980619" lon="8.592961155451004"><ele>334.0</ele><time>2026-04-18T11:22:21.001Z</time></trkpt><trkpt lat="45.68232579552169" lon="8.592899800386235"><ele>333.5</ele><time>2026-04-18T11:22:22.001Z</time></trkpt><trkpt lat="45.68223557812193" lon="8.59283023125292"><ele>333.0</ele><time>2026-04-18T11:22:23.001Z</time></trkpt><trkpt lat="45.68215787561723" lon="8.5927964360261"><ele>332.5</ele><time>2026-04-18T11:22:24.001Z</time></trkpt><trkpt lat="45.68209864717064" lon="8.59275444882022"><ele>332.0</ele><time>2026-04-18T11:22:25.001Z</time></trkpt><trkpt lat="45.68200811757515" lon="8.59266921652293"><ele>331.5</ele><time>2026-04-18T11:22:27.001Z</time></trkpt><trkpt lat="45.68194216495858" lon="8.592648191407138"><ele>331.0</ele><time>2026-04-18T11:22:28.001Z</time></trkpt><trkpt lat="45.68182666937988" lon="8.59260201781511"><ele>332.4</ele><time>2026-04-18T11:22:30.001Z</time></trkpt><trkpt lat="45.68172005164476" lon="8.592578569535721"><ele>333.8</ele><time>2026-04-18T11:22:32.001Z</time></trkpt><trkpt lat="45.681652553390585" lon="8.592549262652808"><ele>335.2</ele><time>2026-04-18T11:22:33.001Z</time></trkpt><trkpt lat="45.68153626828488" lon="8.592518692095483"><ele>336.59999999999997</ele><time>2026-04-18T11:22:35.001Z</time></trkpt><trkpt lat="45.68144263631159" lon="8.592461745479687"><ele>338.0</ele><time>2026-04-18T11:22:36.001Z</time></trkpt><trkpt lat="45.681372495928066" lon="8.592422293659212"><ele>338.0</ele><time>2026-04-18T11:22:37.001Z</time></trkpt><trkpt lat="45.68129820287847" lon="8.592405660953263"><ele>338.0</ele><time>2026-04-18T11:22:38.001Z</time></trkpt><trkpt lat="45.68123038360135" lon="8.592437058871036"><ele>338.0</ele><time>2026-04-18T11:22:39.001Z</time></trkpt><trkpt lat="45.68114045097119" lon="8.592442193613513"><ele>338.0</ele><time>2026-04-18T11:22:40.001Z</time></trkpt><trkpt lat="45.68105453034672" lon="8.59243024423936"><ele>338.0</ele><time>2026-04-18T11:22:41.001Z</time></trkpt><trkpt lat="45.68097571985085" lon="8.592446166835645"><ele>338.0</ele><time>2026-04-18T11:22:42.001Z</time></trkpt><trkpt lat="45.680896970791586" lon="8.592467712108835"><ele>338.79999999999995</ele><time>2026-04-18T11:22:43.001Z</time></trkpt><trkpt lat="45.680804720066206" lon="8.59250706164215"><ele>339.6</ele><time>2026-04-18T11:22:44.001Z</time></trkpt><trkpt lat="45.680727163972946" lon="8.592504929159846"><ele>340.4</ele><time>2026-04-18T11:22:45.001Z</time></trkpt><trkpt lat="45.68060380711763" lon="8.592524261968954"><ele>341.20000000000005</ele><time>2026-04-18T11:22:47.001Z</time></trkpt><trkpt lat="45.68048777728925" lon="8.592591634871146"><ele>342.0</ele><time>2026-04-18T11:22:49.001Z</time></trkpt><trkpt lat="45.68042537978389" lon="8.592606627178425"><ele>342.0</ele><time>2026-04-18T11:22:50.001Z</time></trkpt><trkpt lat="45.68033579496068" lon="8.592632070755212"><ele>342.0</ele><time>2026-04-18T11:22:51.001Z</time></trkpt><trkpt lat="45.68023066486301" lon="8.59263944330714"><ele>342.0</ele><time>2026-04-18T11:22:52.001Z</time></trkpt><trkpt lat="45.68015687561499" lon="8.59262501082094"><ele>342.0</ele><time>2026-04-18T11:22:53.001Z</time></trkpt><trkpt lat="45.68007235794804" lon="8.592665133083141"><ele>342.0</ele><time>2026-04-18T11:22:54.001Z</time></trkpt><trkpt lat="45.67997335565643" lon="8.59267697585953"><ele>341.40000000000003</ele><time>2026-04-18T11:22:55.001Z</time></trkpt><trkpt lat="45.67986419826263" lon="8.592676668953269"><ele>340.8</ele><time>2026-04-18T11:22:56.001Z</time></trkpt><trkpt lat="45.679774873231835" lon="8.592684983861155"><ele>340.2</ele><time>2026-04-18T11:22:57.001Z</time></trkpt><trkpt lat="45.6796855730598" lon="8.592703032417104"><ele>339.6</ele><time>2026-04-18T11:22:58.001Z</time></trkpt><trkpt lat="45.67959728813337" lon="8.59270355039837"><ele>339.0</ele><time>2026-04-18T11:22:59.001Z</time></trkpt><trkpt lat="45.679512138860034" lon="8.592710136892688"><ele>339.0</ele><time>2026-04-18T11:23:00.001Z</time></trkpt><trkpt lat="45.679404785619326" lon="8.592715768191118"><ele>339.0</ele><time>2026-04-18T11:23:02.001Z</time></trkpt><trkpt lat="45.67932787969053" lon="8.592696461897402"><ele>339.0</ele><time>2026-04-18T11:23:04.001Z</time></trkpt><trkpt lat="45.679284746272316" lon="8.592564712337355"><ele>339.0</ele><time>2026-04-18T11:23:06.001Z</time></trkpt><trkpt lat="45.67928003034923" lon="8.592460357088681"><ele>339.0</ele><time>2026-04-18T11:23:07.001Z</time></trkpt><trkpt lat="45.6792625427759" lon="8.59232557931221"><ele>339.0</ele><time>2026-04-18T11:23:09.001Z</time></trkpt><trkpt lat="45.67917653644479" lon="8.59226428773631"><ele>339.0</ele><time>2026-04-18T11:23:11.001Z</time></trkpt><trkpt lat="45.679098548094004" lon="8.592280277349303"><ele>339.0</ele><time>2026-04-18T11:23:12.001Z</time></trkpt><trkpt lat="45.679006884081765" lon="8.59228558438729"><ele>339.0</ele><time>2026-04-18T11:23:13.001Z</time></trkpt><trkpt lat="45.67891398598482" lon="8.592287916115566"><ele>339.0</ele><time>2026-04-18T11:23:14.001Z</time></trkpt><trkpt lat="45.678828311717226" lon="8.59228119292986"><ele>339.0</ele><time>2026-04-18T11:23:15.001Z</time></trkpt><trkpt lat="45.678758981548704" lon="8.592273673006483"><ele>339.0</ele><time>2026-04-18T11:23:16.001Z</time></trkpt><trkpt lat="45.678627425356574" lon="8.592264169524821"><ele>339.0</ele><time>2026-04-18T11:23:18Z</time></trkpt><trkpt lat="45.67855906600679" lon="8.5922649148586"><ele>339.0</ele><time>2026-04-18T11:23:19Z</time></trkpt><trkpt lat="45.67843863449347" lon="8.59227346956911"><ele>339.0</ele><time>2026-04-18T11:23:21Z</time></trkpt><trkpt lat="45.678342311615985" lon="8.592272225553767"><ele>339.0</ele><time>2026-04-18T11:23:23Z</time></trkpt><trkpt lat="45.678252439623996" lon="8.592239987739873"><ele>338.6</ele><time>2026-04-18T11:23:25Z</time></trkpt><trkpt lat="45.6781834576689" lon="8.592236473914896"><ele>338.2</ele><time>2026-04-18T11:23:27Z</time></trkpt><trkpt lat="45.67803754252623" lon="8.592236796051088"><ele>337.8</ele><time>2026-04-18T11:23:29Z</time></trkpt><trkpt lat="45.67792512786225" lon="8.592207329038796"><ele>337.40000000000003</ele><time>2026-04-18T11:23:31Z</time></trkpt><trkpt lat="45.67785495678593" lon="8.592153855078273"><ele>337.0</ele><time>2026-04-18T11:23:32Z</time></trkpt><trkpt lat="45.67779488475622" lon="8.592103453578693"><ele>337.0</ele><time>2026-04-18T11:23:33Z</time></trkpt><trkpt lat="45.6777363138133" lon="8.592056388107377"><ele>337.0</ele><time>2026-04-18T11:23:34Z</time></trkpt><trkpt lat="45.67762323017863" lon="8.591974298582048"><ele>337.0</ele><time>2026-04-18T11:23:36Z</time></trkpt><trkpt lat="45.67753437959011" lon="8.591942642603867"><ele>337.0</ele><time>2026-04-18T11:23:38Z</time></trkpt><trkpt lat="45.67748733184089" lon="8.59186121642923"><ele>337.0</ele><time>2026-04-18T11:23:40Z</time></trkpt><trkpt lat="45.67745425352718" lon="8.591726109642947"><ele>337.3333333333333</ele><time>2026-04-18T11:23:42Z</time></trkpt><trkpt lat="45.67744256599827" lon="8.591626290204617"><ele>337.66666666666663</ele><time>2026-04-18T11:23:44Z</time></trkpt><trkpt lat="45.67741494473947" lon="8.591520078180054"><ele>338.0</ele><time>2026-04-18T11:23:46Z</time></trkpt><trkpt lat="45.67739238686631" lon="8.591431361304283"><ele>338.3333333333333</ele><time>2026-04-18T11:23:59.001Z</time></trkpt><trkpt lat="45.67742356656525" lon="8.591577842505734"><ele>338.6666666666667</ele><time>2026-04-18T11:24:19.001Z</time></trkpt><trkpt lat="45.6774467077947" lon="8.59166916300289"><ele>339.0</ele><time>2026-04-18T11:24:20.001Z</time></trkpt><trkpt lat="45.677492300742585" lon="8.59181942487949"><ele>339.0</ele><time>2026-04-18T11:24:22.001Z</time></trkpt><trkpt lat="45.67756626640064" lon="8.591927808832429"><ele>339.0</ele><time>2026-04-18T11:24:24.001Z</time></trkpt><trkpt lat="45.67765754921783" lon="8.591981452307106"><ele>339.0</ele><time>2026-04-18T11:24:26.001Z</time></trkpt><trkpt lat="45.677757164745294" lon="8.592053291979315"><ele>339.0</ele><time>2026-04-18T11:24:28.001Z</time></trkpt><trkpt lat="45.67780953764322" lon="8.59210722317739"><ele>339.0</ele><time>2026-04-18T11:24:29.001Z</time></trkpt><trkpt lat="45.677917627384296" lon="8.592183294351491"><ele>338.6666666666667</ele><time>2026-04-18T11:24:31.001Z</time></trkpt><trkpt lat="45.67797852067065" lon="8.592224202825772"><ele>338.3333333333333</ele><time>2026-04-18T11:24:32.001Z</time></trkpt><trkpt lat="45.67807856748887" lon="8.592250177338261"><ele>338.0</ele><time>2026-04-18T11:24:34.001Z</time></trkpt><trkpt lat="45.67815639033073" lon="8.592240510880435"><ele>337.66666666666663</ele><time>2026-04-18T11:24:35.001Z</time></trkpt><trkpt lat="45.678263628593974" lon="8.592221705998886"><ele>337.3333333333333</ele><time>2026-04-18T11:24:52Z</time></trkpt><trkpt lat="45.67835754306237" lon="8.592227936412762"><ele>337.0</ele><time>2026-04-18T11:24:54Z</time></trkpt><trkpt lat="45.678428050394835" lon="8.5922404810902"><ele>337.0</ele><time>2026-04-18T11:25:04Z</time></trkpt><trkpt lat="45.67835207064625" lon="8.592255775216142"><ele>337.0</ele><time>2026-04-18T11:25:18Z</time></trkpt><trkpt lat="45.67831068997639" lon="8.592380297631431"><ele>337.0</ele><time>2026-04-18T11:25:20Z</time></trkpt><trkpt lat="45.67829407318497" lon="8.592501009181984"><ele>337.0</ele><time>2026-04-18T11:25:21Z</time></trkpt><trkpt lat="45.67827003415766" lon="8.592619926632931"><ele>337.0</ele><time>2026-04-18T11:25:22Z</time></trkpt><trkpt lat="45.67825392837876" lon="8.592734517341892"><ele>337.0</ele><time>2026-04-18T11:25:23Z</time></trkpt><trkpt lat="45.678231213835154" lon="8.592853751431264"><ele>336.20000000000005</ele><time>2026-04-18T11:25:24Z</time></trkpt><trkpt lat="45.678202393261614" lon="8.59298829140609"><ele>335.4</ele><time>2026-04-18T11:25:25Z</time></trkpt><trkpt lat="45.678176786995095" lon="8.593106801651835"><ele>334.6</ele><time>2026-04-18T11:25:26Z</time></trkpt><trkpt lat="45.67816104562586" lon="8.593200608197153"><ele>333.79999999999995</ele><time>2026-04-18T11:25:27Z</time></trkpt><trkpt lat="45.67814151354736" lon="8.593345934193914"><ele>333.0</ele><time>2026-04-18T11:25:29Z</time></trkpt><trkpt lat="45.67804987699786" lon="8.59378204799197"><ele>332.5714285714286</ele><time>2026-04-18T11:25:34Z</time></trkpt><trkpt lat="45.678035562626626" lon="8.59388743048294"><ele>332.1428571428571</ele><time>2026-04-18T11:25:35Z</time></trkpt><trkpt lat="45.67803120174951" lon="8.593992538358634"><ele>331.7142857142857</ele><time>2026-04-18T11:25:36Z</time></trkpt><trkpt lat="45.67803461507501" lon="8.594092881145341"><ele>331.28571428571433</ele><time>2026-04-18T11:25:37Z</time></trkpt><trkpt lat="45.67804355566601" lon="8.59419018514188"><ele>330.8571428571429</ele><time>2026-04-18T11:25:38Z</time></trkpt><trkpt lat="45.678050019142205" lon="8.594289904278632"><ele>330.42857142857144</ele><time>2026-04-18T11:25:39Z</time></trkpt><trkpt lat="45.678062060882176" lon="8.594387878526616"><ele>330.0</ele><time>2026-04-18T11:25:40Z</time></trkpt><trkpt lat="45.67807680380498" lon="8.594484591376826"><ele>330.28571428571433</ele><time>2026-04-18T11:25:41Z</time></trkpt><trkpt lat="45.67809359153772" lon="8.594579908583919"><ele>330.57142857142856</ele><time>2026-04-18T11:25:42Z</time></trkpt><trkpt lat="45.67811273476009" lon="8.594672318172057"><ele>330.8571428571429</ele><time>2026-04-18T11:25:43Z</time></trkpt><trkpt lat="45.67813314141715" lon="8.594773223072286"><ele>331.14285714285717</ele><time>2026-04-18T11:25:44Z</time></trkpt><trkpt lat="45.67815288608775" lon="8.594868348272463"><ele>331.42857142857144</ele><time>2026-04-18T11:25:45Z</time></trkpt><trkpt lat="45.67817362455844" lon="8.594968003680396"><ele>331.7142857142857</ele><time>2026-04-18T11:25:46Z</time></trkpt><trkpt lat="45.67818973491914" lon="8.595067007847856"><ele>332.0</ele><time>2026-04-18T11:25:47Z</time></trkpt><trkpt lat="45.67821345018821" lon="8.595164910213855"><ele>332.0</ele><time>2026-04-18T11:25:48Z</time></trkpt><trkpt lat="45.67823261262897" lon="8.595264730519865"><ele>332.0</ele><time>2026-04-18T11:25:49Z</time></trkpt><trkpt lat="45.67826416885759" lon="8.595417424177608"><ele>332.0</ele><time>2026-04-18T11:25:51Z</time></trkpt><trkpt lat="45.67828314450612" lon="8.595505743372218"><ele>332.0</ele><time>2026-04-18T11:25:52Z</time></trkpt><trkpt lat="45.6782979132573" lon="8.59559849804852"><ele>332.0</ele><time>2026-04-18T11:25:53Z</time></trkpt><trkpt lat="45.6783145789449" lon="8.595697714209058"><ele>332.0</ele><time>2026-04-18T11:25:54Z</time></trkpt><trkpt lat="45.678331759728806" lon="8.595789417755604"><ele>332.6</ele><time>2026-04-18T11:25:55Z</time></trkpt><trkpt lat="45.67837119342909" lon="8.595968654344611"><ele>333.20000000000005</ele><time>2026-04-18T11:25:57Z</time></trkpt><trkpt lat="45.6783881430992" lon="8.59608597633421"><ele>333.8</ele><time>2026-04-18T11:25:58Z</time></trkpt><trkpt lat="45.678405270573826" lon="8.59619682919282"><ele>334.4</ele><time>2026-04-18T11:25:59Z</time></trkpt><trkpt lat="45.678427653531" lon="8.596296466291339"><ele>335.0</ele><time>2026-04-18T11:26:00Z</time></trkpt><trkpt lat="45.67845943318318" lon="8.5964596201943"><ele>335.4</ele><time>2026-04-18T11:26:02Z</time></trkpt><trkpt lat="45.67848308619908" lon="8.596627356003763"><ele>335.8</ele><time>2026-04-18T11:26:04Z</time></trkpt><trkpt lat="45.678493456193415" lon="8.596739937085353"><ele>336.20000000000005</ele><time>2026-04-18T11:26:06Z</time></trkpt><trkpt lat="45.67852805677829" lon="8.596892634216744"><ele>336.6</ele><time>2026-04-18T11:26:41Z</time></trkpt><trkpt lat="45.67854881312077" lon="8.59698802066633"><ele>337.0</ele><time>2026-04-18T11:26:42Z</time></trkpt><trkpt lat="45.678567062056956" lon="8.597096641344722"><ele>337.8333333333333</ele><time>2026-04-18T11:26:43Z</time></trkpt><trkpt lat="45.67859089153623" lon="8.597199401878147"><ele>338.66666666666663</ele><time>2026-04-18T11:26:44Z</time></trkpt><trkpt lat="45.67860778229335" lon="8.597309921312242"><ele>339.5</ele><time>2026-04-18T11:26:45Z</time></trkpt><trkpt lat="45.678614639888394" lon="8.597407566700573"><ele>340.3333333333333</ele><time>2026-04-18T11:26:46Z</time></trkpt><trkpt lat="45.678614994349566" lon="8.597555134871994"><ele>341.1666666666667</ele><time>2026-04-18T11:26:48Z</time></trkpt><trkpt lat="45.67860634747567" lon="8.5976710328839"><ele>342.0</ele><time>2026-04-18T11:26:50Z</time></trkpt><trkpt lat="45.678598367571155" lon="8.597797240253177"><ele>342.3333333333333</ele><time>2026-04-18T11:26:52Z</time></trkpt><trkpt lat="45.67854439690951" lon="8.597872625134597"><ele>342.6666666666667</ele><time>2026-04-18T11:26:55Z</time></trkpt><trkpt lat="45.678470501130334" lon="8.597882102472635"><ele>343.0</ele><time>2026-04-18T11:26:56Z</time></trkpt><trkpt lat="45.67839491533243" lon="8.597893580166868"><ele>343.33333333333337</ele><time>2026-04-18T11:26:57Z</time></trkpt><trkpt lat="45.67828381509484" lon="8.597896281213131"><ele>343.6666666666667</ele><time>2026-04-18T11:26:59Z</time></trkpt><trkpt lat="45.67821876430073" lon="8.597904580667787"><ele>344.0</ele><time>2026-04-18T11:27:00Z</time></trkpt><trkpt lat="45.678135532444685" lon="8.59792110584864"><ele>344.0</ele><time>2026-04-18T11:27:01Z</time></trkpt><trkpt lat="45.67805437452338" lon="8.597942770054615"><ele>344.0</ele><time>2026-04-18T11:27:02Z</time></trkpt><trkpt lat="45.67796798369158" lon="8.597951642914696"><ele>344.0</ele><time>2026-04-18T11:27:03Z</time></trkpt><trkpt lat="45.67789994649882" lon="8.597982299799147"><ele>344.0</ele><time>2026-04-18T11:27:04Z</time></trkpt><trkpt lat="45.677835066522164" lon="8.598022381214596"><ele>344.0</ele><time>2026-04-18T11:27:05Z</time></trkpt><trkpt lat="45.6777323259555" lon="8.598067416444405"><ele>344.0</ele><time>2026-04-18T11:27:07Z</time></trkpt><trkpt lat="45.67765888241878" lon="8.598068123505463"><ele>344.0</ele><time>2026-04-18T11:27:08Z</time></trkpt><trkpt lat="45.67758088490687" lon="8.598052974886505"><ele>344.0</ele><time>2026-04-18T11:27:09Z</time></trkpt><trkpt lat="45.67749980497629" lon="8.598037510867298"><ele>344.0</ele><time>2026-04-18T11:27:10Z</time></trkpt><trkpt lat="45.67741434831691" lon="8.597986450857032"><ele>344.0</ele><time>2026-04-18T11:27:11Z</time></trkpt><trkpt lat="45.67731960334808" lon="8.597917270905617"><ele>344.0</ele><time>2026-04-18T11:27:12Z</time></trkpt><trkpt lat="45.67723581004633" lon="8.597863696247485"><ele>343.4</ele><time>2026-04-18T11:27:13Z</time></trkpt><trkpt lat="45.67715106883893" lon="8.597799783364458"><ele>342.79999999999995</ele><time>2026-04-18T11:27:14Z</time></trkpt><trkpt lat="45.67707290682821" lon="8.597767313050417"><ele>342.20000000000005</ele><time>2026-04-18T11:27:15Z</time></trkpt><trkpt lat="45.6769888496826" lon="8.597760045880726"><ele>341.6</ele><time>2026-04-18T11:27:16Z</time></trkpt><trkpt lat="45.67689370968117" lon="8.597767140889266"><ele>341.0</ele><time>2026-04-18T11:27:17Z</time></trkpt><trkpt lat="45.676800693546156" lon="8.597791429516029"><ele>340.0</ele><time>2026-04-18T11:27:18Z</time></trkpt><trkpt lat="45.67670065005414" lon="8.59781174215185"><ele>339.0</ele><time>2026-04-18T11:27:19Z</time></trkpt><trkpt lat="45.67660022739039" lon="8.597838028653834"><ele>338.0</ele><time>2026-04-18T11:27:20Z</time></trkpt><trkpt lat="45.676503870288236" lon="8.597881026389723"><ele>337.0</ele><time>2026-04-18T11:27:21Z</time></trkpt><trkpt lat="45.67642009449185" lon="8.597943433576331"><ele>336.0</ele><time>2026-04-18T11:27:22Z</time></trkpt><trkpt lat="45.67632642750331" lon="8.598018015084827"><ele>336.0</ele><time>2026-04-18T11:27:23Z</time></trkpt><trkpt lat="45.67621333606352" lon="8.598091418965844"><ele>336.0</ele><time>2026-04-18T11:27:24Z</time></trkpt><trkpt lat="45.6760919489003" lon="8.598182184639647"><ele>336.0</ele><time>2026-04-18T11:27:25Z</time></trkpt><trkpt lat="45.675979915296935" lon="8.598259526282876"><ele>336.0</ele><time>2026-04-18T11:27:26Z</time></trkpt><trkpt lat="45.675885692112985" lon="8.598329464548947"><ele>335.1666666666667</ele><time>2026-04-18T11:27:27Z</time></trkpt><trkpt lat="45.675805111033775" lon="8.598386017110775"><ele>334.3333333333333</ele><time>2026-04-18T11:27:28Z</time></trkpt><trkpt lat="45.6757351358888" lon="8.59843950193125"><ele>333.5</ele><time>2026-04-18T11:27:29Z</time></trkpt><trkpt lat="45.67563659772521" lon="8.59850268980242"><ele>332.66666666666663</ele><time>2026-04-18T11:27:31Z</time></trkpt><trkpt lat="45.6755769209078" lon="8.598533782284395"><ele>331.8333333333333</ele><time>2026-04-18T11:27:33Z</time></trkpt><trkpt lat="45.67551458713645" lon="8.598571928381913"><ele>331.0</ele><time>2026-04-18T11:27:37Z</time></trkpt><trkpt lat="45.67548695922891" lon="8.598696820301058"><ele>331.0</ele><time>2026-04-18T11:27:39Z</time></trkpt><trkpt lat="45.675522546094015" lon="8.598873736475348"><ele>331.0</ele><time>2026-04-18T11:27:41Z</time></trkpt><trkpt lat="45.675546285351786" lon="8.598972993143489"><ele>331.0</ele><time>2026-04-18T11:27:42Z</time></trkpt><trkpt lat="45.67558058762268" lon="8.599078345499288"><ele>331.0</ele><time>2026-04-18T11:27:43Z</time></trkpt><trkpt lat="45.67560792524267" lon="8.599178092098565"><ele>331.0</ele><time>2026-04-18T11:27:44Z</time></trkpt><trkpt lat="45.67563126923997" lon="8.599288119555132"><ele>331.0</ele><time>2026-04-18T11:27:45Z</time></trkpt><trkpt lat="45.67566019854497" lon="8.599430114362864"><ele>330.5</ele><time>2026-04-18T11:27:46Z</time></trkpt><trkpt lat="45.67567754198196" lon="8.599597225755451"><ele>330.0</ele><time>2026-04-18T11:27:47Z</time></trkpt><trkpt lat="45.675684847332185" lon="8.599770659967929"><ele>329.5</ele><time>2026-04-18T11:27:48Z</time></trkpt><trkpt lat="45.675693464031646" lon="8.599954785026911"><ele>329.0</ele><time>2026-04-18T11:27:49Z</time></trkpt><trkpt lat="45.675706541174875" lon="8.600155142574414"><ele>328.6666666666667</ele><time>2026-04-18T11:27:50Z</time></trkpt><trkpt lat="45.67572057003611" lon="8.600388243793287"><ele>328.3333333333333</ele><time>2026-04-18T11:27:51Z</time></trkpt><trkpt lat="45.67573310459225" lon="8.600644218723213"><ele>328.0</ele><time>2026-04-18T11:27:52Z</time></trkpt><trkpt lat="45.67574180123487" lon="8.600862836244517"><ele>328.0</ele><time>2026-04-18T11:27:53Z</time></trkpt><trkpt lat="45.67575006648711" lon="8.601066369352388"><ele>328.0</ele><time>2026-04-18T11:27:54Z</time></trkpt><trkpt lat="45.67576099295569" lon="8.601251728213985"><ele>328.0</ele><time>2026-04-18T11:27:55Z</time></trkpt><trkpt lat="45.67576923725796" lon="8.601426378085874"><ele>328.0</ele><time>2026-04-18T11:27:56Z</time></trkpt><trkpt lat="45.67577953304515" lon="8.601594504303257"><ele>328.25</ele><time>2026-04-18T11:27:57Z</time></trkpt><trkpt lat="45.67578099086433" lon="8.601758903909591"><ele>328.5</ele><time>2026-04-18T11:27:58Z</time></trkpt><trkpt lat="45.67576846395338" lon="8.601946078237594"><ele>328.75</ele><time>2026-04-18T11:27:59Z</time></trkpt><trkpt lat="45.67574901997533" lon="8.602160293185975"><ele>329.0</ele><time>2026-04-18T11:28:00Z</time></trkpt><trkpt lat="45.675728869479016" lon="8.602387814976506"><ele>329.5</ele><time>2026-04-18T11:28:01Z</time></trkpt><trkpt lat="45.675710803947425" lon="8.602649647673514"><ele>330.0</ele><time>2026-04-18T11:28:02Z</time></trkpt><trkpt lat="45.675670218157315" lon="8.603129982365358"><ele>330.0</ele><time>2026-04-18T11:28:04Z</time></trkpt><trkpt lat="45.67565491380802" lon="8.603330338764358"><ele>330.0</ele><time>2026-04-18T11:28:05Z</time></trkpt><trkpt lat="45.67564059237798" lon="8.60350650921253"><ele>330.0</ele><time>2026-04-18T11:28:06Z</time></trkpt><trkpt lat="45.67563320727612" lon="8.603675527338757"><ele>330.0</ele><time>2026-04-18T11:28:07Z</time></trkpt><trkpt lat="45.675650565227095" lon="8.603834311452843"><ele>330.0</ele><time>2026-04-18T11:28:08Z</time></trkpt><trkpt lat="45.675675708476525" lon="8.604004849396464"><ele>330.0</ele><time>2026-04-18T11:28:09Z</time></trkpt><trkpt lat="45.675692922782886" lon="8.604183707143696"><ele>330.0</ele><time>2026-04-18T11:28:10Z</time></trkpt><trkpt lat="45.67569419185057" lon="8.60435237278349"><ele>330.0</ele><time>2026-04-18T11:28:11Z</time></trkpt><trkpt lat="45.675690062928844" lon="8.60450385431871"><ele>329.8</ele><time>2026-04-18T11:28:12Z</time></trkpt><trkpt lat="45.67568324884239" lon="8.604644073946588"><ele>329.6</ele><time>2026-04-18T11:28:13Z</time></trkpt><trkpt lat="45.675673756968294" lon="8.60478651297768"><ele>329.4</ele><time>2026-04-18T11:28:14Z</time></trkpt><trkpt lat="45.675655165246845" lon="8.604920699355633"><ele>329.2</ele><time>2026-04-18T11:28:15Z</time></trkpt><trkpt lat="45.67563606471168" lon="8.605070348922558"><ele>329.0</ele><time>2026-04-18T11:28:16Z</time></trkpt><trkpt lat="45.675616927091156" lon="8.605240161752558"><ele>326.5</ele><time>2026-04-18T11:28:17Z</time></trkpt><trkpt lat="45.67554311654898" lon="8.605767841990337"><ele>324.0</ele><time>2026-04-18T11:28:20Z</time></trkpt><trkpt lat="45.675515082149566" lon="8.605938234805386"><ele>324.0</ele><time>2026-04-18T11:28:21Z</time></trkpt><trkpt lat="45.67548191333757" lon="8.606094509041197"><ele>324.0</ele><time>2026-04-18T11:28:22Z</time></trkpt><trkpt lat="45.67543096315894" lon="8.60623827583172"><ele>324.0</ele><time>2026-04-18T11:28:23Z</time></trkpt><trkpt lat="45.67536487249458" lon="8.606373564987827"><ele>324.0</ele><time>2026-04-18T11:28:24Z</time></trkpt><trkpt lat="45.6752934111604" lon="8.606522142880134"><ele>324.0</ele><time>2026-04-18T11:28:25Z</time></trkpt><trkpt lat="45.675223129638894" lon="8.60670286162426"><ele>324.0</ele><time>2026-04-18T11:28:26Z</time></trkpt><trkpt lat="45.67516277829761" lon="8.606895223471037"><ele>324.0</ele><time>2026-04-18T11:28:27Z</time></trkpt><trkpt lat="45.67511960238486" lon="8.607120145930004"><ele>323.6666666666667</ele><time>2026-04-18T11:28:28Z</time></trkpt><trkpt lat="45.67507022399533" lon="8.607350740312754"><ele>323.33333333333337</ele><time>2026-04-18T11:28:29Z</time></trkpt><trkpt lat="45.67503186313986" lon="8.607554012250175"><ele>323.0</ele><time>2026-04-18T11:28:30Z</time></trkpt><trkpt lat="45.67498745582627" lon="8.607738259430633"><ele>322.59999999999997</ele><time>2026-04-18T11:28:31Z</time></trkpt><trkpt lat="45.674949071365475" lon="8.607913117287953"><ele>322.2</ele><time>2026-04-18T11:28:32Z</time></trkpt><trkpt lat="45.67491741148363" lon="8.608049826495957"><ele>321.8</ele><time>2026-04-18T11:28:33Z</time></trkpt><trkpt lat="45.67488518219922" lon="8.608147902711897"><ele>321.4</ele><time>2026-04-18T11:28:34Z</time></trkpt><trkpt lat="45.67480572264813" lon="8.60828816138766"><ele>321.0</ele><time>2026-04-18T11:28:36Z</time></trkpt><trkpt lat="45.6748094729522" lon="8.608429012480853"><ele>321.0</ele><time>2026-04-18T11:28:38Z</time></trkpt><trkpt lat="45.67490325555089" lon="8.608505430726535"><ele>321.0</ele><time>2026-04-18T11:28:40Z</time></trkpt><trkpt lat="45.67497217669826" lon="8.608525942844825"><ele>321.0</ele><time>2026-04-18T11:28:41Z</time></trkpt><trkpt lat="45.67506519739495" lon="8.60856565088728"><ele>321.0</ele><time>2026-04-18T11:28:42Z</time></trkpt><trkpt lat="45.675160444664996" lon="8.608628991162764"><ele>321.0</ele><time>2026-04-18T11:28:43Z</time></trkpt><trkpt lat="45.67526576554477" lon="8.608701057761621"><ele>317.75</ele><time>2026-04-18T11:28:44Z</time></trkpt><trkpt lat="45.67537055854392" lon="8.60880918416432"><ele>314.5</ele><time>2026-04-18T11:28:45Z</time></trkpt><trkpt lat="45.675466560251195" lon="8.608952289847274"><ele>311.25</ele><time>2026-04-18T11:28:46Z</time></trkpt><trkpt lat="45.675564590735725" lon="8.60911247016067"><ele>308.0</ele><time>2026-04-18T11:28:47Z</time></trkpt><trkpt lat="45.67566407138016" lon="8.609262681505038"><ele>308.0</ele><time>2026-04-18T11:28:48Z</time></trkpt><trkpt lat="45.675789170427436" lon="8.609376596975691"><ele>308.0</ele><time>2026-04-18T11:28:49Z</time></trkpt><trkpt lat="45.67593117230494" lon="8.609455978971743"><ele>308.0</ele><time>2026-04-18T11:28:50Z</time></trkpt><trkpt lat="45.67607067624417" lon="8.609531295652111"><ele>306.6</ele><time>2026-04-18T11:28:51Z</time></trkpt><trkpt lat="45.67619328015526" lon="8.60960163745581"><ele>305.20000000000005</ele><time>2026-04-18T11:28:52Z</time></trkpt><trkpt lat="45.67627879988364" lon="8.609664097482996"><ele>303.8</ele><time>2026-04-18T11:28:53Z</time></trkpt><trkpt lat="45.6763499145744" lon="8.609734373007447"><ele>302.40000000000003</ele><time>2026-04-18T11:28:54Z</time></trkpt><trkpt lat="45.67640777085766" lon="8.609830259206346"><ele>301.0</ele><time>2026-04-18T11:28:55Z</time></trkpt><trkpt lat="45.67643047444755" lon="8.609964623421158"><ele>301.0</ele><time>2026-04-18T11:28:56Z</time></trkpt><trkpt lat="45.676461616909634" lon="8.610083483487516"><ele>301.0</ele><time>2026-04-18T11:28:57Z</time></trkpt><trkpt lat="45.67652444137853" lon="8.610177789549358"><ele>301.0</ele><time>2026-04-18T11:28:58Z</time></trkpt><trkpt lat="45.67659662065173" lon="8.61021834759202"><ele>301.0</ele><time>2026-04-18T11:28:59Z</time></trkpt><trkpt lat="45.67667672665697" lon="8.610221816746522"><ele>301.0</ele><time>2026-04-18T11:29:00Z</time></trkpt><trkpt lat="45.67675483501775" lon="8.610184733323623"><ele>301.0</ele><time>2026-04-18T11:29:01Z</time></trkpt><trkpt lat="45.67681533848944" lon="8.610100634536547"><ele>301.0</ele><time>2026-04-18T11:29:02Z</time></trkpt><trkpt lat="45.67686279116222" lon="8.60997081337725"><ele>301.0</ele><time>2026-04-18T11:29:03Z</time></trkpt><trkpt lat="45.67691471334589" lon="8.60979859077149"><ele>301.0</ele><time>2026-04-18T11:29:04Z</time></trkpt><trkpt lat="45.67699739101997" lon="8.60967072770405"><ele>301.0</ele><time>2026-04-18T11:29:05Z</time></trkpt><trkpt lat="45.67710332962763" lon="8.609573719499284"><ele>299.5</ele><time>2026-04-18T11:29:06Z</time></trkpt><trkpt lat="45.67721891008144" lon="8.60947155564828"><ele>298.0</ele><time>2026-04-18T11:29:07Z</time></trkpt><trkpt lat="45.67733760497564" lon="8.60936771282332"><ele>296.5</ele><time>2026-04-18T11:29:08Z</time></trkpt><trkpt lat="45.67746783252182" lon="8.609259695810033"><ele>295.0</ele><time>2026-04-18T11:29:09Z</time></trkpt><trkpt lat="45.67759766774415" lon="8.609157457731326"><ele>295.0</ele><time>2026-04-18T11:29:10Z</time></trkpt><trkpt lat="45.677721880613376" lon="8.609087211459919"><ele>295.0</ele><time>2026-04-18T11:29:11Z</time></trkpt><trkpt lat="45.67785287435988" lon="8.609008572799151"><ele>295.0</ele><time>2026-04-18T11:29:12Z</time></trkpt><trkpt lat="45.67798703961301" lon="8.608934333006694"><ele>295.0</ele><time>2026-04-18T11:29:13Z</time></trkpt><trkpt lat="45.67811800663717" lon="8.608869228245178"><ele>293.5</ele><time>2026-04-18T11:29:14Z</time></trkpt><trkpt lat="45.67824945699071" lon="8.608810345875403"><ele>292.0</ele><time>2026-04-18T11:29:15Z</time></trkpt><trkpt lat="45.67838286204748" lon="8.608744462004724"><ele>290.5</ele><time>2026-04-18T11:29:16Z</time></trkpt><trkpt lat="45.67851757502506" lon="8.608678235000207"><ele>289.0</ele><time>2026-04-18T11:29:17Z</time></trkpt><trkpt lat="45.678648203264814" lon="8.608616533062287"><ele>289.0</ele><time>2026-04-18T11:29:18Z</time></trkpt><trkpt lat="45.678775443079424" lon="8.608556757130525"><ele>289.0</ele><time>2026-04-18T11:29:19Z</time></trkpt><trkpt lat="45.678899747339415" lon="8.60849539125767"><ele>289.0</ele><time>2026-04-18T11:29:20Z</time></trkpt><trkpt lat="45.67902765795369" lon="8.608432394169817"><ele>289.0</ele><time>2026-04-18T11:29:21Z</time></trkpt><trkpt lat="45.679165788818764" lon="8.608364154482262"><ele>289.0</ele><time>2026-04-18T11:29:22Z</time></trkpt><trkpt lat="45.679307072651376" lon="8.608288469060726"><ele>289.0</ele><time>2026-04-18T11:29:23Z</time></trkpt><trkpt lat="45.6794558723285" lon="8.608207508631493"><ele>289.0</ele><time>2026-04-18T11:29:24Z</time></trkpt><trkpt lat="45.679608703295486" lon="8.608129783705625"><ele>288.5</ele><time>2026-04-18T11:29:25Z</time></trkpt><trkpt lat="45.679758771506506" lon="8.608059876251133"><ele>288.0</ele><time>2026-04-18T11:29:26Z</time></trkpt><trkpt lat="45.679896559849475" lon="8.60798746578262"><ele>287.5</ele><time>2026-04-18T11:29:27Z</time></trkpt><trkpt lat="45.68001117412281" lon="8.607926971618085"><ele>287.0</ele><time>2026-04-18T11:29:28Z</time></trkpt><trkpt lat="45.680113414700116" lon="8.607887349829333"><ele>287.0</ele><time>2026-04-18T11:29:29Z</time></trkpt><trkpt lat="45.68020660122946" lon="8.607849710515776"><ele>287.0</ele><time>2026-04-18T11:29:30Z</time></trkpt><trkpt lat="45.68028758177236" lon="8.607810489342093"><ele>287.0</ele><time>2026-04-18T11:29:31Z</time></trkpt><trkpt lat="45.68036473366685" lon="8.607776157150624"><ele>287.0</ele><time>2026-04-18T11:29:32Z</time></trkpt><trkpt lat="45.68044222826984" lon="8.607732735856436"><ele>287.0</ele><time>2026-04-18T11:29:33Z</time></trkpt><trkpt lat="45.680502008853864" lon="8.607701103660503"><ele>287.0</ele><time>2026-04-18T11:29:34Z</time></trkpt><trkpt lat="45.680567416036716" lon="8.607665794944143"><ele>287.5</ele><time>2026-04-18T11:29:35Z</time></trkpt><trkpt lat="45.68063433773436" lon="8.607632185512353"><ele>288.0</ele><time>2026-04-18T11:29:36Z</time></trkpt><trkpt lat="45.680704629003465" lon="8.607594978000838"><ele>288.5</ele><time>2026-04-18T11:29:37Z</time></trkpt><trkpt lat="45.680782054765466" lon="8.607550095291002"><ele>289.0</ele><time>2026-04-18T11:29:38Z</time></trkpt><trkpt lat="45.680873452045745" lon="8.607499015790804"><ele>289.5</ele><time>2026-04-18T11:29:39Z</time></trkpt><trkpt lat="45.68097186969858" lon="8.607455170546364"><ele>290.0</ele><time>2026-04-18T11:29:40Z</time></trkpt><trkpt lat="45.681068842427564" lon="8.607408559766764"><ele>289.75</ele><time>2026-04-18T11:29:41Z</time></trkpt><trkpt lat="45.68116489594546" lon="8.607361440132623"><ele>289.5</ele><time>2026-04-18T11:29:42Z</time></trkpt><trkpt lat="45.68127400571967" lon="8.607315805175022"><ele>289.25</ele><time>2026-04-18T11:29:43Z</time></trkpt><trkpt lat="45.68139092620798" lon="8.60727332606831"><ele>289.0</ele><time>2026-04-18T11:29:44Z</time></trkpt><trkpt lat="45.68150340574866" lon="8.60722474609502"><ele>289.0</ele><time>2026-04-18T11:29:45Z</time></trkpt><trkpt lat="45.68160972285545" lon="8.607181917030513"><ele>289.0</ele><time>2026-04-18T11:29:46Z</time></trkpt><trkpt lat="45.68171444541153" lon="8.607128859451365"><ele>289.0</ele><time>2026-04-18T11:29:47Z</time></trkpt><trkpt lat="45.68182237554378" lon="8.607081521583984"><ele>289.0</ele><time>2026-04-18T11:29:48Z</time></trkpt><trkpt lat="45.681910008592766" lon="8.60705177576762"><ele>289.0</ele><time>2026-04-18T11:29:49Z</time></trkpt><trkpt lat="45.681983024232395" lon="8.607041537321528"><ele>289.0</ele><time>2026-04-18T11:29:50Z</time></trkpt><trkpt lat="45.68200502001294" lon="8.60694886458712"><ele>289.0</ele><time>2026-04-18T11:29:52Z</time></trkpt><trkpt lat="45.68192856495054" lon="8.606917225153786"><ele>289.0</ele><time>2026-04-18T11:29:54Z</time></trkpt><trkpt lat="45.68182263167844" lon="8.606979872939114"><ele>289.0</ele><time>2026-04-18T11:29:56Z</time></trkpt><trkpt lat="45.681739958041305" lon="8.607045206765395"><ele>289.0</ele><time>2026-04-18T11:29:58Z</time></trkpt><trkpt lat="45.68164678819448" lon="8.60708496374322"><ele>289.0</ele><time>2026-04-18T11:30:00Z</time></trkpt><trkpt lat="45.681563187379595" lon="8.607117235118837"><ele>289.0</ele><time>2026-04-18T11:30:02Z</time></trkpt><trkpt lat="45.68148529575951" lon="8.607149674145697"><ele>289.0</ele><time>2026-04-18T11:30:04Z</time></trkpt><trkpt lat="45.68145812745604" lon="8.607036335764347"><ele>289.0</ele><time>2026-04-18T11:30:07Z</time></trkpt><trkpt lat="45.68153119337709" lon="8.607028221808653"><ele>289.0</ele><time>2026-04-18T11:30:22Z</time></trkpt></trkseg><trkseg><trkpt lat="45.68159289943331" lon="8.606946930573729"><ele>288.1666666666667</ele><time>2026-04-18T12:45:16.034Z</time></trkpt><trkpt lat="45.68156101255921" lon="8.607033926758884"><ele>288.3333333333333</ele><time>2026-04-18T12:47:29.999Z</time></trkpt><trkpt lat="45.68149874234972" lon="8.607006968592817"><ele>288.5</ele><time>2026-04-18T12:47:30.999Z</time></trkpt><trkpt lat="45.68144084304202" lon="8.607076566807333"><ele>288.66666666666663</ele><time>2026-04-18T12:47:33.999Z</time></trkpt><trkpt lat="45.681370358664786" lon="8.60720962596696"><ele>288.8333333333333</ele><time>2026-04-18T12:48:09.999Z</time></trkpt><trkpt lat="45.68129021534344" lon="8.607230772197722"><ele>289.0</ele><time>2026-04-18T12:48:10.999Z</time></trkpt><trkpt lat="45.681188175385316" lon="8.607255667710511"><ele>289.0</ele><time>2026-04-18T12:48:11.999Z</time></trkpt><trkpt lat="45.68112795656213" lon="8.607300833721586"><ele>289.0</ele><time>2026-04-18T12:48:12.999Z</time></trkpt><trkpt lat="45.681037815675666" lon="8.607345414687462"><ele>289.0</ele><time>2026-04-18T12:48:13.999Z</time></trkpt><trkpt lat="45.6809400117981" lon="8.60740174941091"><ele>289.0</ele><time>2026-04-18T12:48:14.999Z</time></trkpt><trkpt lat="45.68083278952524" lon="8.607460683963032"><ele>289.0</ele><time>2026-04-18T12:48:16Z</time></trkpt><trkpt lat="45.680732472409815" lon="8.607506036456993"><ele>289.2</ele><time>2026-04-18T12:48:17Z</time></trkpt><trkpt lat="45.68062646831582" lon="8.60755500652779"><ele>289.4</ele><time>2026-04-18T12:48:18Z</time></trkpt><trkpt lat="45.68052589260629" lon="8.607612332638556"><ele>289.6</ele><time>2026-04-18T12:48:19Z</time></trkpt><trkpt lat="45.68044467736361" lon="8.607651933565728"><ele>289.8</ele><time>2026-04-18T12:48:20Z</time></trkpt><trkpt lat="45.68036936608695" lon="8.60769144664422"><ele>290.0</ele><time>2026-04-18T12:48:21Z</time></trkpt><trkpt lat="45.68028819637267" lon="8.607736424924068"><ele>290.0</ele><time>2026-04-18T12:48:22Z</time></trkpt><trkpt lat="45.680193282836136" lon="8.607781614102299"><ele>290.0</ele><time>2026-04-18T12:48:23Z</time></trkpt><trkpt lat="45.680120775260626" lon="8.607816225114357"><ele>290.0</ele><time>2026-04-18T12:48:24Z</time></trkpt><trkpt lat="45.680059103143826" lon="8.607867626761019"><ele>290.0</ele><time>2026-04-18T12:48:26Z</time></trkpt><trkpt lat="45.68012698485698" lon="8.607940812076892"><ele>290.0</ele><time>2026-04-18T12:48:29Z</time></trkpt><trkpt lat="45.68021104896434" lon="8.607977725265961"><ele>290.0</ele><time>2026-04-18T12:48:30Z</time></trkpt><trkpt lat="45.68025307558172" lon="8.60804969607991"><ele>289.25</ele><time>2026-04-18T12:48:31Z</time></trkpt><trkpt lat="45.68019176964182" lon="8.608101999591586"><ele>288.5</ele><time>2026-04-18T12:48:32Z</time></trkpt><trkpt lat="45.68013080348567" lon="8.608196705120845"><ele>287.75</ele><time>2026-04-18T12:48:34Z</time></trkpt><trkpt lat="45.68025169325812" lon="8.60852919945418"><ele>287.0</ele><time>2026-04-18T12:48:36Z</time></trkpt><trkpt lat="45.68026456729829" lon="8.60864370629875"><ele>287.0</ele><time>2026-04-18T12:48:37Z</time></trkpt><trkpt lat="45.68027528748264" lon="8.60873473266194"><ele>287.0</ele><time>2026-04-18T12:48:37.999Z</time></trkpt><trkpt lat="45.680270125920146" lon="8.60890872987232"><ele>287.0</ele><time>2026-04-18T12:48:39.999Z</time></trkpt><trkpt lat="45.68020164660613" lon="8.609054287962806"><ele>287.0</ele><time>2026-04-18T12:48:41.999Z</time></trkpt><trkpt lat="45.68014089106946" lon="8.60912405718001"><ele>287.0</ele><time>2026-04-18T12:48:42.999Z</time></trkpt><trkpt lat="45.6800695400592" lon="8.609186216279394"><ele>287.0</ele><time>2026-04-18T12:48:43.999Z</time></trkpt><trkpt lat="45.68000544795308" lon="8.609247628219192"><ele>287.0</ele><time>2026-04-18T12:48:44.999Z</time></trkpt><trkpt lat="45.67993856164905" lon="8.609316014008566"><ele>287.0</ele><time>2026-04-18T12:48:45.999Z</time></trkpt><trkpt lat="45.679874874169336" lon="8.609387718721"><ele>287.0</ele><time>2026-04-18T12:48:46.999Z</time></trkpt><trkpt lat="45.6798198406438" lon="8.609454098785049"><ele>287.0</ele><time>2026-04-18T12:48:47.999Z</time></trkpt><trkpt lat="45.67976449106319" lon="8.6095142627527"><ele>287.0</ele><time>2026-04-18T12:48:48.999Z</time></trkpt><trkpt lat="45.679713882907805" lon="8.60957315412207"><ele>287.0</ele><time>2026-04-18T12:48:49.999Z</time></trkpt><trkpt lat="45.67966574005093" lon="8.609636110316359"><ele>286.83333333333337</ele><time>2026-04-18T12:48:50.999Z</time></trkpt><trkpt lat="45.67961768665853" lon="8.60971657714211"><ele>286.6666666666667</ele><time>2026-04-18T12:48:51.999Z</time></trkpt><trkpt lat="45.67958115630623" lon="8.60982315046587"><ele>286.5</ele><time>2026-04-18T12:48:52.999Z</time></trkpt><trkpt lat="45.6795479409024" lon="8.60994204601462"><ele>286.3333333333333</ele><time>2026-04-18T12:48:53.999Z</time></trkpt><trkpt lat="45.679515174663464" lon="8.610082280024699"><ele>286.16666666666663</ele><time>2026-04-18T12:48:54.999Z</time></trkpt><trkpt lat="45.679467539620774" lon="8.610206371907987"><ele>286.0</ele><time>2026-04-18T12:48:55.999Z</time></trkpt><trkpt lat="45.67942119244213" lon="8.610332214205803"><ele>286.66666666666663</ele><time>2026-04-18T12:48:56.999Z</time></trkpt><trkpt lat="45.67936967970265" lon="8.61044493583089"><ele>287.3333333333333</ele><time>2026-04-18T12:48:57.999Z</time></trkpt><trkpt lat="45.679335169353166" lon="8.610554312002318"><ele>288.0</ele><time>2026-04-18T12:48:58.999Z</time></trkpt><trkpt lat="45.6793028910688" lon="8.610643854728178"><ele>288.6666666666667</ele><time>2026-04-18T12:48:59.999Z</time></trkpt><trkpt lat="45.67927074055825" lon="8.610726913521853"><ele>289.33333333333337</ele><time>2026-04-18T12:49:00.999Z</time></trkpt><trkpt lat="45.67916271143294" lon="8.610824606315003"><ele>290.0</ele><time>2026-04-18T12:49:02.999Z</time></trkpt><trkpt lat="45.6790815003616" lon="8.61086462583728"><ele>290.0</ele><time>2026-04-18T12:49:03.999Z</time></trkpt><trkpt lat="45.679011541677994" lon="8.610945894392083"><ele>290.0</ele><time>2026-04-18T12:49:04.999Z</time></trkpt><trkpt lat="45.67896168934127" lon="8.611027245434432"><ele>290.0</ele><time>2026-04-18T12:49:05.999Z</time></trkpt><trkpt lat="45.67890837885218" lon="8.611122508401362"><ele>290.0</ele><time>2026-04-18T12:49:06.999Z</time></trkpt><trkpt lat="45.6788605937735" lon="8.61120314371298"><ele>290.0</ele><time>2026-04-18T12:49:07.999Z</time></trkpt><trkpt lat="45.6787797428688" lon="8.611325105771604"><ele>290.0</ele><time>2026-04-18T12:49:09.999Z</time></trkpt><trkpt lat="45.67873016184955" lon="8.611408140872106"><ele>290.0</ele><time>2026-04-18T12:49:11.999Z</time></trkpt><trkpt lat="45.67867036631881" lon="8.611447931398658"><ele>290.0</ele><time>2026-04-18T12:49:13.999Z</time></trkpt><trkpt lat="45.6786052948275" lon="8.611500816062328"><ele>290.0</ele><time>2026-04-18T12:49:15.999Z</time></trkpt><trkpt lat="45.678486733585416" lon="8.611542778465147"><ele>290.0</ele><time>2026-04-18T12:49:17.999Z</time></trkpt><trkpt lat="45.67842383484795" lon="8.611551170372808"><ele>290.0</ele><time>2026-04-18T12:49:18.999Z</time></trkpt><trkpt lat="45.678291999761136" lon="8.611534175984154"><ele>290.2</ele><time>2026-04-18T12:49:20.999Z</time></trkpt><trkpt lat="45.67817301019528" lon="8.61151339173412"><ele>290.4</ele><time>2026-04-18T12:49:22.999Z</time></trkpt><trkpt lat="45.67810905628943" lon="8.611507302410608"><ele>290.6</ele><time>2026-04-18T12:49:23.999Z</time></trkpt><trkpt lat="45.677999210402" lon="8.611515876525436"><ele>290.8</ele><time>2026-04-18T12:49:25.999Z</time></trkpt><trkpt lat="45.67793228600248" lon="8.611650937454236"><ele>291.0</ele><time>2026-04-18T12:49:28.999Z</time></trkpt><trkpt lat="45.67788812467948" lon="8.611731058883494"><ele>291.0</ele><time>2026-04-18T12:49:29.999Z</time></trkpt><trkpt lat="45.67779201389707" lon="8.61184922890131"><ele>291.0</ele><time>2026-04-18T12:49:30.999Z</time></trkpt><trkpt lat="45.67774631015092" lon="8.611971049211297"><ele>291.0</ele><time>2026-04-18T12:49:31.999Z</time></trkpt><trkpt lat="45.67771435119305" lon="8.612096907696047"><ele>291.0</ele><time>2026-04-18T12:49:32.998Z</time></trkpt><trkpt lat="45.67763220943533" lon="8.612154505805105"><ele>291.0</ele><time>2026-04-18T12:49:33.998Z</time></trkpt><trkpt lat="45.6775936323149" lon="8.612237160373693"><ele>290.6</ele><time>2026-04-18T12:49:34.998Z</time></trkpt><trkpt lat="45.677536571019985" lon="8.612375879603436"><ele>290.20000000000005</ele><time>2026-04-18T12:49:36.998Z</time></trkpt><trkpt lat="45.677481304717325" lon="8.612449111666603"><ele>289.79999999999995</ele><time>2026-04-18T12:49:37.998Z</time></trkpt><trkpt lat="45.6774475387686" lon="8.612595358366205"><ele>289.4</ele><time>2026-04-18T12:49:39.998Z</time></trkpt><trkpt lat="45.67741350362998" lon="8.612726747791397"><ele>289.0</ele><time>2026-04-18T12:49:41.998Z</time></trkpt><trkpt lat="45.67736581371452" lon="8.612843571275272"><ele>289.0</ele><time>2026-04-18T12:49:43.998Z</time></trkpt><trkpt lat="45.67732611459171" lon="8.613008537269284"><ele>289.0</ele><time>2026-04-18T12:49:45.998Z</time></trkpt><trkpt lat="45.67728543356026" lon="8.613137369222121"><ele>289.0</ele><time>2026-04-18T12:49:47.999Z</time></trkpt><trkpt lat="45.677265817141446" lon="8.613230230493876"><ele>289.0</ele><time>2026-04-18T12:49:48.999Z</time></trkpt><trkpt lat="45.67720819945881" lon="8.61333581572413"><ele>289.0</ele><time>2026-04-18T12:49:49.999Z</time></trkpt><trkpt lat="45.67716762163927" lon="8.613463194612734"><ele>289.0</ele><time>2026-04-18T12:49:51.999Z</time></trkpt><trkpt lat="45.67707651565547" lon="8.613551608921332"><ele>289.0</ele><time>2026-04-18T12:49:53.999Z</time></trkpt><trkpt lat="45.677019215340664" lon="8.613604698686082"><ele>289.0</ele><time>2026-04-18T12:49:54.999Z</time></trkpt><trkpt lat="45.676971647998464" lon="8.6136708483534"><ele>289.0</ele><time>2026-04-18T12:49:55.999Z</time></trkpt><trkpt lat="45.67691433254833" lon="8.613777012466576"><ele>289.0</ele><time>2026-04-18T12:49:56.999Z</time></trkpt><trkpt lat="45.67688092056196" lon="8.61388300494297"><ele>289.0</ele><time>2026-04-18T12:49:57.999Z</time></trkpt><trkpt lat="45.67687054739746" lon="8.613971889681922"><ele>289.66666666666663</ele><time>2026-04-18T12:49:58.999Z</time></trkpt><trkpt lat="45.67688996293164" lon="8.614127121428293"><ele>290.3333333333333</ele><time>2026-04-18T12:50:00.999Z</time></trkpt><trkpt lat="45.676910387672564" lon="8.614231931092714"><ele>291.0</ele><time>2026-04-18T12:50:01.999Z</time></trkpt><trkpt lat="45.676930152995205" lon="8.614321725918874"><ele>291.6666666666667</ele><time>2026-04-18T12:50:02.999Z</time></trkpt><trkpt lat="45.67692614028477" lon="8.614430004658546"><ele>292.33333333333337</ele><time>2026-04-18T12:50:03.999Z</time></trkpt><trkpt lat="45.67691346379147" lon="8.614523229161005"><ele>293.0</ele><time>2026-04-18T12:50:04.999Z</time></trkpt><trkpt lat="45.6768660317883" lon="8.61470398988789"><ele>293.0</ele><time>2026-04-18T12:50:06.999Z</time></trkpt><trkpt lat="45.67685125583422" lon="8.61487397612022"><ele>293.0</ele><time>2026-04-18T12:50:08.999Z</time></trkpt><trkpt lat="45.67683365658559" lon="8.614968951466718"><ele>293.0</ele><time>2026-04-18T12:50:09.999Z</time></trkpt><trkpt lat="45.676810721290366" lon="8.615062298057445"><ele>293.0</ele><time>2026-04-18T12:50:10.999Z</time></trkpt><trkpt lat="45.676769189536756" lon="8.61513697066665"><ele>293.0</ele><time>2026-04-18T12:50:11.999Z</time></trkpt><trkpt lat="45.67674542102732" lon="8.615235072654146"><ele>293.0</ele><time>2026-04-18T12:50:12.999Z</time></trkpt><trkpt lat="45.67674419468648" lon="8.615356558917354"><ele>293.0</ele><time>2026-04-18T12:50:14.999Z</time></trkpt><trkpt lat="45.67675829585183" lon="8.615461137489564"><ele>293.0</ele><time>2026-04-18T12:50:16.999Z</time></trkpt><trkpt lat="45.67677657072672" lon="8.615557134768013"><ele>293.0</ele><time>2026-04-18T12:50:18Z</time></trkpt><trkpt lat="45.676780943767234" lon="8.61565522197098"><ele>293.0</ele><time>2026-04-18T12:50:20Z</time></trkpt><trkpt lat="45.67677955709676" lon="8.61579777913391"><ele>293.0</ele><time>2026-04-18T12:50:22Z</time></trkpt><trkpt lat="45.67673970907319" lon="8.615967315745616"><ele>293.0</ele><time>2026-04-18T12:50:24Z</time></trkpt><trkpt lat="45.676702198730126" lon="8.616040455650673"><ele>293.0</ele><time>2026-04-18T12:50:25Z</time></trkpt><trkpt lat="45.67665155479586" lon="8.616135551520724"><ele>293.0</ele><time>2026-04-18T12:50:26Z</time></trkpt><trkpt lat="45.6766024903801" lon="8.616272251175754"><ele>293.0</ele><time>2026-04-18T12:50:28Z</time></trkpt><trkpt lat="45.676516983602475" lon="8.616355816491398"><ele>293.0</ele><time>2026-04-18T12:50:30Z</time></trkpt><trkpt lat="45.676475805249744" lon="8.61642682193599"><ele>293.0</ele><time>2026-04-18T12:50:31Z</time></trkpt><trkpt lat="45.67640487532588" lon="8.616548412871097"><ele>292.6666666666667</ele><time>2026-04-18T12:50:33Z</time></trkpt><trkpt lat="45.6763336732796" lon="8.616633434977702"><ele>292.33333333333337</ele><time>2026-04-18T12:50:34Z</time></trkpt><trkpt lat="45.67631830401944" lon="8.616744793406673"><ele>292.0</ele><time>2026-04-18T12:50:35Z</time></trkpt><trkpt lat="45.676295828163894" lon="8.61684440530049"><ele>291.6666666666667</ele><time>2026-04-18T12:50:36Z</time></trkpt><trkpt lat="45.67627372468376" lon="8.616963288614826"><ele>291.3333333333333</ele><time>2026-04-18T12:50:38Z</time></trkpt><trkpt lat="45.67627358762867" lon="8.617066236576198"><ele>291.0</ele><time>2026-04-18T12:50:44Z</time></trkpt><trkpt lat="45.67628772546038" lon="8.617168370738607"><ele>291.0</ele><time>2026-04-18T12:50:46Z</time></trkpt><trkpt lat="45.67623055879781" lon="8.617242366050032"><ele>291.0</ele><time>2026-04-18T12:50:57Z</time></trkpt><trkpt lat="45.67616779479763" lon="8.617272326812888"><ele>291.0</ele><time>2026-04-18T12:50:59Z</time></trkpt><trkpt lat="45.67606339633504" lon="8.61732176798613"><ele>291.0</ele><time>2026-04-18T12:51:01Z</time></trkpt><trkpt lat="45.675967882110015" lon="8.617311390024703"><ele>291.0</ele><time>2026-04-18T12:51:04Z</time></trkpt><trkpt lat="45.67586790555442" lon="8.617431337478944"><ele>291.0</ele><time>2026-04-18T12:51:06Z</time></trkpt><trkpt lat="45.67583749520325" lon="8.617541566971651"><ele>291.0</ele><time>2026-04-18T12:51:07Z</time></trkpt><trkpt lat="45.675774630297276" lon="8.617644715850716"><ele>291.0</ele><time>2026-04-18T12:51:09Z</time></trkpt><trkpt lat="45.675744176989646" lon="8.617753103893516"><ele>291.0</ele><time>2026-04-18T12:51:10Z</time></trkpt><trkpt lat="45.67572812370804" lon="8.617848847020184"><ele>291.0</ele><time>2026-04-18T12:51:11Z</time></trkpt><trkpt lat="45.67572556724536" lon="8.61795140314037"><ele>291.0</ele><time>2026-04-18T12:51:12Z</time></trkpt><trkpt lat="45.6756743165661" lon="8.618107630480369"><ele>291.40000000000003</ele><time>2026-04-18T12:51:14Z</time></trkpt><trkpt lat="45.6756369458262" lon="8.61822332247028"><ele>291.8</ele><time>2026-04-18T12:51:15Z</time></trkpt><trkpt lat="45.67557170143542" lon="8.618368404266395"><ele>292.20000000000005</ele><time>2026-04-18T12:51:16Z</time></trkpt><trkpt lat="45.675506950879885" lon="8.618516856014114"><ele>292.6</ele><time>2026-04-18T12:51:17Z</time></trkpt><trkpt lat="45.675481620214036" lon="8.618610886367776"><ele>293.0</ele><time>2026-04-18T12:51:18Z</time></trkpt><trkpt lat="45.67544944869918" lon="8.618739740450648"><ele>293.0</ele><time>2026-04-18T12:51:20Z</time></trkpt><trkpt lat="45.67535153844129" lon="8.61880150215585"><ele>293.0</ele><time>2026-04-18T12:51:22Z</time></trkpt><trkpt lat="45.6752886153856" lon="8.618912189583346"><ele>293.0</ele><time>2026-04-18T12:51:23Z</time></trkpt><trkpt lat="45.67526473498306" lon="8.619025632951534"><ele>293.0</ele><time>2026-04-18T12:51:24Z</time></trkpt><trkpt lat="45.67520382659078" lon="8.619093907119888"><ele>293.0</ele><time>2026-04-18T12:51:25Z</time></trkpt><trkpt lat="45.67515934898694" lon="8.619158345461374"><ele>293.0</ele><time>2026-04-18T12:51:26Z</time></trkpt><trkpt lat="45.67507391718215" lon="8.619188290402302"><ele>293.0</ele><time>2026-04-18T12:51:28Z</time></trkpt><trkpt lat="45.67496611829685" lon="8.619198730700079"><ele>293.0</ele><time>2026-04-18T12:51:30Z</time></trkpt><trkpt lat="45.67490640870534" lon="8.61922969165661"><ele>293.0</ele><time>2026-04-18T12:51:31Z</time></trkpt><trkpt lat="45.675002820033235" lon="8.619498821840265"><ele>293.0</ele><time>2026-04-18T12:51:33Z</time></trkpt><trkpt lat="45.67505023023268" lon="8.619631856992484"><ele>292.8</ele><time>2026-04-18T12:51:34Z</time></trkpt><trkpt lat="45.67505548158718" lon="8.619764052092695"><ele>292.6</ele><time>2026-04-18T12:51:35Z</time></trkpt><trkpt lat="45.675085547356" lon="8.619848938014947"><ele>292.4</ele><time>2026-04-18T12:51:36Z</time></trkpt><trkpt lat="45.6750799908787" lon="8.619952722239649"><ele>292.2</ele><time>2026-04-18T12:51:37Z</time></trkpt><trkpt lat="45.67506204335168" lon="8.620096202656923"><ele>292.0</ele><time>2026-04-18T12:51:38Z</time></trkpt><trkpt lat="45.675014235827135" lon="8.620248308707476"><ele>291.6</ele><time>2026-04-18T12:51:38.999Z</time></trkpt><trkpt lat="45.674996834294916" lon="8.62039076081791"><ele>291.2</ele><time>2026-04-18T12:51:39.999Z</time></trkpt><trkpt lat="45.67495672170788" lon="8.620520410574457"><ele>290.8</ele><time>2026-04-18T12:51:40.999Z</time></trkpt><trkpt lat="45.67493826510951" lon="8.620650874795944"><ele>290.4</ele><time>2026-04-18T12:51:41.999Z</time></trkpt><trkpt lat="45.674933431723154" lon="8.620766929220617"><ele>290.0</ele><time>2026-04-18T12:51:42.999Z</time></trkpt><trkpt lat="45.67490583878998" lon="8.620871779535868"><ele>290.0</ele><time>2026-04-18T12:51:43.999Z</time></trkpt><trkpt lat="45.67488617774349" lon="8.621039200802525"><ele>290.0</ele><time>2026-04-18T12:51:44.999Z</time></trkpt><trkpt lat="45.67485652271039" lon="8.621141623987288"><ele>290.0</ele><time>2026-04-18T12:51:45.999Z</time></trkpt><trkpt lat="45.67482098441783" lon="8.621237591486281"><ele>290.0</ele><time>2026-04-18T12:51:46.999Z</time></trkpt><trkpt lat="45.67476427391342" lon="8.621319202295151"><ele>290.0</ele><time>2026-04-18T12:51:47.999Z</time></trkpt><trkpt lat="45.674711631849426" lon="8.621374496541174"><ele>290.0</ele><time>2026-04-18T12:51:48.999Z</time></trkpt><trkpt lat="45.67467084358458" lon="8.6215053271656"><ele>289.4</ele><time>2026-04-18T12:51:49.999Z</time></trkpt><trkpt lat="45.67459687790321" lon="8.621571668346943"><ele>288.8</ele><time>2026-04-18T12:51:50.999Z</time></trkpt><trkpt lat="45.67453564082672" lon="8.621640011278298"><ele>288.2</ele><time>2026-04-18T12:51:51.999Z</time></trkpt><trkpt lat="45.674469558281466" lon="8.62167536880689"><ele>287.6</ele><time>2026-04-18T12:51:52.999Z</time></trkpt><trkpt lat="45.67438444023164" lon="8.621798288108662"><ele>287.0</ele><time>2026-04-18T12:51:54.999Z</time></trkpt><trkpt lat="45.67437668304878" lon="8.621937851599728"><ele>287.5</ele><time>2026-04-18T12:51:55.999Z</time></trkpt><trkpt lat="45.67434053120904" lon="8.62207688675911"><ele>288.0</ele><time>2026-04-18T12:51:56.999Z</time></trkpt><trkpt lat="45.6742809081177" lon="8.622133434590653"><ele>288.5</ele><time>2026-04-18T12:51:57.999Z</time></trkpt><trkpt lat="45.67423479122874" lon="8.622195927460139"><ele>289.0</ele><time>2026-04-18T12:51:58.999Z</time></trkpt><trkpt lat="45.674139708964766" lon="8.622261595550222"><ele>289.5</ele><time>2026-04-18T12:52:00.999Z</time></trkpt><trkpt lat="45.67408190362122" lon="8.622376393385077"><ele>290.0</ele><time>2026-04-18T12:52:01.999Z</time></trkpt><trkpt lat="45.674040510470235" lon="8.622492999634114"><ele>290.0</ele><time>2026-04-18T12:52:03Z</time></trkpt><trkpt lat="45.674026494325254" lon="8.622585763342725"><ele>290.0</ele><time>2026-04-18T12:52:04Z</time></trkpt><trkpt lat="45.67399992345186" lon="8.62272217962905"><ele>290.0</ele><time>2026-04-18T12:52:06Z</time></trkpt><trkpt lat="45.67405506631031" lon="8.62294974964862"><ele>290.0</ele><time>2026-04-18T12:52:08Z</time></trkpt><trkpt lat="45.67400775873128" lon="8.623047459040812"><ele>290.0</ele><time>2026-04-18T12:52:09Z</time></trkpt><trkpt lat="45.67397402485697" lon="8.623152969311398"><ele>288.8</ele><time>2026-04-18T12:52:10Z</time></trkpt><trkpt lat="45.673948083470925" lon="8.62328035999748"><ele>287.6</ele><time>2026-04-18T12:52:11Z</time></trkpt><trkpt lat="45.67392835717612" lon="8.623425405484864"><ele>286.4</ele><time>2026-04-18T12:52:12Z</time></trkpt><trkpt lat="45.673908061094494" lon="8.623523442890226"><ele>285.2</ele><time>2026-04-18T12:52:13Z</time></trkpt><trkpt lat="45.67387444812868" lon="8.623615055955197"><ele>284.0</ele><time>2026-04-18T12:52:14Z</time></trkpt><trkpt lat="45.673864566234066" lon="8.623781419606539"><ele>283.1666666666667</ele><time>2026-04-18T12:52:15Z</time></trkpt><trkpt lat="45.67384174928291" lon="8.623881932402815"><ele>282.33333333333337</ele><time>2026-04-18T12:52:16Z</time></trkpt><trkpt lat="45.67381225330999" lon="8.624056651307646"><ele>281.5</ele><time>2026-04-18T12:52:18Z</time></trkpt><trkpt lat="45.67379700991704" lon="8.62415380015973"><ele>280.6666666666667</ele><time>2026-04-18T12:52:19Z</time></trkpt><trkpt lat="45.673782537596665" lon="8.624250620431773"><ele>279.8333333333333</ele><time>2026-04-18T12:52:20Z</time></trkpt><trkpt lat="45.67376315134308" lon="8.62434056674192"><ele>279.0</ele><time>2026-04-18T12:52:21Z</time></trkpt><trkpt lat="45.673740652992485" lon="8.624431084948423"><ele>279.3333333333333</ele><time>2026-04-18T12:52:22Z</time></trkpt><trkpt lat="45.67372139021754" lon="8.624517899337086"><ele>279.6666666666667</ele><time>2026-04-18T12:52:23Z</time></trkpt><trkpt lat="45.673712908914645" lon="8.624609281525505"><ele>280.0</ele><time>2026-04-18T12:52:24Z</time></trkpt><trkpt lat="45.67370017080159" lon="8.62470092212381"><ele>280.33333333333337</ele><time>2026-04-18T12:52:25Z</time></trkpt><trkpt lat="45.673651589739315" lon="8.624878532936611"><ele>280.6666666666667</ele><time>2026-04-18T12:52:27Z</time></trkpt><trkpt lat="45.67361975977645" lon="8.624971950278137"><ele>281.0</ele><time>2026-04-18T12:52:28Z</time></trkpt><trkpt lat="45.67358780901973" lon="8.625055882357008"><ele>282.40000000000003</ele><time>2026-04-18T12:52:29Z</time></trkpt><trkpt lat="45.67353371517787" lon="8.625203057398041"><ele>283.8</ele><time>2026-04-18T12:52:31Z</time></trkpt><trkpt lat="45.67349015907839" lon="8.625299771174749"><ele>285.20000000000005</ele><time>2026-04-18T12:52:32Z</time></trkpt><trkpt lat="45.67343105024529" lon="8.62540994033159"><ele>286.6</ele><time>2026-04-18T12:52:33Z</time></trkpt><trkpt lat="45.67333310010509" lon="8.6255708446749"><ele>288.0</ele><time>2026-04-18T12:52:34Z</time></trkpt><trkpt lat="45.6732682519747" lon="8.625775359724615"><ele>288.0</ele><time>2026-04-18T12:52:35Z</time></trkpt><trkpt lat="45.673204848342635" lon="8.625936440857533"><ele>288.0</ele><time>2026-04-18T12:52:36Z</time></trkpt><trkpt lat="45.673135010439445" lon="8.626078026737863"><ele>288.0</ele><time>2026-04-18T12:52:37Z</time></trkpt><trkpt lat="45.67307666929598" lon="8.626217758907261"><ele>288.0</ele><time>2026-04-18T12:52:38Z</time></trkpt><trkpt lat="45.67305031754459" lon="8.626319666936592"><ele>288.0</ele><time>2026-04-18T12:52:39Z</time></trkpt><trkpt lat="45.67298438531165" lon="8.62641077847907"><ele>286.6</ele><time>2026-04-18T12:52:40Z</time></trkpt><trkpt lat="45.6729242819899" lon="8.626506482930996"><ele>285.20000000000005</ele><time>2026-04-18T12:52:41Z</time></trkpt><trkpt lat="45.67284024848139" lon="8.626627957571303"><ele>283.8</ele><time>2026-04-18T12:52:42Z</time></trkpt><trkpt lat="45.67273823629655" lon="8.626712310548285"><ele>282.40000000000003</ele><time>2026-04-18T12:52:43Z</time></trkpt><trkpt lat="45.672642095996544" lon="8.626785054371599"><ele>281.0</ele><time>2026-04-18T12:52:44Z</time></trkpt><trkpt lat="45.67252956219348" lon="8.626864638268607"><ele>281.6</ele><time>2026-04-18T12:52:45Z</time></trkpt><trkpt lat="45.67243244224128" lon="8.626927114401834"><ele>282.20000000000005</ele><time>2026-04-18T12:52:46Z</time></trkpt><trkpt lat="45.67235386254538" lon="8.627018351365875"><ele>282.79999999999995</ele><time>2026-04-18T12:52:47Z</time></trkpt><trkpt lat="45.67227025369565" lon="8.627111939201248"><ele>283.4</ele><time>2026-04-18T12:52:48Z</time></trkpt><trkpt lat="45.672183433891824" lon="8.627184150445306"><ele>284.0</ele><time>2026-04-18T12:52:49Z</time></trkpt><trkpt lat="45.67210366918275" lon="8.62725128336599"><ele>284.0</ele><time>2026-04-18T12:52:50Z</time></trkpt><trkpt lat="45.672006667072644" lon="8.627317530066712"><ele>284.0</ele><time>2026-04-18T12:52:51Z</time></trkpt><trkpt lat="45.67186225908011" lon="8.627399140579007"><ele>284.0</ele><time>2026-04-18T12:52:52Z</time></trkpt><trkpt lat="45.671736692156585" lon="8.62748085166222"><ele>284.0</ele><time>2026-04-18T12:52:53Z</time></trkpt><trkpt lat="45.671625036586676" lon="8.62757143335073"><ele>284.75</ele><time>2026-04-18T12:52:54Z</time></trkpt><trkpt lat="45.67153686732244" lon="8.627657048689663"><ele>285.5</ele><time>2026-04-18T12:52:55Z</time></trkpt><trkpt lat="45.67143397311147" lon="8.627734225759546"><ele>286.25</ele><time>2026-04-18T12:52:56Z</time></trkpt><trkpt lat="45.67132226616359" lon="8.627821410530318"><ele>287.0</ele><time>2026-04-18T12:52:57Z</time></trkpt><trkpt lat="45.67121993785947" lon="8.627971659141249"><ele>286.0</ele><time>2026-04-18T12:52:58Z</time></trkpt><trkpt lat="45.67113691798621" lon="8.628103479774966"><ele>285.0</ele><time>2026-04-18T12:52:59Z</time></trkpt><trkpt lat="45.671093275148436" lon="8.628255962838008"><ele>284.0</ele><time>2026-04-18T12:53:00Z</time></trkpt><trkpt lat="45.67099161214821" lon="8.628387959590652"><ele>283.0</ele><time>2026-04-18T12:53:01Z</time></trkpt><trkpt lat="45.67090433726356" lon="8.628560894421673"><ele>281.75</ele><time>2026-04-18T12:53:02Z</time></trkpt><trkpt lat="45.67084451585657" lon="8.628731736017858"><ele>280.5</ele><time>2026-04-18T12:53:03Z</time></trkpt><trkpt lat="45.670783830240026" lon="8.628866063602382"><ele>279.25</ele><time>2026-04-18T12:53:04Z</time></trkpt><trkpt lat="45.670712204337995" lon="8.629017771767371"><ele>278.0</ele><time>2026-04-18T12:53:05Z</time></trkpt><trkpt lat="45.67065246464372" lon="8.629160792973318"><ele>278.0</ele><time>2026-04-18T12:53:06Z</time></trkpt><trkpt lat="45.67060395194964" lon="8.629325881814296"><ele>278.0</ele><time>2026-04-18T12:53:07Z</time></trkpt><trkpt lat="45.67055489137034" lon="8.629491021223624"><ele>278.0</ele><time>2026-04-18T12:53:08Z</time></trkpt><trkpt lat="45.67050312946178" lon="8.6296517645655"><ele>278.0</ele><time>2026-04-18T12:53:09Z</time></trkpt><trkpt lat="45.670454709186046" lon="8.629809092631453"><ele>277.0</ele><time>2026-04-18T12:53:10Z</time></trkpt><trkpt lat="45.67040190747789" lon="8.629954666447922"><ele>276.0</ele><time>2026-04-18T12:53:11Z</time></trkpt><trkpt lat="45.67033306607914" lon="8.630119903337343"><ele>275.0</ele><time>2026-04-18T12:53:12Z</time></trkpt><trkpt lat="45.67028433674686" lon="8.630288723005505"><ele>274.0</ele><time>2026-04-18T12:53:13Z</time></trkpt><trkpt lat="45.67025466997135" lon="8.63043390122287"><ele>276.0</ele><time>2026-04-18T12:53:14Z</time></trkpt><trkpt lat="45.67021872183584" lon="8.630550257682911"><ele>278.0</ele><time>2026-04-18T12:53:15Z</time></trkpt><trkpt lat="45.67019167762487" lon="8.630646294713069"><ele>280.0</ele><time>2026-04-18T12:53:16Z</time></trkpt><trkpt lat="45.67013343024586" lon="8.630763250468236"><ele>282.0</ele><time>2026-04-18T12:53:18Z</time></trkpt><trkpt lat="45.67004780089517" lon="8.63086467543605"><ele>284.0</ele><time>2026-04-18T12:53:20.001Z</time></trkpt><trkpt lat="45.67000554839341" lon="8.63095900576542"><ele>284.0</ele><time>2026-04-18T12:53:23.001Z</time></trkpt><trkpt lat="45.670045077763874" lon="8.631039456166445"><ele>284.0</ele><time>2026-04-18T12:53:26.001Z</time></trkpt><trkpt lat="45.670144550347636" lon="8.631094574449937"><ele>284.0</ele><time>2026-04-18T12:53:28.001Z</time></trkpt><trkpt lat="45.67022872288107" lon="8.631184721010586"><ele>284.0</ele><time>2026-04-18T12:53:30.001Z</time></trkpt><trkpt lat="45.670283825365765" lon="8.631264405127986"><ele>284.0</ele><time>2026-04-18T12:53:31.001Z</time></trkpt><trkpt lat="45.67033011188408" lon="8.631382614564576"><ele>283.4</ele><time>2026-04-18T12:53:32.001Z</time></trkpt><trkpt lat="45.670379561184475" lon="8.631506310453979"><ele>282.79999999999995</ele><time>2026-04-18T12:53:33.001Z</time></trkpt><trkpt lat="45.67042675433124" lon="8.631616620947556"><ele>282.20000000000005</ele><time>2026-04-18T12:53:34.001Z</time></trkpt><trkpt lat="45.67047530619787" lon="8.631729966612463"><ele>281.6</ele><time>2026-04-18T12:53:35.001Z</time></trkpt><trkpt lat="45.6705341189582" lon="8.631856481891804"><ele>281.0</ele><time>2026-04-18T12:53:36.001Z</time></trkpt><trkpt lat="45.67060238856972" lon="8.632000787067614"><ele>281.0</ele><time>2026-04-18T12:53:37.001Z</time></trkpt><trkpt lat="45.6706815432572" lon="8.632163954170363"><ele>281.0</ele><time>2026-04-18T12:53:38.001Z</time></trkpt><trkpt lat="45.67076849577226" lon="8.632341705080703"><ele>281.0</ele><time>2026-04-18T12:53:39.001Z</time></trkpt><trkpt lat="45.67085678672319" lon="8.632543753852696"><ele>281.0</ele><time>2026-04-18T12:53:40.001Z</time></trkpt><trkpt lat="45.67092567327689" lon="8.632742269233185"><ele>281.0</ele><time>2026-04-18T12:53:41.001Z</time></trkpt><trkpt lat="45.67098444615265" lon="8.632940469621934"><ele>281.0</ele><time>2026-04-18T12:53:42.001Z</time></trkpt><trkpt lat="45.671039507474745" lon="8.633146810851866"><ele>280.0</ele><time>2026-04-18T12:53:43.001Z</time></trkpt><trkpt lat="45.67108895163962" lon="8.633357670244754"><ele>279.0</ele><time>2026-04-18T12:53:44.001Z</time></trkpt><trkpt lat="45.67115361303067" lon="8.63356060738109"><ele>278.0</ele><time>2026-04-18T12:53:45Z</time></trkpt><trkpt lat="45.67123696759871" lon="8.633757936324399"><ele>278.0</ele><time>2026-04-18T12:53:46Z</time></trkpt><trkpt lat="45.671328340206465" lon="8.633937968669741"><ele>278.0</ele><time>2026-04-18T12:53:47Z</time></trkpt><trkpt lat="45.67143733224504" lon="8.634109558918126"><ele>278.0</ele><time>2026-04-18T12:53:48Z</time></trkpt><trkpt lat="45.67155206111606" lon="8.634269110396959"><ele>278.0</ele><time>2026-04-18T12:53:49Z</time></trkpt><trkpt lat="45.671679310500885" lon="8.634403054941444"><ele>278.0</ele><time>2026-04-18T12:53:50Z</time></trkpt><trkpt lat="45.67179425229748" lon="8.634534608156319"><ele>278.0</ele><time>2026-04-18T12:53:51Z</time></trkpt><trkpt lat="45.67188503016136" lon="8.634689792578545"><ele>278.0</ele><time>2026-04-18T12:53:52Z</time></trkpt><trkpt lat="45.671959086523685" lon="8.634860880067675"><ele>268.0</ele><time>2026-04-18T12:53:53Z</time></trkpt><trkpt lat="45.67207636989266" lon="8.635485795859674"><ele>268.0</ele><time>2026-04-18T12:53:56Z</time></trkpt><trkpt lat="45.672099359961095" lon="8.63573078801046"><ele>268.0</ele><time>2026-04-18T12:53:57Z</time></trkpt><trkpt lat="45.67214223723623" lon="8.635978188630551"><ele>268.0</ele><time>2026-04-18T12:53:58Z</time></trkpt><trkpt lat="45.67219288801395" lon="8.636217387239533"><ele>268.5</ele><time>2026-04-18T12:53:59Z</time></trkpt><trkpt lat="45.67224783039501" lon="8.636417988985098"><ele>269.0</ele><time>2026-04-18T12:54:00Z</time></trkpt><trkpt lat="45.67230569267031" lon="8.636616439748273"><ele>269.5</ele><time>2026-04-18T12:54:01Z</time></trkpt><trkpt lat="45.67234702898721" lon="8.6368151099738"><ele>270.0</ele><time>2026-04-18T12:54:02Z</time></trkpt><trkpt lat="45.67236148387726" lon="8.63702760295353"><ele>271.0</ele><time>2026-04-18T12:54:03Z</time></trkpt><trkpt lat="45.67234425151102" lon="8.637242027161582"><ele>272.0</ele><time>2026-04-18T12:54:04Z</time></trkpt><trkpt lat="45.672301003610414" lon="8.637465558206657"><ele>273.0</ele><time>2026-04-18T12:54:05Z</time></trkpt><trkpt lat="45.67224100870432" lon="8.637711745996372"><ele>272.0</ele><time>2026-04-18T12:54:06Z</time></trkpt><trkpt lat="45.67217915755447" lon="8.637930135203199"><ele>271.0</ele><time>2026-04-18T12:54:07Z</time></trkpt><trkpt lat="45.672132680351574" lon="8.638180891712764"><ele>270.0</ele><time>2026-04-18T12:54:08Z</time></trkpt><trkpt lat="45.672112886696944" lon="8.638436798048442"><ele>268.6666666666667</ele><time>2026-04-18T12:54:09Z</time></trkpt><trkpt lat="45.67210022919419" lon="8.638695218684136"><ele>267.33333333333337</ele><time>2026-04-18T12:54:10Z</time></trkpt><trkpt lat="45.67208836908208" lon="8.63893519739015"><ele>266.0</ele><time>2026-04-18T12:54:11Z</time></trkpt><trkpt lat="45.67207782241806" lon="8.639153376060447"><ele>266.0</ele><time>2026-04-18T12:54:12Z</time></trkpt><trkpt lat="45.67206070504929" lon="8.639368254829733"><ele>266.0</ele><time>2026-04-18T12:54:13Z</time></trkpt><trkpt lat="45.67203170454865" lon="8.639582493978763"><ele>266.0</ele><time>2026-04-18T12:54:14Z</time></trkpt><trkpt lat="45.67198816914711" lon="8.639796212670088"><ele>266.6666666666667</ele><time>2026-04-18T12:54:15Z</time></trkpt><trkpt lat="45.671950383485466" lon="8.640019302881903"><ele>267.3333333333333</ele><time>2026-04-18T12:54:16Z</time></trkpt><trkpt lat="45.67190090908116" lon="8.640262226132597"><ele>268.0</ele><time>2026-04-18T12:54:17Z</time></trkpt><trkpt lat="45.67186219073921" lon="8.640494733747339"><ele>270.3333333333333</ele><time>2026-04-18T12:54:18Z</time></trkpt><trkpt lat="45.67180805379245" lon="8.640744924743347"><ele>272.6666666666667</ele><time>2026-04-18T12:54:19Z</time></trkpt><trkpt lat="45.67174429367963" lon="8.640979311716016"><ele>275.0</ele><time>2026-04-18T12:54:20Z</time></trkpt><trkpt lat="45.67168369212572" lon="8.641221179715524"><ele>275.0</ele><time>2026-04-18T12:54:21Z</time></trkpt><trkpt lat="45.67161934190351" lon="8.641454828971487"><ele>275.0</ele><time>2026-04-18T12:54:22Z</time></trkpt><trkpt lat="45.671552188327276" lon="8.641680566575323"><ele>275.0</ele><time>2026-04-18T12:54:23Z</time></trkpt><trkpt lat="45.67146630996303" lon="8.641882308583654"><ele>272.6666666666667</ele><time>2026-04-18T12:54:24Z</time></trkpt><trkpt lat="45.67137015204603" lon="8.642066229769203"><ele>270.3333333333333</ele><time>2026-04-18T12:54:25Z</time></trkpt><trkpt lat="45.67126256453795" lon="8.642245671053665"><ele>268.0</ele><time>2026-04-18T12:54:26Z</time></trkpt><trkpt lat="45.67115193288" lon="8.642413297109908"><ele>269.0</ele><time>2026-04-18T12:54:27Z</time></trkpt><trkpt lat="45.67103718689922" lon="8.64257540072565"><ele>270.0</ele><time>2026-04-18T12:54:28Z</time></trkpt><trkpt lat="45.67090828569355" lon="8.642726549189247"><ele>271.0</ele><time>2026-04-18T12:54:29Z</time></trkpt><trkpt lat="45.67078348737614" lon="8.642874901920328"><ele>271.0</ele><time>2026-04-18T12:54:30Z</time></trkpt><trkpt lat="45.67065271732279" lon="8.643016564714129"><ele>271.0</ele><time>2026-04-18T12:54:31Z</time></trkpt><trkpt lat="45.67052314532622" lon="8.643159144873003"><ele>271.0</ele><time>2026-04-18T12:54:32Z</time></trkpt><trkpt lat="45.670402995654484" lon="8.643286179370902"><ele>271.0</ele><time>2026-04-18T12:54:33Z</time></trkpt><trkpt lat="45.67029038323312" lon="8.643401716390805"><ele>271.0</ele><time>2026-04-18T12:54:34Z</time></trkpt><trkpt lat="45.6701845624527" lon="8.643512747676496"><ele>271.0</ele><time>2026-04-18T12:54:35Z</time></trkpt><trkpt lat="45.67007973868" lon="8.643629459677399"><ele>271.0</ele><time>2026-04-18T12:54:36Z</time></trkpt><trkpt lat="45.66997156801597" lon="8.643743889491377"><ele>271.0</ele><time>2026-04-18T12:54:37Z</time></trkpt><trkpt lat="45.669872017783426" lon="8.6438520638966"><ele>271.0</ele><time>2026-04-18T12:54:38Z</time></trkpt><trkpt lat="45.66977190742064" lon="8.643943543184253"><ele>271.0</ele><time>2026-04-18T12:54:39Z</time></trkpt><trkpt lat="45.66967438040873" lon="8.644024880317797"><ele>271.0</ele><time>2026-04-18T12:54:40Z</time></trkpt><trkpt lat="45.66958806086989" lon="8.64409052279989"><ele>271.0</ele><time>2026-04-18T12:54:41Z</time></trkpt><trkpt lat="45.66951351281082" lon="8.644161698719401"><ele>271.0</ele><time>2026-04-18T12:54:42Z</time></trkpt><trkpt lat="45.66945334879886" lon="8.644217356975414"><ele>271.0</ele><time>2026-04-18T12:54:43Z</time></trkpt><trkpt lat="45.66937598093211" lon="8.644268283856828"><ele>271.0</ele><time>2026-04-18T12:54:45Z</time></trkpt><trkpt lat="45.669273732836245" lon="8.644361075112426"><ele>271.0</ele><time>2026-04-18T12:54:50Z</time></trkpt><trkpt lat="45.66922233761973" lon="8.64441548553629"><ele>271.0</ele><time>2026-04-18T12:54:51Z</time></trkpt><trkpt lat="45.66916738572474" lon="8.64447480497119"><ele>270.2</ele><time>2026-04-18T12:54:52Z</time></trkpt><trkpt lat="45.669096175716575" lon="8.644544904092266"><ele>269.40000000000003</ele><time>2026-04-18T12:54:53Z</time></trkpt><trkpt lat="45.66900491694145" lon="8.644627100413668"><ele>268.6</ele><time>2026-04-18T12:54:54Z</time></trkpt><trkpt lat="45.668899451087704" lon="8.644721807502766"><ele>267.8</ele><time>2026-04-18T12:54:55Z</time></trkpt><trkpt lat="45.668795970761" lon="8.644823215758894"><ele>267.0</ele><time>2026-04-18T12:54:56.001Z</time></trkpt><trkpt lat="45.66867914162122" lon="8.644920665978598"><ele>267.4</ele><time>2026-04-18T12:54:57.001Z</time></trkpt><trkpt lat="45.66856101938823" lon="8.64501213378595"><ele>267.79999999999995</ele><time>2026-04-18T12:54:58.001Z</time></trkpt><trkpt lat="45.66846238883926" lon="8.645083332051065"><ele>268.2</ele><time>2026-04-18T12:54:59.001Z</time></trkpt><trkpt lat="45.668389018157356" lon="8.645129285000362"><ele>268.59999999999997</ele><time>2026-04-18T12:55:00.001Z</time></trkpt><trkpt lat="45.668350716477065" lon="8.64523912816747"><ele>269.0</ele><time>2026-04-18T12:55:02.001Z</time></trkpt><trkpt lat="45.668369785576054" lon="8.645340970799609"><ele>269.0</ele><time>2026-04-18T12:55:04.001Z</time></trkpt><trkpt lat="45.66832622111595" lon="8.645513642847899"><ele>269.0</ele><time>2026-04-18T12:55:06.001Z</time></trkpt><trkpt lat="45.66832477826288" lon="8.645633389556005"><ele>269.0</ele><time>2026-04-18T12:55:08.001Z</time></trkpt><trkpt lat="45.668332905166125" lon="8.645781570697162"><ele>269.0</ele><time>2026-04-18T12:55:10.001Z</time></trkpt><trkpt lat="45.6683081856893" lon="8.645991320179567"><ele>269.33333333333337</ele><time>2026-04-18T12:55:12.001Z</time></trkpt><trkpt lat="45.66831642317399" lon="8.646136753495682"><ele>269.6666666666667</ele><time>2026-04-18T12:55:14.001Z</time></trkpt><trkpt lat="45.66828973225366" lon="8.64622357897232"><ele>270.0</ele><time>2026-04-18T12:55:26.001Z</time></trkpt><trkpt lat="45.6683055980682" lon="8.646390239877903"><ele>270.3333333333333</ele><time>2026-04-18T12:55:54Z</time></trkpt><trkpt lat="45.66834670794273" lon="8.646492423627185"><ele>270.66666666666663</ele><time>2026-04-18T12:55:56Z</time></trkpt><trkpt lat="45.66836572578259" lon="8.646592598874621"><ele>271.0</ele><time>2026-04-18T12:55:59Z</time></trkpt><trkpt lat="45.66838925049139" lon="8.646685646859757"><ele>271.0</ele><time>2026-04-18T12:56:02Z</time></trkpt><trkpt lat="45.66837900489113" lon="8.646804400647476"><ele>271.0</ele><time>2026-04-18T12:56:04Z</time></trkpt><trkpt lat="45.66837019235451" lon="8.64692944033208"><ele>271.0</ele><time>2026-04-18T12:56:06Z</time></trkpt><trkpt lat="45.668374461959125" lon="8.647034709129736"><ele>271.0</ele><time>2026-04-18T12:56:08Z</time></trkpt><trkpt lat="45.66838936502963" lon="8.647277036388545"><ele>271.0</ele><time>2026-04-18T12:56:12Z</time></trkpt><trkpt lat="45.668359728349145" lon="8.647437026081414"><ele>270.8</ele><time>2026-04-18T12:56:14Z</time></trkpt><trkpt lat="45.668355596289665" lon="8.64760487551609"><ele>270.6</ele><time>2026-04-18T12:56:16Z</time></trkpt><trkpt lat="45.66835578014506" lon="8.647729931373629"><ele>270.4</ele><time>2026-04-18T12:56:18Z</time></trkpt><trkpt lat="45.668326673010284" lon="8.64781926760306"><ele>270.2</ele><time>2026-04-18T12:56:21Z</time></trkpt><trkpt lat="45.66830996049277" lon="8.6479552151966"><ele>270.0</ele><time>2026-04-18T12:56:23Z</time></trkpt><trkpt lat="45.66827577667725" lon="8.648096377316222"><ele>269.2</ele><time>2026-04-18T12:56:25Z</time></trkpt><trkpt lat="45.66823703535988" lon="8.648221420866003"><ele>268.4</ele><time>2026-04-18T12:56:27Z</time></trkpt><trkpt lat="45.6681674191665" lon="8.648331761547542"><ele>267.6</ele><time>2026-04-18T12:56:29Z</time></trkpt><trkpt lat="45.66815343661437" lon="8.648442405061376"><ele>266.8</ele><time>2026-04-18T12:56:31Z</time></trkpt><trkpt lat="45.66810393982036" lon="8.648591100769494"><ele>266.0</ele><time>2026-04-18T12:56:33Z</time></trkpt><trkpt lat="45.66808952424849" lon="8.648714248199004"><ele>264.8</ele><time>2026-04-18T12:56:35Z</time></trkpt><trkpt lat="45.668038669736205" lon="8.648801887389993"><ele>263.6</ele><time>2026-04-18T12:56:37Z</time></trkpt><trkpt lat="45.667974177528805" lon="8.64894477441479"><ele>262.4</ele><time>2026-04-18T12:56:39Z</time></trkpt><trkpt lat="45.66792040547806" lon="8.649065138098969"><ele>261.2</ele><time>2026-04-18T12:56:41Z</time></trkpt><trkpt lat="45.66786423790257" lon="8.649169586087332"><ele>260.0</ele><time>2026-04-18T12:56:43Z</time></trkpt><trkpt lat="45.667820507886056" lon="8.649254288844139"><ele>261.2</ele><time>2026-04-18T12:56:45Z</time></trkpt><trkpt lat="45.667748722790854" lon="8.649360384652194"><ele>262.4</ele><time>2026-04-18T12:56:47Z</time></trkpt><trkpt lat="45.66768495460946" lon="8.649443107670693"><ele>263.6</ele><time>2026-04-18T12:56:49Z</time></trkpt><trkpt lat="45.66762543319743" lon="8.649561043397108"><ele>264.8</ele><time>2026-04-18T12:56:52Z</time></trkpt><trkpt lat="45.66756412755126" lon="8.649648266648722"><ele>266.0</ele><time>2026-04-18T12:56:54.001Z</time></trkpt><trkpt lat="45.66749740289789" lon="8.649738832142177"><ele>266.0</ele><time>2026-04-18T12:56:56.001Z</time></trkpt><trkpt lat="45.66745650852715" lon="8.649881828815754"><ele>266.0</ele><time>2026-04-18T12:56:58.001Z</time></trkpt><trkpt lat="45.66740809546341" lon="8.64997992495343"><ele>266.0</ele><time>2026-04-18T12:57:00.001Z</time></trkpt><trkpt lat="45.66732541474517" lon="8.650105243384154"><ele>266.0</ele><time>2026-04-18T12:57:02.001Z</time></trkpt><trkpt lat="45.667280282807894" lon="8.650189498681511"><ele>266.0</ele><time>2026-04-18T12:57:03.001Z</time></trkpt><trkpt lat="45.66720308181814" lon="8.650251611908493"><ele>266.40000000000003</ele><time>2026-04-18T12:57:05.001Z</time></trkpt><trkpt lat="45.6671381700641" lon="8.650368276232241"><ele>266.8</ele><time>2026-04-18T12:57:07.001Z</time></trkpt><trkpt lat="45.66707746555783" lon="8.650421903873966"><ele>267.20000000000005</ele><time>2026-04-18T12:57:09.001Z</time></trkpt><trkpt lat="45.66700633946171" lon="8.650542250112279"><ele>267.6</ele><time>2026-04-18T12:57:11.001Z</time></trkpt><trkpt lat="45.66692056703413" lon="8.650632069975742"><ele>268.0</ele><time>2026-04-18T12:57:13.001Z</time></trkpt><trkpt lat="45.666859849122275" lon="8.650684790571793"><ele>268.0</ele><time>2026-04-18T12:57:15.001Z</time></trkpt><trkpt lat="45.66676808007754" lon="8.65083031415766"><ele>268.0</ele><time>2026-04-18T12:57:17.001Z</time></trkpt><trkpt lat="45.66670750866733" lon="8.650874504714949"><ele>268.0</ele><time>2026-04-18T12:57:18.001Z</time></trkpt><trkpt lat="45.66663897685401" lon="8.650943244356235"><ele>268.0</ele><time>2026-04-18T12:57:19.001Z</time></trkpt><trkpt lat="45.66657791881779" lon="8.65100953144344"><ele>268.0</ele><time>2026-04-18T12:57:22.001Z</time></trkpt><trkpt lat="45.66645744596161" lon="8.651112274195063"><ele>267.3333333333333</ele><time>2026-04-18T12:57:24.001Z</time></trkpt><trkpt lat="45.66635448715379" lon="8.651143754146805"><ele>266.66666666666663</ele><time>2026-04-18T12:57:26.001Z</time></trkpt><trkpt lat="45.6663085165202" lon="8.651209289202905"><ele>266.0</ele><time>2026-04-18T12:57:27.001Z</time></trkpt><trkpt lat="45.66624746628544" lon="8.651247941299772"><ele>265.3333333333333</ele><time>2026-04-18T12:57:28.001Z</time></trkpt><trkpt lat="45.666182614552696" lon="8.651271954545653"><ele>264.6666666666667</ele><time>2026-04-18T12:57:29.001Z</time></trkpt><trkpt lat="45.66612920774115" lon="8.6513425596666"><ele>264.0</ele><time>2026-04-18T12:57:30.001Z</time></trkpt><trkpt lat="45.66604507036539" lon="8.651405490017137"><ele>263.6666666666667</ele><time>2026-04-18T12:57:32.001Z</time></trkpt><trkpt lat="45.66593797058489" lon="8.651503489163929"><ele>263.3333333333333</ele><time>2026-04-18T12:57:34.001Z</time></trkpt><trkpt lat="45.665869230335296" lon="8.65160531021469"><ele>263.0</ele><time>2026-04-18T12:57:36.001Z</time></trkpt><trkpt lat="45.66581572898732" lon="8.651666860011431"><ele>262.66666666666663</ele><time>2026-04-18T12:57:39.001Z</time></trkpt><trkpt lat="45.66585909007798" lon="8.651753622767577"><ele>262.3333333333333</ele><time>2026-04-18T12:57:49.001Z</time></trkpt><trkpt lat="45.66592828085404" lon="8.651779418335698"><ele>262.0</ele><time>2026-04-18T12:57:52.001Z</time></trkpt><trkpt lat="45.66599013788145" lon="8.651842390253647"><ele>262.0</ele><time>2026-04-18T12:57:55.001Z</time></trkpt><trkpt lat="45.666089219659206" lon="8.651928252654319"><ele>262.0</ele><time>2026-04-18T12:57:58Z</time></trkpt><trkpt lat="45.666150878577085" lon="8.651989875160229"><ele>262.0</ele><time>2026-04-18T12:57:59Z</time></trkpt><trkpt lat="45.66622987050345" lon="8.652076195423161"><ele>262.0</ele><time>2026-04-18T12:58:00Z</time></trkpt><trkpt lat="45.66630530181398" lon="8.652155803180662"><ele>262.0</ele><time>2026-04-18T12:58:01Z</time></trkpt><trkpt lat="45.666393497017516" lon="8.652255800978123"><ele>260.75</ele><time>2026-04-18T12:58:02Z</time></trkpt><trkpt lat="45.666497715064494" lon="8.652368249524097"><ele>259.5</ele><time>2026-04-18T12:58:03Z</time></trkpt><trkpt lat="45.66659990238351" lon="8.652466881740255"><ele>258.25</ele><time>2026-04-18T12:58:04Z</time></trkpt><trkpt lat="45.66667911131529" lon="8.652560315216187"><ele>257.0</ele><time>2026-04-18T12:58:05Z</time></trkpt><trkpt lat="45.66677320561211" lon="8.6526793823651"><ele>257.6666666666667</ele><time>2026-04-18T12:58:06Z</time></trkpt><trkpt lat="45.6669122483182" lon="8.652821660213329"><ele>258.3333333333333</ele><time>2026-04-18T12:58:07Z</time></trkpt><trkpt lat="45.66704186053477" lon="8.652961873742102"><ele>259.0</ele><time>2026-04-18T12:58:08Z</time></trkpt><trkpt lat="45.667166975857384" lon="8.65309555725899"><ele>259.0</ele><time>2026-04-18T12:58:09Z</time></trkpt><trkpt lat="45.66728491798368" lon="8.653228217067785"><ele>259.0</ele><time>2026-04-18T12:58:10Z</time></trkpt><trkpt lat="45.66737788530257" lon="8.653340823467657"><ele>259.0</ele><time>2026-04-18T12:58:11Z</time></trkpt><trkpt lat="45.66746619442016" lon="8.653425838356428"><ele>259.0</ele><time>2026-04-18T12:58:12Z</time></trkpt><trkpt lat="45.667547357255316" lon="8.65351178000985"><ele>259.0</ele><time>2026-04-18T12:58:13Z</time></trkpt><trkpt lat="45.6676029627523" lon="8.653575524417015"><ele>259.0</ele><time>2026-04-18T12:58:14Z</time></trkpt><trkpt lat="45.66767167881439" lon="8.65371734974752"><ele>259.0</ele><time>2026-04-18T12:58:16Z</time></trkpt><trkpt lat="45.66766233984409" lon="8.653817542156704"><ele>259.0</ele><time>2026-04-18T12:58:17Z</time></trkpt><trkpt lat="45.66762220897594" lon="8.65394820381865"><ele>259.0</ele><time>2026-04-18T12:58:18Z</time></trkpt><trkpt lat="45.66756826174711" lon="8.654128587497288"><ele>259.0</ele><time>2026-04-18T12:58:19Z</time></trkpt><trkpt lat="45.66749607328416" lon="8.654342967107002"><ele>259.0</ele><time>2026-04-18T12:58:20Z</time></trkpt><trkpt lat="45.66743972059279" lon="8.654519023950801"><ele>259.0</ele><time>2026-04-18T12:58:21Z</time></trkpt><trkpt lat="45.66739721063041" lon="8.65465152751167"><ele>259.0</ele><time>2026-04-18T12:58:22Z</time></trkpt><trkpt lat="45.66736597509204" lon="8.65474043920973"><ele>259.0</ele><time>2026-04-18T12:58:23Z</time></trkpt><trkpt lat="45.66739452221093" lon="8.654856829970313"><ele>259.0</ele><time>2026-04-18T12:58:25Z</time></trkpt><trkpt lat="45.66751314837112" lon="8.654916501293636"><ele>259.0</ele><time>2026-04-18T12:58:32Z</time></trkpt><trkpt lat="45.667588656547906" lon="8.654978606624738"><ele>259.0</ele><time>2026-04-18T12:58:33Z</time></trkpt><trkpt lat="45.667695251363696" lon="8.65505887211125"><ele>259.0</ele><time>2026-04-18T12:58:34Z</time></trkpt><trkpt lat="45.66781814799139" lon="8.655147244759874"><ele>259.25</ele><time>2026-04-18T12:58:35Z</time></trkpt><trkpt lat="45.66793186257552" lon="8.655223386592832"><ele>259.5</ele><time>2026-04-18T12:58:36Z</time></trkpt><trkpt lat="45.66802953104343" lon="8.6552984995461"><ele>259.75</ele><time>2026-04-18T12:58:37Z</time></trkpt><trkpt lat="45.66812308206512" lon="8.6553808663409"><ele>260.0</ele><time>2026-04-18T12:58:38Z</time></trkpt><trkpt lat="45.668205908283824" lon="8.655479759746058"><ele>260.0</ele><time>2026-04-18T12:58:39Z</time></trkpt><trkpt lat="45.66826604149924" lon="8.655560616258473"><ele>260.0</ele><time>2026-04-18T12:58:40Z</time></trkpt><trkpt lat="45.668316265386856" lon="8.65563627072703"><ele>260.0</ele><time>2026-04-18T12:58:41Z</time></trkpt><trkpt lat="45.66837409511884" lon="8.655718442742087"><ele>260.0</ele><time>2026-04-18T12:58:42Z</time></trkpt><trkpt lat="45.668439285666366" lon="8.655752931161405"><ele>260.0</ele><time>2026-04-18T12:58:43Z</time></trkpt><trkpt lat="45.66851121783143" lon="8.655762068272235"><ele>260.0</ele><time>2026-04-18T12:58:44Z</time></trkpt><trkpt lat="45.668610788724386" lon="8.655749561577114"><ele>260.2</ele><time>2026-04-18T12:58:45Z</time></trkpt><trkpt lat="45.668729870614776" lon="8.655781129353217"><ele>260.4</ele><time>2026-04-18T12:58:46Z</time></trkpt><trkpt lat="45.66882582434622" lon="8.655787689188914"><ele>260.6</ele><time>2026-04-18T12:58:47Z</time></trkpt><trkpt lat="45.66889604103401" lon="8.655803350340898"><ele>260.8</ele><time>2026-04-18T12:58:48Z</time></trkpt><trkpt lat="45.66897212518387" lon="8.655857794755503"><ele>261.0</ele><time>2026-04-18T12:58:50Z</time></trkpt><trkpt lat="45.66896335812122" lon="8.656028484343407"><ele>261.0</ele><time>2026-04-18T12:58:52Z</time></trkpt><trkpt lat="45.66893002224537" lon="8.656154579421507"><ele>261.0</ele><time>2026-04-18T12:58:53Z</time></trkpt><trkpt lat="45.668876449392585" lon="8.656308673629495"><ele>261.0</ele><time>2026-04-18T12:58:54.001Z</time></trkpt><trkpt lat="45.668826038715" lon="8.65649785563841"><ele>261.0</ele><time>2026-04-18T12:58:55.001Z</time></trkpt><trkpt lat="45.6687872274545" lon="8.65671273654435"><ele>261.0</ele><time>2026-04-18T12:58:56.001Z</time></trkpt><trkpt lat="45.668744512173966" lon="8.65689382308604"><ele>261.0</ele><time>2026-04-18T12:58:57.001Z</time></trkpt><trkpt lat="45.668699365869045" lon="8.657070387274555"><ele>261.0</ele><time>2026-04-18T12:58:58.001Z</time></trkpt><trkpt lat="45.66864892051566" lon="8.657238538490077"><ele>261.0</ele><time>2026-04-18T12:58:59.001Z</time></trkpt><trkpt lat="45.66860823043792" lon="8.657381945808359"><ele>260.5</ele><time>2026-04-18T12:59:00.001Z</time></trkpt><trkpt lat="45.66858156933089" lon="8.657515886790526"><ele>260.0</ele><time>2026-04-18T12:59:01.001Z</time></trkpt><trkpt lat="45.66856035315774" lon="8.657630579999207"><ele>259.5</ele><time>2026-04-18T12:59:02.001Z</time></trkpt><trkpt lat="45.66854433746491" lon="8.65772820070646"><ele>259.0</ele><time>2026-04-18T12:59:03.001Z</time></trkpt><trkpt lat="45.66853174479695" lon="8.657834302809736"><ele>258.5</ele><time>2026-04-18T12:59:04.001Z</time></trkpt><trkpt lat="45.66851472896817" lon="8.657925259043127"><ele>258.0</ele><time>2026-04-18T12:59:05.001Z</time></trkpt><trkpt lat="45.6684860551228" lon="8.658012300882916"><ele>258.0</ele><time>2026-04-18T12:59:06.001Z</time></trkpt><trkpt lat="45.668448424500134" lon="8.658098560735139"><ele>258.0</ele><time>2026-04-18T12:59:19.001Z</time></trkpt><trkpt lat="45.66846603689687" lon="8.658004929541052"><ele>258.0</ele><time>2026-04-18T12:59:25.001Z</time></trkpt><trkpt lat="45.66850192009691" lon="8.657897705223277"><ele>258.0</ele><time>2026-04-18T12:59:28.001Z</time></trkpt><trkpt lat="45.66853527309444" lon="8.65777536921606"><ele>258.0</ele><time>2026-04-18T12:59:29.001Z</time></trkpt><trkpt lat="45.66857894737978" lon="8.65759981219178"><ele>258.0</ele><time>2026-04-18T12:59:30.001Z</time></trkpt><trkpt lat="45.66859668200776" lon="8.657499722860688"><ele>258.3333333333333</ele><time>2026-04-18T12:59:31.001Z</time></trkpt><trkpt lat="45.668616189305375" lon="8.657400612432806"><ele>258.6666666666667</ele><time>2026-04-18T12:59:32.001Z</time></trkpt><trkpt lat="45.66863458105183" lon="8.657312388328378"><ele>259.0</ele><time>2026-04-18T12:59:33.001Z</time></trkpt><trkpt lat="45.66868167868931" lon="8.657135902867022"><ele>259.33333333333337</ele><time>2026-04-18T12:59:35.001Z</time></trkpt><trkpt lat="45.668702076373194" lon="8.657045983062451"><ele>259.6666666666667</ele><time>2026-04-18T12:59:36.001Z</time></trkpt><trkpt lat="45.668727456578445" lon="8.656955570097118"><ele>260.0</ele><time>2026-04-18T12:59:37.001Z</time></trkpt><trkpt lat="45.66875181903459" lon="8.656865943317563"><ele>260.14285714285717</ele><time>2026-04-18T12:59:38.001Z</time></trkpt><trkpt lat="45.668771530804655" lon="8.656770898148526"><ele>260.2857142857143</ele><time>2026-04-18T12:59:39.001Z</time></trkpt><trkpt lat="45.66878699087929" lon="8.6566772376563"><ele>260.42857142857144</ele><time>2026-04-18T12:59:40.001Z</time></trkpt><trkpt lat="45.668799070888674" lon="8.656577884164728"><ele>260.57142857142856</ele><time>2026-04-18T12:59:41.001Z</time></trkpt><trkpt lat="45.668814854001816" lon="8.656475112504587"><ele>260.7142857142857</ele><time>2026-04-18T12:59:42.001Z</time></trkpt><trkpt lat="45.6688386624683" lon="8.656379361067469"><ele>260.8571428571429</ele><time>2026-04-18T12:59:43.001Z</time></trkpt><trkpt lat="45.66884625778899" lon="8.656287067212707"><ele>261.0</ele><time>2026-04-18T12:59:44.001Z</time></trkpt><trkpt lat="45.66888768074648" lon="8.656156335578506"><ele>261.0</ele><time>2026-04-18T12:59:46.001Z</time></trkpt><trkpt lat="45.668922497389445" lon="8.656040999216062"><ele>261.0</ele><time>2026-04-18T12:59:47.001Z</time></trkpt><trkpt lat="45.66895705544229" lon="8.655954782641844"><ele>261.0</ele><time>2026-04-18T12:59:48.001Z</time></trkpt><trkpt lat="45.66897119640819" lon="8.655846080823707"><ele>261.0</ele><time>2026-04-18T12:59:52.001Z</time></trkpt><trkpt lat="45.6689280694024" lon="8.655989048961889"><ele>261.0</ele><time>2026-04-18T12:59:57.001Z</time></trkpt><trkpt lat="45.66892226538693" lon="8.656132532186994"><ele>261.0</ele><time>2026-04-18T12:59:58.001Z</time></trkpt><trkpt lat="45.66887998955422" lon="8.656269296783083"><ele>261.0</ele><time>2026-04-18T12:59:59.001Z</time></trkpt><trkpt lat="45.668839188034205" lon="8.656364216926248"><ele>261.0</ele><time>2026-04-18T13:00:00.001Z</time></trkpt><trkpt lat="45.668834677476525" lon="8.656461154698473"><ele>261.0</ele><time>2026-04-18T13:02:03.001Z</time></trkpt><trkpt lat="45.6688127019595" lon="8.65657792305596"><ele>261.0</ele><time>2026-04-18T13:02:06.001Z</time></trkpt><trkpt lat="45.66879219691168" lon="8.656752644310206"><ele>261.0</ele><time>2026-04-18T13:02:08.001Z</time></trkpt><trkpt lat="45.66875194263288" lon="8.656908745162049"><ele>260.8333333333333</ele><time>2026-04-18T13:02:10.001Z</time></trkpt><trkpt lat="45.66869860967034" lon="8.657086362217402"><ele>260.6666666666667</ele><time>2026-04-18T13:02:12.001Z</time></trkpt><trkpt lat="45.66867234879898" lon="8.65718984393354"><ele>260.5</ele><time>2026-04-18T13:02:13.001Z</time></trkpt><trkpt lat="45.668643415727736" lon="8.657282372446423"><ele>260.33333333333337</ele><time>2026-04-18T13:02:14.001Z</time></trkpt><trkpt lat="45.6686215422903" lon="8.657383222694847"><ele>260.1666666666667</ele><time>2026-04-18T13:02:15.001Z</time></trkpt><trkpt lat="45.66860451240711" lon="8.65749313433184"><ele>260.0</ele><time>2026-04-18T13:02:16.001Z</time></trkpt><trkpt lat="45.668581363103065" lon="8.657596230809574"><ele>259.6666666666667</ele><time>2026-04-18T13:02:17.001Z</time></trkpt><trkpt lat="45.66856256253592" lon="8.65769937122585"><ele>259.33333333333337</ele><time>2026-04-18T13:02:18.001Z</time></trkpt><trkpt lat="45.668541043189045" lon="8.657814633334738"><ele>259.0</ele><time>2026-04-18T13:02:19.001Z</time></trkpt><trkpt lat="45.66852347844477" lon="8.657922981655155"><ele>258.6666666666667</ele><time>2026-04-18T13:02:20.001Z</time></trkpt><trkpt lat="45.668495033384424" lon="8.65802942052328"><ele>258.3333333333333</ele><time>2026-04-18T13:02:21Z</time></trkpt><trkpt lat="45.66846524656204" lon="8.658126463869566"><ele>258.0</ele><time>2026-04-18T13:02:22Z</time></trkpt><trkpt lat="45.66843196199806" lon="8.658224405810248"><ele>257.6666666666667</ele><time>2026-04-18T13:02:23Z</time></trkpt><trkpt lat="45.66840787320667" lon="8.658336680584943"><ele>257.3333333333333</ele><time>2026-04-18T13:02:24Z</time></trkpt><trkpt lat="45.66837617195416" lon="8.658436342132205"><ele>257.0</ele><time>2026-04-18T13:02:25Z</time></trkpt><trkpt lat="45.66834507232737" lon="8.65852118243852"><ele>256.66666666666663</ele><time>2026-04-18T13:02:26Z</time></trkpt><trkpt lat="45.66832284176627" lon="8.658624080711471"><ele>256.3333333333333</ele><time>2026-04-18T13:02:27Z</time></trkpt><trkpt lat="45.66829451771194" lon="8.658726549544442"><ele>256.0</ele><time>2026-04-18T13:02:28Z</time></trkpt><trkpt lat="45.668266866262506" lon="8.658837090817416"><ele>255.99999999999997</ele><time>2026-04-18T13:02:29Z</time></trkpt><trkpt lat="45.6682344609277" lon="8.658944208018472"><ele>256.0</ele><time>2026-04-18T13:02:30Z</time></trkpt><trkpt lat="45.66820914734231" lon="8.659051449424652"><ele>256.0</ele><time>2026-04-18T13:02:31Z</time></trkpt><trkpt lat="45.66818587349841" lon="8.659157623151861"><ele>256.0</ele><time>2026-04-18T13:02:32Z</time></trkpt><trkpt lat="45.668143201723396" lon="8.65924381241829"><ele>255.99999999999997</ele><time>2026-04-18T13:02:33Z</time></trkpt><trkpt lat="45.66811604566534" lon="8.65934789412239"><ele>256.0</ele><time>2026-04-18T13:02:34Z</time></trkpt><trkpt lat="45.66810521466977" lon="8.659452486592988"><ele>255.99999999999997</ele><time>2026-04-18T13:02:35Z</time></trkpt><trkpt lat="45.66808352628718" lon="8.65955653194059"><ele>256.0</ele><time>2026-04-18T13:02:36Z</time></trkpt><trkpt lat="45.668057154093724" lon="8.659654651355881"><ele>256.0</ele><time>2026-04-18T13:02:37Z</time></trkpt><trkpt lat="45.66803723133367" lon="8.659754302501044"><ele>256.0</ele><time>2026-04-18T13:02:38Z</time></trkpt><trkpt lat="45.66801479900253" lon="8.659848198857972"><ele>255.99999999999997</ele><time>2026-04-18T13:02:39Z</time></trkpt><trkpt lat="45.66797291037457" lon="8.660004497049092"><ele>256.0</ele><time>2026-04-18T13:02:41.001Z</time></trkpt><trkpt lat="45.66794195136023" lon="8.660136476427583"><ele>256.0</ele><time>2026-04-18T13:03:02.001Z</time></trkpt><trkpt lat="45.66792394517697" lon="8.660281139062011"><ele>256.0</ele><time>2026-04-18T13:03:04.001Z</time></trkpt><trkpt lat="45.6678930056087" lon="8.660389458638273"><ele>256.0</ele><time>2026-04-18T13:03:06.001Z</time></trkpt><trkpt lat="45.667858326549144" lon="8.660548269330466"><ele>256.0</ele><time>2026-04-18T13:03:09.001Z</time></trkpt><trkpt lat="45.66785030506648" lon="8.660642888088287"><ele>256.0</ele><time>2026-04-18T13:03:10.001Z</time></trkpt><trkpt lat="45.66781538455562" lon="8.660801488662702"><ele>255.99999999999997</ele><time>2026-04-18T13:03:12.001Z</time></trkpt><trkpt lat="45.66777976157541" lon="8.66094516837617"><ele>256.0</ele><time>2026-04-18T13:03:14.001Z</time></trkpt><trkpt lat="45.66773611386393" lon="8.661039505817714"><ele>256.0</ele><time>2026-04-18T13:03:15.001Z</time></trkpt><trkpt lat="45.667730287956346" lon="8.661131969374392"><ele>256.0</ele><time>2026-04-18T13:03:16.001Z</time></trkpt><trkpt lat="45.66768748006735" lon="8.661237036717178"><ele>255.99999999999997</ele><time>2026-04-18T13:03:18.001Z</time></trkpt><trkpt lat="45.66766511076198" lon="8.661381984030818"><ele>256.0</ele><time>2026-04-18T13:03:20.001Z</time></trkpt><trkpt lat="45.6676412593258" lon="8.661465724440117"><ele>255.83333333333331</ele><time>2026-04-18T13:03:21.001Z</time></trkpt><trkpt lat="45.66759873231074" lon="8.661534465027032"><ele>255.66666666666666</ele><time>2026-04-18T13:03:23.001Z</time></trkpt><trkpt lat="45.66758711134077" lon="8.661700758905885"><ele>255.5</ele><time>2026-04-18T13:03:25.001Z</time></trkpt><trkpt lat="45.66755750803886" lon="8.661819943079468"><ele>255.33333333333331</ele><time>2026-04-18T13:03:27.001Z</time></trkpt><trkpt lat="45.66753194568896" lon="8.661917713753942"><ele>255.16666666666666</ele><time>2026-04-18T13:03:30.001Z</time></trkpt><trkpt lat="45.66753785690269" lon="8.662018274385748"><ele>255.0</ele><time>2026-04-18T13:03:45.001Z</time></trkpt><trkpt lat="45.66752603788438" lon="8.662132846750572"><ele>255.0</ele><time>2026-04-18T13:03:52.001Z</time></trkpt><trkpt lat="45.667466004676314" lon="8.662215965785245"><ele>255.0</ele><time>2026-04-18T13:03:54.001Z</time></trkpt><trkpt lat="45.66743151865158" lon="8.662322786673597"><ele>255.0</ele><time>2026-04-18T13:03:57.001Z</time></trkpt><trkpt lat="45.66743152926313" lon="8.662415533552304"><ele>255.0</ele><time>2026-04-18T13:03:58.001Z</time></trkpt><trkpt lat="45.66740178455114" lon="8.662527929382893"><ele>255.0</ele><time>2026-04-18T13:04:00.001Z</time></trkpt><trkpt lat="45.66739905920538" lon="8.662638222124123"><ele>255.0</ele><time>2026-04-18T13:04:03.001Z</time></trkpt><trkpt lat="45.667373049936224" lon="8.662725363850884"><ele>255.16666666666666</ele><time>2026-04-18T13:04:05.001Z</time></trkpt><trkpt lat="45.66736348275379" lon="8.66281707362848"><ele>255.33333333333331</ele><time>2026-04-18T13:04:07.001Z</time></trkpt><trkpt lat="45.66732989336073" lon="8.66293554171105"><ele>255.5</ele><time>2026-04-18T13:04:10.001Z</time></trkpt><trkpt lat="45.667285695767134" lon="8.663008096236046"><ele>255.66666666666666</ele><time>2026-04-18T13:04:11.001Z</time></trkpt><trkpt lat="45.667297089387695" lon="8.663104643158606"><ele>255.83333333333331</ele><time>2026-04-18T13:04:14.001Z</time></trkpt><trkpt lat="45.667239479943674" lon="8.663241360199171"><ele>256.0</ele><time>2026-04-18T13:04:16Z</time></trkpt><trkpt lat="45.667225625939615" lon="8.663344376485972"><ele>255.99999999999997</ele><time>2026-04-18T13:04:17Z</time></trkpt><trkpt lat="45.667196594912184" lon="8.663429990039589"><ele>256.0</ele><time>2026-04-18T13:04:19Z</time></trkpt><trkpt lat="45.66711699202718" lon="8.663525415853474"><ele>256.0</ele><time>2026-04-18T13:04:21Z</time></trkpt><trkpt lat="45.66713308170966" lon="8.663618430301234"><ele>256.0</ele><time>2026-04-18T13:04:23Z</time></trkpt><trkpt lat="45.6671778759665" lon="8.66369443220989"><ele>255.99999999999997</ele><time>2026-04-18T13:04:44Z</time></trkpt><trkpt lat="45.66727887275665" lon="8.663754891484876"><ele>256.0</ele><time>2026-04-18T13:04:47Z</time></trkpt><trkpt lat="45.66736490689328" lon="8.663784016962488"><ele>254.99999999999997</ele><time>2026-04-18T13:04:48Z</time></trkpt><trkpt lat="45.667452610598374" lon="8.6638230948672"><ele>254.0</ele><time>2026-04-18T13:04:49Z</time></trkpt><trkpt lat="45.66753328335677" lon="8.663869793644325"><ele>253.0</ele><time>2026-04-18T13:04:50Z</time></trkpt><trkpt lat="45.66760950675056" lon="8.66391197517702"><ele>252.0</ele><time>2026-04-18T13:04:51Z</time></trkpt><trkpt lat="45.6677029217888" lon="8.663937540022738"><ele>250.99999999999997</ele><time>2026-04-18T13:04:53Z</time></trkpt><trkpt lat="45.66776816910232" lon="8.663948111727608"><ele>250.0</ele><time>2026-04-18T13:04:54Z</time></trkpt><trkpt lat="45.667822850987086" lon="8.663874164380463"><ele>250.0</ele><time>2026-04-18T13:04:56Z</time></trkpt><trkpt lat="45.66788510775979" lon="8.663786799423395"><ele>250.0</ele><time>2026-04-18T13:04:57Z</time></trkpt><trkpt lat="45.667920071177875" lon="8.663667074451038"><ele>250.0</ele><time>2026-04-18T13:04:58Z</time></trkpt><trkpt lat="45.667972814669206" lon="8.663540076004438"><ele>250.0</ele><time>2026-04-18T13:04:59Z</time></trkpt><trkpt lat="45.66804718225258" lon="8.663453815342708"><ele>250.0</ele><time>2026-04-18T13:05:00Z</time></trkpt><trkpt lat="45.66810999680558" lon="8.663371085110564"><ele>250.0</ele><time>2026-04-18T13:05:01Z</time></trkpt><trkpt lat="45.66815426936977" lon="8.66329127006507"><ele>250.0</ele><time>2026-04-18T13:05:02Z</time></trkpt><trkpt lat="45.66821274541205" lon="8.663169855668594"><ele>250.0</ele><time>2026-04-18T13:05:04Z</time></trkpt><trkpt lat="45.668300008571165" lon="8.662987896056078"><ele>250.0</ele><time>2026-04-18T13:05:06Z</time></trkpt><trkpt lat="45.668342019635524" lon="8.662876386923545"><ele>250.0</ele><time>2026-04-18T13:05:07Z</time></trkpt><trkpt lat="45.66837590107322" lon="8.662744593583463"><ele>250.8</ele><time>2026-04-18T13:05:08Z</time></trkpt><trkpt lat="45.66840542492897" lon="8.66263267093814"><ele>251.6</ele><time>2026-04-18T13:05:09Z</time></trkpt><trkpt lat="45.66846486653298" lon="8.662553165188008"><ele>252.39999999999998</ele><time>2026-04-18T13:05:10Z</time></trkpt><trkpt lat="45.66856411451599" lon="8.66240889903669"><ele>253.2</ele><time>2026-04-18T13:05:12Z</time></trkpt><trkpt lat="45.668640348057345" lon="8.662342808127057"><ele>254.0</ele><time>2026-04-18T13:05:13Z</time></trkpt><trkpt lat="45.66873039921575" lon="8.66228423324466"><ele>253.2</ele><time>2026-04-18T13:05:14Z</time></trkpt><trkpt lat="45.66880301546139" lon="8.662201623039742"><ele>252.39999999999998</ele><time>2026-04-18T13:05:15Z</time></trkpt><trkpt lat="45.66887357005657" lon="8.662080447143252"><ele>251.6</ele><time>2026-04-18T13:05:17Z</time></trkpt><trkpt lat="45.66895088859551" lon="8.66192119960893"><ele>250.8</ele><time>2026-04-18T13:05:18Z</time></trkpt><trkpt lat="45.66898533968201" lon="8.6617790114941"><ele>250.0</ele><time>2026-04-18T13:05:19Z</time></trkpt><trkpt lat="45.66901429467397" lon="8.661661835537753"><ele>250.0</ele><time>2026-04-18T13:05:20Z</time></trkpt><trkpt lat="45.66904409812886" lon="8.661532408223843"><ele>250.0</ele><time>2026-04-18T13:05:21Z</time></trkpt><trkpt lat="45.66906879063849" lon="8.661396634216876"><ele>250.0</ele><time>2026-04-18T13:05:22Z</time></trkpt><trkpt lat="45.6690975696879" lon="8.661234559721795"><ele>250.0</ele><time>2026-04-18T13:05:23Z</time></trkpt><trkpt lat="45.6691648966676" lon="8.661001288684687"><ele>251.25</ele><time>2026-04-18T13:05:24Z</time></trkpt><trkpt lat="45.66920129207037" lon="8.660816061971326"><ele>252.5</ele><time>2026-04-18T13:05:25Z</time></trkpt><trkpt lat="45.669259257488385" lon="8.660650876984228"><ele>253.75</ele><time>2026-04-18T13:05:26Z</time></trkpt><trkpt lat="45.6692829931971" lon="8.660519439348587"><ele>255.0</ele><time>2026-04-18T13:05:27Z</time></trkpt><trkpt lat="45.66931028265351" lon="8.660386326053528"><ele>255.2</ele><time>2026-04-18T13:05:28Z</time></trkpt><trkpt lat="45.66934571498833" lon="8.660258804612019"><ele>255.4</ele><time>2026-04-18T13:05:29Z</time></trkpt><trkpt lat="45.66936396486595" lon="8.660122939938184"><ele>255.60000000000002</ele><time>2026-04-18T13:05:30Z</time></trkpt><trkpt lat="45.66939127573944" lon="8.659953381708196"><ele>255.8</ele><time>2026-04-18T13:05:32Z</time></trkpt><trkpt lat="45.66942857025633" lon="8.659846341620964"><ele>256.0</ele><time>2026-04-18T13:05:33Z</time></trkpt><trkpt lat="45.669472314050694" lon="8.659707729729591"><ele>254.49999999999997</ele><time>2026-04-18T13:05:35.001Z</time></trkpt><trkpt lat="45.66949475267331" lon="8.659572750725543"><ele>253.0</ele><time>2026-04-18T13:05:36.001Z</time></trkpt><trkpt lat="45.66950001124481" lon="8.659454623140249"><ele>251.5</ele><time>2026-04-18T13:05:37.001Z</time></trkpt><trkpt lat="45.669517262004184" lon="8.659353561266405"><ele>250.0</ele><time>2026-04-18T13:05:38.001Z</time></trkpt><trkpt lat="45.66951927354842" lon="8.659254014695069"><ele>248.49999999999997</ele><time>2026-04-18T13:05:39.001Z</time></trkpt><trkpt lat="45.66955742630837" lon="8.659157117896038"><ele>247.0</ele><time>2026-04-18T13:05:40.001Z</time></trkpt><trkpt lat="45.66961141395476" lon="8.659008367050143"><ele>247.0</ele><time>2026-04-18T13:05:42.001Z</time></trkpt><trkpt lat="45.6696392367617" lon="8.658832518584324"><ele>247.0</ele><time>2026-04-18T13:05:44.001Z</time></trkpt><trkpt lat="45.669659059678565" lon="8.658726397217828"><ele>247.0</ele><time>2026-04-18T13:05:45.001Z</time></trkpt><trkpt lat="45.669696644429976" lon="8.658612894050945"><ele>247.0</ele><time>2026-04-18T13:05:46.001Z</time></trkpt><trkpt lat="45.66974339308746" lon="8.658465203271131"><ele>247.0</ele><time>2026-04-18T13:05:47.001Z</time></trkpt><trkpt lat="45.66977295967714" lon="8.658310543507337"><ele>247.5</ele><time>2026-04-18T13:05:48.001Z</time></trkpt><trkpt lat="45.66982056078448" lon="8.658141560934077"><ele>248.0</ele><time>2026-04-18T13:05:49.001Z</time></trkpt><trkpt lat="45.669869949988595" lon="8.657940310446993"><ele>248.5</ele><time>2026-04-18T13:05:50.001Z</time></trkpt><trkpt lat="45.66992858409417" lon="8.657752631450832"><ele>249.0</ele><time>2026-04-18T13:05:51.001Z</time></trkpt><trkpt lat="45.669977661682076" lon="8.657597294832136"><ele>249.39999999999998</ele><time>2026-04-18T13:05:52.001Z</time></trkpt><trkpt lat="45.670008679515796" lon="8.657472205086611"><ele>249.79999999999998</ele><time>2026-04-18T13:05:53.001Z</time></trkpt><trkpt lat="45.67003868371418" lon="8.657349664276191"><ele>250.20000000000002</ele><time>2026-04-18T13:05:54.001Z</time></trkpt><trkpt lat="45.67006262352842" lon="8.65722956037915"><ele>250.60000000000002</ele><time>2026-04-18T13:05:55.001Z</time></trkpt><trkpt lat="45.67008242069602" lon="8.657132205196787"><ele>251.0</ele><time>2026-04-18T13:05:56.001Z</time></trkpt><trkpt lat="45.67024558803483" lon="8.656951063880275"><ele>252.16666666666669</ele><time>2026-04-18T13:05:58.001Z</time></trkpt><trkpt lat="45.67023808086198" lon="8.656772509923858"><ele>253.33333333333334</ele><time>2026-04-18T13:06:00.001Z</time></trkpt><trkpt lat="45.6702337889227" lon="8.656676427156325"><ele>254.5</ele><time>2026-04-18T13:06:01.001Z</time></trkpt><trkpt lat="45.67022891219105" lon="8.656572650285693"><ele>255.66666666666669</ele><time>2026-04-18T13:06:02.001Z</time></trkpt><trkpt lat="45.670224897147186" lon="8.656480897948464"><ele>256.8333333333333</ele><time>2026-04-18T13:06:03.001Z</time></trkpt><trkpt lat="45.67021801590203" lon="8.656335872457872"><ele>258.0</ele><time>2026-04-18T13:06:05.001Z</time></trkpt><trkpt lat="45.67021375266153" lon="8.656241775486462"><ele>258.0</ele><time>2026-04-18T13:06:10.001Z</time></trkpt><trkpt lat="45.670223327783674" lon="8.656391944674603"><ele>258.0</ele><time>2026-04-18T13:06:38Z</time></trkpt><trkpt lat="45.67022070290142" lon="8.656489760182907"><ele>258.0</ele><time>2026-04-18T13:06:39Z</time></trkpt><trkpt lat="45.67022182192261" lon="8.656587723953084"><ele>258.0</ele><time>2026-04-18T13:06:40Z</time></trkpt><trkpt lat="45.67023549206577" lon="8.656706954902182"><ele>258.0</ele><time>2026-04-18T13:06:41Z</time></trkpt><trkpt lat="45.67024175477599" lon="8.65684425799418"><ele>258.0</ele><time>2026-04-18T13:06:42Z</time></trkpt><trkpt lat="45.670249485340605" lon="8.656982191629549"><ele>256.25</ele><time>2026-04-18T13:06:43Z</time></trkpt><trkpt lat="45.67025510773469" lon="8.65713352386969"><ele>254.5</ele><time>2026-04-18T13:06:44Z</time></trkpt><trkpt lat="45.67025897819066" lon="8.657290463038072"><ele>252.75</ele><time>2026-04-18T13:06:45Z</time></trkpt><trkpt lat="45.670259007198" lon="8.65746458552506"><ele>251.0</ele><time>2026-04-18T13:06:46Z</time></trkpt><trkpt lat="45.67026009432616" lon="8.657676881203917"><ele>250.33333333333334</ele><time>2026-04-18T13:06:47Z</time></trkpt><trkpt lat="45.67026765625678" lon="8.657887069306105"><ele>249.66666666666669</ele><time>2026-04-18T13:06:48Z</time></trkpt><trkpt lat="45.670268259942205" lon="8.658114057742523"><ele>249.0</ele><time>2026-04-18T13:06:49Z</time></trkpt><trkpt lat="45.67026465525799" lon="8.65835759039431"><ele>248.33333333333331</ele><time>2026-04-18T13:06:50Z</time></trkpt><trkpt lat="45.67026309834729" lon="8.658635786971942"><ele>247.66666666666666</ele><time>2026-04-18T13:06:51Z</time></trkpt><trkpt lat="45.670263277891415" lon="8.658897585335492"><ele>247.0</ele><time>2026-04-18T13:06:52Z</time></trkpt><trkpt lat="45.670256912807965" lon="8.659169724347226"><ele>245.0</ele><time>2026-04-18T13:06:53Z</time></trkpt><trkpt lat="45.67025199742523" lon="8.659454379549933"><ele>243.0</ele><time>2026-04-18T13:06:54Z</time></trkpt><trkpt lat="45.6702460724261" lon="8.659742708314491"><ele>241.0</ele><time>2026-04-18T13:06:55Z</time></trkpt><trkpt lat="45.670237169705686" lon="8.660028448108749"><ele>240.33333333333331</ele><time>2026-04-18T13:06:56Z</time></trkpt><trkpt lat="45.67022033352456" lon="8.660309160404227"><ele>239.66666666666669</ele><time>2026-04-18T13:06:57Z</time></trkpt><trkpt lat="45.67014969259947" lon="8.660566202922555"><ele>239.0</ele><time>2026-04-18T13:06:58Z</time></trkpt><trkpt lat="45.67010302750848" lon="8.660828224381294"><ele>239.0</ele><time>2026-04-18T13:06:59Z</time></trkpt><trkpt lat="45.670056370408446" lon="8.661081335165305"><ele>239.0</ele><time>2026-04-18T13:07:00Z</time></trkpt><trkpt lat="45.67001144196091" lon="8.66132506815924"><ele>239.0</ele><time>2026-04-18T13:07:01Z</time></trkpt><trkpt lat="45.669968558424614" lon="8.661562981228444"><ele>237.0</ele><time>2026-04-18T13:07:02Z</time></trkpt><trkpt lat="45.669937508408175" lon="8.661803496239449"><ele>235.0</ele><time>2026-04-18T13:07:03Z</time></trkpt><trkpt lat="45.669901241698355" lon="8.662025945724661"><ele>233.0</ele><time>2026-04-18T13:07:04Z</time></trkpt><trkpt lat="45.66987696716612" lon="8.662240512850081"><ele>230.33333333333334</ele><time>2026-04-18T13:07:05Z</time></trkpt><trkpt lat="45.66987126137205" lon="8.662443181375393"><ele>227.66666666666669</ele><time>2026-04-18T13:07:06Z</time></trkpt><trkpt lat="45.669897622236405" lon="8.662701858160396"><ele>225.0</ele><time>2026-04-18T13:07:07Z</time></trkpt><trkpt lat="45.669924464105605" lon="8.663036837693651"><ele>225.0</ele><time>2026-04-18T13:07:08Z</time></trkpt><trkpt lat="45.66997615546475" lon="8.663340031201033"><ele>225.0</ele><time>2026-04-18T13:07:09Z</time></trkpt><trkpt lat="45.67001712905644" lon="8.66356709527321"><ele>225.0</ele><time>2026-04-18T13:07:10Z</time></trkpt><trkpt lat="45.670058889627406" lon="8.663784493231518"><ele>224.66666666666669</ele><time>2026-04-18T13:07:11Z</time></trkpt><trkpt lat="45.67010462353397" lon="8.66398915562785"><ele>224.33333333333334</ele><time>2026-04-18T13:07:12Z</time></trkpt><trkpt lat="45.67016243385607" lon="8.664190194072392"><ele>224.0</ele><time>2026-04-18T13:07:13Z</time></trkpt><trkpt lat="45.67025158128411" lon="8.664386423806391"><ele>223.33333333333334</ele><time>2026-04-18T13:07:14Z</time></trkpt><trkpt lat="45.67034388647899" lon="8.664586071610547"><ele>222.66666666666669</ele><time>2026-04-18T13:07:15Z</time></trkpt><trkpt lat="45.67044684150396" lon="8.66478444989052"><ele>222.0</ele><time>2026-04-18T13:07:16Z</time></trkpt><trkpt lat="45.67056108965847" lon="8.664979615103285"><ele>222.0</ele><time>2026-04-18T13:07:17Z</time></trkpt><trkpt lat="45.67067593417508" lon="8.665175182412002"><ele>222.0</ele><time>2026-04-18T13:07:18Z</time></trkpt><trkpt lat="45.67078952561748" lon="8.6653771794417"><ele>222.0</ele><time>2026-04-18T13:07:19Z</time></trkpt><trkpt lat="45.67090497396919" lon="8.665580196437594"><ele>222.66666666666669</ele><time>2026-04-18T13:07:20Z</time></trkpt><trkpt lat="45.671020822574036" lon="8.665784860951764"><ele>223.33333333333334</ele><time>2026-04-18T13:07:21Z</time></trkpt><trkpt lat="45.67113722590705" lon="8.665985358326079"><ele>224.0</ele><time>2026-04-18T13:07:22Z</time></trkpt><trkpt lat="45.671253074714436" lon="8.66618063759805"><ele>222.0</ele><time>2026-04-18T13:07:23Z</time></trkpt><trkpt lat="45.671370980588186" lon="8.666380036142368"><ele>220.0</ele><time>2026-04-18T13:07:24Z</time></trkpt><trkpt lat="45.67148058284352" lon="8.66657466028054"><ele>218.0</ele><time>2026-04-18T13:07:25Z</time></trkpt><trkpt lat="45.671592525004534" lon="8.666758393776751"><ele>218.33333333333334</ele><time>2026-04-18T13:07:26Z</time></trkpt><trkpt lat="45.67169900989848" lon="8.666951152931903"><ele>218.66666666666669</ele><time>2026-04-18T13:07:27Z</time></trkpt><trkpt lat="45.67181397128272" lon="8.667142710490396"><ele>219.0</ele><time>2026-04-18T13:07:28Z</time></trkpt><trkpt lat="45.67192318874099" lon="8.667330310051227"><ele>219.0</ele><time>2026-04-18T13:07:29Z</time></trkpt><trkpt lat="45.67201899221501" lon="8.667530372859131"><ele>219.0</ele><time>2026-04-18T13:07:30Z</time></trkpt><trkpt lat="45.67213677275299" lon="8.66771644370005"><ele>219.0</ele><time>2026-04-18T13:07:31Z</time></trkpt><trkpt lat="45.6722466432759" lon="8.667958124532701"><ele>217.66666666666669</ele><time>2026-04-18T13:07:32Z</time></trkpt><trkpt lat="45.672360047226036" lon="8.668233519270636"><ele>216.33333333333334</ele><time>2026-04-18T13:07:33Z</time></trkpt><trkpt lat="45.67249472384446" lon="8.668489875984225"><ele>215.0</ele><time>2026-04-18T13:07:34Z</time></trkpt><trkpt lat="45.672654672261615" lon="8.668643961209721"><ele>214.66666666666669</ele><time>2026-04-18T13:07:36Z</time></trkpt><trkpt lat="45.67276496296592" lon="8.668824400075065"><ele>214.33333333333331</ele><time>2026-04-18T13:07:37Z</time></trkpt><trkpt lat="45.67287483812334" lon="8.669003852107332"><ele>214.0</ele><time>2026-04-18T13:07:38Z</time></trkpt><trkpt lat="45.67297871527704" lon="8.669182420721974"><ele>214.0</ele><time>2026-04-18T13:07:39Z</time></trkpt><trkpt lat="45.6730834050145" lon="8.669362501968088"><ele>214.0</ele><time>2026-04-18T13:07:40Z</time></trkpt><trkpt lat="45.67318352418461" lon="8.669536969936532"><ele>214.0</ele><time>2026-04-18T13:07:41Z</time></trkpt><trkpt lat="45.67328447194282" lon="8.669721568453369"><ele>213.66666666666666</ele><time>2026-04-18T13:07:42Z</time></trkpt><trkpt lat="45.67338332065866" lon="8.669897887088904"><ele>213.33333333333331</ele><time>2026-04-18T13:07:43Z</time></trkpt><trkpt lat="45.67348741915157" lon="8.67007416547175"><ele>213.0</ele><time>2026-04-18T13:07:44Z</time></trkpt><trkpt lat="45.67358931860805" lon="8.67025315622455"><ele>210.33333333333331</ele><time>2026-04-18T13:07:45Z</time></trkpt><trkpt lat="45.67368638546856" lon="8.670428249109762"><ele>207.66666666666666</ele><time>2026-04-18T13:07:46Z</time></trkpt><trkpt lat="45.67378613543423" lon="8.670588403486697"><ele>205.0</ele><time>2026-04-18T13:07:47Z</time></trkpt><trkpt lat="45.673873163278465" lon="8.670751698055835"><ele>205.0</ele><time>2026-04-18T13:07:48Z</time></trkpt><trkpt lat="45.67396112893485" lon="8.670905630584981"><ele>205.0</ele><time>2026-04-18T13:07:49Z</time></trkpt><trkpt lat="45.674045660898884" lon="8.67104896429653"><ele>205.0</ele><time>2026-04-18T13:07:50.001Z</time></trkpt><trkpt lat="45.67413137178629" lon="8.67118780581688"><ele>205.0</ele><time>2026-04-18T13:07:51.001Z</time></trkpt><trkpt lat="45.67421818800201" lon="8.671303858787256"><ele>204.0</ele><time>2026-04-18T13:07:52.001Z</time></trkpt><trkpt lat="45.67432113742331" lon="8.671402789432705"><ele>203.0</ele><time>2026-04-18T13:07:53.001Z</time></trkpt><trkpt lat="45.67444123042211" lon="8.671472218231653"><ele>202.0</ele><time>2026-04-18T13:07:54.001Z</time></trkpt><trkpt lat="45.674578191246866" lon="8.671473947388142"><ele>201.0</ele><time>2026-04-18T13:07:55.001Z</time></trkpt><trkpt lat="45.67473326239235" lon="8.671411396425729"><ele>198.66666666666669</ele><time>2026-04-18T13:07:56.001Z</time></trkpt><trkpt lat="45.67490315929832" lon="8.671315678395043"><ele>196.33333333333334</ele><time>2026-04-18T13:07:57.001Z</time></trkpt><trkpt lat="45.67508408460576" lon="8.671173828948165"><ele>194.0</ele><time>2026-04-18T13:07:58.001Z</time></trkpt><trkpt lat="45.67526027916108" lon="8.671078694646875"><ele>193.0</ele><time>2026-04-18T13:07:59.001Z</time></trkpt><trkpt lat="45.67542969999352" lon="8.67098611673312"><ele>192.0</ele><time>2026-04-18T13:08:00.001Z</time></trkpt><trkpt lat="45.675617218355434" lon="8.670884511451147"><ele>191.0</ele><time>2026-04-18T13:08:01.001Z</time></trkpt><trkpt lat="45.67581265075999" lon="8.670779635696855"><ele>191.0</ele><time>2026-04-18T13:08:02.001Z</time></trkpt><trkpt lat="45.67600084089478" lon="8.67067864641387"><ele>191.0</ele><time>2026-04-18T13:08:03.001Z</time></trkpt><trkpt lat="45.67618047608344" lon="8.670582104992045"><ele>191.0</ele><time>2026-04-18T13:08:04.001Z</time></trkpt><trkpt lat="45.67635549091853" lon="8.67048801357384"><ele>190.66666666666666</ele><time>2026-04-18T13:08:05.001Z</time></trkpt><trkpt lat="45.67651990825497" lon="8.670399619589494"><ele>190.33333333333334</ele><time>2026-04-18T13:08:06.001Z</time></trkpt><trkpt lat="45.67667241404993" lon="8.670317629454951"><ele>190.0</ele><time>2026-04-18T13:08:07.001Z</time></trkpt><trkpt lat="45.676815122744344" lon="8.670240970212593"><ele>192.33333333333334</ele><time>2026-04-18T13:08:08.001Z</time></trkpt><trkpt lat="45.676964776775655" lon="8.670160708758635"><ele>194.66666666666669</ele><time>2026-04-18T13:08:09.001Z</time></trkpt><trkpt lat="45.67710977620937" lon="8.67008294376316"><ele>197.0</ele><time>2026-04-18T13:08:10.001Z</time></trkpt><trkpt lat="45.677251612574416" lon="8.67000485205606"><ele>197.0</ele><time>2026-04-18T13:08:11.001Z</time></trkpt><trkpt lat="45.67738492199114" lon="8.669932609624363"><ele>197.0</ele><time>2026-04-18T13:08:12.001Z</time></trkpt><trkpt lat="45.67750389663976" lon="8.669868729574032"><ele>197.0</ele><time>2026-04-18T13:08:13.001Z</time></trkpt><trkpt lat="45.67762156491559" lon="8.66981720382295"><ele>197.0</ele><time>2026-04-18T13:08:14.001Z</time></trkpt><trkpt lat="45.67772997939724" lon="8.669795620397267"><ele>202.5</ele><time>2026-04-18T13:08:15.001Z</time></trkpt><trkpt lat="45.6778268697855" lon="8.669833031715651"><ele>208.0</ele><time>2026-04-18T13:08:16.001Z</time></trkpt><trkpt lat="45.677926780317584" lon="8.669908195520735"><ele>213.5</ele><time>2026-04-18T13:08:17.001Z</time></trkpt><trkpt lat="45.678017264724225" lon="8.670026606780722"><ele>219.0</ele><time>2026-04-18T13:08:18.001Z</time></trkpt><trkpt lat="45.678084238401574" lon="8.670190995682884"><ele>218.0</ele><time>2026-04-18T13:08:19.001Z</time></trkpt><trkpt lat="45.678114072419476" lon="8.670391131421622"><ele>217.0</ele><time>2026-04-18T13:08:20.001Z</time></trkpt><trkpt lat="45.678104138401594" lon="8.670598295841792"><ele>216.0</ele><time>2026-04-18T13:08:21.001Z</time></trkpt><trkpt lat="45.6780617462441" lon="8.670796476526476"><ele>215.0</ele><time>2026-04-18T13:08:22.001Z</time></trkpt><trkpt lat="45.67799657666989" lon="8.670997246196308"><ele>216.25</ele><time>2026-04-18T13:08:23.001Z</time></trkpt><trkpt lat="45.67791300183358" lon="8.671175246024056"><ele>217.5</ele><time>2026-04-18T13:08:24.001Z</time></trkpt><trkpt lat="45.67784172174911" lon="8.671357496170046"><ele>218.75</ele><time>2026-04-18T13:08:25.001Z</time></trkpt><trkpt lat="45.67778511799394" lon="8.671544330741849"><ele>220.0</ele><time>2026-04-18T13:08:26.001Z</time></trkpt><trkpt lat="45.67775149221517" lon="8.671733654041502"><ele>219.75</ele><time>2026-04-18T13:08:27Z</time></trkpt><trkpt lat="45.67775089847446" lon="8.671928845592388"><ele>219.5</ele><time>2026-04-18T13:08:28Z</time></trkpt><trkpt lat="45.67775218459247" lon="8.672124354330585"><ele>219.25</ele><time>2026-04-18T13:08:29Z</time></trkpt><trkpt lat="45.67775815444477" lon="8.672333553112711"><ele>219.0</ele><time>2026-04-18T13:08:30Z</time></trkpt><trkpt lat="45.677783771411356" lon="8.672530384691326"><ele>219.0</ele><time>2026-04-18T13:08:31Z</time></trkpt><trkpt lat="45.67782334030839" lon="8.672712597978869"><ele>219.0</ele><time>2026-04-18T13:08:32Z</time></trkpt><trkpt lat="45.67786754975492" lon="8.672879221378162"><ele>219.0</ele><time>2026-04-18T13:08:33Z</time></trkpt><trkpt lat="45.67793038182246" lon="8.673023906248394"><ele>219.0</ele><time>2026-04-18T13:08:34Z</time></trkpt><trkpt lat="45.67798196642946" lon="8.673171928567037"><ele>218.2</ele><time>2026-04-18T13:08:35Z</time></trkpt><trkpt lat="45.67801372821272" lon="8.673327757025104"><ele>217.39999999999998</ele><time>2026-04-18T13:08:36Z</time></trkpt><trkpt lat="45.67804225673596" lon="8.673467363323459"><ele>216.6</ele><time>2026-04-18T13:08:37Z</time></trkpt><trkpt lat="45.67807064800318" lon="8.673606430393502"><ele>215.8</ele><time>2026-04-18T13:08:38Z</time></trkpt><trkpt lat="45.67807388321223" lon="8.67374538351024"><ele>215.0</ele><time>2026-04-18T13:08:39Z</time></trkpt><trkpt lat="45.67808804850058" lon="8.673883770382888"><ele>213.25</ele><time>2026-04-18T13:08:40Z</time></trkpt><trkpt lat="45.67809541429027" lon="8.674037798007754"><ele>211.5</ele><time>2026-04-18T13:08:41Z</time></trkpt><trkpt lat="45.67812317348114" lon="8.674222207204128"><ele>209.75</ele><time>2026-04-18T13:08:42Z</time></trkpt><trkpt lat="45.67817122021097" lon="8.674394753561305"><ele>208.0</ele><time>2026-04-18T13:08:43Z</time></trkpt><trkpt lat="45.67822878613712" lon="8.674585595077987"><ele>205.66666666666666</ele><time>2026-04-18T13:08:44Z</time></trkpt><trkpt lat="45.6782650242683" lon="8.674796775700601"><ele>203.33333333333331</ele><time>2026-04-18T13:08:45Z</time></trkpt><trkpt lat="45.67832054255253" lon="8.675009167179489"><ele>201.0</ele><time>2026-04-18T13:08:46Z</time></trkpt><trkpt lat="45.67837273145217" lon="8.675221894176397"><ele>199.66666666666669</ele><time>2026-04-18T13:08:47Z</time></trkpt><trkpt lat="45.678428727164786" lon="8.67543236036309"><ele>198.33333333333334</ele><time>2026-04-18T13:08:48Z</time></trkpt><trkpt lat="45.678484326732764" lon="8.67566501276552"><ele>197.0</ele><time>2026-04-18T13:08:49Z</time></trkpt><trkpt lat="45.67853146363498" lon="8.675910796892175"><ele>196.0</ele><time>2026-04-18T13:08:50Z</time></trkpt><trkpt lat="45.678582004315274" lon="8.676140654261648"><ele>195.0</ele><time>2026-04-18T13:08:51Z</time></trkpt><trkpt lat="45.67860598691149" lon="8.676376204247378"><ele>194.0</ele><time>2026-04-18T13:08:52Z</time></trkpt><trkpt lat="45.67863073743637" lon="8.676615143164133"><ele>199.66666666666669</ele><time>2026-04-18T13:08:53Z</time></trkpt><trkpt lat="45.67865120939725" lon="8.676845663116115"><ele>205.33333333333331</ele><time>2026-04-18T13:08:54Z</time></trkpt><trkpt lat="45.678665371239674" lon="8.677079219975532"><ele>211.0</ele><time>2026-04-18T13:08:55Z</time></trkpt><trkpt lat="45.67866716553031" lon="8.677306273030558"><ele>211.0</ele><time>2026-04-18T13:08:56Z</time></trkpt><trkpt lat="45.678684809956096" lon="8.677530079909378"><ele>211.0</ele><time>2026-04-18T13:08:57Z</time></trkpt><trkpt lat="45.678695447762074" lon="8.677759356244179"><ele>211.0</ele><time>2026-04-18T13:08:58Z</time></trkpt><trkpt lat="45.67869362257471" lon="8.67799846187282"><ele>208.66666666666666</ele><time>2026-04-18T13:08:59Z</time></trkpt><trkpt lat="45.678692766954214" lon="8.678232021417626"><ele>206.33333333333331</ele><time>2026-04-18T13:09:00Z</time></trkpt><trkpt lat="45.67868272130116" lon="8.678469436677938"><ele>204.0</ele><time>2026-04-18T13:09:01Z</time></trkpt><trkpt lat="45.678654890252666" lon="8.678703074354782"><ele>201.66666666666669</ele><time>2026-04-18T13:09:02Z</time></trkpt><trkpt lat="45.67861916073403" lon="8.678937744281432"><ele>199.33333333333334</ele><time>2026-04-18T13:09:03Z</time></trkpt><trkpt lat="45.67858487036791" lon="8.67916041050677"><ele>197.0</ele><time>2026-04-18T13:09:04Z</time></trkpt><trkpt lat="45.67851485009036" lon="8.679601629005452"><ele>195.66666666666669</ele><time>2026-04-18T13:09:06Z</time></trkpt><trkpt lat="45.67848210180154" lon="8.67982006520689"><ele>194.33333333333331</ele><time>2026-04-18T13:09:07Z</time></trkpt><trkpt lat="45.67843324430899" lon="8.680044535533355"><ele>193.0</ele><time>2026-04-18T13:09:08Z</time></trkpt><trkpt lat="45.67835882764013" lon="8.680270800896821"><ele>193.0</ele><time>2026-04-18T13:09:09Z</time></trkpt><trkpt lat="45.67829778745048" lon="8.680526247495342"><ele>193.0</ele><time>2026-04-18T13:09:10Z</time></trkpt><trkpt lat="45.67822376522111" lon="8.680757732354992"><ele>193.0</ele><time>2026-04-18T13:09:11Z</time></trkpt><trkpt lat="45.67815564521566" lon="8.680978306242242"><ele>192.75</ele><time>2026-04-18T13:09:12Z</time></trkpt><trkpt lat="45.67808984932999" lon="8.681181452478883"><ele>192.5</ele><time>2026-04-18T13:09:13Z</time></trkpt><trkpt lat="45.67803040760509" lon="8.681370399845909"><ele>192.25</ele><time>2026-04-18T13:09:14Z</time></trkpt><trkpt lat="45.67797123996118" lon="8.681552415571556"><ele>192.0</ele><time>2026-04-18T13:09:15Z</time></trkpt><trkpt lat="45.67792466899998" lon="8.68174372113743"><ele>192.25</ele><time>2026-04-18T13:09:16Z</time></trkpt><trkpt lat="45.6778977477361" lon="8.681942240048263"><ele>192.5</ele><time>2026-04-18T13:09:17Z</time></trkpt><trkpt lat="45.677890774173335" lon="8.682152012489318"><ele>192.75</ele><time>2026-04-18T13:09:18Z</time></trkpt><trkpt lat="45.6778636947725" lon="8.682350664764314"><ele>193.0</ele><time>2026-04-18T13:09:19Z</time></trkpt><trkpt lat="45.67783416820145" lon="8.682527790334474"><ele>193.0</ele><time>2026-04-18T13:09:20Z</time></trkpt><trkpt lat="45.67778607656161" lon="8.682681278694504"><ele>193.0</ele><time>2026-04-18T13:09:21Z</time></trkpt><trkpt lat="45.67773897056206" lon="8.68283481963148"><ele>193.0</ele><time>2026-04-18T13:09:22Z</time></trkpt><trkpt lat="45.677680449912515" lon="8.682990276665036"><ele>193.0</ele><time>2026-04-18T13:09:23Z</time></trkpt><trkpt lat="45.67762424549087" lon="8.683125033995449"><ele>193.0</ele><time>2026-04-18T13:09:24Z</time></trkpt><trkpt lat="45.677568035407226" lon="8.683253802944382"><ele>193.0</ele><time>2026-04-18T13:09:25Z</time></trkpt><trkpt lat="45.67750553777627" lon="8.68340827068762"><ele>193.0</ele><time>2026-04-18T13:09:26Z</time></trkpt><trkpt lat="45.67744732544408" lon="8.683541729168871"><ele>193.0</ele><time>2026-04-18T13:09:27Z</time></trkpt><trkpt lat="45.67739413924959" lon="8.683625281631649"><ele>193.0</ele><time>2026-04-18T13:09:28Z</time></trkpt><trkpt lat="45.6773511088485" lon="8.683714838261883"><ele>194.33333333333331</ele><time>2026-04-18T13:09:30Z</time></trkpt><trkpt lat="45.67725354999655" lon="8.683773536927658"><ele>195.66666666666669</ele><time>2026-04-18T13:09:31Z</time></trkpt><trkpt lat="45.677195082062795" lon="8.683983211776399"><ele>197.0</ele><time>2026-04-18T13:09:32Z</time></trkpt><trkpt lat="45.67737273696286" lon="8.683705875825787"><ele>197.0</ele><time>2026-04-18T13:09:33Z</time></trkpt></trkseg></trk></gpx>